<?xml version="1.0" encoding="UTF-8" standalone="no" ?>
<gpx xmlns="http://www.topografix.com/GPX/1/1" xmlns:xsi="http://www.w3.org/2001/XMLSchema-instance" xsi:schemaLocation="http://www.topografix.com/GPX/1/1 http://www.topografix.com/GPX/1/1/gpx.xsd" version="1.1" creator="VisuGPX - https://www.visugpx.com">
  <metadata>
    <name>Vescous Mont Brune</name>
    <desc><![CDATA[Vescous Pierrefeu Baisse Mont Brune Baisse Colettes Toudon]]></desc>
  </metadata>
  <trk>
    <name><![CDATA[Vescous Mont Brune_1]]></name>
    <trkseg>
      <trkpt lat="43.86509" lon="7.10592">
        <ele>363.768555</ele>
        <time>2016-01-23T08:07:02Z</time>
      </trkpt>
      <trkpt lat="43.86509" lon="7.10593">
        <ele>363.401367</ele>
        <time>2016-01-23T08:07:03Z</time>
      </trkpt>
      <trkpt lat="43.86502" lon="7.10584">
        <ele>362.927124</ele>
        <time>2016-01-23T08:09:53Z</time>
      </trkpt>
      <trkpt lat="43.86508" lon="7.10595">
        <ele>361.7</ele>
        <time>2016-01-23T08:11:48Z</time>
      </trkpt>
      <trkpt lat="43.86516" lon="7.10592">
        <ele>360.6</ele>
        <time>2016-01-23T08:12:28Z</time>
      </trkpt>
      <trkpt lat="43.86507" lon="7.1059">
        <ele>360.1</ele>
        <time>2016-01-23T08:13:31Z</time>
      </trkpt>
      <trkpt lat="43.86502" lon="7.10602">
        <ele>360.9</ele>
        <time>2016-01-23T08:13:44Z</time>
      </trkpt>
      <trkpt lat="43.86493" lon="7.10611">
        <ele>360.8</ele>
        <time>2016-01-23T08:13:49Z</time>
      </trkpt>
      <trkpt lat="43.86483" lon="7.10617">
        <ele>361.5</ele>
        <time>2016-01-23T08:13:53Z</time>
      </trkpt>
      <trkpt lat="43.86473" lon="7.10621">
        <ele>360.8</ele>
        <time>2016-01-23T08:13:57Z</time>
      </trkpt>
      <trkpt lat="43.86462" lon="7.10624">
        <ele>360.6</ele>
        <time>2016-01-23T08:14:01Z</time>
      </trkpt>
      <trkpt lat="43.86451" lon="7.10629">
        <ele>360.6</ele>
        <time>2016-01-23T08:14:05Z</time>
      </trkpt>
      <trkpt lat="43.86442" lon="7.10635">
        <ele>361.3</ele>
        <time>2016-01-23T08:14:09Z</time>
      </trkpt>
      <trkpt lat="43.86432" lon="7.10639">
        <ele>362</ele>
        <time>2016-01-23T08:14:14Z</time>
      </trkpt>
      <trkpt lat="43.86422" lon="7.10643">
        <ele>362.6</ele>
        <time>2016-01-23T08:14:19Z</time>
      </trkpt>
      <trkpt lat="43.86411" lon="7.10647">
        <ele>363.5</ele>
        <time>2016-01-23T08:14:24Z</time>
      </trkpt>
      <trkpt lat="43.86402" lon="7.10651">
        <ele>364.4</ele>
        <time>2016-01-23T08:14:29Z</time>
      </trkpt>
      <trkpt lat="43.86393" lon="7.10655">
        <ele>366</ele>
        <time>2016-01-23T08:14:34Z</time>
      </trkpt>
      <trkpt lat="43.86384" lon="7.10663">
        <ele>367.3</ele>
        <time>2016-01-23T08:14:40Z</time>
      </trkpt>
      <trkpt lat="43.86376" lon="7.10669">
        <ele>368.2</ele>
        <time>2016-01-23T08:14:45Z</time>
      </trkpt>
      <trkpt lat="43.86368" lon="7.10679">
        <ele>369.2</ele>
        <time>2016-01-23T08:14:51Z</time>
      </trkpt>
      <trkpt lat="43.8636" lon="7.10686">
        <ele>369.3</ele>
        <time>2016-01-23T08:14:56Z</time>
      </trkpt>
      <trkpt lat="43.86353" lon="7.10694">
        <ele>369.7</ele>
        <time>2016-01-23T08:15:01Z</time>
      </trkpt>
      <trkpt lat="43.86346" lon="7.10703">
        <ele>370.9</ele>
        <time>2016-01-23T08:15:10Z</time>
      </trkpt>
      <trkpt lat="43.86356" lon="7.10702">
        <ele>371.7</ele>
        <time>2016-01-23T08:15:31Z</time>
      </trkpt>
      <trkpt lat="43.86364" lon="7.10694">
        <ele>372.3</ele>
        <time>2016-01-23T08:15:36Z</time>
      </trkpt>
      <trkpt lat="43.86372" lon="7.10686">
        <ele>372.6</ele>
        <time>2016-01-23T08:15:41Z</time>
      </trkpt>
      <trkpt lat="43.86381" lon="7.10681">
        <ele>373.7</ele>
        <time>2016-01-23T08:15:46Z</time>
      </trkpt>
      <trkpt lat="43.86391" lon="7.10679">
        <ele>373.7</ele>
        <time>2016-01-23T08:15:51Z</time>
      </trkpt>
      <trkpt lat="43.864" lon="7.10681">
        <ele>375</ele>
        <time>2016-01-23T08:15:56Z</time>
      </trkpt>
      <trkpt lat="43.86409" lon="7.10683">
        <ele>376.6</ele>
        <time>2016-01-23T08:16:01Z</time>
      </trkpt>
      <trkpt lat="43.86418" lon="7.10689">
        <ele>376.9</ele>
        <time>2016-01-23T08:16:06Z</time>
      </trkpt>
      <trkpt lat="43.86426" lon="7.10695">
        <ele>377.8</ele>
        <time>2016-01-23T08:16:11Z</time>
      </trkpt>
      <trkpt lat="43.86436" lon="7.10701">
        <ele>378.9</ele>
        <time>2016-01-23T08:16:16Z</time>
      </trkpt>
      <trkpt lat="43.86444" lon="7.10707">
        <ele>380</ele>
        <time>2016-01-23T08:16:21Z</time>
      </trkpt>
      <trkpt lat="43.86453" lon="7.10714">
        <ele>380.3</ele>
        <time>2016-01-23T08:16:26Z</time>
      </trkpt>
      <trkpt lat="43.86462" lon="7.10721">
        <ele>381.4</ele>
        <time>2016-01-23T08:16:31Z</time>
      </trkpt>
      <trkpt lat="43.8647" lon="7.10728">
        <ele>382.4</ele>
        <time>2016-01-23T08:16:36Z</time>
      </trkpt>
      <trkpt lat="43.8648" lon="7.10734">
        <ele>382.6</ele>
        <time>2016-01-23T08:16:41Z</time>
      </trkpt>
      <trkpt lat="43.8649" lon="7.10738">
        <ele>384.8</ele>
        <time>2016-01-23T08:16:46Z</time>
      </trkpt>
      <trkpt lat="43.865" lon="7.10742">
        <ele>385.3</ele>
        <time>2016-01-23T08:16:51Z</time>
      </trkpt>
      <trkpt lat="43.8651" lon="7.10744">
        <ele>385.6</ele>
        <time>2016-01-23T08:16:56Z</time>
      </trkpt>
      <trkpt lat="43.8652" lon="7.10746">
        <ele>386.8</ele>
        <time>2016-01-23T08:17:01Z</time>
      </trkpt>
      <trkpt lat="43.8653" lon="7.10746">
        <ele>387.8</ele>
        <time>2016-01-23T08:17:06Z</time>
      </trkpt>
      <trkpt lat="43.8654" lon="7.10745">
        <ele>388.1</ele>
        <time>2016-01-23T08:17:12Z</time>
      </trkpt>
      <trkpt lat="43.8655" lon="7.10743">
        <ele>389.4</ele>
        <time>2016-01-23T08:17:17Z</time>
      </trkpt>
      <trkpt lat="43.86559" lon="7.10741">
        <ele>390.3</ele>
        <time>2016-01-23T08:17:22Z</time>
      </trkpt>
      <trkpt lat="43.86568" lon="7.10738">
        <ele>390.8</ele>
        <time>2016-01-23T08:17:27Z</time>
      </trkpt>
      <trkpt lat="43.86578" lon="7.10736">
        <ele>392.3</ele>
        <time>2016-01-23T08:17:32Z</time>
      </trkpt>
      <trkpt lat="43.86588" lon="7.10737">
        <ele>393.2</ele>
        <time>2016-01-23T08:17:37Z</time>
      </trkpt>
      <trkpt lat="43.86598" lon="7.10736">
        <ele>394.3</ele>
        <time>2016-01-23T08:17:42Z</time>
      </trkpt>
      <trkpt lat="43.86607" lon="7.10735">
        <ele>395</ele>
        <time>2016-01-23T08:17:47Z</time>
      </trkpt>
      <trkpt lat="43.86617" lon="7.10731">
        <ele>396</ele>
        <time>2016-01-23T08:17:52Z</time>
      </trkpt>
      <trkpt lat="43.86626" lon="7.10725">
        <ele>397.3</ele>
        <time>2016-01-23T08:17:57Z</time>
      </trkpt>
      <trkpt lat="43.86635" lon="7.10718">
        <ele>397.8</ele>
        <time>2016-01-23T08:18:02Z</time>
      </trkpt>
      <trkpt lat="43.86644" lon="7.10711">
        <ele>397.9</ele>
        <time>2016-01-23T08:18:07Z</time>
      </trkpt>
      <trkpt lat="43.86654" lon="7.10705">
        <ele>398.6</ele>
        <time>2016-01-23T08:18:12Z</time>
      </trkpt>
      <trkpt lat="43.86663" lon="7.10701">
        <ele>400</ele>
        <time>2016-01-23T08:18:17Z</time>
      </trkpt>
      <trkpt lat="43.86673" lon="7.10699">
        <ele>400.7</ele>
        <time>2016-01-23T08:18:22Z</time>
      </trkpt>
      <trkpt lat="43.86683" lon="7.10699">
        <ele>401.8</ele>
        <time>2016-01-23T08:18:27Z</time>
      </trkpt>
      <trkpt lat="43.86693" lon="7.10702">
        <ele>402.4</ele>
        <time>2016-01-23T08:18:32Z</time>
      </trkpt>
      <trkpt lat="43.86702" lon="7.10707">
        <ele>403.5</ele>
        <time>2016-01-23T08:18:37Z</time>
      </trkpt>
      <trkpt lat="43.8671" lon="7.10714">
        <ele>404.5</ele>
        <time>2016-01-23T08:18:42Z</time>
      </trkpt>
      <trkpt lat="43.86715" lon="7.10725">
        <ele>405.1</ele>
        <time>2016-01-23T08:18:47Z</time>
      </trkpt>
      <trkpt lat="43.86718" lon="7.10738">
        <ele>406</ele>
        <time>2016-01-23T08:18:52Z</time>
      </trkpt>
      <trkpt lat="43.86723" lon="7.10749">
        <ele>406.9</ele>
        <time>2016-01-23T08:18:57Z</time>
      </trkpt>
      <trkpt lat="43.86732" lon="7.10753">
        <ele>408.2</ele>
        <time>2016-01-23T08:19:03Z</time>
      </trkpt>
      <trkpt lat="43.8674" lon="7.10761">
        <ele>410.2</ele>
        <time>2016-01-23T08:19:12Z</time>
      </trkpt>
      <trkpt lat="43.86734" lon="7.10747">
        <ele>411.3</ele>
        <time>2016-01-23T08:19:25Z</time>
      </trkpt>
      <trkpt lat="43.86732" lon="7.10735">
        <ele>411</ele>
        <time>2016-01-23T08:19:28Z</time>
      </trkpt>
      <trkpt lat="43.86732" lon="7.1072">
        <ele>411.8</ele>
        <time>2016-01-23T08:19:33Z</time>
      </trkpt>
      <trkpt lat="43.8673" lon="7.10706">
        <ele>413.2</ele>
        <time>2016-01-23T08:19:39Z</time>
      </trkpt>
      <trkpt lat="43.86724" lon="7.10693">
        <ele>413.8</ele>
        <time>2016-01-23T08:19:45Z</time>
      </trkpt>
      <trkpt lat="43.86716" lon="7.10683">
        <ele>414.5</ele>
        <time>2016-01-23T08:19:50Z</time>
      </trkpt>
      <trkpt lat="43.86709" lon="7.10675">
        <ele>414.5</ele>
        <time>2016-01-23T08:19:54Z</time>
      </trkpt>
      <trkpt lat="43.867" lon="7.10671">
        <ele>415.3</ele>
        <time>2016-01-23T08:19:58Z</time>
      </trkpt>
      <trkpt lat="43.8669" lon="7.1067">
        <ele>415.6</ele>
        <time>2016-01-23T08:20:02Z</time>
      </trkpt>
      <trkpt lat="43.8668" lon="7.10671">
        <ele>415.3</ele>
        <time>2016-01-23T08:20:06Z</time>
      </trkpt>
      <trkpt lat="43.86669" lon="7.10673">
        <ele>416.2</ele>
        <time>2016-01-23T08:20:10Z</time>
      </trkpt>
      <trkpt lat="43.86658" lon="7.10675">
        <ele>416.2</ele>
        <time>2016-01-23T08:20:14Z</time>
      </trkpt>
      <trkpt lat="43.86648" lon="7.1068">
        <ele>415.8</ele>
        <time>2016-01-23T08:20:18Z</time>
      </trkpt>
      <trkpt lat="43.86639" lon="7.10683">
        <ele>415.7</ele>
        <time>2016-01-23T08:20:22Z</time>
      </trkpt>
      <trkpt lat="43.86643" lon="7.10672">
        <ele>417.6</ele>
        <time>2016-01-23T08:20:30Z</time>
      </trkpt>
      <trkpt lat="43.86653" lon="7.10667">
        <ele>418.7</ele>
        <time>2016-01-23T08:20:36Z</time>
      </trkpt>
      <trkpt lat="43.86662" lon="7.10661">
        <ele>420.3</ele>
        <time>2016-01-23T08:20:42Z</time>
      </trkpt>
      <trkpt lat="43.86671" lon="7.10655">
        <ele>422.4</ele>
        <time>2016-01-23T08:20:48Z</time>
      </trkpt>
      <trkpt lat="43.8668" lon="7.10649">
        <ele>423.8</ele>
        <time>2016-01-23T08:20:54Z</time>
      </trkpt>
      <trkpt lat="43.86686" lon="7.10639">
        <ele>424.9</ele>
        <time>2016-01-23T08:21:08Z</time>
      </trkpt>
      <trkpt lat="43.86685" lon="7.10622">
        <ele>424.1</ele>
        <time>2016-01-23T08:21:12Z</time>
      </trkpt>
      <trkpt lat="43.86682" lon="7.1061">
        <ele>423.9</ele>
        <time>2016-01-23T08:21:14Z</time>
      </trkpt>
      <trkpt lat="43.86678" lon="7.10596">
        <ele>423.2</ele>
        <time>2016-01-23T08:21:16Z</time>
      </trkpt>
      <trkpt lat="43.86672" lon="7.10584">
        <ele>422.5</ele>
        <time>2016-01-23T08:21:18Z</time>
      </trkpt>
      <trkpt lat="43.86667" lon="7.1057">
        <ele>421.3</ele>
        <time>2016-01-23T08:21:21Z</time>
      </trkpt>
      <trkpt lat="43.86662" lon="7.10558">
        <ele>421.1</ele>
        <time>2016-01-23T08:21:25Z</time>
      </trkpt>
      <trkpt lat="43.86663" lon="7.10545">
        <ele>420.9</ele>
        <time>2016-01-23T08:21:33Z</time>
      </trkpt>
      <trkpt lat="43.86672" lon="7.10543">
        <ele>422.9</ele>
        <time>2016-01-23T08:22:48Z</time>
      </trkpt>
      <trkpt lat="43.86683" lon="7.1054">
        <ele>422.5</ele>
        <time>2016-01-23T08:22:54Z</time>
      </trkpt>
      <trkpt lat="43.86692" lon="7.10536">
        <ele>421.8</ele>
        <time>2016-01-23T08:22:58Z</time>
      </trkpt>
      <trkpt lat="43.86683" lon="7.10541">
        <ele>421.6</ele>
        <time>2016-01-23T08:23:12Z</time>
      </trkpt>
      <trkpt lat="43.86674" lon="7.10546">
        <ele>422</ele>
        <time>2016-01-23T08:23:17Z</time>
      </trkpt>
      <trkpt lat="43.86673" lon="7.10558">
        <ele>423.3</ele>
        <time>2016-01-23T08:23:35Z</time>
      </trkpt>
      <trkpt lat="43.86674" lon="7.10571">
        <ele>423.1</ele>
        <time>2016-01-23T08:23:46Z</time>
      </trkpt>
      <trkpt lat="43.86669" lon="7.10582">
        <ele>420.9</ele>
        <time>2016-01-23T08:24:21Z</time>
      </trkpt>
      <trkpt lat="43.86674" lon="7.10594">
        <ele>420.2</ele>
        <time>2016-01-23T08:24:32Z</time>
      </trkpt>
      <trkpt lat="43.86679" lon="7.10605">
        <ele>419.8</ele>
        <time>2016-01-23T08:24:36Z</time>
      </trkpt>
      <trkpt lat="43.86682" lon="7.10617">
        <ele>421.1</ele>
        <time>2016-01-23T08:24:40Z</time>
      </trkpt>
      <trkpt lat="43.86684" lon="7.1063">
        <ele>423.2</ele>
        <time>2016-01-23T08:24:44Z</time>
      </trkpt>
      <trkpt lat="43.86689" lon="7.10641">
        <ele>423.6</ele>
        <time>2016-01-23T08:24:50Z</time>
      </trkpt>
      <trkpt lat="43.86698" lon="7.10638">
        <ele>426.7</ele>
        <time>2016-01-23T08:24:56Z</time>
      </trkpt>
      <trkpt lat="43.86708" lon="7.10637">
        <ele>428.5</ele>
        <time>2016-01-23T08:25:03Z</time>
      </trkpt>
      <trkpt lat="43.86713" lon="7.10627">
        <ele>432.9</ele>
        <time>2016-01-23T08:25:40Z</time>
      </trkpt>
      <trkpt lat="43.86716" lon="7.10614">
        <ele>435.5</ele>
        <time>2016-01-23T08:25:52Z</time>
      </trkpt>
      <trkpt lat="43.86717" lon="7.10601">
        <ele>438</ele>
        <time>2016-01-23T08:26:04Z</time>
      </trkpt>
      <trkpt lat="43.86719" lon="7.10589">
        <ele>440.5</ele>
        <time>2016-01-23T08:26:15Z</time>
      </trkpt>
      <trkpt lat="43.86727" lon="7.10583">
        <ele>444.7</ele>
        <time>2016-01-23T08:26:34Z</time>
      </trkpt>
      <trkpt lat="43.86735" lon="7.10576">
        <ele>445.8</ele>
        <time>2016-01-23T08:26:53Z</time>
      </trkpt>
      <trkpt lat="43.86743" lon="7.1057">
        <ele>448.1</ele>
        <time>2016-01-23T08:27:04Z</time>
      </trkpt>
      <trkpt lat="43.86751" lon="7.10562">
        <ele>449.9</ele>
        <time>2016-01-23T08:27:16Z</time>
      </trkpt>
      <trkpt lat="43.86758" lon="7.10555">
        <ele>451.1</ele>
        <time>2016-01-23T08:28:04Z</time>
      </trkpt>
      <trkpt lat="43.86766" lon="7.10547">
        <ele>451.9</ele>
        <time>2016-01-23T08:28:13Z</time>
      </trkpt>
      <trkpt lat="43.86775" lon="7.10542">
        <ele>453.2</ele>
        <time>2016-01-23T08:28:22Z</time>
      </trkpt>
      <trkpt lat="43.86783" lon="7.10537">
        <ele>453.3</ele>
        <time>2016-01-23T08:28:32Z</time>
      </trkpt>
      <trkpt lat="43.86793" lon="7.10533">
        <ele>453.7</ele>
        <time>2016-01-23T08:28:37Z</time>
      </trkpt>
      <trkpt lat="43.86803" lon="7.1053">
        <ele>453.6</ele>
        <time>2016-01-23T08:28:42Z</time>
      </trkpt>
      <trkpt lat="43.86812" lon="7.10526">
        <ele>454.4</ele>
        <time>2016-01-23T08:28:47Z</time>
      </trkpt>
      <trkpt lat="43.8682" lon="7.1052">
        <ele>455.7</ele>
        <time>2016-01-23T08:28:52Z</time>
      </trkpt>
      <trkpt lat="43.8683" lon="7.10515">
        <ele>457.6</ele>
        <time>2016-01-23T08:28:57Z</time>
      </trkpt>
      <trkpt lat="43.86839" lon="7.10512">
        <ele>458.4</ele>
        <time>2016-01-23T08:29:02Z</time>
      </trkpt>
      <trkpt lat="43.86849" lon="7.10507">
        <ele>459.9</ele>
        <time>2016-01-23T08:29:08Z</time>
      </trkpt>
      <trkpt lat="43.86859" lon="7.10504">
        <ele>461.7</ele>
        <time>2016-01-23T08:29:15Z</time>
      </trkpt>
      <trkpt lat="43.86867" lon="7.10497">
        <ele>464.6</ele>
        <time>2016-01-23T08:29:28Z</time>
      </trkpt>
      <trkpt lat="43.86875" lon="7.10489">
        <ele>465.3</ele>
        <time>2016-01-23T08:29:41Z</time>
      </trkpt>
      <trkpt lat="43.86882" lon="7.10479">
        <ele>465.7</ele>
        <time>2016-01-23T08:29:51Z</time>
      </trkpt>
      <trkpt lat="43.8689" lon="7.10471">
        <ele>467.3</ele>
        <time>2016-01-23T08:29:58Z</time>
      </trkpt>
      <trkpt lat="43.86897" lon="7.10463">
        <ele>468.6</ele>
        <time>2016-01-23T08:30:04Z</time>
      </trkpt>
      <trkpt lat="43.86906" lon="7.10458">
        <ele>470.3</ele>
        <time>2016-01-23T08:30:10Z</time>
      </trkpt>
      <trkpt lat="43.86916" lon="7.10456">
        <ele>472.8</ele>
        <time>2016-01-23T08:30:18Z</time>
      </trkpt>
      <trkpt lat="43.86926" lon="7.10456">
        <ele>475.7</ele>
        <time>2016-01-23T08:30:26Z</time>
      </trkpt>
      <trkpt lat="43.86935" lon="7.10457">
        <ele>478.1</ele>
        <time>2016-01-23T08:30:34Z</time>
      </trkpt>
      <trkpt lat="43.86943" lon="7.10463">
        <ele>482.2</ele>
        <time>2016-01-23T08:30:48Z</time>
      </trkpt>
      <trkpt lat="43.86952" lon="7.10462">
        <ele>484.3</ele>
        <time>2016-01-23T08:31:02Z</time>
      </trkpt>
      <trkpt lat="43.86961" lon="7.10457">
        <ele>486.4</ele>
        <time>2016-01-23T08:31:11Z</time>
      </trkpt>
      <trkpt lat="43.86968" lon="7.10448">
        <ele>486.7</ele>
        <time>2016-01-23T08:31:19Z</time>
      </trkpt>
      <trkpt lat="43.86976" lon="7.1044">
        <ele>487.2</ele>
        <time>2016-01-23T08:31:27Z</time>
      </trkpt>
      <trkpt lat="43.86984" lon="7.10432">
        <ele>489</ele>
        <time>2016-01-23T08:31:36Z</time>
      </trkpt>
      <trkpt lat="43.86991" lon="7.10423">
        <ele>490.2</ele>
        <time>2016-01-23T08:31:45Z</time>
      </trkpt>
      <trkpt lat="43.86997" lon="7.10414">
        <ele>491.6</ele>
        <time>2016-01-23T08:31:54Z</time>
      </trkpt>
      <trkpt lat="43.87003" lon="7.10403">
        <ele>492.4</ele>
        <time>2016-01-23T08:32:03Z</time>
      </trkpt>
      <trkpt lat="43.87008" lon="7.10391">
        <ele>494</ele>
        <time>2016-01-23T08:32:12Z</time>
      </trkpt>
      <trkpt lat="43.87013" lon="7.1038">
        <ele>495.2</ele>
        <time>2016-01-23T08:32:21Z</time>
      </trkpt>
      <trkpt lat="43.87015" lon="7.10367">
        <ele>497.3</ele>
        <time>2016-01-23T08:32:29Z</time>
      </trkpt>
      <trkpt lat="43.87015" lon="7.10354">
        <ele>497.4</ele>
        <time>2016-01-23T08:32:36Z</time>
      </trkpt>
      <trkpt lat="43.87014" lon="7.10339">
        <ele>498.7</ele>
        <time>2016-01-23T08:32:42Z</time>
      </trkpt>
      <trkpt lat="43.87012" lon="7.10326">
        <ele>500.4</ele>
        <time>2016-01-23T08:33:24Z</time>
      </trkpt>
      <trkpt lat="43.87021" lon="7.10327">
        <ele>500.4</ele>
        <time>2016-01-23T08:33:54Z</time>
      </trkpt>
      <trkpt lat="43.87023" lon="7.10342">
        <ele>502.2</ele>
        <time>2016-01-23T08:34:01Z</time>
      </trkpt>
      <trkpt lat="43.87025" lon="7.10354">
        <ele>502.9</ele>
        <time>2016-01-23T08:34:07Z</time>
      </trkpt>
      <trkpt lat="43.87029" lon="7.10366">
        <ele>503.4</ele>
        <time>2016-01-23T08:34:13Z</time>
      </trkpt>
      <trkpt lat="43.87037" lon="7.10373">
        <ele>504.1</ele>
        <time>2016-01-23T08:34:20Z</time>
      </trkpt>
      <trkpt lat="43.87047" lon="7.1037">
        <ele>505.4</ele>
        <time>2016-01-23T08:34:27Z</time>
      </trkpt>
      <trkpt lat="43.87056" lon="7.10364">
        <ele>506.6</ele>
        <time>2016-01-23T08:34:33Z</time>
      </trkpt>
      <trkpt lat="43.87065" lon="7.10359">
        <ele>507.4</ele>
        <time>2016-01-23T08:34:39Z</time>
      </trkpt>
      <trkpt lat="43.87074" lon="7.10355">
        <ele>508.5</ele>
        <time>2016-01-23T08:34:45Z</time>
      </trkpt>
      <trkpt lat="43.87083" lon="7.10351">
        <ele>509.9</ele>
        <time>2016-01-23T08:34:52Z</time>
      </trkpt>
      <trkpt lat="43.87093" lon="7.10348">
        <ele>511.3</ele>
        <time>2016-01-23T08:34:59Z</time>
      </trkpt>
      <trkpt lat="43.87102" lon="7.10345">
        <ele>512.3</ele>
        <time>2016-01-23T08:35:05Z</time>
      </trkpt>
      <trkpt lat="43.87112" lon="7.10344">
        <ele>513</ele>
        <time>2016-01-23T08:35:11Z</time>
      </trkpt>
      <trkpt lat="43.87121" lon="7.10343">
        <ele>515</ele>
        <time>2016-01-23T08:35:17Z</time>
      </trkpt>
      <trkpt lat="43.87131" lon="7.10342">
        <ele>516.7</ele>
        <time>2016-01-23T08:35:23Z</time>
      </trkpt>
      <trkpt lat="43.87141" lon="7.1034">
        <ele>517.3</ele>
        <time>2016-01-23T08:35:29Z</time>
      </trkpt>
      <trkpt lat="43.8715" lon="7.10338">
        <ele>518.9</ele>
        <time>2016-01-23T08:35:35Z</time>
      </trkpt>
      <trkpt lat="43.8716" lon="7.10335">
        <ele>519.4</ele>
        <time>2016-01-23T08:35:41Z</time>
      </trkpt>
      <trkpt lat="43.8717" lon="7.10333">
        <ele>521.5</ele>
        <time>2016-01-23T08:35:47Z</time>
      </trkpt>
      <trkpt lat="43.8718" lon="7.10332">
        <ele>522</ele>
        <time>2016-01-23T08:35:53Z</time>
      </trkpt>
      <trkpt lat="43.87189" lon="7.10334">
        <ele>524.3</ele>
        <time>2016-01-23T08:35:59Z</time>
      </trkpt>
      <trkpt lat="43.87199" lon="7.1034">
        <ele>525.2</ele>
        <time>2016-01-23T08:36:05Z</time>
      </trkpt>
      <trkpt lat="43.87209" lon="7.10345">
        <ele>526.1</ele>
        <time>2016-01-23T08:36:10Z</time>
      </trkpt>
      <trkpt lat="43.87218" lon="7.1035">
        <ele>527</ele>
        <time>2016-01-23T08:36:15Z</time>
      </trkpt>
      <trkpt lat="43.87229" lon="7.10353">
        <ele>527.6</ele>
        <time>2016-01-23T08:36:20Z</time>
      </trkpt>
      <trkpt lat="43.87239" lon="7.10358">
        <ele>526.8</ele>
        <time>2016-01-23T08:36:25Z</time>
      </trkpt>
      <trkpt lat="43.87247" lon="7.10365">
        <ele>528.1</ele>
        <time>2016-01-23T08:36:30Z</time>
      </trkpt>
      <trkpt lat="43.87255" lon="7.10374">
        <ele>530</ele>
        <time>2016-01-23T08:36:35Z</time>
      </trkpt>
      <trkpt lat="43.87263" lon="7.10384">
        <ele>531.2</ele>
        <time>2016-01-23T08:36:40Z</time>
      </trkpt>
      <trkpt lat="43.8727" lon="7.10395">
        <ele>533.4</ele>
        <time>2016-01-23T08:36:45Z</time>
      </trkpt>
      <trkpt lat="43.87277" lon="7.10405">
        <ele>534.5</ele>
        <time>2016-01-23T08:36:50Z</time>
      </trkpt>
      <trkpt lat="43.87286" lon="7.10414">
        <ele>536.1</ele>
        <time>2016-01-23T08:36:55Z</time>
      </trkpt>
      <trkpt lat="43.87294" lon="7.10422">
        <ele>536.4</ele>
        <time>2016-01-23T08:37:00Z</time>
      </trkpt>
      <trkpt lat="43.87305" lon="7.10422">
        <ele>536.3</ele>
        <time>2016-01-23T08:37:06Z</time>
      </trkpt>
      <trkpt lat="43.87315" lon="7.10418">
        <ele>536.5</ele>
        <time>2016-01-23T08:37:12Z</time>
      </trkpt>
      <trkpt lat="43.87326" lon="7.10417">
        <ele>536.7</ele>
        <time>2016-01-23T08:37:17Z</time>
      </trkpt>
      <trkpt lat="43.87336" lon="7.10417">
        <ele>535.9</ele>
        <time>2016-01-23T08:37:20Z</time>
      </trkpt>
      <trkpt lat="43.87348" lon="7.10419">
        <ele>536.1</ele>
        <time>2016-01-23T08:37:23Z</time>
      </trkpt>
      <trkpt lat="43.87358" lon="7.1042">
        <ele>535.9</ele>
        <time>2016-01-23T08:37:25Z</time>
      </trkpt>
      <trkpt lat="43.87367" lon="7.1042">
        <ele>535.5</ele>
        <time>2016-01-23T08:37:27Z</time>
      </trkpt>
      <trkpt lat="43.87377" lon="7.10418">
        <ele>534.9</ele>
        <time>2016-01-23T08:37:29Z</time>
      </trkpt>
      <trkpt lat="43.87387" lon="7.10416">
        <ele>534.4</ele>
        <time>2016-01-23T08:37:31Z</time>
      </trkpt>
      <trkpt lat="43.87396" lon="7.10413">
        <ele>534</ele>
        <time>2016-01-23T08:37:33Z</time>
      </trkpt>
      <trkpt lat="43.87409" lon="7.10407">
        <ele>532.8</ele>
        <time>2016-01-23T08:37:36Z</time>
      </trkpt>
      <trkpt lat="43.87418" lon="7.10403">
        <ele>531.8</ele>
        <time>2016-01-23T08:37:38Z</time>
      </trkpt>
      <trkpt lat="43.87428" lon="7.10397">
        <ele>531.1</ele>
        <time>2016-01-23T08:37:40Z</time>
      </trkpt>
      <trkpt lat="43.87437" lon="7.10391">
        <ele>530.6</ele>
        <time>2016-01-23T08:37:42Z</time>
      </trkpt>
      <trkpt lat="43.87445" lon="7.10385">
        <ele>529.7</ele>
        <time>2016-01-23T08:37:44Z</time>
      </trkpt>
      <trkpt lat="43.87453" lon="7.10378">
        <ele>529.3</ele>
        <time>2016-01-23T08:37:46Z</time>
      </trkpt>
      <trkpt lat="43.87463" lon="7.1037">
        <ele>529.1</ele>
        <time>2016-01-23T08:37:49Z</time>
      </trkpt>
      <trkpt lat="43.87473" lon="7.10361">
        <ele>530</ele>
        <time>2016-01-23T08:37:52Z</time>
      </trkpt>
      <trkpt lat="43.87481" lon="7.10354">
        <ele>529.6</ele>
        <time>2016-01-23T08:37:55Z</time>
      </trkpt>
      <trkpt lat="43.87489" lon="7.10347">
        <ele>530.1</ele>
        <time>2016-01-23T08:37:58Z</time>
      </trkpt>
      <trkpt lat="43.875" lon="7.10339">
        <ele>530.4</ele>
        <time>2016-01-23T08:38:02Z</time>
      </trkpt>
      <trkpt lat="43.87508" lon="7.10334">
        <ele>530.7</ele>
        <time>2016-01-23T08:38:05Z</time>
      </trkpt>
      <trkpt lat="43.87517" lon="7.10328">
        <ele>530.4</ele>
        <time>2016-01-23T08:38:08Z</time>
      </trkpt>
      <trkpt lat="43.87525" lon="7.1032">
        <ele>531.7</ele>
        <time>2016-01-23T08:38:11Z</time>
      </trkpt>
      <trkpt lat="43.87534" lon="7.10313">
        <ele>532.4</ele>
        <time>2016-01-23T08:38:14Z</time>
      </trkpt>
      <trkpt lat="43.87542" lon="7.10306">
        <ele>532.7</ele>
        <time>2016-01-23T08:38:17Z</time>
      </trkpt>
      <trkpt lat="43.8755" lon="7.10299">
        <ele>533.1</ele>
        <time>2016-01-23T08:38:20Z</time>
      </trkpt>
      <trkpt lat="43.87558" lon="7.10293">
        <ele>533.2</ele>
        <time>2016-01-23T08:38:23Z</time>
      </trkpt>
      <trkpt lat="43.87567" lon="7.10288">
        <ele>533.3</ele>
        <time>2016-01-23T08:38:26Z</time>
      </trkpt>
      <trkpt lat="43.87575" lon="7.10283">
        <ele>533.6</ele>
        <time>2016-01-23T08:38:29Z</time>
      </trkpt>
      <trkpt lat="43.87586" lon="7.10276">
        <ele>534.8</ele>
        <time>2016-01-23T08:38:33Z</time>
      </trkpt>
      <trkpt lat="43.87596" lon="7.10269">
        <ele>535.3</ele>
        <time>2016-01-23T08:38:37Z</time>
      </trkpt>
      <trkpt lat="43.87606" lon="7.10262">
        <ele>535.7</ele>
        <time>2016-01-23T08:38:41Z</time>
      </trkpt>
      <trkpt lat="43.87616" lon="7.10255">
        <ele>536.3</ele>
        <time>2016-01-23T08:38:45Z</time>
      </trkpt>
      <trkpt lat="43.87624" lon="7.1025">
        <ele>536.2</ele>
        <time>2016-01-23T08:38:48Z</time>
      </trkpt>
      <trkpt lat="43.87634" lon="7.10246">
        <ele>536.8</ele>
        <time>2016-01-23T08:38:51Z</time>
      </trkpt>
      <trkpt lat="43.87644" lon="7.10242">
        <ele>537</ele>
        <time>2016-01-23T08:38:54Z</time>
      </trkpt>
      <trkpt lat="43.87654" lon="7.1024">
        <ele>537.3</ele>
        <time>2016-01-23T08:38:57Z</time>
      </trkpt>
      <trkpt lat="43.87663" lon="7.10236">
        <ele>537.6</ele>
        <time>2016-01-23T08:39:00Z</time>
      </trkpt>
      <trkpt lat="43.87672" lon="7.10232">
        <ele>538.1</ele>
        <time>2016-01-23T08:39:03Z</time>
      </trkpt>
      <trkpt lat="43.87683" lon="7.10227">
        <ele>538.6</ele>
        <time>2016-01-23T08:39:07Z</time>
      </trkpt>
      <trkpt lat="43.87694" lon="7.10222">
        <ele>539.3</ele>
        <time>2016-01-23T08:39:11Z</time>
      </trkpt>
      <trkpt lat="43.87705" lon="7.10219">
        <ele>539.6</ele>
        <time>2016-01-23T08:39:15Z</time>
      </trkpt>
      <trkpt lat="43.87717" lon="7.10217">
        <ele>540.6</ele>
        <time>2016-01-23T08:39:19Z</time>
      </trkpt>
      <trkpt lat="43.87728" lon="7.10212">
        <ele>540.9</ele>
        <time>2016-01-23T08:39:23Z</time>
      </trkpt>
      <trkpt lat="43.87739" lon="7.1021">
        <ele>541.2</ele>
        <time>2016-01-23T08:39:27Z</time>
      </trkpt>
      <trkpt lat="43.87749" lon="7.10211">
        <ele>541.6</ele>
        <time>2016-01-23T08:39:31Z</time>
      </trkpt>
      <trkpt lat="43.8776" lon="7.10212">
        <ele>542.5</ele>
        <time>2016-01-23T08:39:36Z</time>
      </trkpt>
      <trkpt lat="43.87771" lon="7.10212">
        <ele>542.8</ele>
        <time>2016-01-23T08:39:41Z</time>
      </trkpt>
      <trkpt lat="43.87782" lon="7.10211">
        <ele>544.3</ele>
        <time>2016-01-23T08:39:46Z</time>
      </trkpt>
      <trkpt lat="43.87793" lon="7.10211">
        <ele>544.9</ele>
        <time>2016-01-23T08:39:52Z</time>
      </trkpt>
      <trkpt lat="43.87803" lon="7.10212">
        <ele>545.7</ele>
        <time>2016-01-23T08:39:57Z</time>
      </trkpt>
      <trkpt lat="43.87814" lon="7.10212">
        <ele>546.9</ele>
        <time>2016-01-23T08:40:02Z</time>
      </trkpt>
      <trkpt lat="43.87823" lon="7.10208">
        <ele>547.9</ele>
        <time>2016-01-23T08:40:07Z</time>
      </trkpt>
      <trkpt lat="43.87832" lon="7.10204">
        <ele>548.9</ele>
        <time>2016-01-23T08:40:28Z</time>
      </trkpt>
      <trkpt lat="43.87841" lon="7.10203">
        <ele>548.2</ele>
        <time>2016-01-23T08:40:35Z</time>
      </trkpt>
      <trkpt lat="43.87849" lon="7.10194">
        <ele>550.1</ele>
        <time>2016-01-23T08:40:42Z</time>
      </trkpt>
      <trkpt lat="43.87857" lon="7.10187">
        <ele>550.7</ele>
        <time>2016-01-23T08:40:48Z</time>
      </trkpt>
      <trkpt lat="43.87866" lon="7.10191">
        <ele>551.5</ele>
        <time>2016-01-23T08:40:54Z</time>
      </trkpt>
      <trkpt lat="43.87871" lon="7.10203">
        <ele>553.7</ele>
        <time>2016-01-23T08:41:00Z</time>
      </trkpt>
      <trkpt lat="43.87876" lon="7.10215">
        <ele>555</ele>
        <time>2016-01-23T08:41:07Z</time>
      </trkpt>
      <trkpt lat="43.87884" lon="7.10221">
        <ele>556.8</ele>
        <time>2016-01-23T08:41:14Z</time>
      </trkpt>
      <trkpt lat="43.87893" lon="7.10226">
        <ele>557.7</ele>
        <time>2016-01-23T08:41:21Z</time>
      </trkpt>
      <trkpt lat="43.87902" lon="7.10229">
        <ele>559.4</ele>
        <time>2016-01-23T08:41:28Z</time>
      </trkpt>
      <trkpt lat="43.87911" lon="7.10234">
        <ele>561.1</ele>
        <time>2016-01-23T08:41:35Z</time>
      </trkpt>
      <trkpt lat="43.8792" lon="7.10238">
        <ele>562.3</ele>
        <time>2016-01-23T08:41:42Z</time>
      </trkpt>
      <trkpt lat="43.87928" lon="7.10243">
        <ele>563.8</ele>
        <time>2016-01-23T08:41:51Z</time>
      </trkpt>
      <trkpt lat="43.87937" lon="7.10247">
        <ele>564.6</ele>
        <time>2016-01-23T08:42:00Z</time>
      </trkpt>
      <trkpt lat="43.87946" lon="7.10251">
        <ele>565.9</ele>
        <time>2016-01-23T08:42:08Z</time>
      </trkpt>
      <trkpt lat="43.87956" lon="7.10255">
        <ele>567.5</ele>
        <time>2016-01-23T08:42:15Z</time>
      </trkpt>
      <trkpt lat="43.87966" lon="7.10258">
        <ele>568.2</ele>
        <time>2016-01-23T08:42:21Z</time>
      </trkpt>
      <trkpt lat="43.87976" lon="7.10258">
        <ele>568.7</ele>
        <time>2016-01-23T08:42:27Z</time>
      </trkpt>
      <trkpt lat="43.87984" lon="7.10255">
        <ele>570.2</ele>
        <time>2016-01-23T08:42:33Z</time>
      </trkpt>
      <trkpt lat="43.87994" lon="7.10248">
        <ele>570.3</ele>
        <time>2016-01-23T08:42:39Z</time>
      </trkpt>
      <trkpt lat="43.88002" lon="7.10241">
        <ele>570.9</ele>
        <time>2016-01-23T08:42:45Z</time>
      </trkpt>
      <trkpt lat="43.88011" lon="7.10235">
        <ele>571.8</ele>
        <time>2016-01-23T08:42:52Z</time>
      </trkpt>
      <trkpt lat="43.88021" lon="7.1023">
        <ele>572.2</ele>
        <time>2016-01-23T08:42:59Z</time>
      </trkpt>
      <trkpt lat="43.88031" lon="7.10226">
        <ele>574.6</ele>
        <time>2016-01-23T08:43:06Z</time>
      </trkpt>
      <trkpt lat="43.8804" lon="7.10222">
        <ele>576.7</ele>
        <time>2016-01-23T08:43:13Z</time>
      </trkpt>
      <trkpt lat="43.8805" lon="7.10217">
        <ele>577.9</ele>
        <time>2016-01-23T08:43:20Z</time>
      </trkpt>
      <trkpt lat="43.8806" lon="7.10214">
        <ele>579.6</ele>
        <time>2016-01-23T08:43:27Z</time>
      </trkpt>
      <trkpt lat="43.8807" lon="7.10211">
        <ele>581.3</ele>
        <time>2016-01-23T08:43:34Z</time>
      </trkpt>
      <trkpt lat="43.88079" lon="7.10207">
        <ele>583.1</ele>
        <time>2016-01-23T08:43:41Z</time>
      </trkpt>
      <trkpt lat="43.88088" lon="7.10204">
        <ele>584.9</ele>
        <time>2016-01-23T08:43:47Z</time>
      </trkpt>
      <trkpt lat="43.88097" lon="7.102">
        <ele>586.3</ele>
        <time>2016-01-23T08:43:53Z</time>
      </trkpt>
      <trkpt lat="43.88106" lon="7.10195">
        <ele>587.2</ele>
        <time>2016-01-23T08:43:59Z</time>
      </trkpt>
      <trkpt lat="43.88115" lon="7.1019">
        <ele>589</ele>
        <time>2016-01-23T08:44:05Z</time>
      </trkpt>
      <trkpt lat="43.88125" lon="7.10189">
        <ele>590</ele>
        <time>2016-01-23T08:44:11Z</time>
      </trkpt>
      <trkpt lat="43.88135" lon="7.10192">
        <ele>591.2</ele>
        <time>2016-01-23T08:44:17Z</time>
      </trkpt>
      <trkpt lat="43.88145" lon="7.10193">
        <ele>592.7</ele>
        <time>2016-01-23T08:44:23Z</time>
      </trkpt>
      <trkpt lat="43.88154" lon="7.10191">
        <ele>594.2</ele>
        <time>2016-01-23T08:44:29Z</time>
      </trkpt>
      <trkpt lat="43.88164" lon="7.10188">
        <ele>594.6</ele>
        <time>2016-01-23T08:44:35Z</time>
      </trkpt>
      <trkpt lat="43.88173" lon="7.10185">
        <ele>596.6</ele>
        <time>2016-01-23T08:44:41Z</time>
      </trkpt>
      <trkpt lat="43.88182" lon="7.10178">
        <ele>597.5</ele>
        <time>2016-01-23T08:44:47Z</time>
      </trkpt>
      <trkpt lat="43.8819" lon="7.10169">
        <ele>598.4</ele>
        <time>2016-01-23T08:44:53Z</time>
      </trkpt>
      <trkpt lat="43.88197" lon="7.10161">
        <ele>600.4</ele>
        <time>2016-01-23T08:44:58Z</time>
      </trkpt>
      <trkpt lat="43.88203" lon="7.10151">
        <ele>600.6</ele>
        <time>2016-01-23T08:45:03Z</time>
      </trkpt>
      <trkpt lat="43.88207" lon="7.10139">
        <ele>601.9</ele>
        <time>2016-01-23T08:45:09Z</time>
      </trkpt>
      <trkpt lat="43.88211" lon="7.10127">
        <ele>603.3</ele>
        <time>2016-01-23T08:45:15Z</time>
      </trkpt>
      <trkpt lat="43.88213" lon="7.10115">
        <ele>604.4</ele>
        <time>2016-01-23T08:45:21Z</time>
      </trkpt>
      <trkpt lat="43.88216" lon="7.10103">
        <ele>606.1</ele>
        <time>2016-01-23T08:45:28Z</time>
      </trkpt>
      <trkpt lat="43.88218" lon="7.1009">
        <ele>608.5</ele>
        <time>2016-01-23T08:45:35Z</time>
      </trkpt>
      <trkpt lat="43.8822" lon="7.10077">
        <ele>609.3</ele>
        <time>2016-01-23T08:45:42Z</time>
      </trkpt>
      <trkpt lat="43.88222" lon="7.10065">
        <ele>611.1</ele>
        <time>2016-01-23T08:45:48Z</time>
      </trkpt>
      <trkpt lat="43.88225" lon="7.10052">
        <ele>612.8</ele>
        <time>2016-01-23T08:45:55Z</time>
      </trkpt>
      <trkpt lat="43.88232" lon="7.10041">
        <ele>613.4</ele>
        <time>2016-01-23T08:46:02Z</time>
      </trkpt>
      <trkpt lat="43.88237" lon="7.10029">
        <ele>614.2</ele>
        <time>2016-01-23T08:46:09Z</time>
      </trkpt>
      <trkpt lat="43.88239" lon="7.10016">
        <ele>615.1</ele>
        <time>2016-01-23T08:46:18Z</time>
      </trkpt>
      <trkpt lat="43.88246" lon="7.10007">
        <ele>614.5</ele>
        <time>2016-01-23T08:46:25Z</time>
      </trkpt>
      <trkpt lat="43.88238" lon="7.10014">
        <ele>614.9</ele>
        <time>2016-01-23T08:46:47Z</time>
      </trkpt>
      <trkpt lat="43.88231" lon="7.10022">
        <ele>614.9</ele>
        <time>2016-01-23T08:46:53Z</time>
      </trkpt>
      <trkpt lat="43.88225" lon="7.10033">
        <ele>616.3</ele>
        <time>2016-01-23T08:46:59Z</time>
      </trkpt>
      <trkpt lat="43.88218" lon="7.10042">
        <ele>616.5</ele>
        <time>2016-01-23T08:47:05Z</time>
      </trkpt>
      <trkpt lat="43.88209" lon="7.1005">
        <ele>618.2</ele>
        <time>2016-01-23T08:47:12Z</time>
      </trkpt>
      <trkpt lat="43.88201" lon="7.10057">
        <ele>619.5</ele>
        <time>2016-01-23T08:47:19Z</time>
      </trkpt>
      <trkpt lat="43.88191" lon="7.10063">
        <ele>620.6</ele>
        <time>2016-01-23T08:47:26Z</time>
      </trkpt>
      <trkpt lat="43.88182" lon="7.10071">
        <ele>621.7</ele>
        <time>2016-01-23T08:47:33Z</time>
      </trkpt>
      <trkpt lat="43.88174" lon="7.10078">
        <ele>623.3</ele>
        <time>2016-01-23T08:47:40Z</time>
      </trkpt>
      <trkpt lat="43.88167" lon="7.10088">
        <ele>625.7</ele>
        <time>2016-01-23T08:47:47Z</time>
      </trkpt>
      <trkpt lat="43.88161" lon="7.10098">
        <ele>626.8</ele>
        <time>2016-01-23T08:47:53Z</time>
      </trkpt>
      <trkpt lat="43.88153" lon="7.10106">
        <ele>628.3</ele>
        <time>2016-01-23T08:47:59Z</time>
      </trkpt>
      <trkpt lat="43.88144" lon="7.10109">
        <ele>629.4</ele>
        <time>2016-01-23T08:48:05Z</time>
      </trkpt>
      <trkpt lat="43.88135" lon="7.1011">
        <ele>631</ele>
        <time>2016-01-23T08:48:11Z</time>
      </trkpt>
      <trkpt lat="43.88126" lon="7.1011">
        <ele>632.2</ele>
        <time>2016-01-23T08:48:17Z</time>
      </trkpt>
      <trkpt lat="43.88116" lon="7.10112">
        <ele>633.5</ele>
        <time>2016-01-23T08:48:23Z</time>
      </trkpt>
      <trkpt lat="43.88122" lon="7.10101">
        <ele>635.8</ele>
        <time>2016-01-23T08:48:39Z</time>
      </trkpt>
      <trkpt lat="43.88132" lon="7.101">
        <ele>637.5</ele>
        <time>2016-01-23T08:48:46Z</time>
      </trkpt>
      <trkpt lat="43.8814" lon="7.10093">
        <ele>639.1</ele>
        <time>2016-01-23T08:48:53Z</time>
      </trkpt>
      <trkpt lat="43.88144" lon="7.10082">
        <ele>640.8</ele>
        <time>2016-01-23T08:49:00Z</time>
      </trkpt>
      <trkpt lat="43.88148" lon="7.10069">
        <ele>642.5</ele>
        <time>2016-01-23T08:49:07Z</time>
      </trkpt>
      <trkpt lat="43.8815" lon="7.10056">
        <ele>643.6</ele>
        <time>2016-01-23T08:49:14Z</time>
      </trkpt>
      <trkpt lat="43.88151" lon="7.10043">
        <ele>645.2</ele>
        <time>2016-01-23T08:49:21Z</time>
      </trkpt>
      <trkpt lat="43.88152" lon="7.1003">
        <ele>647.4</ele>
        <time>2016-01-23T08:49:28Z</time>
      </trkpt>
      <trkpt lat="43.88154" lon="7.10017">
        <ele>648.4</ele>
        <time>2016-01-23T08:49:34Z</time>
      </trkpt>
      <trkpt lat="43.88158" lon="7.10005">
        <ele>650.4</ele>
        <time>2016-01-23T08:49:40Z</time>
      </trkpt>
      <trkpt lat="43.88163" lon="7.09994">
        <ele>652.5</ele>
        <time>2016-01-23T08:49:46Z</time>
      </trkpt>
      <trkpt lat="43.88169" lon="7.09982">
        <ele>652.1</ele>
        <time>2016-01-23T08:49:53Z</time>
      </trkpt>
      <trkpt lat="43.88175" lon="7.09973">
        <ele>652.8</ele>
        <time>2016-01-23T08:50:00Z</time>
      </trkpt>
      <trkpt lat="43.88183" lon="7.09964">
        <ele>654.2</ele>
        <time>2016-01-23T08:50:07Z</time>
      </trkpt>
      <trkpt lat="43.88191" lon="7.09957">
        <ele>655.4</ele>
        <time>2016-01-23T08:50:13Z</time>
      </trkpt>
      <trkpt lat="43.88199" lon="7.09949">
        <ele>656.8</ele>
        <time>2016-01-23T08:50:19Z</time>
      </trkpt>
      <trkpt lat="43.88207" lon="7.09942">
        <ele>657.5</ele>
        <time>2016-01-23T08:50:25Z</time>
      </trkpt>
      <trkpt lat="43.88215" lon="7.09935">
        <ele>658.6</ele>
        <time>2016-01-23T08:50:31Z</time>
      </trkpt>
      <trkpt lat="43.88206" lon="7.09931">
        <ele>660</ele>
        <time>2016-01-23T08:50:41Z</time>
      </trkpt>
      <trkpt lat="43.88198" lon="7.09938">
        <ele>661.6</ele>
        <time>2016-01-23T08:50:47Z</time>
      </trkpt>
      <trkpt lat="43.88189" lon="7.09943">
        <ele>661.1</ele>
        <time>2016-01-23T08:50:53Z</time>
      </trkpt>
      <trkpt lat="43.8818" lon="7.09947">
        <ele>663</ele>
        <time>2016-01-23T08:50:59Z</time>
      </trkpt>
      <trkpt lat="43.88171" lon="7.0995">
        <ele>663.9</ele>
        <time>2016-01-23T08:51:05Z</time>
      </trkpt>
      <trkpt lat="43.88162" lon="7.09955">
        <ele>665.7</ele>
        <time>2016-01-23T08:51:11Z</time>
      </trkpt>
      <trkpt lat="43.88153" lon="7.09961">
        <ele>667.2</ele>
        <time>2016-01-23T08:51:17Z</time>
      </trkpt>
      <trkpt lat="43.88145" lon="7.09968">
        <ele>668.8</ele>
        <time>2016-01-23T08:51:23Z</time>
      </trkpt>
      <trkpt lat="43.88137" lon="7.09974">
        <ele>670.9</ele>
        <time>2016-01-23T08:51:29Z</time>
      </trkpt>
      <trkpt lat="43.8813" lon="7.09981">
        <ele>671.7</ele>
        <time>2016-01-23T08:51:35Z</time>
      </trkpt>
      <trkpt lat="43.88123" lon="7.0999">
        <ele>672.5</ele>
        <time>2016-01-23T08:51:41Z</time>
      </trkpt>
      <trkpt lat="43.88117" lon="7.09999">
        <ele>673.6</ele>
        <time>2016-01-23T08:51:47Z</time>
      </trkpt>
      <trkpt lat="43.88111" lon="7.10012">
        <ele>675.6</ele>
        <time>2016-01-23T08:51:54Z</time>
      </trkpt>
      <trkpt lat="43.88105" lon="7.10023">
        <ele>677.3</ele>
        <time>2016-01-23T08:52:01Z</time>
      </trkpt>
      <trkpt lat="43.88097" lon="7.10029">
        <ele>678.4</ele>
        <time>2016-01-23T08:52:07Z</time>
      </trkpt>
      <trkpt lat="43.88087" lon="7.10033">
        <ele>679.3</ele>
        <time>2016-01-23T08:52:13Z</time>
      </trkpt>
      <trkpt lat="43.88078" lon="7.10035">
        <ele>680.2</ele>
        <time>2016-01-23T08:52:19Z</time>
      </trkpt>
      <trkpt lat="43.88069" lon="7.10038">
        <ele>681.3</ele>
        <time>2016-01-23T08:52:25Z</time>
      </trkpt>
      <trkpt lat="43.88059" lon="7.1004">
        <ele>683.4</ele>
        <time>2016-01-23T08:52:32Z</time>
      </trkpt>
      <trkpt lat="43.88049" lon="7.10036">
        <ele>684.2</ele>
        <time>2016-01-23T08:52:38Z</time>
      </trkpt>
      <trkpt lat="43.88041" lon="7.10028">
        <ele>685.2</ele>
        <time>2016-01-23T08:52:44Z</time>
      </trkpt>
      <trkpt lat="43.88034" lon="7.1002">
        <ele>686.1</ele>
        <time>2016-01-23T08:52:50Z</time>
      </trkpt>
      <trkpt lat="43.88025" lon="7.10013">
        <ele>688.3</ele>
        <time>2016-01-23T08:52:56Z</time>
      </trkpt>
      <trkpt lat="43.88015" lon="7.10008">
        <ele>690</ele>
        <time>2016-01-23T08:53:02Z</time>
      </trkpt>
      <trkpt lat="43.88005" lon="7.10005">
        <ele>692.1</ele>
        <time>2016-01-23T08:53:08Z</time>
      </trkpt>
      <trkpt lat="43.87995" lon="7.10002">
        <ele>693.4</ele>
        <time>2016-01-23T08:53:14Z</time>
      </trkpt>
      <trkpt lat="43.87986" lon="7.09998">
        <ele>694.4</ele>
        <time>2016-01-23T08:53:20Z</time>
      </trkpt>
      <trkpt lat="43.87977" lon="7.09999">
        <ele>695.9</ele>
        <time>2016-01-23T08:58:33Z</time>
      </trkpt>
      <trkpt lat="43.8797" lon="7.09988">
        <ele>696.3</ele>
        <time>2016-01-23T08:59:07Z</time>
      </trkpt>
      <trkpt lat="43.87964" lon="7.09976">
        <ele>696.3</ele>
        <time>2016-01-23T08:59:11Z</time>
      </trkpt>
      <trkpt lat="43.87959" lon="7.09962">
        <ele>696.1</ele>
        <time>2016-01-23T08:59:15Z</time>
      </trkpt>
      <trkpt lat="43.87954" lon="7.0995">
        <ele>695.2</ele>
        <time>2016-01-23T08:59:18Z</time>
      </trkpt>
      <trkpt lat="43.87948" lon="7.09938">
        <ele>694.9</ele>
        <time>2016-01-23T08:59:21Z</time>
      </trkpt>
      <trkpt lat="43.87937" lon="7.09931">
        <ele>694.8</ele>
        <time>2016-01-23T08:59:24Z</time>
      </trkpt>
      <trkpt lat="43.87928" lon="7.09934">
        <ele>693.8</ele>
        <time>2016-01-23T08:59:26Z</time>
      </trkpt>
      <trkpt lat="43.87919" lon="7.09937">
        <ele>693</ele>
        <time>2016-01-23T08:59:28Z</time>
      </trkpt>
      <trkpt lat="43.87909" lon="7.0994">
        <ele>691.9</ele>
        <time>2016-01-23T08:59:30Z</time>
      </trkpt>
      <trkpt lat="43.87898" lon="7.09945">
        <ele>690.8</ele>
        <time>2016-01-23T08:59:32Z</time>
      </trkpt>
      <trkpt lat="43.87887" lon="7.09951">
        <ele>689.7</ele>
        <time>2016-01-23T08:59:34Z</time>
      </trkpt>
      <trkpt lat="43.87876" lon="7.09955">
        <ele>687.7</ele>
        <time>2016-01-23T08:59:36Z</time>
      </trkpt>
      <trkpt lat="43.87866" lon="7.09956">
        <ele>685.5</ele>
        <time>2016-01-23T08:59:38Z</time>
      </trkpt>
      <trkpt lat="43.87857" lon="7.09953">
        <ele>682.1</ele>
        <time>2016-01-23T08:59:45Z</time>
      </trkpt>
      <trkpt lat="43.87849" lon="7.09945">
        <ele>681.1</ele>
        <time>2016-01-23T08:59:49Z</time>
      </trkpt>
      <trkpt lat="43.87845" lon="7.09932">
        <ele>681.1</ele>
        <time>2016-01-23T08:59:52Z</time>
      </trkpt>
      <trkpt lat="43.87845" lon="7.09919">
        <ele>682.1</ele>
        <time>2016-01-23T08:59:55Z</time>
      </trkpt>
      <trkpt lat="43.87844" lon="7.09904">
        <ele>683.1</ele>
        <time>2016-01-23T08:59:59Z</time>
      </trkpt>
      <trkpt lat="43.87841" lon="7.09889">
        <ele>682.8</ele>
        <time>2016-01-23T09:00:03Z</time>
      </trkpt>
      <trkpt lat="43.8784" lon="7.09875">
        <ele>682.7</ele>
        <time>2016-01-23T09:00:07Z</time>
      </trkpt>
      <trkpt lat="43.87838" lon="7.09861">
        <ele>683</ele>
        <time>2016-01-23T09:00:11Z</time>
      </trkpt>
      <trkpt lat="43.87839" lon="7.09848">
        <ele>684</ele>
        <time>2016-01-23T09:00:15Z</time>
      </trkpt>
      <trkpt lat="43.8784" lon="7.09833">
        <ele>684.6</ele>
        <time>2016-01-23T09:00:19Z</time>
      </trkpt>
      <trkpt lat="43.87841" lon="7.0982">
        <ele>685.5</ele>
        <time>2016-01-23T09:00:23Z</time>
      </trkpt>
      <trkpt lat="43.87843" lon="7.09806">
        <ele>686.5</ele>
        <time>2016-01-23T09:00:27Z</time>
      </trkpt>
      <trkpt lat="43.87847" lon="7.09793">
        <ele>686.8</ele>
        <time>2016-01-23T09:00:31Z</time>
      </trkpt>
      <trkpt lat="43.87847" lon="7.09778">
        <ele>687.2</ele>
        <time>2016-01-23T09:00:35Z</time>
      </trkpt>
      <trkpt lat="43.87836" lon="7.09777">
        <ele>687.2</ele>
        <time>2016-01-23T09:00:39Z</time>
      </trkpt>
      <trkpt lat="43.87827" lon="7.09777">
        <ele>687.9</ele>
        <time>2016-01-23T09:00:42Z</time>
      </trkpt>
      <trkpt lat="43.87817" lon="7.09775">
        <ele>687.4</ele>
        <time>2016-01-23T09:00:45Z</time>
      </trkpt>
      <trkpt lat="43.87806" lon="7.09769">
        <ele>687.5</ele>
        <time>2016-01-23T09:00:49Z</time>
      </trkpt>
      <trkpt lat="43.87798" lon="7.0976">
        <ele>687.3</ele>
        <time>2016-01-23T09:00:52Z</time>
      </trkpt>
      <trkpt lat="43.87789" lon="7.09748">
        <ele>687.6</ele>
        <time>2016-01-23T09:00:55Z</time>
      </trkpt>
      <trkpt lat="43.87783" lon="7.09736">
        <ele>687.7</ele>
        <time>2016-01-23T09:00:58Z</time>
      </trkpt>
      <trkpt lat="43.87779" lon="7.09721">
        <ele>687.8</ele>
        <time>2016-01-23T09:01:01Z</time>
      </trkpt>
      <trkpt lat="43.87767" lon="7.09712">
        <ele>687.4</ele>
        <time>2016-01-23T09:01:04Z</time>
      </trkpt>
      <trkpt lat="43.87758" lon="7.09715">
        <ele>687.8</ele>
        <time>2016-01-23T09:01:07Z</time>
      </trkpt>
      <trkpt lat="43.87749" lon="7.09718">
        <ele>688.6</ele>
        <time>2016-01-23T09:01:11Z</time>
      </trkpt>
      <trkpt lat="43.8774" lon="7.0972">
        <ele>689.8</ele>
        <time>2016-01-23T09:01:15Z</time>
      </trkpt>
      <trkpt lat="43.87731" lon="7.09723">
        <ele>691</ele>
        <time>2016-01-23T09:01:19Z</time>
      </trkpt>
      <trkpt lat="43.87721" lon="7.09728">
        <ele>692.7</ele>
        <time>2016-01-23T09:01:24Z</time>
      </trkpt>
      <trkpt lat="43.87711" lon="7.09733">
        <ele>693.6</ele>
        <time>2016-01-23T09:01:29Z</time>
      </trkpt>
      <trkpt lat="43.87702" lon="7.09738">
        <ele>695.3</ele>
        <time>2016-01-23T09:01:34Z</time>
      </trkpt>
      <trkpt lat="43.87692" lon="7.09742">
        <ele>696.7</ele>
        <time>2016-01-23T09:01:39Z</time>
      </trkpt>
      <trkpt lat="43.87683" lon="7.09745">
        <ele>697.5</ele>
        <time>2016-01-23T09:01:44Z</time>
      </trkpt>
      <trkpt lat="43.87673" lon="7.09749">
        <ele>697.9</ele>
        <time>2016-01-23T09:01:49Z</time>
      </trkpt>
      <trkpt lat="43.87664" lon="7.09751">
        <ele>698.9</ele>
        <time>2016-01-23T09:01:53Z</time>
      </trkpt>
      <trkpt lat="43.87654" lon="7.09754">
        <ele>699.5</ele>
        <time>2016-01-23T09:01:57Z</time>
      </trkpt>
      <trkpt lat="43.87644" lon="7.09754">
        <ele>700.6</ele>
        <time>2016-01-23T09:02:02Z</time>
      </trkpt>
      <trkpt lat="43.87643" lon="7.09741">
        <ele>700.4</ele>
        <time>2016-01-23T09:02:08Z</time>
      </trkpt>
      <trkpt lat="43.87651" lon="7.09732">
        <ele>701.1</ele>
        <time>2016-01-23T09:02:13Z</time>
      </trkpt>
      <trkpt lat="43.87657" lon="7.09723">
        <ele>702.9</ele>
        <time>2016-01-23T09:02:18Z</time>
      </trkpt>
      <trkpt lat="43.87664" lon="7.09713">
        <ele>703.7</ele>
        <time>2016-01-23T09:02:23Z</time>
      </trkpt>
      <trkpt lat="43.8767" lon="7.09702">
        <ele>705</ele>
        <time>2016-01-23T09:02:29Z</time>
      </trkpt>
      <trkpt lat="43.87675" lon="7.0969">
        <ele>706.1</ele>
        <time>2016-01-23T09:02:34Z</time>
      </trkpt>
      <trkpt lat="43.87678" lon="7.09679">
        <ele>708.2</ele>
        <time>2016-01-23T09:02:39Z</time>
      </trkpt>
      <trkpt lat="43.87681" lon="7.09667">
        <ele>709.2</ele>
        <time>2016-01-23T09:02:44Z</time>
      </trkpt>
      <trkpt lat="43.87683" lon="7.09654">
        <ele>709.5</ele>
        <time>2016-01-23T09:02:49Z</time>
      </trkpt>
      <trkpt lat="43.87685" lon="7.09641">
        <ele>711.2</ele>
        <time>2016-01-23T09:02:54Z</time>
      </trkpt>
      <trkpt lat="43.87688" lon="7.09628">
        <ele>713.1</ele>
        <time>2016-01-23T09:03:00Z</time>
      </trkpt>
      <trkpt lat="43.8769" lon="7.09614">
        <ele>714</ele>
        <time>2016-01-23T09:03:05Z</time>
      </trkpt>
      <trkpt lat="43.87692" lon="7.096">
        <ele>714.8</ele>
        <time>2016-01-23T09:03:11Z</time>
      </trkpt>
      <trkpt lat="43.87692" lon="7.09585">
        <ele>716.5</ele>
        <time>2016-01-23T09:03:17Z</time>
      </trkpt>
      <trkpt lat="43.87692" lon="7.09572">
        <ele>716.8</ele>
        <time>2016-01-23T09:03:22Z</time>
      </trkpt>
      <trkpt lat="43.87693" lon="7.09559">
        <ele>716.8</ele>
        <time>2016-01-23T09:03:27Z</time>
      </trkpt>
      <trkpt lat="43.87693" lon="7.09543">
        <ele>717.9</ele>
        <time>2016-01-23T09:03:32Z</time>
      </trkpt>
      <trkpt lat="43.87691" lon="7.09528">
        <ele>719.6</ele>
        <time>2016-01-23T09:03:37Z</time>
      </trkpt>
      <trkpt lat="43.87687" lon="7.09517">
        <ele>719.3</ele>
        <time>2016-01-23T09:03:41Z</time>
      </trkpt>
      <trkpt lat="43.87677" lon="7.09516">
        <ele>720</ele>
        <time>2016-01-23T09:03:45Z</time>
      </trkpt>
      <trkpt lat="43.87668" lon="7.09524">
        <ele>720</ele>
        <time>2016-01-23T09:03:49Z</time>
      </trkpt>
      <trkpt lat="43.8766" lon="7.09532">
        <ele>719.8</ele>
        <time>2016-01-23T09:03:52Z</time>
      </trkpt>
      <trkpt lat="43.87651" lon="7.09543">
        <ele>719.7</ele>
        <time>2016-01-23T09:03:55Z</time>
      </trkpt>
      <trkpt lat="43.87641" lon="7.09552">
        <ele>719.1</ele>
        <time>2016-01-23T09:03:58Z</time>
      </trkpt>
      <trkpt lat="43.87631" lon="7.09557">
        <ele>718.3</ele>
        <time>2016-01-23T09:04:01Z</time>
      </trkpt>
      <trkpt lat="43.87623" lon="7.09564">
        <ele>718.1</ele>
        <time>2016-01-23T09:04:04Z</time>
      </trkpt>
      <trkpt lat="43.87613" lon="7.09571">
        <ele>718</ele>
        <time>2016-01-23T09:04:07Z</time>
      </trkpt>
      <trkpt lat="43.87601" lon="7.09573">
        <ele>717.9</ele>
        <time>2016-01-23T09:04:10Z</time>
      </trkpt>
      <trkpt lat="43.8759" lon="7.09575">
        <ele>717.4</ele>
        <time>2016-01-23T09:04:13Z</time>
      </trkpt>
      <trkpt lat="43.87576" lon="7.09578">
        <ele>717.1</ele>
        <time>2016-01-23T09:04:16Z</time>
      </trkpt>
      <trkpt lat="43.87564" lon="7.09579">
        <ele>716.2</ele>
        <time>2016-01-23T09:04:18Z</time>
      </trkpt>
      <trkpt lat="43.87552" lon="7.09579">
        <ele>715</ele>
        <time>2016-01-23T09:04:20Z</time>
      </trkpt>
      <trkpt lat="43.87542" lon="7.09577">
        <ele>714.3</ele>
        <time>2016-01-23T09:04:22Z</time>
      </trkpt>
      <trkpt lat="43.87529" lon="7.09577">
        <ele>714.5</ele>
        <time>2016-01-23T09:04:25Z</time>
      </trkpt>
      <trkpt lat="43.87516" lon="7.09575">
        <ele>713.9</ele>
        <time>2016-01-23T09:04:28Z</time>
      </trkpt>
      <trkpt lat="43.87503" lon="7.09572">
        <ele>713.9</ele>
        <time>2016-01-23T09:04:31Z</time>
      </trkpt>
      <trkpt lat="43.87494" lon="7.0957">
        <ele>713.5</ele>
        <time>2016-01-23T09:04:33Z</time>
      </trkpt>
      <trkpt lat="43.87485" lon="7.09565">
        <ele>713.4</ele>
        <time>2016-01-23T09:04:35Z</time>
      </trkpt>
      <trkpt lat="43.87477" lon="7.09559">
        <ele>713.1</ele>
        <time>2016-01-23T09:04:37Z</time>
      </trkpt>
      <trkpt lat="43.87467" lon="7.09549">
        <ele>712.3</ele>
        <time>2016-01-23T09:04:40Z</time>
      </trkpt>
      <trkpt lat="43.8746" lon="7.0954">
        <ele>711.3</ele>
        <time>2016-01-23T09:04:44Z</time>
      </trkpt>
      <trkpt lat="43.87453" lon="7.0953">
        <ele>710.9</ele>
        <time>2016-01-23T09:04:50Z</time>
      </trkpt>
      <trkpt lat="43.87445" lon="7.09521">
        <ele>710.8</ele>
        <time>2016-01-23T09:04:55Z</time>
      </trkpt>
      <trkpt lat="43.87435" lon="7.09512">
        <ele>710.5</ele>
        <time>2016-01-23T09:04:59Z</time>
      </trkpt>
      <trkpt lat="43.87425" lon="7.09506">
        <ele>710.1</ele>
        <time>2016-01-23T09:05:02Z</time>
      </trkpt>
      <trkpt lat="43.87414" lon="7.095">
        <ele>709</ele>
        <time>2016-01-23T09:05:05Z</time>
      </trkpt>
      <trkpt lat="43.87404" lon="7.09492">
        <ele>709.1</ele>
        <time>2016-01-23T09:05:08Z</time>
      </trkpt>
      <trkpt lat="43.87393" lon="7.09482">
        <ele>709.2</ele>
        <time>2016-01-23T09:05:11Z</time>
      </trkpt>
      <trkpt lat="43.87387" lon="7.09468">
        <ele>708</ele>
        <time>2016-01-23T09:05:14Z</time>
      </trkpt>
      <trkpt lat="43.87386" lon="7.09452">
        <ele>706.9</ele>
        <time>2016-01-23T09:05:17Z</time>
      </trkpt>
      <trkpt lat="43.87385" lon="7.09435">
        <ele>706.9</ele>
        <time>2016-01-23T09:05:20Z</time>
      </trkpt>
      <trkpt lat="43.87385" lon="7.09418">
        <ele>706</ele>
        <time>2016-01-23T09:05:23Z</time>
      </trkpt>
      <trkpt lat="43.87384" lon="7.09402">
        <ele>705.2</ele>
        <time>2016-01-23T09:05:26Z</time>
      </trkpt>
      <trkpt lat="43.87381" lon="7.09385">
        <ele>704.2</ele>
        <time>2016-01-23T09:05:29Z</time>
      </trkpt>
      <trkpt lat="43.87379" lon="7.09368">
        <ele>704</ele>
        <time>2016-01-23T09:05:32Z</time>
      </trkpt>
      <trkpt lat="43.87377" lon="7.09351">
        <ele>703.6</ele>
        <time>2016-01-23T09:05:35Z</time>
      </trkpt>
      <trkpt lat="43.87377" lon="7.09335">
        <ele>704.1</ele>
        <time>2016-01-23T09:05:38Z</time>
      </trkpt>
      <trkpt lat="43.87375" lon="7.09319">
        <ele>703.6</ele>
        <time>2016-01-23T09:05:41Z</time>
      </trkpt>
      <trkpt lat="43.87372" lon="7.09302">
        <ele>702.7</ele>
        <time>2016-01-23T09:05:44Z</time>
      </trkpt>
      <trkpt lat="43.87371" lon="7.09286">
        <ele>702.3</ele>
        <time>2016-01-23T09:05:47Z</time>
      </trkpt>
      <trkpt lat="43.87369" lon="7.09271">
        <ele>702</ele>
        <time>2016-01-23T09:05:50Z</time>
      </trkpt>
      <trkpt lat="43.87368" lon="7.09256">
        <ele>701.3</ele>
        <time>2016-01-23T09:05:54Z</time>
      </trkpt>
      <trkpt lat="43.87368" lon="7.09239">
        <ele>701</ele>
        <time>2016-01-23T09:05:58Z</time>
      </trkpt>
      <trkpt lat="43.8737" lon="7.09227">
        <ele>701.2</ele>
        <time>2016-01-23T09:06:01Z</time>
      </trkpt>
      <trkpt lat="43.8737" lon="7.09214">
        <ele>700.2</ele>
        <time>2016-01-23T09:06:04Z</time>
      </trkpt>
      <trkpt lat="43.87363" lon="7.09205">
        <ele>700.3</ele>
        <time>2016-01-23T09:06:07Z</time>
      </trkpt>
      <trkpt lat="43.87352" lon="7.09197">
        <ele>699.8</ele>
        <time>2016-01-23T09:06:10Z</time>
      </trkpt>
      <trkpt lat="43.87343" lon="7.09188">
        <ele>699.4</ele>
        <time>2016-01-23T09:06:13Z</time>
      </trkpt>
      <trkpt lat="43.87335" lon="7.09182">
        <ele>697.9</ele>
        <time>2016-01-23T09:06:39Z</time>
      </trkpt>
      <trkpt lat="43.87344" lon="7.09177">
        <ele>698.4</ele>
        <time>2016-01-23T09:08:54Z</time>
      </trkpt>
      <trkpt lat="43.87349" lon="7.09166">
        <ele>699.1</ele>
        <time>2016-01-23T09:09:00Z</time>
      </trkpt>
      <trkpt lat="43.87349" lon="7.09153">
        <ele>699.9</ele>
        <time>2016-01-23T09:09:05Z</time>
      </trkpt>
      <trkpt lat="43.87348" lon="7.0914">
        <ele>701.4</ele>
        <time>2016-01-23T09:09:09Z</time>
      </trkpt>
      <trkpt lat="43.87349" lon="7.09123">
        <ele>701.7</ele>
        <time>2016-01-23T09:09:13Z</time>
      </trkpt>
      <trkpt lat="43.87351" lon="7.0911">
        <ele>702.5</ele>
        <time>2016-01-23T09:09:16Z</time>
      </trkpt>
      <trkpt lat="43.87354" lon="7.09098">
        <ele>702.8</ele>
        <time>2016-01-23T09:09:19Z</time>
      </trkpt>
      <trkpt lat="43.87355" lon="7.09085">
        <ele>703.4</ele>
        <time>2016-01-23T09:09:22Z</time>
      </trkpt>
      <trkpt lat="43.87355" lon="7.09069">
        <ele>702.6</ele>
        <time>2016-01-23T09:09:25Z</time>
      </trkpt>
      <trkpt lat="43.87353" lon="7.0905">
        <ele>702.1</ele>
        <time>2016-01-23T09:09:28Z</time>
      </trkpt>
      <trkpt lat="43.87352" lon="7.09037">
        <ele>701.8</ele>
        <time>2016-01-23T09:09:30Z</time>
      </trkpt>
      <trkpt lat="43.87351" lon="7.09023">
        <ele>701.6</ele>
        <time>2016-01-23T09:09:32Z</time>
      </trkpt>
      <trkpt lat="43.87352" lon="7.09009">
        <ele>701.4</ele>
        <time>2016-01-23T09:09:34Z</time>
      </trkpt>
      <trkpt lat="43.87352" lon="7.08995">
        <ele>701.3</ele>
        <time>2016-01-23T09:09:36Z</time>
      </trkpt>
      <trkpt lat="43.8735" lon="7.08982">
        <ele>701.2</ele>
        <time>2016-01-23T09:09:38Z</time>
      </trkpt>
      <trkpt lat="43.87346" lon="7.08967">
        <ele>700.7</ele>
        <time>2016-01-23T09:09:40Z</time>
      </trkpt>
      <trkpt lat="43.87345" lon="7.08953">
        <ele>700.8</ele>
        <time>2016-01-23T09:09:42Z</time>
      </trkpt>
      <trkpt lat="43.87346" lon="7.08938">
        <ele>700.8</ele>
        <time>2016-01-23T09:09:44Z</time>
      </trkpt>
      <trkpt lat="43.87349" lon="7.08925">
        <ele>701</ele>
        <time>2016-01-23T09:09:46Z</time>
      </trkpt>
      <trkpt lat="43.87352" lon="7.08913">
        <ele>700.9</ele>
        <time>2016-01-23T09:09:48Z</time>
      </trkpt>
      <trkpt lat="43.87353" lon="7.08894">
        <ele>701</ele>
        <time>2016-01-23T09:09:51Z</time>
      </trkpt>
      <trkpt lat="43.87354" lon="7.08876">
        <ele>701.9</ele>
        <time>2016-01-23T09:09:54Z</time>
      </trkpt>
      <trkpt lat="43.87354" lon="7.08859">
        <ele>702.4</ele>
        <time>2016-01-23T09:09:57Z</time>
      </trkpt>
      <trkpt lat="43.87353" lon="7.08844">
        <ele>702.6</ele>
        <time>2016-01-23T09:10:00Z</time>
      </trkpt>
      <trkpt lat="43.87351" lon="7.08828">
        <ele>702.9</ele>
        <time>2016-01-23T09:10:03Z</time>
      </trkpt>
      <trkpt lat="43.8735" lon="7.08811">
        <ele>703.3</ele>
        <time>2016-01-23T09:10:06Z</time>
      </trkpt>
      <trkpt lat="43.87347" lon="7.08795">
        <ele>704.8</ele>
        <time>2016-01-23T09:10:09Z</time>
      </trkpt>
      <trkpt lat="43.87339" lon="7.08781">
        <ele>704.5</ele>
        <time>2016-01-23T09:10:12Z</time>
      </trkpt>
      <trkpt lat="43.87331" lon="7.08769">
        <ele>704.9</ele>
        <time>2016-01-23T09:10:15Z</time>
      </trkpt>
      <trkpt lat="43.87325" lon="7.08758">
        <ele>705.1</ele>
        <time>2016-01-23T09:10:18Z</time>
      </trkpt>
      <trkpt lat="43.8732" lon="7.08745">
        <ele>706.1</ele>
        <time>2016-01-23T09:10:22Z</time>
      </trkpt>
      <trkpt lat="43.87315" lon="7.0873">
        <ele>707.1</ele>
        <time>2016-01-23T09:10:26Z</time>
      </trkpt>
      <trkpt lat="43.87316" lon="7.08716">
        <ele>707.5</ele>
        <time>2016-01-23T09:10:31Z</time>
      </trkpt>
      <trkpt lat="43.87325" lon="7.08708">
        <ele>707.3</ele>
        <time>2016-01-23T09:10:38Z</time>
      </trkpt>
      <trkpt lat="43.87335" lon="7.08703">
        <ele>707.8</ele>
        <time>2016-01-23T09:10:43Z</time>
      </trkpt>
      <trkpt lat="43.87344" lon="7.08701">
        <ele>707.3</ele>
        <time>2016-01-23T09:10:47Z</time>
      </trkpt>
      <trkpt lat="43.87354" lon="7.08698">
        <ele>706.1</ele>
        <time>2016-01-23T09:10:52Z</time>
      </trkpt>
      <trkpt lat="43.87364" lon="7.08694">
        <ele>705.6</ele>
        <time>2016-01-23T09:10:56Z</time>
      </trkpt>
      <trkpt lat="43.87374" lon="7.0869">
        <ele>705.6</ele>
        <time>2016-01-23T09:11:01Z</time>
      </trkpt>
      <trkpt lat="43.87383" lon="7.08682">
        <ele>703</ele>
        <time>2016-01-23T09:13:45Z</time>
      </trkpt>
      <trkpt lat="43.87395" lon="7.08683">
        <ele>702.1</ele>
        <time>2016-01-23T09:13:49Z</time>
      </trkpt>
      <trkpt lat="43.87405" lon="7.0869">
        <ele>701.5</ele>
        <time>2016-01-23T09:13:52Z</time>
      </trkpt>
      <trkpt lat="43.87416" lon="7.08695">
        <ele>700.7</ele>
        <time>2016-01-23T09:13:55Z</time>
      </trkpt>
      <trkpt lat="43.8743" lon="7.08695">
        <ele>701</ele>
        <time>2016-01-23T09:13:58Z</time>
      </trkpt>
      <trkpt lat="43.8744" lon="7.08692">
        <ele>700.4</ele>
        <time>2016-01-23T09:14:00Z</time>
      </trkpt>
      <trkpt lat="43.87451" lon="7.08692">
        <ele>699.5</ele>
        <time>2016-01-23T09:14:02Z</time>
      </trkpt>
      <trkpt lat="43.87462" lon="7.08692">
        <ele>699.2</ele>
        <time>2016-01-23T09:14:04Z</time>
      </trkpt>
      <trkpt lat="43.87474" lon="7.08687">
        <ele>699</ele>
        <time>2016-01-23T09:14:06Z</time>
      </trkpt>
      <trkpt lat="43.87484" lon="7.08677">
        <ele>697.9</ele>
        <time>2016-01-23T09:14:08Z</time>
      </trkpt>
      <trkpt lat="43.87495" lon="7.08664">
        <ele>697.1</ele>
        <time>2016-01-23T09:14:10Z</time>
      </trkpt>
      <trkpt lat="43.87505" lon="7.08651">
        <ele>696.2</ele>
        <time>2016-01-23T09:14:12Z</time>
      </trkpt>
      <trkpt lat="43.87513" lon="7.08638">
        <ele>694.8</ele>
        <time>2016-01-23T09:14:14Z</time>
      </trkpt>
      <trkpt lat="43.8752" lon="7.08622">
        <ele>693.3</ele>
        <time>2016-01-23T09:14:16Z</time>
      </trkpt>
      <trkpt lat="43.87524" lon="7.08604">
        <ele>692.6</ele>
        <time>2016-01-23T09:14:18Z</time>
      </trkpt>
      <trkpt lat="43.87527" lon="7.08585">
        <ele>691.4</ele>
        <time>2016-01-23T09:14:20Z</time>
      </trkpt>
      <trkpt lat="43.8753" lon="7.08569">
        <ele>690.5</ele>
        <time>2016-01-23T09:14:22Z</time>
      </trkpt>
      <trkpt lat="43.87529" lon="7.08554">
        <ele>689.5</ele>
        <time>2016-01-23T09:14:24Z</time>
      </trkpt>
      <trkpt lat="43.87532" lon="7.08539">
        <ele>688.3</ele>
        <time>2016-01-23T09:14:27Z</time>
      </trkpt>
      <trkpt lat="43.87541" lon="7.08529">
        <ele>686.6</ele>
        <time>2016-01-23T09:15:16Z</time>
      </trkpt>
      <trkpt lat="43.87551" lon="7.08522">
        <ele>686.6</ele>
        <time>2016-01-23T09:15:19Z</time>
      </trkpt>
      <trkpt lat="43.8756" lon="7.08508">
        <ele>686.7</ele>
        <time>2016-01-23T09:15:22Z</time>
      </trkpt>
      <trkpt lat="43.87564" lon="7.08493">
        <ele>684.8</ele>
        <time>2016-01-23T09:15:24Z</time>
      </trkpt>
      <trkpt lat="43.87568" lon="7.08477">
        <ele>684.1</ele>
        <time>2016-01-23T09:15:26Z</time>
      </trkpt>
      <trkpt lat="43.87569" lon="7.0846">
        <ele>683.3</ele>
        <time>2016-01-23T09:15:28Z</time>
      </trkpt>
      <trkpt lat="43.87567" lon="7.08444">
        <ele>682.8</ele>
        <time>2016-01-23T09:15:30Z</time>
      </trkpt>
      <trkpt lat="43.87564" lon="7.08429">
        <ele>682.6</ele>
        <time>2016-01-23T09:15:32Z</time>
      </trkpt>
      <trkpt lat="43.87561" lon="7.08412">
        <ele>682.2</ele>
        <time>2016-01-23T09:15:35Z</time>
      </trkpt>
      <trkpt lat="43.87562" lon="7.08399">
        <ele>681.6</ele>
        <time>2016-01-23T09:15:37Z</time>
      </trkpt>
      <trkpt lat="43.87565" lon="7.08387">
        <ele>680.8</ele>
        <time>2016-01-23T09:15:39Z</time>
      </trkpt>
      <trkpt lat="43.8757" lon="7.08377">
        <ele>679.5</ele>
        <time>2016-01-23T09:15:41Z</time>
      </trkpt>
      <trkpt lat="43.87579" lon="7.08363">
        <ele>678.3</ele>
        <time>2016-01-23T09:15:44Z</time>
      </trkpt>
      <trkpt lat="43.87585" lon="7.08351">
        <ele>677.7</ele>
        <time>2016-01-23T09:15:48Z</time>
      </trkpt>
      <trkpt lat="43.87588" lon="7.08339">
        <ele>671.6</ele>
        <time>2016-01-23T09:16:09Z</time>
      </trkpt>
      <trkpt lat="43.87589" lon="7.08321">
        <ele>670.2</ele>
        <time>2016-01-23T09:16:13Z</time>
      </trkpt>
      <trkpt lat="43.87587" lon="7.08308">
        <ele>669.5</ele>
        <time>2016-01-23T09:16:16Z</time>
      </trkpt>
      <trkpt lat="43.87582" lon="7.08293">
        <ele>666.9</ele>
        <time>2016-01-23T09:16:20Z</time>
      </trkpt>
      <trkpt lat="43.87578" lon="7.08279">
        <ele>666</ele>
        <time>2016-01-23T09:16:23Z</time>
      </trkpt>
      <trkpt lat="43.87574" lon="7.08263">
        <ele>665.7</ele>
        <time>2016-01-23T09:16:26Z</time>
      </trkpt>
      <trkpt lat="43.8757" lon="7.08249">
        <ele>665.7</ele>
        <time>2016-01-23T09:16:29Z</time>
      </trkpt>
      <trkpt lat="43.87567" lon="7.08232">
        <ele>665.2</ele>
        <time>2016-01-23T09:16:32Z</time>
      </trkpt>
      <trkpt lat="43.87565" lon="7.08216">
        <ele>664.9</ele>
        <time>2016-01-23T09:16:35Z</time>
      </trkpt>
      <trkpt lat="43.87565" lon="7.08203">
        <ele>664.8</ele>
        <time>2016-01-23T09:16:38Z</time>
      </trkpt>
      <trkpt lat="43.87565" lon="7.08189">
        <ele>665.9</ele>
        <time>2016-01-23T09:16:44Z</time>
      </trkpt>
      <trkpt lat="43.87569" lon="7.08177">
        <ele>664</ele>
        <time>2016-01-23T09:16:49Z</time>
      </trkpt>
      <trkpt lat="43.87568" lon="7.08163">
        <ele>662.4</ele>
        <time>2016-01-23T09:17:23Z</time>
      </trkpt>
      <trkpt lat="43.87563" lon="7.08153">
        <ele>659.6</ele>
        <time>2016-01-23T09:17:34Z</time>
      </trkpt>
      <trkpt lat="43.87554" lon="7.08148">
        <ele>659.6</ele>
        <time>2016-01-23T09:18:20Z</time>
      </trkpt>
      <trkpt lat="43.87545" lon="7.08142">
        <ele>656.2</ele>
        <time>2016-01-23T09:18:25Z</time>
      </trkpt>
      <trkpt lat="43.87558" lon="7.08145">
        <ele>654</ele>
        <time>2016-01-23T09:19:23Z</time>
      </trkpt>
      <trkpt lat="43.87568" lon="7.08146">
        <ele>652.9</ele>
        <time>2016-01-23T09:19:28Z</time>
      </trkpt>
      <trkpt lat="43.87578" lon="7.08147">
        <ele>650.7</ele>
        <time>2016-01-23T09:19:35Z</time>
      </trkpt>
      <trkpt lat="43.87587" lon="7.08145">
        <ele>648.5</ele>
        <time>2016-01-23T09:19:42Z</time>
      </trkpt>
      <trkpt lat="43.87593" lon="7.08157">
        <ele>645.3</ele>
        <time>2016-01-23T09:19:48Z</time>
      </trkpt>
      <trkpt lat="43.87597" lon="7.08172">
        <ele>642.6</ele>
        <time>2016-01-23T09:19:52Z</time>
      </trkpt>
      <trkpt lat="43.87602" lon="7.08183">
        <ele>641.1</ele>
        <time>2016-01-23T09:19:56Z</time>
      </trkpt>
      <trkpt lat="43.87608" lon="7.08171">
        <ele>636.3</ele>
        <time>2016-01-23T09:20:09Z</time>
      </trkpt>
      <trkpt lat="43.87614" lon="7.08161">
        <ele>632</ele>
        <time>2016-01-23T09:20:20Z</time>
      </trkpt>
      <trkpt lat="43.87619" lon="7.08151">
        <ele>630.2</ele>
        <time>2016-01-23T09:20:25Z</time>
      </trkpt>
      <trkpt lat="43.87627" lon="7.08138">
        <ele>627.9</ele>
        <time>2016-01-23T09:20:30Z</time>
      </trkpt>
      <trkpt lat="43.87635" lon="7.08144">
        <ele>625.3</ele>
        <time>2016-01-23T09:20:42Z</time>
      </trkpt>
      <trkpt lat="43.87645" lon="7.08144">
        <ele>621.7</ele>
        <time>2016-01-23T09:20:52Z</time>
      </trkpt>
      <trkpt lat="43.87653" lon="7.08136">
        <ele>618.8</ele>
        <time>2016-01-23T09:20:57Z</time>
      </trkpt>
      <trkpt lat="43.87663" lon="7.08139">
        <ele>613.7</ele>
        <time>2016-01-23T09:21:08Z</time>
      </trkpt>
      <trkpt lat="43.8767" lon="7.08129">
        <ele>612.1</ele>
        <time>2016-01-23T09:21:12Z</time>
      </trkpt>
      <trkpt lat="43.87677" lon="7.08118">
        <ele>608.8</ele>
        <time>2016-01-23T09:21:19Z</time>
      </trkpt>
      <trkpt lat="43.87686" lon="7.08115">
        <ele>607.3</ele>
        <time>2016-01-23T09:21:22Z</time>
      </trkpt>
      <trkpt lat="43.87695" lon="7.08115">
        <ele>603.4</ele>
        <time>2016-01-23T09:21:28Z</time>
      </trkpt>
      <trkpt lat="43.8769" lon="7.08103">
        <ele>601.9</ele>
        <time>2016-01-23T09:21:33Z</time>
      </trkpt>
      <trkpt lat="43.87696" lon="7.08091">
        <ele>599.2</ele>
        <time>2016-01-23T09:21:40Z</time>
      </trkpt>
      <trkpt lat="43.87706" lon="7.08093">
        <ele>596.9</ele>
        <time>2016-01-23T09:21:44Z</time>
      </trkpt>
      <trkpt lat="43.87702" lon="7.08081">
        <ele>593</ele>
        <time>2016-01-23T09:21:56Z</time>
      </trkpt>
      <trkpt lat="43.87706" lon="7.08069">
        <ele>589.3</ele>
        <time>2016-01-23T09:22:31Z</time>
      </trkpt>
      <trkpt lat="43.87715" lon="7.08065">
        <ele>586.6</ele>
        <time>2016-01-23T09:22:37Z</time>
      </trkpt>
      <trkpt lat="43.87722" lon="7.08056">
        <ele>581.3</ele>
        <time>2016-01-23T09:22:51Z</time>
      </trkpt>
      <trkpt lat="43.87716" lon="7.08044">
        <ele>577.3</ele>
        <time>2016-01-23T09:23:04Z</time>
      </trkpt>
      <trkpt lat="43.87707" lon="7.08042">
        <ele>575.5</ele>
        <time>2016-01-23T09:23:09Z</time>
      </trkpt>
      <trkpt lat="43.87698" lon="7.08037">
        <ele>573.5</ele>
        <time>2016-01-23T09:23:13Z</time>
      </trkpt>
      <trkpt lat="43.87698" lon="7.08024">
        <ele>569.4</ele>
        <time>2016-01-23T09:23:22Z</time>
      </trkpt>
      <trkpt lat="43.87707" lon="7.08019">
        <ele>567.2</ele>
        <time>2016-01-23T09:23:25Z</time>
      </trkpt>
      <trkpt lat="43.87716" lon="7.08011">
        <ele>565.3</ele>
        <time>2016-01-23T09:23:28Z</time>
      </trkpt>
      <trkpt lat="43.87725" lon="7.0801">
        <ele>563.3</ele>
        <time>2016-01-23T09:23:31Z</time>
      </trkpt>
      <trkpt lat="43.87736" lon="7.08006">
        <ele>561.5</ele>
        <time>2016-01-23T09:23:34Z</time>
      </trkpt>
      <trkpt lat="43.87745" lon="7.08002">
        <ele>560.1</ele>
        <time>2016-01-23T09:23:37Z</time>
      </trkpt>
      <trkpt lat="43.87755" lon="7.08004">
        <ele>558.1</ele>
        <time>2016-01-23T09:23:41Z</time>
      </trkpt>
      <trkpt lat="43.8776" lon="7.08015">
        <ele>556.2</ele>
        <time>2016-01-23T09:23:44Z</time>
      </trkpt>
      <trkpt lat="43.87757" lon="7.08027">
        <ele>554.5</ele>
        <time>2016-01-23T09:23:49Z</time>
      </trkpt>
      <trkpt lat="43.8776" lon="7.0804">
        <ele>551.8</ele>
        <time>2016-01-23T09:23:54Z</time>
      </trkpt>
      <trkpt lat="43.87765" lon="7.0805">
        <ele>547.3</ele>
        <time>2016-01-23T09:24:06Z</time>
      </trkpt>
      <trkpt lat="43.8777" lon="7.08037">
        <ele>545.4</ele>
        <time>2016-01-23T09:24:14Z</time>
      </trkpt>
      <trkpt lat="43.8778" lon="7.08044">
        <ele>538.7</ele>
        <time>2016-01-23T09:24:25Z</time>
      </trkpt>
      <trkpt lat="43.87781" lon="7.08057">
        <ele>536.9</ele>
        <time>2016-01-23T09:24:28Z</time>
      </trkpt>
      <trkpt lat="43.87787" lon="7.08067">
        <ele>530.7</ele>
        <time>2016-01-23T09:24:41Z</time>
      </trkpt>
      <trkpt lat="43.87796" lon="7.0807">
        <ele>530.6</ele>
        <time>2016-01-23T09:24:55Z</time>
      </trkpt>
      <trkpt lat="43.87805" lon="7.08065">
        <ele>533</ele>
        <time>2016-01-23T09:27:34Z</time>
      </trkpt>
      <trkpt lat="43.87812" lon="7.08058">
        <ele>533.5</ele>
        <time>2016-01-23T09:27:39Z</time>
      </trkpt>
      <trkpt lat="43.87819" lon="7.08049">
        <ele>534.4</ele>
        <time>2016-01-23T09:27:45Z</time>
      </trkpt>
      <trkpt lat="43.87825" lon="7.08039">
        <ele>536.2</ele>
        <time>2016-01-23T09:27:51Z</time>
      </trkpt>
      <trkpt lat="43.87834" lon="7.08032">
        <ele>539.2</ele>
        <time>2016-01-23T09:27:58Z</time>
      </trkpt>
      <trkpt lat="43.87843" lon="7.08026">
        <ele>539.3</ele>
        <time>2016-01-23T09:28:03Z</time>
      </trkpt>
      <trkpt lat="43.8785" lon="7.08034">
        <ele>537.9</ele>
        <time>2016-01-23T09:28:48Z</time>
      </trkpt>
      <trkpt lat="43.87859" lon="7.0803">
        <ele>536.8</ele>
        <time>2016-01-23T09:29:03Z</time>
      </trkpt>
      <trkpt lat="43.87863" lon="7.08016">
        <ele>534.2</ele>
        <time>2016-01-23T09:29:07Z</time>
      </trkpt>
      <trkpt lat="43.87863" lon="7.08001">
        <ele>531.4</ele>
        <time>2016-01-23T09:29:11Z</time>
      </trkpt>
      <trkpt lat="43.87865" lon="7.07986">
        <ele>527.8</ele>
        <time>2016-01-23T09:29:15Z</time>
      </trkpt>
      <trkpt lat="43.87874" lon="7.07976">
        <ele>525.1</ele>
        <time>2016-01-23T09:29:18Z</time>
      </trkpt>
      <trkpt lat="43.87881" lon="7.07967">
        <ele>521.3</ele>
        <time>2016-01-23T09:29:25Z</time>
      </trkpt>
      <trkpt lat="43.87885" lon="7.07956">
        <ele>519.9</ele>
        <time>2016-01-23T09:29:39Z</time>
      </trkpt>
      <trkpt lat="43.87891" lon="7.07946">
        <ele>519.8</ele>
        <time>2016-01-23T09:29:52Z</time>
      </trkpt>
      <trkpt lat="43.87898" lon="7.07938">
        <ele>518.2</ele>
        <time>2016-01-23T09:30:08Z</time>
      </trkpt>
      <trkpt lat="43.87892" lon="7.07928">
        <ele>520.9</ele>
        <time>2016-01-23T09:30:27Z</time>
      </trkpt>
      <trkpt lat="43.87884" lon="7.07923">
        <ele>523.2</ele>
        <time>2016-01-23T09:30:37Z</time>
      </trkpt>
      <trkpt lat="43.87874" lon="7.07922">
        <ele>524.6</ele>
        <time>2016-01-23T09:30:47Z</time>
      </trkpt>
      <trkpt lat="43.87867" lon="7.07929">
        <ele>530.4</ele>
        <time>2016-01-23T09:31:17Z</time>
      </trkpt>
      <trkpt lat="43.8786" lon="7.07921">
        <ele>534.7</ele>
        <time>2016-01-23T09:31:40Z</time>
      </trkpt>
      <trkpt lat="43.87858" lon="7.07908">
        <ele>538.3</ele>
        <time>2016-01-23T09:31:59Z</time>
      </trkpt>
      <trkpt lat="43.87866" lon="7.07899">
        <ele>540.3</ele>
        <time>2016-01-23T09:32:09Z</time>
      </trkpt>
      <trkpt lat="43.87874" lon="7.0789">
        <ele>542.1</ele>
        <time>2016-01-23T09:32:19Z</time>
      </trkpt>
      <trkpt lat="43.87881" lon="7.07883">
        <ele>543.6</ele>
        <time>2016-01-23T09:32:30Z</time>
      </trkpt>
      <trkpt lat="43.87889" lon="7.07876">
        <ele>544.9</ele>
        <time>2016-01-23T09:32:42Z</time>
      </trkpt>
      <trkpt lat="43.87897" lon="7.0787">
        <ele>547.4</ele>
        <time>2016-01-23T09:32:52Z</time>
      </trkpt>
      <trkpt lat="43.87902" lon="7.0786">
        <ele>549.1</ele>
        <time>2016-01-23T09:33:05Z</time>
      </trkpt>
      <trkpt lat="43.87908" lon="7.0785">
        <ele>553.2</ele>
        <time>2016-01-23T09:33:22Z</time>
      </trkpt>
      <trkpt lat="43.87916" lon="7.07843">
        <ele>555.2</ele>
        <time>2016-01-23T09:33:44Z</time>
      </trkpt>
      <trkpt lat="43.87917" lon="7.0783">
        <ele>556.8</ele>
        <time>2016-01-23T09:34:29Z</time>
      </trkpt>
      <trkpt lat="43.87921" lon="7.07819">
        <ele>557.8</ele>
        <time>2016-01-23T09:34:36Z</time>
      </trkpt>
      <trkpt lat="43.87925" lon="7.07807">
        <ele>559</ele>
        <time>2016-01-23T09:34:42Z</time>
      </trkpt>
      <trkpt lat="43.87922" lon="7.07795">
        <ele>559.6</ele>
        <time>2016-01-23T09:34:48Z</time>
      </trkpt>
      <trkpt lat="43.87915" lon="7.07787">
        <ele>560.4</ele>
        <time>2016-01-23T09:34:54Z</time>
      </trkpt>
      <trkpt lat="43.87907" lon="7.07781">
        <ele>561.1</ele>
        <time>2016-01-23T09:35:00Z</time>
      </trkpt>
      <trkpt lat="43.87898" lon="7.07778">
        <ele>561.5</ele>
        <time>2016-01-23T09:35:05Z</time>
      </trkpt>
      <trkpt lat="43.87888" lon="7.07777">
        <ele>561.8</ele>
        <time>2016-01-23T09:35:10Z</time>
      </trkpt>
      <trkpt lat="43.8788" lon="7.07769">
        <ele>561.5</ele>
        <time>2016-01-23T09:35:15Z</time>
      </trkpt>
      <trkpt lat="43.8789" lon="7.07765">
        <ele>562.9</ele>
        <time>2016-01-23T09:35:22Z</time>
      </trkpt>
      <trkpt lat="43.87899" lon="7.07771">
        <ele>564.6</ele>
        <time>2016-01-23T09:35:28Z</time>
      </trkpt>
      <trkpt lat="43.87909" lon="7.07774">
        <ele>565</ele>
        <time>2016-01-23T09:35:34Z</time>
      </trkpt>
      <trkpt lat="43.87919" lon="7.07776">
        <ele>565.7</ele>
        <time>2016-01-23T09:35:40Z</time>
      </trkpt>
      <trkpt lat="43.87928" lon="7.07777">
        <ele>567.9</ele>
        <time>2016-01-23T09:35:45Z</time>
      </trkpt>
      <trkpt lat="43.87937" lon="7.07778">
        <ele>569</ele>
        <time>2016-01-23T09:35:50Z</time>
      </trkpt>
      <trkpt lat="43.87946" lon="7.07784">
        <ele>570.2</ele>
        <time>2016-01-23T09:35:56Z</time>
      </trkpt>
      <trkpt lat="43.87948" lon="7.07798">
        <ele>571.5</ele>
        <time>2016-01-23T09:36:02Z</time>
      </trkpt>
      <trkpt lat="43.87947" lon="7.07812">
        <ele>573.3</ele>
        <time>2016-01-23T09:36:08Z</time>
      </trkpt>
      <trkpt lat="43.87952" lon="7.07824">
        <ele>573.6</ele>
        <time>2016-01-23T09:36:14Z</time>
      </trkpt>
      <trkpt lat="43.8796" lon="7.07817">
        <ele>573.6</ele>
        <time>2016-01-23T09:36:20Z</time>
      </trkpt>
      <trkpt lat="43.87959" lon="7.07804">
        <ele>575.3</ele>
        <time>2016-01-23T09:36:26Z</time>
      </trkpt>
      <trkpt lat="43.87962" lon="7.07791">
        <ele>576</ele>
        <time>2016-01-23T09:36:32Z</time>
      </trkpt>
      <trkpt lat="43.87966" lon="7.0778">
        <ele>577.5</ele>
        <time>2016-01-23T09:36:38Z</time>
      </trkpt>
      <trkpt lat="43.87967" lon="7.07766">
        <ele>578.1</ele>
        <time>2016-01-23T09:36:44Z</time>
      </trkpt>
      <trkpt lat="43.87965" lon="7.07754">
        <ele>579.9</ele>
        <time>2016-01-23T09:36:50Z</time>
      </trkpt>
      <trkpt lat="43.87957" lon="7.07745">
        <ele>581</ele>
        <time>2016-01-23T09:36:56Z</time>
      </trkpt>
      <trkpt lat="43.87947" lon="7.07747">
        <ele>582.6</ele>
        <time>2016-01-23T09:37:02Z</time>
      </trkpt>
      <trkpt lat="43.87938" lon="7.07743">
        <ele>583.8</ele>
        <time>2016-01-23T09:37:08Z</time>
      </trkpt>
      <trkpt lat="43.8793" lon="7.07736">
        <ele>584.3</ele>
        <time>2016-01-23T09:37:14Z</time>
      </trkpt>
      <trkpt lat="43.87921" lon="7.0773">
        <ele>586.1</ele>
        <time>2016-01-23T09:37:21Z</time>
      </trkpt>
      <trkpt lat="43.87911" lon="7.07726">
        <ele>587.7</ele>
        <time>2016-01-23T09:37:28Z</time>
      </trkpt>
      <trkpt lat="43.879" lon="7.07725">
        <ele>589.4</ele>
        <time>2016-01-23T09:37:34Z</time>
      </trkpt>
      <trkpt lat="43.8789" lon="7.07723">
        <ele>589.7</ele>
        <time>2016-01-23T09:37:40Z</time>
      </trkpt>
      <trkpt lat="43.87883" lon="7.07716">
        <ele>591.8</ele>
        <time>2016-01-23T09:37:46Z</time>
      </trkpt>
      <trkpt lat="43.87875" lon="7.07707">
        <ele>593.3</ele>
        <time>2016-01-23T09:37:52Z</time>
      </trkpt>
      <trkpt lat="43.87869" lon="7.07698">
        <ele>594.4</ele>
        <time>2016-01-23T09:37:58Z</time>
      </trkpt>
      <trkpt lat="43.87861" lon="7.0769">
        <ele>595.5</ele>
        <time>2016-01-23T09:38:04Z</time>
      </trkpt>
      <trkpt lat="43.87853" lon="7.07681">
        <ele>596.4</ele>
        <time>2016-01-23T09:38:10Z</time>
      </trkpt>
      <trkpt lat="43.87844" lon="7.07672">
        <ele>597.6</ele>
        <time>2016-01-23T09:38:16Z</time>
      </trkpt>
      <trkpt lat="43.87837" lon="7.07663">
        <ele>598.6</ele>
        <time>2016-01-23T09:38:22Z</time>
      </trkpt>
      <trkpt lat="43.87827" lon="7.07656">
        <ele>599.9</ele>
        <time>2016-01-23T09:38:28Z</time>
      </trkpt>
      <trkpt lat="43.87819" lon="7.07649">
        <ele>600.3</ele>
        <time>2016-01-23T09:38:34Z</time>
      </trkpt>
      <trkpt lat="43.87811" lon="7.0764">
        <ele>600.7</ele>
        <time>2016-01-23T09:38:40Z</time>
      </trkpt>
      <trkpt lat="43.87808" lon="7.07628">
        <ele>601.5</ele>
        <time>2016-01-23T09:38:46Z</time>
      </trkpt>
      <trkpt lat="43.87813" lon="7.07617">
        <ele>602</ele>
        <time>2016-01-23T09:38:51Z</time>
      </trkpt>
      <trkpt lat="43.8782" lon="7.07607">
        <ele>602.6</ele>
        <time>2016-01-23T09:38:56Z</time>
      </trkpt>
      <trkpt lat="43.87827" lon="7.07596">
        <ele>603</ele>
        <time>2016-01-23T09:39:01Z</time>
      </trkpt>
      <trkpt lat="43.87833" lon="7.07585">
        <ele>603.5</ele>
        <time>2016-01-23T09:39:06Z</time>
      </trkpt>
      <trkpt lat="43.8784" lon="7.07577">
        <ele>604.2</ele>
        <time>2016-01-23T09:39:11Z</time>
      </trkpt>
      <trkpt lat="43.87849" lon="7.07568">
        <ele>605.2</ele>
        <time>2016-01-23T09:39:17Z</time>
      </trkpt>
      <trkpt lat="43.87858" lon="7.07561">
        <ele>605.9</ele>
        <time>2016-01-23T09:39:22Z</time>
      </trkpt>
      <trkpt lat="43.87864" lon="7.07551">
        <ele>607.2</ele>
        <time>2016-01-23T09:39:27Z</time>
      </trkpt>
      <trkpt lat="43.87871" lon="7.07539">
        <ele>608.4</ele>
        <time>2016-01-23T09:39:32Z</time>
      </trkpt>
      <trkpt lat="43.87876" lon="7.07527">
        <ele>608.8</ele>
        <time>2016-01-23T09:39:37Z</time>
      </trkpt>
      <trkpt lat="43.87876" lon="7.07513">
        <ele>609.5</ele>
        <time>2016-01-23T09:39:42Z</time>
      </trkpt>
      <trkpt lat="43.87876" lon="7.07499">
        <ele>611.4</ele>
        <time>2016-01-23T09:39:47Z</time>
      </trkpt>
      <trkpt lat="43.87878" lon="7.07486">
        <ele>610.4</ele>
        <time>2016-01-23T09:39:52Z</time>
      </trkpt>
      <trkpt lat="43.87883" lon="7.07476">
        <ele>611.8</ele>
        <time>2016-01-23T09:39:57Z</time>
      </trkpt>
      <trkpt lat="43.87889" lon="7.07466">
        <ele>612.6</ele>
        <time>2016-01-23T09:40:02Z</time>
      </trkpt>
      <trkpt lat="43.87895" lon="7.07455">
        <ele>614.4</ele>
        <time>2016-01-23T09:40:07Z</time>
      </trkpt>
      <trkpt lat="43.87901" lon="7.07442">
        <ele>614.6</ele>
        <time>2016-01-23T09:40:12Z</time>
      </trkpt>
      <trkpt lat="43.87908" lon="7.0743">
        <ele>615.7</ele>
        <time>2016-01-23T09:40:17Z</time>
      </trkpt>
      <trkpt lat="43.87912" lon="7.07417">
        <ele>615.8</ele>
        <time>2016-01-23T09:40:22Z</time>
      </trkpt>
      <trkpt lat="43.87916" lon="7.07405">
        <ele>617.6</ele>
        <time>2016-01-23T09:40:26Z</time>
      </trkpt>
      <trkpt lat="43.87919" lon="7.07392">
        <ele>617.7</ele>
        <time>2016-01-23T09:40:30Z</time>
      </trkpt>
      <trkpt lat="43.87923" lon="7.07379">
        <ele>618.4</ele>
        <time>2016-01-23T09:40:34Z</time>
      </trkpt>
      <trkpt lat="43.87928" lon="7.07366">
        <ele>617.9</ele>
        <time>2016-01-23T09:40:38Z</time>
      </trkpt>
      <trkpt lat="43.87934" lon="7.07354">
        <ele>618.1</ele>
        <time>2016-01-23T09:40:42Z</time>
      </trkpt>
      <trkpt lat="43.8794" lon="7.07342">
        <ele>618.8</ele>
        <time>2016-01-23T09:40:46Z</time>
      </trkpt>
      <trkpt lat="43.87945" lon="7.07331">
        <ele>619.9</ele>
        <time>2016-01-23T09:40:50Z</time>
      </trkpt>
      <trkpt lat="43.8795" lon="7.07319">
        <ele>620.8</ele>
        <time>2016-01-23T09:40:54Z</time>
      </trkpt>
      <trkpt lat="43.87955" lon="7.07307">
        <ele>621</ele>
        <time>2016-01-23T09:40:58Z</time>
      </trkpt>
      <trkpt lat="43.87959" lon="7.07293">
        <ele>621.5</ele>
        <time>2016-01-23T09:41:02Z</time>
      </trkpt>
      <trkpt lat="43.87964" lon="7.07281">
        <ele>621.6</ele>
        <time>2016-01-23T09:41:06Z</time>
      </trkpt>
      <trkpt lat="43.87969" lon="7.0727">
        <ele>622</ele>
        <time>2016-01-23T09:41:12Z</time>
      </trkpt>
      <trkpt lat="43.87969" lon="7.07256">
        <ele>622.5</ele>
        <time>2016-01-23T09:42:10Z</time>
      </trkpt>
      <trkpt lat="43.87973" lon="7.07243">
        <ele>622.1</ele>
        <time>2016-01-23T09:42:14Z</time>
      </trkpt>
      <trkpt lat="43.87976" lon="7.0723">
        <ele>623</ele>
        <time>2016-01-23T09:42:18Z</time>
      </trkpt>
      <trkpt lat="43.87979" lon="7.07217">
        <ele>622.7</ele>
        <time>2016-01-23T09:42:22Z</time>
      </trkpt>
      <trkpt lat="43.87983" lon="7.07204">
        <ele>623.1</ele>
        <time>2016-01-23T09:42:26Z</time>
      </trkpt>
      <trkpt lat="43.87989" lon="7.07191">
        <ele>623.4</ele>
        <time>2016-01-23T09:42:31Z</time>
      </trkpt>
      <trkpt lat="43.87996" lon="7.0718">
        <ele>623.3</ele>
        <time>2016-01-23T09:42:36Z</time>
      </trkpt>
      <trkpt lat="43.88005" lon="7.07173">
        <ele>624.7</ele>
        <time>2016-01-23T09:42:42Z</time>
      </trkpt>
      <trkpt lat="43.88015" lon="7.07168">
        <ele>626.1</ele>
        <time>2016-01-23T09:43:21Z</time>
      </trkpt>
      <trkpt lat="43.88024" lon="7.07164">
        <ele>626.6</ele>
        <time>2016-01-23T09:43:26Z</time>
      </trkpt>
      <trkpt lat="43.88033" lon="7.07161">
        <ele>628.1</ele>
        <time>2016-01-23T09:43:32Z</time>
      </trkpt>
      <trkpt lat="43.88043" lon="7.07158">
        <ele>629.7</ele>
        <time>2016-01-23T09:43:38Z</time>
      </trkpt>
      <trkpt lat="43.88051" lon="7.07153">
        <ele>630.1</ele>
        <time>2016-01-23T09:43:44Z</time>
      </trkpt>
      <trkpt lat="43.88059" lon="7.07147">
        <ele>631.9</ele>
        <time>2016-01-23T09:43:50Z</time>
      </trkpt>
      <trkpt lat="43.88067" lon="7.07141">
        <ele>633.3</ele>
        <time>2016-01-23T09:43:56Z</time>
      </trkpt>
      <trkpt lat="43.88077" lon="7.07135">
        <ele>634.3</ele>
        <time>2016-01-23T09:44:03Z</time>
      </trkpt>
      <trkpt lat="43.88084" lon="7.07127">
        <ele>634.7</ele>
        <time>2016-01-23T09:44:08Z</time>
      </trkpt>
      <trkpt lat="43.88091" lon="7.07118">
        <ele>636.3</ele>
        <time>2016-01-23T09:44:13Z</time>
      </trkpt>
      <trkpt lat="43.88101" lon="7.07112">
        <ele>637.8</ele>
        <time>2016-01-23T09:44:18Z</time>
      </trkpt>
      <trkpt lat="43.8811" lon="7.07112">
        <ele>637.5</ele>
        <time>2016-01-23T09:44:23Z</time>
      </trkpt>
      <trkpt lat="43.88119" lon="7.07113">
        <ele>637.8</ele>
        <time>2016-01-23T09:44:28Z</time>
      </trkpt>
      <trkpt lat="43.88129" lon="7.07114">
        <ele>638.6</ele>
        <time>2016-01-23T09:44:34Z</time>
      </trkpt>
      <trkpt lat="43.88139" lon="7.07113">
        <ele>639.9</ele>
        <time>2016-01-23T09:44:40Z</time>
      </trkpt>
      <trkpt lat="43.8815" lon="7.07111">
        <ele>640.7</ele>
        <time>2016-01-23T09:44:46Z</time>
      </trkpt>
      <trkpt lat="43.88157" lon="7.07104">
        <ele>641.9</ele>
        <time>2016-01-23T09:44:51Z</time>
      </trkpt>
      <trkpt lat="43.88164" lon="7.07095">
        <ele>642.6</ele>
        <time>2016-01-23T09:44:56Z</time>
      </trkpt>
      <trkpt lat="43.88169" lon="7.07084">
        <ele>643.8</ele>
        <time>2016-01-23T09:45:01Z</time>
      </trkpt>
      <trkpt lat="43.88175" lon="7.07072">
        <ele>643.8</ele>
        <time>2016-01-23T09:45:06Z</time>
      </trkpt>
      <trkpt lat="43.8818" lon="7.07062">
        <ele>644</ele>
        <time>2016-01-23T09:45:11Z</time>
      </trkpt>
      <trkpt lat="43.88187" lon="7.07052">
        <ele>644.9</ele>
        <time>2016-01-23T09:45:16Z</time>
      </trkpt>
      <trkpt lat="43.88194" lon="7.07044">
        <ele>646.8</ele>
        <time>2016-01-23T09:45:21Z</time>
      </trkpt>
      <trkpt lat="43.88202" lon="7.07037">
        <ele>646.2</ele>
        <time>2016-01-23T09:45:26Z</time>
      </trkpt>
      <trkpt lat="43.88211" lon="7.07029">
        <ele>646.8</ele>
        <time>2016-01-23T09:45:31Z</time>
      </trkpt>
      <trkpt lat="43.88219" lon="7.0702">
        <ele>647.6</ele>
        <time>2016-01-23T09:45:36Z</time>
      </trkpt>
      <trkpt lat="43.88227" lon="7.07015">
        <ele>647.3</ele>
        <time>2016-01-23T09:45:41Z</time>
      </trkpt>
      <trkpt lat="43.88237" lon="7.07013">
        <ele>647.3</ele>
        <time>2016-01-23T09:45:46Z</time>
      </trkpt>
      <trkpt lat="43.88247" lon="7.07012">
        <ele>648</ele>
        <time>2016-01-23T09:45:51Z</time>
      </trkpt>
      <trkpt lat="43.88256" lon="7.0701">
        <ele>648.6</ele>
        <time>2016-01-23T09:45:56Z</time>
      </trkpt>
      <trkpt lat="43.88267" lon="7.07008">
        <ele>648.5</ele>
        <time>2016-01-23T09:46:01Z</time>
      </trkpt>
      <trkpt lat="43.88277" lon="7.07002">
        <ele>649.1</ele>
        <time>2016-01-23T09:46:06Z</time>
      </trkpt>
      <trkpt lat="43.88279" lon="7.06988">
        <ele>650</ele>
        <time>2016-01-23T09:46:11Z</time>
      </trkpt>
      <trkpt lat="43.8828" lon="7.06973">
        <ele>650.1</ele>
        <time>2016-01-23T09:46:16Z</time>
      </trkpt>
      <trkpt lat="43.88279" lon="7.06958">
        <ele>651.7</ele>
        <time>2016-01-23T09:46:21Z</time>
      </trkpt>
      <trkpt lat="43.88281" lon="7.06946">
        <ele>652.6</ele>
        <time>2016-01-23T09:46:25Z</time>
      </trkpt>
      <trkpt lat="43.88284" lon="7.06932">
        <ele>652.7</ele>
        <time>2016-01-23T09:46:30Z</time>
      </trkpt>
      <trkpt lat="43.88291" lon="7.06922">
        <ele>652.8</ele>
        <time>2016-01-23T09:46:35Z</time>
      </trkpt>
      <trkpt lat="43.883" lon="7.06915">
        <ele>653.5</ele>
        <time>2016-01-23T09:46:40Z</time>
      </trkpt>
      <trkpt lat="43.8831" lon="7.0691">
        <ele>654.2</ele>
        <time>2016-01-23T09:46:46Z</time>
      </trkpt>
      <trkpt lat="43.8832" lon="7.06908">
        <ele>655.6</ele>
        <time>2016-01-23T09:46:51Z</time>
      </trkpt>
      <trkpt lat="43.8833" lon="7.06907">
        <ele>655.5</ele>
        <time>2016-01-23T09:46:56Z</time>
      </trkpt>
      <trkpt lat="43.8834" lon="7.06904">
        <ele>657.3</ele>
        <time>2016-01-23T09:47:01Z</time>
      </trkpt>
      <trkpt lat="43.8835" lon="7.069">
        <ele>657.8</ele>
        <time>2016-01-23T09:47:06Z</time>
      </trkpt>
      <trkpt lat="43.88356" lon="7.0689">
        <ele>658.6</ele>
        <time>2016-01-23T09:47:11Z</time>
      </trkpt>
      <trkpt lat="43.8836" lon="7.06877">
        <ele>660.5</ele>
        <time>2016-01-23T09:47:16Z</time>
      </trkpt>
      <trkpt lat="43.88363" lon="7.06864">
        <ele>660.8</ele>
        <time>2016-01-23T09:47:21Z</time>
      </trkpt>
      <trkpt lat="43.88368" lon="7.06851">
        <ele>661.7</ele>
        <time>2016-01-23T09:47:26Z</time>
      </trkpt>
      <trkpt lat="43.88373" lon="7.06839">
        <ele>662.4</ele>
        <time>2016-01-23T09:47:31Z</time>
      </trkpt>
      <trkpt lat="43.88381" lon="7.06831">
        <ele>662.7</ele>
        <time>2016-01-23T09:47:36Z</time>
      </trkpt>
      <trkpt lat="43.88391" lon="7.06825">
        <ele>663.1</ele>
        <time>2016-01-23T09:47:42Z</time>
      </trkpt>
      <trkpt lat="43.88399" lon="7.06821">
        <ele>664.4</ele>
        <time>2016-01-23T09:47:47Z</time>
      </trkpt>
      <trkpt lat="43.88408" lon="7.06816">
        <ele>665.7</ele>
        <time>2016-01-23T09:47:52Z</time>
      </trkpt>
      <trkpt lat="43.88417" lon="7.0681">
        <ele>666.2</ele>
        <time>2016-01-23T09:47:57Z</time>
      </trkpt>
      <trkpt lat="43.88426" lon="7.06802">
        <ele>667.3</ele>
        <time>2016-01-23T09:48:02Z</time>
      </trkpt>
      <trkpt lat="43.88436" lon="7.06794">
        <ele>667.8</ele>
        <time>2016-01-23T09:48:08Z</time>
      </trkpt>
      <trkpt lat="43.88446" lon="7.06791">
        <ele>667.9</ele>
        <time>2016-01-23T09:48:13Z</time>
      </trkpt>
      <trkpt lat="43.88456" lon="7.0679">
        <ele>667.4</ele>
        <time>2016-01-23T09:48:16Z</time>
      </trkpt>
      <trkpt lat="43.88467" lon="7.0679">
        <ele>667.6</ele>
        <time>2016-01-23T09:48:20Z</time>
      </trkpt>
      <trkpt lat="43.88478" lon="7.0679">
        <ele>667</ele>
        <time>2016-01-23T09:48:24Z</time>
      </trkpt>
      <trkpt lat="43.88489" lon="7.06792">
        <ele>667.7</ele>
        <time>2016-01-23T09:48:28Z</time>
      </trkpt>
      <trkpt lat="43.88498" lon="7.06794">
        <ele>667.9</ele>
        <time>2016-01-23T09:48:32Z</time>
      </trkpt>
      <trkpt lat="43.88507" lon="7.06799">
        <ele>669.8</ele>
        <time>2016-01-23T09:48:37Z</time>
      </trkpt>
      <trkpt lat="43.88517" lon="7.06805">
        <ele>670.2</ele>
        <time>2016-01-23T09:48:42Z</time>
      </trkpt>
      <trkpt lat="43.88525" lon="7.06811">
        <ele>670.7</ele>
        <time>2016-01-23T09:48:46Z</time>
      </trkpt>
      <trkpt lat="43.88534" lon="7.06817">
        <ele>670.8</ele>
        <time>2016-01-23T09:48:50Z</time>
      </trkpt>
      <trkpt lat="43.88545" lon="7.06821">
        <ele>671.1</ele>
        <time>2016-01-23T09:48:54Z</time>
      </trkpt>
      <trkpt lat="43.88554" lon="7.06827">
        <ele>671.7</ele>
        <time>2016-01-23T09:48:58Z</time>
      </trkpt>
      <trkpt lat="43.88563" lon="7.06835">
        <ele>671.8</ele>
        <time>2016-01-23T09:49:02Z</time>
      </trkpt>
      <trkpt lat="43.88574" lon="7.06835">
        <ele>672.2</ele>
        <time>2016-01-23T09:49:06Z</time>
      </trkpt>
      <trkpt lat="43.88584" lon="7.06829">
        <ele>673.5</ele>
        <time>2016-01-23T09:49:11Z</time>
      </trkpt>
      <trkpt lat="43.88593" lon="7.06827">
        <ele>673.2</ele>
        <time>2016-01-23T09:49:15Z</time>
      </trkpt>
      <trkpt lat="43.88601" lon="7.06819">
        <ele>675.2</ele>
        <time>2016-01-23T09:49:20Z</time>
      </trkpt>
      <trkpt lat="43.88603" lon="7.06805">
        <ele>676.5</ele>
        <time>2016-01-23T09:49:25Z</time>
      </trkpt>
      <trkpt lat="43.88608" lon="7.06791">
        <ele>677.3</ele>
        <time>2016-01-23T09:49:30Z</time>
      </trkpt>
      <trkpt lat="43.88616" lon="7.06781">
        <ele>677</ele>
        <time>2016-01-23T09:49:35Z</time>
      </trkpt>
      <trkpt lat="43.88625" lon="7.06777">
        <ele>678.4</ele>
        <time>2016-01-23T09:49:40Z</time>
      </trkpt>
      <trkpt lat="43.88634" lon="7.06779">
        <ele>679.8</ele>
        <time>2016-01-23T09:49:45Z</time>
      </trkpt>
      <trkpt lat="43.88644" lon="7.06782">
        <ele>680.6</ele>
        <time>2016-01-23T09:49:50Z</time>
      </trkpt>
      <trkpt lat="43.88653" lon="7.06787">
        <ele>681.4</ele>
        <time>2016-01-23T09:49:55Z</time>
      </trkpt>
      <trkpt lat="43.88662" lon="7.06792">
        <ele>682</ele>
        <time>2016-01-23T09:50:00Z</time>
      </trkpt>
      <trkpt lat="43.88672" lon="7.06797">
        <ele>682.6</ele>
        <time>2016-01-23T09:50:05Z</time>
      </trkpt>
      <trkpt lat="43.8868" lon="7.06802">
        <ele>682.8</ele>
        <time>2016-01-23T09:50:10Z</time>
      </trkpt>
      <trkpt lat="43.88689" lon="7.06808">
        <ele>683.8</ele>
        <time>2016-01-23T09:50:15Z</time>
      </trkpt>
      <trkpt lat="43.887" lon="7.06811">
        <ele>684.6</ele>
        <time>2016-01-23T09:50:20Z</time>
      </trkpt>
      <trkpt lat="43.88707" lon="7.06802">
        <ele>685.5</ele>
        <time>2016-01-23T09:50:25Z</time>
      </trkpt>
      <trkpt lat="43.88715" lon="7.06792">
        <ele>686.2</ele>
        <time>2016-01-23T09:50:30Z</time>
      </trkpt>
      <trkpt lat="43.88722" lon="7.06782">
        <ele>686.1</ele>
        <time>2016-01-23T09:50:35Z</time>
      </trkpt>
      <trkpt lat="43.8873" lon="7.06773">
        <ele>686.6</ele>
        <time>2016-01-23T09:50:40Z</time>
      </trkpt>
      <trkpt lat="43.8874" lon="7.06772">
        <ele>687.3</ele>
        <time>2016-01-23T09:50:46Z</time>
      </trkpt>
      <trkpt lat="43.88749" lon="7.06775">
        <ele>689.1</ele>
        <time>2016-01-23T09:50:54Z</time>
      </trkpt>
      <trkpt lat="43.88757" lon="7.06782">
        <ele>689.3</ele>
        <time>2016-01-23T09:51:17Z</time>
      </trkpt>
      <trkpt lat="43.88768" lon="7.06788">
        <ele>689.5</ele>
        <time>2016-01-23T09:51:22Z</time>
      </trkpt>
      <trkpt lat="43.88776" lon="7.0678">
        <ele>689.9</ele>
        <time>2016-01-23T09:51:26Z</time>
      </trkpt>
      <trkpt lat="43.88783" lon="7.06771">
        <ele>690</ele>
        <time>2016-01-23T09:51:30Z</time>
      </trkpt>
      <trkpt lat="43.88791" lon="7.06761">
        <ele>690.9</ele>
        <time>2016-01-23T09:51:34Z</time>
      </trkpt>
      <trkpt lat="43.88795" lon="7.06749">
        <ele>690.9</ele>
        <time>2016-01-23T09:51:38Z</time>
      </trkpt>
      <trkpt lat="43.888" lon="7.06738">
        <ele>690.4</ele>
        <time>2016-01-23T09:51:42Z</time>
      </trkpt>
      <trkpt lat="43.88807" lon="7.06732">
        <ele>690.8</ele>
        <time>2016-01-23T09:52:24Z</time>
      </trkpt>
      <trkpt lat="43.88817" lon="7.0673">
        <ele>691.1</ele>
        <time>2016-01-23T09:52:29Z</time>
      </trkpt>
      <trkpt lat="43.88827" lon="7.0673">
        <ele>691.8</ele>
        <time>2016-01-23T09:52:35Z</time>
      </trkpt>
      <trkpt lat="43.88837" lon="7.0673">
        <ele>693.3</ele>
        <time>2016-01-23T09:52:40Z</time>
      </trkpt>
      <trkpt lat="43.88846" lon="7.0673">
        <ele>693</ele>
        <time>2016-01-23T09:52:45Z</time>
      </trkpt>
      <trkpt lat="43.88855" lon="7.06732">
        <ele>694.5</ele>
        <time>2016-01-23T09:52:50Z</time>
      </trkpt>
      <trkpt lat="43.88865" lon="7.06736">
        <ele>696</ele>
        <time>2016-01-23T09:52:55Z</time>
      </trkpt>
      <trkpt lat="43.88874" lon="7.06739">
        <ele>696.8</ele>
        <time>2016-01-23T09:53:00Z</time>
      </trkpt>
      <trkpt lat="43.88884" lon="7.06741">
        <ele>696.6</ele>
        <time>2016-01-23T09:53:06Z</time>
      </trkpt>
      <trkpt lat="43.88893" lon="7.06741">
        <ele>697.7</ele>
        <time>2016-01-23T09:53:11Z</time>
      </trkpt>
      <trkpt lat="43.88904" lon="7.06742">
        <ele>698</ele>
        <time>2016-01-23T09:53:17Z</time>
      </trkpt>
      <trkpt lat="43.88913" lon="7.06742">
        <ele>698.9</ele>
        <time>2016-01-23T09:53:22Z</time>
      </trkpt>
      <trkpt lat="43.88924" lon="7.0674">
        <ele>699.6</ele>
        <time>2016-01-23T09:53:27Z</time>
      </trkpt>
      <trkpt lat="43.88934" lon="7.06737">
        <ele>700.3</ele>
        <time>2016-01-23T09:53:33Z</time>
      </trkpt>
      <trkpt lat="43.88943" lon="7.06734">
        <ele>702.5</ele>
        <time>2016-01-23T09:53:39Z</time>
      </trkpt>
      <trkpt lat="43.88953" lon="7.06733">
        <ele>703.6</ele>
        <time>2016-01-23T09:53:45Z</time>
      </trkpt>
      <trkpt lat="43.88962" lon="7.06736">
        <ele>704.3</ele>
        <time>2016-01-23T09:53:51Z</time>
      </trkpt>
      <trkpt lat="43.88973" lon="7.06737">
        <ele>705.7</ele>
        <time>2016-01-23T09:53:57Z</time>
      </trkpt>
      <trkpt lat="43.88982" lon="7.06731">
        <ele>706.2</ele>
        <time>2016-01-23T09:54:03Z</time>
      </trkpt>
      <trkpt lat="43.88991" lon="7.06723">
        <ele>706.9</ele>
        <time>2016-01-23T09:54:09Z</time>
      </trkpt>
      <trkpt lat="43.89" lon="7.06717">
        <ele>708.1</ele>
        <time>2016-01-23T09:54:15Z</time>
      </trkpt>
      <trkpt lat="43.89009" lon="7.06715">
        <ele>709.3</ele>
        <time>2016-01-23T09:54:22Z</time>
      </trkpt>
      <trkpt lat="43.89018" lon="7.06712">
        <ele>711.5</ele>
        <time>2016-01-23T09:54:28Z</time>
      </trkpt>
      <trkpt lat="43.89025" lon="7.06702">
        <ele>712.4</ele>
        <time>2016-01-23T09:54:36Z</time>
      </trkpt>
      <trkpt lat="43.8903" lon="7.06689">
        <ele>713.9</ele>
        <time>2016-01-23T09:54:43Z</time>
      </trkpt>
      <trkpt lat="43.89033" lon="7.06676">
        <ele>715.2</ele>
        <time>2016-01-23T09:54:50Z</time>
      </trkpt>
      <trkpt lat="43.89037" lon="7.06663">
        <ele>716.4</ele>
        <time>2016-01-23T09:54:57Z</time>
      </trkpt>
      <trkpt lat="43.89044" lon="7.06652">
        <ele>718.4</ele>
        <time>2016-01-23T09:55:04Z</time>
      </trkpt>
      <trkpt lat="43.89052" lon="7.06643">
        <ele>719.9</ele>
        <time>2016-01-23T09:55:11Z</time>
      </trkpt>
      <trkpt lat="43.8906" lon="7.06636">
        <ele>720.8</ele>
        <time>2016-01-23T09:55:18Z</time>
      </trkpt>
      <trkpt lat="43.89069" lon="7.06633">
        <ele>721.7</ele>
        <time>2016-01-23T09:55:25Z</time>
      </trkpt>
      <trkpt lat="43.89079" lon="7.06632">
        <ele>724.6</ele>
        <time>2016-01-23T09:55:32Z</time>
      </trkpt>
      <trkpt lat="43.89089" lon="7.0663">
        <ele>725.6</ele>
        <time>2016-01-23T09:55:39Z</time>
      </trkpt>
      <trkpt lat="43.89097" lon="7.06625">
        <ele>727</ele>
        <time>2016-01-23T09:55:45Z</time>
      </trkpt>
      <trkpt lat="43.89105" lon="7.06617">
        <ele>728.7</ele>
        <time>2016-01-23T09:55:51Z</time>
      </trkpt>
      <trkpt lat="43.89113" lon="7.06609">
        <ele>729</ele>
        <time>2016-01-23T09:55:58Z</time>
      </trkpt>
      <trkpt lat="43.89115" lon="7.06596">
        <ele>730.9</ele>
        <time>2016-01-23T09:56:07Z</time>
      </trkpt>
      <trkpt lat="43.89125" lon="7.06599">
        <ele>730.9</ele>
        <time>2016-01-23T09:56:14Z</time>
      </trkpt>
      <trkpt lat="43.89133" lon="7.06592">
        <ele>732.1</ele>
        <time>2016-01-23T09:56:21Z</time>
      </trkpt>
      <trkpt lat="43.89141" lon="7.06583">
        <ele>733.3</ele>
        <time>2016-01-23T09:56:28Z</time>
      </trkpt>
      <trkpt lat="43.89148" lon="7.06574">
        <ele>734.6</ele>
        <time>2016-01-23T09:56:34Z</time>
      </trkpt>
      <trkpt lat="43.89155" lon="7.06567">
        <ele>736.3</ele>
        <time>2016-01-23T09:56:40Z</time>
      </trkpt>
      <trkpt lat="43.89164" lon="7.0656">
        <ele>737.7</ele>
        <time>2016-01-23T09:56:47Z</time>
      </trkpt>
      <trkpt lat="43.89173" lon="7.06555">
        <ele>738.7</ele>
        <time>2016-01-23T09:56:53Z</time>
      </trkpt>
      <trkpt lat="43.89182" lon="7.06549">
        <ele>740</ele>
        <time>2016-01-23T09:57:00Z</time>
      </trkpt>
      <trkpt lat="43.8919" lon="7.06544">
        <ele>739.9</ele>
        <time>2016-01-23T09:57:06Z</time>
      </trkpt>
      <trkpt lat="43.89199" lon="7.06538">
        <ele>741.7</ele>
        <time>2016-01-23T09:57:12Z</time>
      </trkpt>
      <trkpt lat="43.89207" lon="7.06532">
        <ele>743.1</ele>
        <time>2016-01-23T09:57:18Z</time>
      </trkpt>
      <trkpt lat="43.89214" lon="7.06523">
        <ele>743.7</ele>
        <time>2016-01-23T09:57:24Z</time>
      </trkpt>
      <trkpt lat="43.89222" lon="7.06516">
        <ele>744.8</ele>
        <time>2016-01-23T09:57:29Z</time>
      </trkpt>
      <trkpt lat="43.8923" lon="7.06508">
        <ele>745</ele>
        <time>2016-01-23T09:57:34Z</time>
      </trkpt>
      <trkpt lat="43.89239" lon="7.065">
        <ele>745.5</ele>
        <time>2016-01-23T09:57:39Z</time>
      </trkpt>
      <trkpt lat="43.89249" lon="7.06492">
        <ele>745.6</ele>
        <time>2016-01-23T09:57:44Z</time>
      </trkpt>
      <trkpt lat="43.89258" lon="7.06489">
        <ele>745.4</ele>
        <time>2016-01-23T09:57:49Z</time>
      </trkpt>
      <trkpt lat="43.89267" lon="7.0649">
        <ele>746.3</ele>
        <time>2016-01-23T09:57:55Z</time>
      </trkpt>
      <trkpt lat="43.89276" lon="7.06494">
        <ele>745.8</ele>
        <time>2016-01-23T09:59:48Z</time>
      </trkpt>
      <trkpt lat="43.89286" lon="7.06497">
        <ele>746.2</ele>
        <time>2016-01-23T10:00:46Z</time>
      </trkpt>
      <trkpt lat="43.89295" lon="7.06501">
        <ele>747.4</ele>
        <time>2016-01-23T10:00:51Z</time>
      </trkpt>
      <trkpt lat="43.89304" lon="7.06507">
        <ele>748</ele>
        <time>2016-01-23T10:00:56Z</time>
      </trkpt>
      <trkpt lat="43.89313" lon="7.06514">
        <ele>749.6</ele>
        <time>2016-01-23T10:01:01Z</time>
      </trkpt>
      <trkpt lat="43.89323" lon="7.06517">
        <ele>750.1</ele>
        <time>2016-01-23T10:01:06Z</time>
      </trkpt>
      <trkpt lat="43.89332" lon="7.06515">
        <ele>751</ele>
        <time>2016-01-23T10:01:10Z</time>
      </trkpt>
      <trkpt lat="43.89342" lon="7.06514">
        <ele>752.4</ele>
        <time>2016-01-23T10:01:14Z</time>
      </trkpt>
      <trkpt lat="43.89352" lon="7.0651">
        <ele>752.4</ele>
        <time>2016-01-23T10:01:18Z</time>
      </trkpt>
      <trkpt lat="43.89361" lon="7.06503">
        <ele>752.8</ele>
        <time>2016-01-23T10:01:22Z</time>
      </trkpt>
      <trkpt lat="43.89371" lon="7.06498">
        <ele>753.6</ele>
        <time>2016-01-23T10:01:26Z</time>
      </trkpt>
      <trkpt lat="43.89379" lon="7.06494">
        <ele>754.7</ele>
        <time>2016-01-23T10:01:30Z</time>
      </trkpt>
      <trkpt lat="43.89388" lon="7.06491">
        <ele>755.9</ele>
        <time>2016-01-23T10:01:34Z</time>
      </trkpt>
      <trkpt lat="43.89399" lon="7.06489">
        <ele>756</ele>
        <time>2016-01-23T10:01:38Z</time>
      </trkpt>
      <trkpt lat="43.89409" lon="7.06487">
        <ele>757.9</ele>
        <time>2016-01-23T10:01:42Z</time>
      </trkpt>
      <trkpt lat="43.89418" lon="7.0648">
        <ele>759.3</ele>
        <time>2016-01-23T10:01:47Z</time>
      </trkpt>
      <trkpt lat="43.89425" lon="7.06469">
        <ele>759.5</ele>
        <time>2016-01-23T10:01:52Z</time>
      </trkpt>
      <trkpt lat="43.89434" lon="7.06462">
        <ele>759.9</ele>
        <time>2016-01-23T10:01:56Z</time>
      </trkpt>
      <trkpt lat="43.89444" lon="7.06457">
        <ele>760.9</ele>
        <time>2016-01-23T10:02:00Z</time>
      </trkpt>
      <trkpt lat="43.89455" lon="7.06455">
        <ele>761.2</ele>
        <time>2016-01-23T10:02:04Z</time>
      </trkpt>
      <trkpt lat="43.89466" lon="7.06454">
        <ele>762</ele>
        <time>2016-01-23T10:02:08Z</time>
      </trkpt>
      <trkpt lat="43.89476" lon="7.06454">
        <ele>763.2</ele>
        <time>2016-01-23T10:02:12Z</time>
      </trkpt>
      <trkpt lat="43.89487" lon="7.06451">
        <ele>763.4</ele>
        <time>2016-01-23T10:02:16Z</time>
      </trkpt>
      <trkpt lat="43.89497" lon="7.06447">
        <ele>763.9</ele>
        <time>2016-01-23T10:02:20Z</time>
      </trkpt>
      <trkpt lat="43.89507" lon="7.06443">
        <ele>764.4</ele>
        <time>2016-01-23T10:02:24Z</time>
      </trkpt>
      <trkpt lat="43.89517" lon="7.06438">
        <ele>766.1</ele>
        <time>2016-01-23T10:02:28Z</time>
      </trkpt>
      <trkpt lat="43.89526" lon="7.06435">
        <ele>766.8</ele>
        <time>2016-01-23T10:02:32Z</time>
      </trkpt>
      <trkpt lat="43.89536" lon="7.0643">
        <ele>767.9</ele>
        <time>2016-01-23T10:02:37Z</time>
      </trkpt>
      <trkpt lat="43.89546" lon="7.06425">
        <ele>768.6</ele>
        <time>2016-01-23T10:02:42Z</time>
      </trkpt>
      <trkpt lat="43.89554" lon="7.06419">
        <ele>769</ele>
        <time>2016-01-23T10:02:46Z</time>
      </trkpt>
      <trkpt lat="43.89563" lon="7.06413">
        <ele>769.8</ele>
        <time>2016-01-23T10:02:50Z</time>
      </trkpt>
      <trkpt lat="43.89573" lon="7.06407">
        <ele>771.2</ele>
        <time>2016-01-23T10:02:55Z</time>
      </trkpt>
      <trkpt lat="43.89582" lon="7.06404">
        <ele>772.1</ele>
        <time>2016-01-23T10:02:59Z</time>
      </trkpt>
      <trkpt lat="43.89591" lon="7.06403">
        <ele>772.5</ele>
        <time>2016-01-23T10:03:04Z</time>
      </trkpt>
      <trkpt lat="43.89601" lon="7.064">
        <ele>774</ele>
        <time>2016-01-23T10:03:10Z</time>
      </trkpt>
      <trkpt lat="43.89609" lon="7.06394">
        <ele>775.8</ele>
        <time>2016-01-23T10:03:15Z</time>
      </trkpt>
      <trkpt lat="43.89617" lon="7.06384">
        <ele>776.9</ele>
        <time>2016-01-23T10:03:20Z</time>
      </trkpt>
      <trkpt lat="43.89626" lon="7.06384">
        <ele>779</ele>
        <time>2016-01-23T10:03:26Z</time>
      </trkpt>
      <trkpt lat="43.89631" lon="7.06395">
        <ele>780.4</ele>
        <time>2016-01-23T10:03:32Z</time>
      </trkpt>
      <trkpt lat="43.89635" lon="7.06409">
        <ele>780.5</ele>
        <time>2016-01-23T10:03:37Z</time>
      </trkpt>
      <trkpt lat="43.89638" lon="7.06423">
        <ele>781</ele>
        <time>2016-01-23T10:03:42Z</time>
      </trkpt>
      <trkpt lat="43.89641" lon="7.06437">
        <ele>781.8</ele>
        <time>2016-01-23T10:03:47Z</time>
      </trkpt>
      <trkpt lat="43.89642" lon="7.0645">
        <ele>783.1</ele>
        <time>2016-01-23T10:03:52Z</time>
      </trkpt>
      <trkpt lat="43.89643" lon="7.06464">
        <ele>784</ele>
        <time>2016-01-23T10:03:57Z</time>
      </trkpt>
      <trkpt lat="43.89652" lon="7.06469">
        <ele>785.7</ele>
        <time>2016-01-23T10:04:03Z</time>
      </trkpt>
      <trkpt lat="43.89663" lon="7.06469">
        <ele>787</ele>
        <time>2016-01-23T10:04:09Z</time>
      </trkpt>
      <trkpt lat="43.8967" lon="7.06479">
        <ele>788.4</ele>
        <time>2016-01-23T10:04:14Z</time>
      </trkpt>
      <trkpt lat="43.89674" lon="7.0649">
        <ele>788.1</ele>
        <time>2016-01-23T10:04:18Z</time>
      </trkpt>
      <trkpt lat="43.8968" lon="7.065">
        <ele>789</ele>
        <time>2016-01-23T10:04:22Z</time>
      </trkpt>
      <trkpt lat="43.89691" lon="7.06501">
        <ele>790.9</ele>
        <time>2016-01-23T10:04:27Z</time>
      </trkpt>
      <trkpt lat="43.89699" lon="7.06491">
        <ele>791.2</ele>
        <time>2016-01-23T10:04:32Z</time>
      </trkpt>
      <trkpt lat="43.89701" lon="7.06477">
        <ele>791.9</ele>
        <time>2016-01-23T10:04:36Z</time>
      </trkpt>
      <trkpt lat="43.89698" lon="7.06465">
        <ele>791.6</ele>
        <time>2016-01-23T10:04:40Z</time>
      </trkpt>
      <trkpt lat="43.89694" lon="7.06452">
        <ele>791.6</ele>
        <time>2016-01-23T10:04:44Z</time>
      </trkpt>
      <trkpt lat="43.89687" lon="7.06442">
        <ele>792.7</ele>
        <time>2016-01-23T10:04:48Z</time>
      </trkpt>
      <trkpt lat="43.89686" lon="7.06428">
        <ele>792.9</ele>
        <time>2016-01-23T10:04:52Z</time>
      </trkpt>
      <trkpt lat="43.89693" lon="7.06421">
        <ele>793.7</ele>
        <time>2016-01-23T10:04:56Z</time>
      </trkpt>
      <trkpt lat="43.89702" lon="7.06421">
        <ele>794.7</ele>
        <time>2016-01-23T10:05:00Z</time>
      </trkpt>
      <trkpt lat="43.89712" lon="7.0642">
        <ele>795.4</ele>
        <time>2016-01-23T10:05:04Z</time>
      </trkpt>
      <trkpt lat="43.8972" lon="7.06416">
        <ele>796.5</ele>
        <time>2016-01-23T10:05:08Z</time>
      </trkpt>
      <trkpt lat="43.8973" lon="7.06409">
        <ele>797.1</ele>
        <time>2016-01-23T10:05:13Z</time>
      </trkpt>
      <trkpt lat="43.89739" lon="7.06414">
        <ele>798.4</ele>
        <time>2016-01-23T10:05:18Z</time>
      </trkpt>
      <trkpt lat="43.89748" lon="7.06418">
        <ele>800.1</ele>
        <time>2016-01-23T10:05:22Z</time>
      </trkpt>
      <trkpt lat="43.89757" lon="7.06414">
        <ele>800.9</ele>
        <time>2016-01-23T10:05:26Z</time>
      </trkpt>
      <trkpt lat="43.89767" lon="7.06406">
        <ele>801.3</ele>
        <time>2016-01-23T10:05:31Z</time>
      </trkpt>
      <trkpt lat="43.89774" lon="7.06394">
        <ele>802.3</ele>
        <time>2016-01-23T10:05:36Z</time>
      </trkpt>
      <trkpt lat="43.89778" lon="7.06382">
        <ele>802.9</ele>
        <time>2016-01-23T10:05:41Z</time>
      </trkpt>
      <trkpt lat="43.89786" lon="7.06375">
        <ele>804</ele>
        <time>2016-01-23T10:05:47Z</time>
      </trkpt>
      <trkpt lat="43.89787" lon="7.06388">
        <ele>806.1</ele>
        <time>2016-01-23T10:05:53Z</time>
      </trkpt>
      <trkpt lat="43.89782" lon="7.06402">
        <ele>805.7</ele>
        <time>2016-01-23T10:05:58Z</time>
      </trkpt>
      <trkpt lat="43.89777" lon="7.06416">
        <ele>806.7</ele>
        <time>2016-01-23T10:06:03Z</time>
      </trkpt>
      <trkpt lat="43.89768" lon="7.06426">
        <ele>808.4</ele>
        <time>2016-01-23T10:06:08Z</time>
      </trkpt>
      <trkpt lat="43.8976" lon="7.06434">
        <ele>808.3</ele>
        <time>2016-01-23T10:06:13Z</time>
      </trkpt>
      <trkpt lat="43.89751" lon="7.06443">
        <ele>809.9</ele>
        <time>2016-01-23T10:06:18Z</time>
      </trkpt>
      <trkpt lat="43.89745" lon="7.06455">
        <ele>811.8</ele>
        <time>2016-01-23T10:06:23Z</time>
      </trkpt>
      <trkpt lat="43.89746" lon="7.06468">
        <ele>811.9</ele>
        <time>2016-01-23T10:06:28Z</time>
      </trkpt>
      <trkpt lat="43.8975" lon="7.06482">
        <ele>812.8</ele>
        <time>2016-01-23T10:06:34Z</time>
      </trkpt>
      <trkpt lat="43.89755" lon="7.06492">
        <ele>814.3</ele>
        <time>2016-01-23T10:06:39Z</time>
      </trkpt>
      <trkpt lat="43.89763" lon="7.065">
        <ele>814.4</ele>
        <time>2016-01-23T10:06:44Z</time>
      </trkpt>
      <trkpt lat="43.89767" lon="7.06512">
        <ele>816.5</ele>
        <time>2016-01-23T10:06:50Z</time>
      </trkpt>
      <trkpt lat="43.8977" lon="7.06525">
        <ele>817.6</ele>
        <time>2016-01-23T10:06:55Z</time>
      </trkpt>
      <trkpt lat="43.89773" lon="7.06537">
        <ele>817.3</ele>
        <time>2016-01-23T10:07:00Z</time>
      </trkpt>
      <trkpt lat="43.89777" lon="7.06548">
        <ele>817.8</ele>
        <time>2016-01-23T10:07:05Z</time>
      </trkpt>
      <trkpt lat="43.89781" lon="7.0656">
        <ele>819.5</ele>
        <time>2016-01-23T10:07:10Z</time>
      </trkpt>
      <trkpt lat="43.89786" lon="7.0657">
        <ele>819.6</ele>
        <time>2016-01-23T10:07:15Z</time>
      </trkpt>
      <trkpt lat="43.89793" lon="7.06578">
        <ele>820.3</ele>
        <time>2016-01-23T10:07:20Z</time>
      </trkpt>
      <trkpt lat="43.89801" lon="7.06585">
        <ele>821.3</ele>
        <time>2016-01-23T10:07:26Z</time>
      </trkpt>
      <trkpt lat="43.89808" lon="7.06595">
        <ele>822.2</ele>
        <time>2016-01-23T10:07:32Z</time>
      </trkpt>
      <trkpt lat="43.89808" lon="7.06609">
        <ele>823.3</ele>
        <time>2016-01-23T10:07:38Z</time>
      </trkpt>
      <trkpt lat="43.89799" lon="7.06611">
        <ele>823.7</ele>
        <time>2016-01-23T10:07:43Z</time>
      </trkpt>
      <trkpt lat="43.89789" lon="7.06617">
        <ele>824.4</ele>
        <time>2016-01-23T10:07:48Z</time>
      </trkpt>
      <trkpt lat="43.89788" lon="7.0663">
        <ele>824.1</ele>
        <time>2016-01-23T10:07:53Z</time>
      </trkpt>
      <trkpt lat="43.89791" lon="7.06644">
        <ele>824.9</ele>
        <time>2016-01-23T10:07:59Z</time>
      </trkpt>
      <trkpt lat="43.89794" lon="7.06655">
        <ele>825.4</ele>
        <time>2016-01-23T10:08:05Z</time>
      </trkpt>
      <trkpt lat="43.89798" lon="7.06668">
        <ele>827.3</ele>
        <time>2016-01-23T10:08:11Z</time>
      </trkpt>
      <trkpt lat="43.89802" lon="7.06681">
        <ele>828.4</ele>
        <time>2016-01-23T10:08:17Z</time>
      </trkpt>
      <trkpt lat="43.89802" lon="7.06694">
        <ele>829.2</ele>
        <time>2016-01-23T10:08:23Z</time>
      </trkpt>
      <trkpt lat="43.89792" lon="7.06692">
        <ele>829.7</ele>
        <time>2016-01-23T10:08:30Z</time>
      </trkpt>
      <trkpt lat="43.89785" lon="7.06683">
        <ele>830.7</ele>
        <time>2016-01-23T10:08:36Z</time>
      </trkpt>
      <trkpt lat="43.89777" lon="7.06676">
        <ele>831</ele>
        <time>2016-01-23T10:08:41Z</time>
      </trkpt>
      <trkpt lat="43.89767" lon="7.06669">
        <ele>831.5</ele>
        <time>2016-01-23T10:08:47Z</time>
      </trkpt>
      <trkpt lat="43.89759" lon="7.06664">
        <ele>831.8</ele>
        <time>2016-01-23T10:08:52Z</time>
      </trkpt>
      <trkpt lat="43.8975" lon="7.06659">
        <ele>833</ele>
        <time>2016-01-23T10:08:57Z</time>
      </trkpt>
      <trkpt lat="43.89741" lon="7.06654">
        <ele>834.8</ele>
        <time>2016-01-23T10:09:02Z</time>
      </trkpt>
      <trkpt lat="43.89732" lon="7.0665">
        <ele>834.8</ele>
        <time>2016-01-23T10:09:07Z</time>
      </trkpt>
      <trkpt lat="43.89734" lon="7.06664">
        <ele>835.6</ele>
        <time>2016-01-23T10:09:15Z</time>
      </trkpt>
      <trkpt lat="43.89744" lon="7.0667">
        <ele>836.1</ele>
        <time>2016-01-23T10:09:22Z</time>
      </trkpt>
      <trkpt lat="43.89751" lon="7.06678">
        <ele>836.9</ele>
        <time>2016-01-23T10:09:28Z</time>
      </trkpt>
      <trkpt lat="43.89758" lon="7.06688">
        <ele>836.4</ele>
        <time>2016-01-23T10:09:34Z</time>
      </trkpt>
      <trkpt lat="43.89765" lon="7.06698">
        <ele>836.5</ele>
        <time>2016-01-23T10:09:40Z</time>
      </trkpt>
      <trkpt lat="43.8977" lon="7.0671">
        <ele>839.2</ele>
        <time>2016-01-23T10:09:46Z</time>
      </trkpt>
      <trkpt lat="43.89773" lon="7.06724">
        <ele>840.5</ele>
        <time>2016-01-23T10:09:52Z</time>
      </trkpt>
      <trkpt lat="43.89782" lon="7.06732">
        <ele>841.7</ele>
        <time>2016-01-23T10:09:58Z</time>
      </trkpt>
      <trkpt lat="43.8979" lon="7.06735">
        <ele>842.9</ele>
        <time>2016-01-23T10:10:03Z</time>
      </trkpt>
      <trkpt lat="43.89799" lon="7.06739">
        <ele>843.2</ele>
        <time>2016-01-23T10:10:08Z</time>
      </trkpt>
      <trkpt lat="43.89806" lon="7.06747">
        <ele>844.5</ele>
        <time>2016-01-23T10:10:13Z</time>
      </trkpt>
      <trkpt lat="43.89814" lon="7.06758">
        <ele>844.4</ele>
        <time>2016-01-23T10:10:19Z</time>
      </trkpt>
      <trkpt lat="43.89821" lon="7.06764">
        <ele>845.8</ele>
        <time>2016-01-23T10:10:24Z</time>
      </trkpt>
      <trkpt lat="43.89829" lon="7.06754">
        <ele>845.9</ele>
        <time>2016-01-23T10:10:30Z</time>
      </trkpt>
      <trkpt lat="43.8983" lon="7.06741">
        <ele>846.3</ele>
        <time>2016-01-23T10:10:36Z</time>
      </trkpt>
      <trkpt lat="43.89828" lon="7.06728">
        <ele>846.8</ele>
        <time>2016-01-23T10:10:41Z</time>
      </trkpt>
      <trkpt lat="43.89826" lon="7.06715">
        <ele>847.5</ele>
        <time>2016-01-23T10:10:46Z</time>
      </trkpt>
      <trkpt lat="43.89827" lon="7.06702">
        <ele>848.6</ele>
        <time>2016-01-23T10:10:51Z</time>
      </trkpt>
      <trkpt lat="43.8983" lon="7.0669">
        <ele>848.9</ele>
        <time>2016-01-23T10:10:56Z</time>
      </trkpt>
      <trkpt lat="43.89835" lon="7.06677">
        <ele>850.2</ele>
        <time>2016-01-23T10:11:02Z</time>
      </trkpt>
      <trkpt lat="43.89842" lon="7.06669">
        <ele>850.7</ele>
        <time>2016-01-23T10:11:08Z</time>
      </trkpt>
      <trkpt lat="43.89852" lon="7.06667">
        <ele>851.2</ele>
        <time>2016-01-23T10:11:15Z</time>
      </trkpt>
      <trkpt lat="43.89862" lon="7.06669">
        <ele>852.8</ele>
        <time>2016-01-23T10:11:22Z</time>
      </trkpt>
      <trkpt lat="43.89872" lon="7.06671">
        <ele>854.2</ele>
        <time>2016-01-23T10:11:28Z</time>
      </trkpt>
      <trkpt lat="43.89881" lon="7.06673">
        <ele>854.8</ele>
        <time>2016-01-23T10:11:34Z</time>
      </trkpt>
      <trkpt lat="43.89891" lon="7.06677">
        <ele>855.9</ele>
        <time>2016-01-23T10:11:40Z</time>
      </trkpt>
      <trkpt lat="43.89898" lon="7.06669">
        <ele>856.4</ele>
        <time>2016-01-23T10:11:48Z</time>
      </trkpt>
      <trkpt lat="43.89896" lon="7.06656">
        <ele>856.7</ele>
        <time>2016-01-23T10:11:55Z</time>
      </trkpt>
      <trkpt lat="43.89889" lon="7.06645">
        <ele>858.8</ele>
        <time>2016-01-23T10:12:02Z</time>
      </trkpt>
      <trkpt lat="43.89883" lon="7.06633">
        <ele>859</ele>
        <time>2016-01-23T10:12:09Z</time>
      </trkpt>
      <trkpt lat="43.89879" lon="7.06621">
        <ele>859.8</ele>
        <time>2016-01-23T10:12:15Z</time>
      </trkpt>
      <trkpt lat="43.89876" lon="7.06608">
        <ele>860.8</ele>
        <time>2016-01-23T10:12:21Z</time>
      </trkpt>
      <trkpt lat="43.89873" lon="7.06594">
        <ele>861.3</ele>
        <time>2016-01-23T10:12:27Z</time>
      </trkpt>
      <trkpt lat="43.89869" lon="7.06581">
        <ele>863.4</ele>
        <time>2016-01-23T10:12:33Z</time>
      </trkpt>
      <trkpt lat="43.89866" lon="7.06568">
        <ele>863.1</ele>
        <time>2016-01-23T10:12:39Z</time>
      </trkpt>
      <trkpt lat="43.89863" lon="7.06553">
        <ele>864.3</ele>
        <time>2016-01-23T10:12:45Z</time>
      </trkpt>
      <trkpt lat="43.89863" lon="7.06539">
        <ele>864.5</ele>
        <time>2016-01-23T10:12:51Z</time>
      </trkpt>
      <trkpt lat="43.89863" lon="7.06526">
        <ele>864</ele>
        <time>2016-01-23T10:12:56Z</time>
      </trkpt>
      <trkpt lat="43.89863" lon="7.06513">
        <ele>865.7</ele>
        <time>2016-01-23T10:13:02Z</time>
      </trkpt>
      <trkpt lat="43.89862" lon="7.06498">
        <ele>867</ele>
        <time>2016-01-23T10:13:08Z</time>
      </trkpt>
      <trkpt lat="43.89862" lon="7.06485">
        <ele>868</ele>
        <time>2016-01-23T10:13:13Z</time>
      </trkpt>
      <trkpt lat="43.89865" lon="7.06472">
        <ele>868.7</ele>
        <time>2016-01-23T10:13:18Z</time>
      </trkpt>
      <trkpt lat="43.89871" lon="7.06463">
        <ele>869.2</ele>
        <time>2016-01-23T10:13:23Z</time>
      </trkpt>
      <trkpt lat="43.89879" lon="7.06457">
        <ele>869.3</ele>
        <time>2016-01-23T10:13:28Z</time>
      </trkpt>
      <trkpt lat="43.89889" lon="7.06455">
        <ele>870</ele>
        <time>2016-01-23T10:13:33Z</time>
      </trkpt>
      <trkpt lat="43.89898" lon="7.06452">
        <ele>871.3</ele>
        <time>2016-01-23T10:13:39Z</time>
      </trkpt>
      <trkpt lat="43.89907" lon="7.06445">
        <ele>871.7</ele>
        <time>2016-01-23T10:13:45Z</time>
      </trkpt>
      <trkpt lat="43.89919" lon="7.06437">
        <ele>874</ele>
        <time>2016-01-23T10:13:55Z</time>
      </trkpt>
      <trkpt lat="43.89929" lon="7.06438">
        <ele>875.3</ele>
        <time>2016-01-23T10:14:02Z</time>
      </trkpt>
      <trkpt lat="43.89938" lon="7.06448">
        <ele>875</ele>
        <time>2016-01-23T10:14:09Z</time>
      </trkpt>
      <trkpt lat="43.89945" lon="7.06462">
        <ele>876</ele>
        <time>2016-01-23T10:14:17Z</time>
      </trkpt>
      <trkpt lat="43.89959" lon="7.06473">
        <ele>877</ele>
        <time>2016-01-23T10:14:25Z</time>
      </trkpt>
      <trkpt lat="43.89971" lon="7.06479">
        <ele>878</ele>
        <time>2016-01-23T10:14:33Z</time>
      </trkpt>
      <trkpt lat="43.8998" lon="7.06491">
        <ele>879</ele>
        <time>2016-01-23T10:14:41Z</time>
      </trkpt>
      <trkpt lat="43.8999" lon="7.065">
        <ele>881</ele>
        <time>2016-01-23T10:14:49Z</time>
      </trkpt>
      <trkpt lat="43.90001" lon="7.06507">
        <ele>882</ele>
        <time>2016-01-23T10:14:57Z</time>
      </trkpt>
      <trkpt lat="43.90012" lon="7.06516">
        <ele>883</ele>
        <time>2016-01-23T10:15:05Z</time>
      </trkpt>
      <trkpt lat="43.9002" lon="7.06527">
        <ele>886</ele>
        <time>2016-01-23T10:15:13Z</time>
      </trkpt>
      <trkpt lat="43.90028" lon="7.06538">
        <ele>887</ele>
        <time>2016-01-23T10:15:21Z</time>
      </trkpt>
      <trkpt lat="43.90043" lon="7.06542">
        <ele>889</ele>
        <time>2016-01-23T10:15:29Z</time>
      </trkpt>
      <trkpt lat="43.90052" lon="7.0654">
        <ele>890.7</ele>
        <time>2016-01-23T10:15:38Z</time>
      </trkpt>
      <trkpt lat="43.90051" lon="7.06526">
        <ele>891.8</ele>
        <time>2016-01-23T10:15:49Z</time>
      </trkpt>
      <trkpt lat="43.90047" lon="7.06514">
        <ele>892.3</ele>
        <time>2016-01-23T10:15:55Z</time>
      </trkpt>
      <trkpt lat="43.90045" lon="7.065">
        <ele>893</ele>
        <time>2016-01-23T10:16:02Z</time>
      </trkpt>
      <trkpt lat="43.90043" lon="7.06487">
        <ele>893.8</ele>
        <time>2016-01-23T10:16:08Z</time>
      </trkpt>
      <trkpt lat="43.90041" lon="7.06473">
        <ele>894.8</ele>
        <time>2016-01-23T10:16:15Z</time>
      </trkpt>
      <trkpt lat="43.9004" lon="7.0646">
        <ele>895.3</ele>
        <time>2016-01-23T10:16:21Z</time>
      </trkpt>
      <trkpt lat="43.90043" lon="7.06448">
        <ele>895.8</ele>
        <time>2016-01-23T10:16:29Z</time>
      </trkpt>
      <trkpt lat="43.90053" lon="7.06446">
        <ele>896.7</ele>
        <time>2016-01-23T10:16:36Z</time>
      </trkpt>
      <trkpt lat="43.90061" lon="7.06452">
        <ele>898.2</ele>
        <time>2016-01-23T10:16:42Z</time>
      </trkpt>
      <trkpt lat="43.90068" lon="7.06462">
        <ele>898.2</ele>
        <time>2016-01-23T10:16:48Z</time>
      </trkpt>
      <trkpt lat="43.90076" lon="7.06472">
        <ele>898.9</ele>
        <time>2016-01-23T10:16:54Z</time>
      </trkpt>
      <trkpt lat="43.90086" lon="7.06473">
        <ele>900</ele>
        <time>2016-01-23T10:16:59Z</time>
      </trkpt>
      <trkpt lat="43.90095" lon="7.06468">
        <ele>900.6</ele>
        <time>2016-01-23T10:17:05Z</time>
      </trkpt>
      <trkpt lat="43.90105" lon="7.06461">
        <ele>901.2</ele>
        <time>2016-01-23T10:17:12Z</time>
      </trkpt>
      <trkpt lat="43.90114" lon="7.06454">
        <ele>902.3</ele>
        <time>2016-01-23T10:17:19Z</time>
      </trkpt>
      <trkpt lat="43.90123" lon="7.0645">
        <ele>902.9</ele>
        <time>2016-01-23T10:17:26Z</time>
      </trkpt>
      <trkpt lat="43.90132" lon="7.06443">
        <ele>903.9</ele>
        <time>2016-01-23T10:17:32Z</time>
      </trkpt>
      <trkpt lat="43.90138" lon="7.06432">
        <ele>905.4</ele>
        <time>2016-01-23T10:17:38Z</time>
      </trkpt>
      <trkpt lat="43.90144" lon="7.06422">
        <ele>906.2</ele>
        <time>2016-01-23T10:17:44Z</time>
      </trkpt>
      <trkpt lat="43.90152" lon="7.06413">
        <ele>907</ele>
        <time>2016-01-23T10:17:50Z</time>
      </trkpt>
      <trkpt lat="43.90161" lon="7.06407">
        <ele>907.7</ele>
        <time>2016-01-23T10:17:56Z</time>
      </trkpt>
      <trkpt lat="43.9017" lon="7.06402">
        <ele>908.9</ele>
        <time>2016-01-23T10:18:02Z</time>
      </trkpt>
      <trkpt lat="43.90177" lon="7.06394">
        <ele>910.1</ele>
        <time>2016-01-23T10:18:07Z</time>
      </trkpt>
      <trkpt lat="43.90184" lon="7.06384">
        <ele>911.4</ele>
        <time>2016-01-23T10:18:13Z</time>
      </trkpt>
      <trkpt lat="43.90191" lon="7.06376">
        <ele>911.7</ele>
        <time>2016-01-23T10:18:18Z</time>
      </trkpt>
      <trkpt lat="43.90198" lon="7.06368">
        <ele>912.2</ele>
        <time>2016-01-23T10:18:24Z</time>
      </trkpt>
      <trkpt lat="43.90206" lon="7.0636">
        <ele>912.5</ele>
        <time>2016-01-23T10:18:30Z</time>
      </trkpt>
      <trkpt lat="43.90214" lon="7.06352">
        <ele>914</ele>
        <time>2016-01-23T10:18:36Z</time>
      </trkpt>
      <trkpt lat="43.9022" lon="7.06341">
        <ele>915.4</ele>
        <time>2016-01-23T10:18:42Z</time>
      </trkpt>
      <trkpt lat="43.9022" lon="7.06327">
        <ele>916.2</ele>
        <time>2016-01-23T10:18:48Z</time>
      </trkpt>
      <trkpt lat="43.90215" lon="7.06316">
        <ele>916.4</ele>
        <time>2016-01-23T10:18:53Z</time>
      </trkpt>
      <trkpt lat="43.90209" lon="7.06305">
        <ele>917.2</ele>
        <time>2016-01-23T10:18:58Z</time>
      </trkpt>
      <trkpt lat="43.90202" lon="7.06295">
        <ele>916.6</ele>
        <time>2016-01-23T10:19:04Z</time>
      </trkpt>
      <trkpt lat="43.90195" lon="7.06285">
        <ele>918.4</ele>
        <time>2016-01-23T10:19:10Z</time>
      </trkpt>
      <trkpt lat="43.90189" lon="7.06275">
        <ele>919.6</ele>
        <time>2016-01-23T10:19:16Z</time>
      </trkpt>
      <trkpt lat="43.90183" lon="7.06265">
        <ele>919.5</ele>
        <time>2016-01-23T10:19:21Z</time>
      </trkpt>
      <trkpt lat="43.90174" lon="7.06257">
        <ele>920.5</ele>
        <time>2016-01-23T10:19:27Z</time>
      </trkpt>
      <trkpt lat="43.90165" lon="7.06251">
        <ele>922</ele>
        <time>2016-01-23T10:19:33Z</time>
      </trkpt>
      <trkpt lat="43.90155" lon="7.06246">
        <ele>922.6</ele>
        <time>2016-01-23T10:19:39Z</time>
      </trkpt>
      <trkpt lat="43.90148" lon="7.06238">
        <ele>922.3</ele>
        <time>2016-01-23T10:19:44Z</time>
      </trkpt>
      <trkpt lat="43.90142" lon="7.06227">
        <ele>923.7</ele>
        <time>2016-01-23T10:19:50Z</time>
      </trkpt>
      <trkpt lat="43.90137" lon="7.06216">
        <ele>924</ele>
        <time>2016-01-23T10:19:55Z</time>
      </trkpt>
      <trkpt lat="43.90134" lon="7.06201">
        <ele>925.2</ele>
        <time>2016-01-23T10:20:01Z</time>
      </trkpt>
      <trkpt lat="43.90132" lon="7.06188">
        <ele>926.1</ele>
        <time>2016-01-23T10:20:07Z</time>
      </trkpt>
      <trkpt lat="43.90141" lon="7.06192">
        <ele>926.7</ele>
        <time>2016-01-23T10:20:17Z</time>
      </trkpt>
      <trkpt lat="43.90145" lon="7.06203">
        <ele>927.4</ele>
        <time>2016-01-23T10:20:22Z</time>
      </trkpt>
      <trkpt lat="43.90151" lon="7.06215">
        <ele>928.1</ele>
        <time>2016-01-23T10:20:28Z</time>
      </trkpt>
      <trkpt lat="43.9016" lon="7.06223">
        <ele>928.7</ele>
        <time>2016-01-23T10:20:34Z</time>
      </trkpt>
      <trkpt lat="43.90171" lon="7.06227">
        <ele>930.2</ele>
        <time>2016-01-23T10:20:40Z</time>
      </trkpt>
      <trkpt lat="43.9018" lon="7.06233">
        <ele>931.9</ele>
        <time>2016-01-23T10:20:46Z</time>
      </trkpt>
      <trkpt lat="43.90188" lon="7.0624">
        <ele>931.7</ele>
        <time>2016-01-23T10:20:52Z</time>
      </trkpt>
      <trkpt lat="43.90197" lon="7.06246">
        <ele>934.2</ele>
        <time>2016-01-23T10:20:58Z</time>
      </trkpt>
      <trkpt lat="43.90206" lon="7.06252">
        <ele>935.3</ele>
        <time>2016-01-23T10:21:04Z</time>
      </trkpt>
      <trkpt lat="43.90216" lon="7.06258">
        <ele>935.8</ele>
        <time>2016-01-23T10:21:10Z</time>
      </trkpt>
      <trkpt lat="43.90223" lon="7.06264">
        <ele>936.9</ele>
        <time>2016-01-23T10:21:16Z</time>
      </trkpt>
      <trkpt lat="43.90231" lon="7.06272">
        <ele>937.7</ele>
        <time>2016-01-23T10:21:21Z</time>
      </trkpt>
      <trkpt lat="43.90239" lon="7.06279">
        <ele>938.4</ele>
        <time>2016-01-23T10:21:27Z</time>
      </trkpt>
      <trkpt lat="43.90246" lon="7.06288">
        <ele>938.9</ele>
        <time>2016-01-23T10:21:32Z</time>
      </trkpt>
      <trkpt lat="43.90251" lon="7.06301">
        <ele>940.8</ele>
        <time>2016-01-23T10:21:38Z</time>
      </trkpt>
      <trkpt lat="43.90258" lon="7.06311">
        <ele>941.6</ele>
        <time>2016-01-23T10:21:44Z</time>
      </trkpt>
      <trkpt lat="43.90265" lon="7.0632">
        <ele>941</ele>
        <time>2016-01-23T10:21:49Z</time>
      </trkpt>
      <trkpt lat="43.90269" lon="7.06333">
        <ele>941.9</ele>
        <time>2016-01-23T10:21:54Z</time>
      </trkpt>
      <trkpt lat="43.90272" lon="7.06346">
        <ele>942.1</ele>
        <time>2016-01-23T10:21:59Z</time>
      </trkpt>
      <trkpt lat="43.90274" lon="7.06358">
        <ele>943.8</ele>
        <time>2016-01-23T10:22:03Z</time>
      </trkpt>
      <trkpt lat="43.9028" lon="7.06368">
        <ele>943.8</ele>
        <time>2016-01-23T10:22:09Z</time>
      </trkpt>
      <trkpt lat="43.90284" lon="7.06356">
        <ele>944</ele>
        <time>2016-01-23T10:22:17Z</time>
      </trkpt>
      <trkpt lat="43.90279" lon="7.06343">
        <ele>944.5</ele>
        <time>2016-01-23T10:22:23Z</time>
      </trkpt>
      <trkpt lat="43.90277" lon="7.0633">
        <ele>946</ele>
        <time>2016-01-23T10:22:29Z</time>
      </trkpt>
      <trkpt lat="43.90274" lon="7.06316">
        <ele>946</ele>
        <time>2016-01-23T10:22:35Z</time>
      </trkpt>
      <trkpt lat="43.90269" lon="7.06303">
        <ele>946.1</ele>
        <time>2016-01-23T10:22:41Z</time>
      </trkpt>
      <trkpt lat="43.90264" lon="7.0629">
        <ele>947.5</ele>
        <time>2016-01-23T10:22:47Z</time>
      </trkpt>
      <trkpt lat="43.90259" lon="7.06279">
        <ele>948.2</ele>
        <time>2016-01-23T10:22:52Z</time>
      </trkpt>
      <trkpt lat="43.90255" lon="7.06268">
        <ele>949.1</ele>
        <time>2016-01-23T10:22:57Z</time>
      </trkpt>
      <trkpt lat="43.90251" lon="7.06256">
        <ele>949.3</ele>
        <time>2016-01-23T10:23:02Z</time>
      </trkpt>
      <trkpt lat="43.90246" lon="7.06243">
        <ele>950.7</ele>
        <time>2016-01-23T10:23:08Z</time>
      </trkpt>
      <trkpt lat="43.90243" lon="7.06231">
        <ele>951.9</ele>
        <time>2016-01-23T10:23:13Z</time>
      </trkpt>
      <trkpt lat="43.90239" lon="7.06217">
        <ele>953.4</ele>
        <time>2016-01-23T10:23:19Z</time>
      </trkpt>
      <trkpt lat="43.90237" lon="7.06203">
        <ele>954.3</ele>
        <time>2016-01-23T10:23:25Z</time>
      </trkpt>
      <trkpt lat="43.90239" lon="7.0619">
        <ele>955</ele>
        <time>2016-01-23T10:23:31Z</time>
      </trkpt>
      <trkpt lat="43.90239" lon="7.06175">
        <ele>954.8</ele>
        <time>2016-01-23T10:23:37Z</time>
      </trkpt>
      <trkpt lat="43.90238" lon="7.06162">
        <ele>956.2</ele>
        <time>2016-01-23T10:23:42Z</time>
      </trkpt>
      <trkpt lat="43.90243" lon="7.0615">
        <ele>956.8</ele>
        <time>2016-01-23T10:23:48Z</time>
      </trkpt>
      <trkpt lat="43.90252" lon="7.06144">
        <ele>958.8</ele>
        <time>2016-01-23T10:23:57Z</time>
      </trkpt>
      <trkpt lat="43.90261" lon="7.0614">
        <ele>958.6</ele>
        <time>2016-01-23T10:24:05Z</time>
      </trkpt>
      <trkpt lat="43.90271" lon="7.0614">
        <ele>960</ele>
        <time>2016-01-23T10:24:12Z</time>
      </trkpt>
      <trkpt lat="43.9028" lon="7.0614">
        <ele>960.4</ele>
        <time>2016-01-23T10:24:18Z</time>
      </trkpt>
      <trkpt lat="43.9029" lon="7.0614">
        <ele>961</ele>
        <time>2016-01-23T10:24:25Z</time>
      </trkpt>
      <trkpt lat="43.903" lon="7.06139">
        <ele>962</ele>
        <time>2016-01-23T10:24:31Z</time>
      </trkpt>
      <trkpt lat="43.90309" lon="7.06136">
        <ele>963.2</ele>
        <time>2016-01-23T10:24:37Z</time>
      </trkpt>
      <trkpt lat="43.90318" lon="7.06133">
        <ele>964.1</ele>
        <time>2016-01-23T10:24:43Z</time>
      </trkpt>
      <trkpt lat="43.90329" lon="7.0613">
        <ele>964.8</ele>
        <time>2016-01-23T10:24:49Z</time>
      </trkpt>
      <trkpt lat="43.90339" lon="7.06126">
        <ele>966.1</ele>
        <time>2016-01-23T10:24:55Z</time>
      </trkpt>
      <trkpt lat="43.90348" lon="7.06122">
        <ele>965.8</ele>
        <time>2016-01-23T10:25:01Z</time>
      </trkpt>
      <trkpt lat="43.90358" lon="7.06119">
        <ele>968.3</ele>
        <time>2016-01-23T10:25:08Z</time>
      </trkpt>
      <trkpt lat="43.90367" lon="7.06116">
        <ele>969.1</ele>
        <time>2016-01-23T10:25:14Z</time>
      </trkpt>
      <trkpt lat="43.90375" lon="7.0611">
        <ele>970.5</ele>
        <time>2016-01-23T10:25:20Z</time>
      </trkpt>
      <trkpt lat="43.90381" lon="7.06099">
        <ele>971.2</ele>
        <time>2016-01-23T10:25:25Z</time>
      </trkpt>
      <trkpt lat="43.90378" lon="7.06085">
        <ele>971.5</ele>
        <time>2016-01-23T10:25:31Z</time>
      </trkpt>
      <trkpt lat="43.90372" lon="7.06074">
        <ele>972.6</ele>
        <time>2016-01-23T10:25:36Z</time>
      </trkpt>
      <trkpt lat="43.90366" lon="7.06063">
        <ele>973.1</ele>
        <time>2016-01-23T10:25:41Z</time>
      </trkpt>
      <trkpt lat="43.9036" lon="7.06053">
        <ele>973.3</ele>
        <time>2016-01-23T10:25:45Z</time>
      </trkpt>
      <trkpt lat="43.90356" lon="7.06041">
        <ele>973.4</ele>
        <time>2016-01-23T10:25:49Z</time>
      </trkpt>
      <trkpt lat="43.90352" lon="7.06027">
        <ele>974.4</ele>
        <time>2016-01-23T10:25:54Z</time>
      </trkpt>
      <trkpt lat="43.90348" lon="7.06015">
        <ele>974.8</ele>
        <time>2016-01-23T10:25:58Z</time>
      </trkpt>
      <trkpt lat="43.90345" lon="7.06002">
        <ele>975.1</ele>
        <time>2016-01-23T10:26:03Z</time>
      </trkpt>
      <trkpt lat="43.90351" lon="7.05993">
        <ele>975.7</ele>
        <time>2016-01-23T10:26:09Z</time>
      </trkpt>
      <trkpt lat="43.90355" lon="7.06005">
        <ele>976.9</ele>
        <time>2016-01-23T10:26:16Z</time>
      </trkpt>
      <trkpt lat="43.90359" lon="7.06018">
        <ele>978.7</ele>
        <time>2016-01-23T10:26:23Z</time>
      </trkpt>
      <trkpt lat="43.90365" lon="7.06029">
        <ele>979.6</ele>
        <time>2016-01-23T10:26:29Z</time>
      </trkpt>
      <trkpt lat="43.90372" lon="7.06041">
        <ele>980.8</ele>
        <time>2016-01-23T10:26:35Z</time>
      </trkpt>
      <trkpt lat="43.9038" lon="7.06049">
        <ele>981.8</ele>
        <time>2016-01-23T10:26:41Z</time>
      </trkpt>
      <trkpt lat="43.9039" lon="7.06054">
        <ele>983.4</ele>
        <time>2016-01-23T10:26:47Z</time>
      </trkpt>
      <trkpt lat="43.90398" lon="7.06058">
        <ele>984.8</ele>
        <time>2016-01-23T10:26:52Z</time>
      </trkpt>
      <trkpt lat="43.90407" lon="7.06063">
        <ele>985.6</ele>
        <time>2016-01-23T10:26:57Z</time>
      </trkpt>
      <trkpt lat="43.90414" lon="7.06071">
        <ele>985.6</ele>
        <time>2016-01-23T10:27:02Z</time>
      </trkpt>
      <trkpt lat="43.90419" lon="7.06084">
        <ele>985.6</ele>
        <time>2016-01-23T10:27:07Z</time>
      </trkpt>
      <trkpt lat="43.9042" lon="7.06098">
        <ele>987.2</ele>
        <time>2016-01-23T10:27:12Z</time>
      </trkpt>
      <trkpt lat="43.90419" lon="7.06112">
        <ele>987.9</ele>
        <time>2016-01-23T10:27:18Z</time>
      </trkpt>
      <trkpt lat="43.90416" lon="7.06126">
        <ele>989.9</ele>
        <time>2016-01-23T10:27:24Z</time>
      </trkpt>
      <trkpt lat="43.9041" lon="7.06137">
        <ele>990.3</ele>
        <time>2016-01-23T10:27:29Z</time>
      </trkpt>
      <trkpt lat="43.90402" lon="7.06147">
        <ele>990.6</ele>
        <time>2016-01-23T10:27:34Z</time>
      </trkpt>
      <trkpt lat="43.90393" lon="7.06153">
        <ele>991.3</ele>
        <time>2016-01-23T10:27:39Z</time>
      </trkpt>
      <trkpt lat="43.90383" lon="7.06159">
        <ele>992.2</ele>
        <time>2016-01-23T10:27:44Z</time>
      </trkpt>
      <trkpt lat="43.90374" lon="7.06166">
        <ele>993.6</ele>
        <time>2016-01-23T10:27:49Z</time>
      </trkpt>
      <trkpt lat="43.90365" lon="7.06174">
        <ele>994.6</ele>
        <time>2016-01-23T10:27:54Z</time>
      </trkpt>
      <trkpt lat="43.90356" lon="7.06182">
        <ele>995.1</ele>
        <time>2016-01-23T10:27:59Z</time>
      </trkpt>
      <trkpt lat="43.90351" lon="7.06191">
        <ele>996.8</ele>
        <time>2016-01-23T10:28:04Z</time>
      </trkpt>
      <trkpt lat="43.90347" lon="7.06203">
        <ele>997.6</ele>
        <time>2016-01-23T10:28:11Z</time>
      </trkpt>
      <trkpt lat="43.90349" lon="7.06217">
        <ele>999.4</ele>
        <time>2016-01-23T10:28:18Z</time>
      </trkpt>
      <trkpt lat="43.90353" lon="7.06228">
        <ele>999.6</ele>
        <time>2016-01-23T10:28:27Z</time>
      </trkpt>
      <trkpt lat="43.9036" lon="7.06238">
        <ele>998.9</ele>
        <time>2016-01-23T10:32:08Z</time>
      </trkpt>
      <trkpt lat="43.90366" lon="7.06248">
        <ele>999.8</ele>
        <time>2016-01-23T10:32:14Z</time>
      </trkpt>
      <trkpt lat="43.9037" lon="7.06261">
        <ele>1000.4</ele>
        <time>2016-01-23T10:32:20Z</time>
      </trkpt>
      <trkpt lat="43.90374" lon="7.06274">
        <ele>1001.7</ele>
        <time>2016-01-23T10:32:26Z</time>
      </trkpt>
      <trkpt lat="43.90378" lon="7.06285">
        <ele>1002.9</ele>
        <time>2016-01-23T10:32:32Z</time>
      </trkpt>
      <trkpt lat="43.90383" lon="7.06298">
        <ele>1004.4</ele>
        <time>2016-01-23T10:32:38Z</time>
      </trkpt>
      <trkpt lat="43.90386" lon="7.06311">
        <ele>1005.3</ele>
        <time>2016-01-23T10:32:43Z</time>
      </trkpt>
      <trkpt lat="43.90388" lon="7.06325">
        <ele>1006.1</ele>
        <time>2016-01-23T10:32:49Z</time>
      </trkpt>
      <trkpt lat="43.90387" lon="7.06339">
        <ele>1006.9</ele>
        <time>2016-01-23T10:32:55Z</time>
      </trkpt>
      <trkpt lat="43.90385" lon="7.06354">
        <ele>1007</ele>
        <time>2016-01-23T10:33:01Z</time>
      </trkpt>
      <trkpt lat="43.90387" lon="7.06367">
        <ele>1007.7</ele>
        <time>2016-01-23T10:33:07Z</time>
      </trkpt>
      <trkpt lat="43.90393" lon="7.06377">
        <ele>1008.7</ele>
        <time>2016-01-23T10:33:13Z</time>
      </trkpt>
      <trkpt lat="43.90401" lon="7.06385">
        <ele>1010.3</ele>
        <time>2016-01-23T10:33:19Z</time>
      </trkpt>
      <trkpt lat="43.90409" lon="7.06394">
        <ele>1010.8</ele>
        <time>2016-01-23T10:33:25Z</time>
      </trkpt>
      <trkpt lat="43.90416" lon="7.06403">
        <ele>1011.8</ele>
        <time>2016-01-23T10:33:30Z</time>
      </trkpt>
      <trkpt lat="43.90423" lon="7.06414">
        <ele>1011.7</ele>
        <time>2016-01-23T10:33:35Z</time>
      </trkpt>
      <trkpt lat="43.90431" lon="7.06423">
        <ele>1013.3</ele>
        <time>2016-01-23T10:33:40Z</time>
      </trkpt>
      <trkpt lat="43.90437" lon="7.06433">
        <ele>1014.1</ele>
        <time>2016-01-23T10:33:45Z</time>
      </trkpt>
      <trkpt lat="43.90442" lon="7.06443">
        <ele>1015</ele>
        <time>2016-01-23T10:33:50Z</time>
      </trkpt>
      <trkpt lat="43.90448" lon="7.06455">
        <ele>1016.3</ele>
        <time>2016-01-23T10:33:56Z</time>
      </trkpt>
      <trkpt lat="43.90452" lon="7.06467">
        <ele>1017.4</ele>
        <time>2016-01-23T10:34:01Z</time>
      </trkpt>
      <trkpt lat="43.90455" lon="7.0648">
        <ele>1018.7</ele>
        <time>2016-01-23T10:34:06Z</time>
      </trkpt>
      <trkpt lat="43.90455" lon="7.06493">
        <ele>1019</ele>
        <time>2016-01-23T10:34:11Z</time>
      </trkpt>
      <trkpt lat="43.90452" lon="7.06507">
        <ele>1019.8</ele>
        <time>2016-01-23T10:34:17Z</time>
      </trkpt>
      <trkpt lat="43.90449" lon="7.06521">
        <ele>1020.7</ele>
        <time>2016-01-23T10:34:23Z</time>
      </trkpt>
      <trkpt lat="43.90445" lon="7.06533">
        <ele>1021.7</ele>
        <time>2016-01-23T10:34:28Z</time>
      </trkpt>
      <trkpt lat="43.90439" lon="7.06544">
        <ele>1022.8</ele>
        <time>2016-01-23T10:34:33Z</time>
      </trkpt>
      <trkpt lat="43.90433" lon="7.06555">
        <ele>1023.6</ele>
        <time>2016-01-23T10:34:38Z</time>
      </trkpt>
      <trkpt lat="43.90426" lon="7.06565">
        <ele>1024.9</ele>
        <time>2016-01-23T10:34:43Z</time>
      </trkpt>
      <trkpt lat="43.90419" lon="7.06575">
        <ele>1026.1</ele>
        <time>2016-01-23T10:34:49Z</time>
      </trkpt>
      <trkpt lat="43.90414" lon="7.06587">
        <ele>1027.1</ele>
        <time>2016-01-23T10:34:55Z</time>
      </trkpt>
      <trkpt lat="43.9041" lon="7.06599">
        <ele>1027.7</ele>
        <time>2016-01-23T10:35:01Z</time>
      </trkpt>
      <trkpt lat="43.90407" lon="7.06613">
        <ele>1028.6</ele>
        <time>2016-01-23T10:35:06Z</time>
      </trkpt>
      <trkpt lat="43.90403" lon="7.06626">
        <ele>1028.3</ele>
        <time>2016-01-23T10:35:11Z</time>
      </trkpt>
      <trkpt lat="43.90399" lon="7.06639">
        <ele>1030</ele>
        <time>2016-01-23T10:35:16Z</time>
      </trkpt>
      <trkpt lat="43.90393" lon="7.06649">
        <ele>1031.4</ele>
        <time>2016-01-23T10:35:22Z</time>
      </trkpt>
      <trkpt lat="43.90383" lon="7.06649">
        <ele>1032.2</ele>
        <time>2016-01-23T10:35:28Z</time>
      </trkpt>
      <trkpt lat="43.90374" lon="7.0664">
        <ele>1033.2</ele>
        <time>2016-01-23T10:35:34Z</time>
      </trkpt>
      <trkpt lat="43.90367" lon="7.06632">
        <ele>1033.9</ele>
        <time>2016-01-23T10:35:39Z</time>
      </trkpt>
      <trkpt lat="43.90359" lon="7.06622">
        <ele>1034.8</ele>
        <time>2016-01-23T10:35:44Z</time>
      </trkpt>
      <trkpt lat="43.90351" lon="7.06614">
        <ele>1034.9</ele>
        <time>2016-01-23T10:35:49Z</time>
      </trkpt>
      <trkpt lat="43.90344" lon="7.06605">
        <ele>1036.3</ele>
        <time>2016-01-23T10:35:54Z</time>
      </trkpt>
      <trkpt lat="43.90337" lon="7.06596">
        <ele>1036.7</ele>
        <time>2016-01-23T10:35:59Z</time>
      </trkpt>
      <trkpt lat="43.9033" lon="7.06587">
        <ele>1037.4</ele>
        <time>2016-01-23T10:36:04Z</time>
      </trkpt>
      <trkpt lat="43.90323" lon="7.06577">
        <ele>1038.3</ele>
        <time>2016-01-23T10:36:09Z</time>
      </trkpt>
      <trkpt lat="43.90317" lon="7.06566">
        <ele>1038.9</ele>
        <time>2016-01-23T10:36:14Z</time>
      </trkpt>
      <trkpt lat="43.90309" lon="7.06558">
        <ele>1039.8</ele>
        <time>2016-01-23T10:36:19Z</time>
      </trkpt>
      <trkpt lat="43.90301" lon="7.06553">
        <ele>1040</ele>
        <time>2016-01-23T10:36:25Z</time>
      </trkpt>
      <trkpt lat="43.90292" lon="7.06558">
        <ele>1041.8</ele>
        <time>2016-01-23T10:36:33Z</time>
      </trkpt>
      <trkpt lat="43.90294" lon="7.06572">
        <ele>1042.1</ele>
        <time>2016-01-23T10:37:02Z</time>
      </trkpt>
      <trkpt lat="43.90298" lon="7.06584">
        <ele>1042.8</ele>
        <time>2016-01-23T10:37:10Z</time>
      </trkpt>
      <trkpt lat="43.90303" lon="7.06595">
        <ele>1043.1</ele>
        <time>2016-01-23T10:37:17Z</time>
      </trkpt>
      <trkpt lat="43.90308" lon="7.06607">
        <ele>1045</ele>
        <time>2016-01-23T10:37:24Z</time>
      </trkpt>
      <trkpt lat="43.90313" lon="7.06619">
        <ele>1047.6</ele>
        <time>2016-01-23T10:37:31Z</time>
      </trkpt>
      <trkpt lat="43.90317" lon="7.06631">
        <ele>1048.5</ele>
        <time>2016-01-23T10:37:37Z</time>
      </trkpt>
      <trkpt lat="43.90321" lon="7.06643">
        <ele>1050.1</ele>
        <time>2016-01-23T10:37:43Z</time>
      </trkpt>
      <trkpt lat="43.90325" lon="7.06656">
        <ele>1050.8</ele>
        <time>2016-01-23T10:37:49Z</time>
      </trkpt>
      <trkpt lat="43.90328" lon="7.06669">
        <ele>1052.4</ele>
        <time>2016-01-23T10:37:55Z</time>
      </trkpt>
      <trkpt lat="43.90331" lon="7.06682">
        <ele>1053.9</ele>
        <time>2016-01-23T10:38:01Z</time>
      </trkpt>
      <trkpt lat="43.90332" lon="7.06696">
        <ele>1054.7</ele>
        <time>2016-01-23T10:38:07Z</time>
      </trkpt>
      <trkpt lat="43.90334" lon="7.06709">
        <ele>1056</ele>
        <time>2016-01-23T10:38:14Z</time>
      </trkpt>
      <trkpt lat="43.90332" lon="7.06723">
        <ele>1056.6</ele>
        <time>2016-01-23T10:39:37Z</time>
      </trkpt>
      <trkpt lat="43.90329" lon="7.06737">
        <ele>1056.7</ele>
        <time>2016-01-23T10:39:42Z</time>
      </trkpt>
      <trkpt lat="43.90325" lon="7.0675">
        <ele>1057.9</ele>
        <time>2016-01-23T10:39:47Z</time>
      </trkpt>
      <trkpt lat="43.90318" lon="7.06762">
        <ele>1059.5</ele>
        <time>2016-01-23T10:39:52Z</time>
      </trkpt>
      <trkpt lat="43.90308" lon="7.06762">
        <ele>1060.5</ele>
        <time>2016-01-23T10:39:56Z</time>
      </trkpt>
      <trkpt lat="43.90299" lon="7.06758">
        <ele>1060.6</ele>
        <time>2016-01-23T10:40:00Z</time>
      </trkpt>
      <trkpt lat="43.90289" lon="7.06757">
        <ele>1061.3</ele>
        <time>2016-01-23T10:40:04Z</time>
      </trkpt>
      <trkpt lat="43.9028" lon="7.06763">
        <ele>1062.4</ele>
        <time>2016-01-23T10:40:09Z</time>
      </trkpt>
      <trkpt lat="43.90274" lon="7.06774">
        <ele>1063.2</ele>
        <time>2016-01-23T10:40:14Z</time>
      </trkpt>
      <trkpt lat="43.90267" lon="7.06783">
        <ele>1064.4</ele>
        <time>2016-01-23T10:40:19Z</time>
      </trkpt>
      <trkpt lat="43.90257" lon="7.06789">
        <ele>1065.3</ele>
        <time>2016-01-23T10:40:24Z</time>
      </trkpt>
      <trkpt lat="43.90247" lon="7.06793">
        <ele>1066.4</ele>
        <time>2016-01-23T10:40:28Z</time>
      </trkpt>
      <trkpt lat="43.90238" lon="7.06796">
        <ele>1066.6</ele>
        <time>2016-01-23T10:40:32Z</time>
      </trkpt>
      <trkpt lat="43.90229" lon="7.06799">
        <ele>1066.9</ele>
        <time>2016-01-23T10:40:36Z</time>
      </trkpt>
      <trkpt lat="43.90218" lon="7.06803">
        <ele>1068.1</ele>
        <time>2016-01-23T10:40:41Z</time>
      </trkpt>
      <trkpt lat="43.90209" lon="7.06806">
        <ele>1068.6</ele>
        <time>2016-01-23T10:40:45Z</time>
      </trkpt>
      <trkpt lat="43.902" lon="7.06812">
        <ele>1069.8</ele>
        <time>2016-01-23T10:40:49Z</time>
      </trkpt>
      <trkpt lat="43.90194" lon="7.06821">
        <ele>1070.6</ele>
        <time>2016-01-23T10:40:53Z</time>
      </trkpt>
      <trkpt lat="43.90194" lon="7.06836">
        <ele>1071.3</ele>
        <time>2016-01-23T10:40:58Z</time>
      </trkpt>
      <trkpt lat="43.90195" lon="7.06849">
        <ele>1071.2</ele>
        <time>2016-01-23T10:41:02Z</time>
      </trkpt>
      <trkpt lat="43.90195" lon="7.06864">
        <ele>1072.4</ele>
        <time>2016-01-23T10:41:06Z</time>
      </trkpt>
      <trkpt lat="43.90194" lon="7.06878">
        <ele>1073.6</ele>
        <time>2016-01-23T10:41:10Z</time>
      </trkpt>
      <trkpt lat="43.90195" lon="7.06894">
        <ele>1073.9</ele>
        <time>2016-01-23T10:41:14Z</time>
      </trkpt>
      <trkpt lat="43.90198" lon="7.06909">
        <ele>1073.8</ele>
        <time>2016-01-23T10:41:18Z</time>
      </trkpt>
      <trkpt lat="43.90202" lon="7.06923">
        <ele>1074.5</ele>
        <time>2016-01-23T10:41:22Z</time>
      </trkpt>
      <trkpt lat="43.90204" lon="7.06936">
        <ele>1075.3</ele>
        <time>2016-01-23T10:41:26Z</time>
      </trkpt>
      <trkpt lat="43.902" lon="7.06947">
        <ele>1075.7</ele>
        <time>2016-01-23T10:42:11Z</time>
      </trkpt>
      <trkpt lat="43.90198" lon="7.06962">
        <ele>1075.7</ele>
        <time>2016-01-23T10:42:21Z</time>
      </trkpt>
      <trkpt lat="43.90192" lon="7.06973">
        <ele>1076.6</ele>
        <time>2016-01-23T10:42:25Z</time>
      </trkpt>
      <trkpt lat="43.90183" lon="7.0698">
        <ele>1077.5</ele>
        <time>2016-01-23T10:42:30Z</time>
      </trkpt>
      <trkpt lat="43.90174" lon="7.06987">
        <ele>1077.2</ele>
        <time>2016-01-23T10:42:35Z</time>
      </trkpt>
      <trkpt lat="43.90166" lon="7.06994">
        <ele>1079.2</ele>
        <time>2016-01-23T10:42:40Z</time>
      </trkpt>
      <trkpt lat="43.90158" lon="7.07003">
        <ele>1082</ele>
        <time>2016-01-23T10:42:47Z</time>
      </trkpt>
      <trkpt lat="43.90156" lon="7.07017">
        <ele>1083</ele>
        <time>2016-01-23T10:42:54Z</time>
      </trkpt>
      <trkpt lat="43.90156" lon="7.07032">
        <ele>1083.3</ele>
        <time>2016-01-23T10:43:00Z</time>
      </trkpt>
      <trkpt lat="43.90157" lon="7.07045">
        <ele>1083.9</ele>
        <time>2016-01-23T10:43:05Z</time>
      </trkpt>
      <trkpt lat="43.90159" lon="7.07059">
        <ele>1085</ele>
        <time>2016-01-23T10:43:10Z</time>
      </trkpt>
      <trkpt lat="43.90161" lon="7.07073">
        <ele>1085.4</ele>
        <time>2016-01-23T10:43:15Z</time>
      </trkpt>
      <trkpt lat="43.90162" lon="7.07087">
        <ele>1086.1</ele>
        <time>2016-01-23T10:43:20Z</time>
      </trkpt>
      <trkpt lat="43.9016" lon="7.07102">
        <ele>1086.3</ele>
        <time>2016-01-23T10:43:25Z</time>
      </trkpt>
      <trkpt lat="43.90152" lon="7.07113">
        <ele>1086.9</ele>
        <time>2016-01-23T10:43:30Z</time>
      </trkpt>
      <trkpt lat="43.90144" lon="7.07119">
        <ele>1087.3</ele>
        <time>2016-01-23T10:43:34Z</time>
      </trkpt>
      <trkpt lat="43.90135" lon="7.07122">
        <ele>1088.5</ele>
        <time>2016-01-23T10:43:38Z</time>
      </trkpt>
      <trkpt lat="43.90127" lon="7.07128">
        <ele>1090</ele>
        <time>2016-01-23T10:43:42Z</time>
      </trkpt>
      <trkpt lat="43.90121" lon="7.07138">
        <ele>1090.4</ele>
        <time>2016-01-23T10:43:46Z</time>
      </trkpt>
      <trkpt lat="43.90116" lon="7.07152">
        <ele>1090.4</ele>
        <time>2016-01-23T10:43:51Z</time>
      </trkpt>
      <trkpt lat="43.9011" lon="7.07165">
        <ele>1091.2</ele>
        <time>2016-01-23T10:43:56Z</time>
      </trkpt>
      <trkpt lat="43.90102" lon="7.07176">
        <ele>1092.3</ele>
        <time>2016-01-23T10:44:01Z</time>
      </trkpt>
      <trkpt lat="43.90096" lon="7.07185">
        <ele>1092.7</ele>
        <time>2016-01-23T10:44:05Z</time>
      </trkpt>
      <trkpt lat="43.90089" lon="7.07195">
        <ele>1093.1</ele>
        <time>2016-01-23T10:44:09Z</time>
      </trkpt>
      <trkpt lat="43.90082" lon="7.07205">
        <ele>1093.5</ele>
        <time>2016-01-23T10:44:13Z</time>
      </trkpt>
      <trkpt lat="43.90075" lon="7.07215">
        <ele>1093.4</ele>
        <time>2016-01-23T10:44:17Z</time>
      </trkpt>
      <trkpt lat="43.90068" lon="7.07224">
        <ele>1094.9</ele>
        <time>2016-01-23T10:44:21Z</time>
      </trkpt>
      <trkpt lat="43.90061" lon="7.07233">
        <ele>1095.7</ele>
        <time>2016-01-23T10:44:25Z</time>
      </trkpt>
      <trkpt lat="43.90054" lon="7.07243">
        <ele>1095.4</ele>
        <time>2016-01-23T10:44:31Z</time>
      </trkpt>
      <trkpt lat="43.90048" lon="7.07253">
        <ele>1094.4</ele>
        <time>2016-01-23T10:44:51Z</time>
      </trkpt>
      <trkpt lat="43.90058" lon="7.07253">
        <ele>1096.2</ele>
        <time>2016-01-23T10:50:57Z</time>
      </trkpt>
      <trkpt lat="43.90067" lon="7.07251">
        <ele>1096.9</ele>
        <time>2016-01-23T10:51:02Z</time>
      </trkpt>
      <trkpt lat="43.90076" lon="7.07242">
        <ele>1097.4</ele>
        <time>2016-01-23T10:51:08Z</time>
      </trkpt>
      <trkpt lat="43.90085" lon="7.07236">
        <ele>1099.6</ele>
        <time>2016-01-23T10:51:14Z</time>
      </trkpt>
      <trkpt lat="43.90094" lon="7.07236">
        <ele>1099.7</ele>
        <time>2016-01-23T10:51:19Z</time>
      </trkpt>
      <trkpt lat="43.90104" lon="7.07238">
        <ele>1100.5</ele>
        <time>2016-01-23T10:51:24Z</time>
      </trkpt>
      <trkpt lat="43.90114" lon="7.07238">
        <ele>1102</ele>
        <time>2016-01-23T10:51:28Z</time>
      </trkpt>
      <trkpt lat="43.90124" lon="7.07233">
        <ele>1101.8</ele>
        <time>2016-01-23T10:51:33Z</time>
      </trkpt>
      <trkpt lat="43.90133" lon="7.07227">
        <ele>1103.5</ele>
        <time>2016-01-23T10:51:38Z</time>
      </trkpt>
      <trkpt lat="43.90142" lon="7.07221">
        <ele>1103.8</ele>
        <time>2016-01-23T10:51:43Z</time>
      </trkpt>
      <trkpt lat="43.9015" lon="7.07217">
        <ele>1104.4</ele>
        <time>2016-01-23T10:51:47Z</time>
      </trkpt>
      <trkpt lat="43.90159" lon="7.07213">
        <ele>1105.1</ele>
        <time>2016-01-23T10:51:51Z</time>
      </trkpt>
      <trkpt lat="43.9017" lon="7.07208">
        <ele>1105.1</ele>
        <time>2016-01-23T10:51:56Z</time>
      </trkpt>
      <trkpt lat="43.9018" lon="7.07202">
        <ele>1105.8</ele>
        <time>2016-01-23T10:52:01Z</time>
      </trkpt>
      <trkpt lat="43.90189" lon="7.07195">
        <ele>1107.7</ele>
        <time>2016-01-23T10:52:06Z</time>
      </trkpt>
      <trkpt lat="43.90198" lon="7.07188">
        <ele>1107.7</ele>
        <time>2016-01-23T10:52:12Z</time>
      </trkpt>
      <trkpt lat="43.90206" lon="7.0718">
        <ele>1108.5</ele>
        <time>2016-01-23T10:52:51Z</time>
      </trkpt>
      <trkpt lat="43.90212" lon="7.07169">
        <ele>1108.7</ele>
        <time>2016-01-23T10:52:55Z</time>
      </trkpt>
      <trkpt lat="43.90219" lon="7.07158">
        <ele>1108.9</ele>
        <time>2016-01-23T10:52:58Z</time>
      </trkpt>
      <trkpt lat="43.90227" lon="7.07146">
        <ele>1109.7</ele>
        <time>2016-01-23T10:53:01Z</time>
      </trkpt>
      <trkpt lat="43.90236" lon="7.07137">
        <ele>1110.2</ele>
        <time>2016-01-23T10:53:05Z</time>
      </trkpt>
      <trkpt lat="43.90244" lon="7.0713">
        <ele>1111</ele>
        <time>2016-01-23T10:53:09Z</time>
      </trkpt>
      <trkpt lat="43.90252" lon="7.07125">
        <ele>1112.3</ele>
        <time>2016-01-23T10:53:12Z</time>
      </trkpt>
      <trkpt lat="43.90262" lon="7.07128">
        <ele>1113.1</ele>
        <time>2016-01-23T10:53:16Z</time>
      </trkpt>
      <trkpt lat="43.90271" lon="7.07135">
        <ele>1112.6</ele>
        <time>2016-01-23T10:53:20Z</time>
      </trkpt>
      <trkpt lat="43.90281" lon="7.07143">
        <ele>1112.7</ele>
        <time>2016-01-23T10:53:23Z</time>
      </trkpt>
      <trkpt lat="43.90292" lon="7.07145">
        <ele>1112.1</ele>
        <time>2016-01-23T10:53:26Z</time>
      </trkpt>
      <trkpt lat="43.903" lon="7.07138">
        <ele>1111.9</ele>
        <time>2016-01-23T10:53:29Z</time>
      </trkpt>
      <trkpt lat="43.90307" lon="7.0713">
        <ele>1112</ele>
        <time>2016-01-23T10:53:32Z</time>
      </trkpt>
      <trkpt lat="43.90314" lon="7.07121">
        <ele>1111.9</ele>
        <time>2016-01-23T10:53:35Z</time>
      </trkpt>
      <trkpt lat="43.90321" lon="7.07113">
        <ele>1112.2</ele>
        <time>2016-01-23T10:53:38Z</time>
      </trkpt>
      <trkpt lat="43.90329" lon="7.07103">
        <ele>1112.6</ele>
        <time>2016-01-23T10:53:41Z</time>
      </trkpt>
      <trkpt lat="43.90337" lon="7.07096">
        <ele>1112.8</ele>
        <time>2016-01-23T10:53:44Z</time>
      </trkpt>
      <trkpt lat="43.90346" lon="7.07089">
        <ele>1112.5</ele>
        <time>2016-01-23T10:53:48Z</time>
      </trkpt>
      <trkpt lat="43.90355" lon="7.07083">
        <ele>1113.8</ele>
        <time>2016-01-23T10:53:53Z</time>
      </trkpt>
      <trkpt lat="43.90365" lon="7.0708">
        <ele>1114.2</ele>
        <time>2016-01-23T10:53:58Z</time>
      </trkpt>
      <trkpt lat="43.90376" lon="7.07082">
        <ele>1115.4</ele>
        <time>2016-01-23T10:54:03Z</time>
      </trkpt>
      <trkpt lat="43.90385" lon="7.07084">
        <ele>1116.8</ele>
        <time>2016-01-23T10:54:07Z</time>
      </trkpt>
      <trkpt lat="43.90395" lon="7.07086">
        <ele>1118.9</ele>
        <time>2016-01-23T10:54:12Z</time>
      </trkpt>
      <trkpt lat="43.90406" lon="7.07084">
        <ele>1120.7</ele>
        <time>2016-01-23T10:54:17Z</time>
      </trkpt>
      <trkpt lat="43.90415" lon="7.0708">
        <ele>1122.2</ele>
        <time>2016-01-23T10:54:22Z</time>
      </trkpt>
      <trkpt lat="43.90425" lon="7.07076">
        <ele>1123.2</ele>
        <time>2016-01-23T10:54:28Z</time>
      </trkpt>
      <trkpt lat="43.90434" lon="7.07072">
        <ele>1124.5</ele>
        <time>2016-01-23T10:54:33Z</time>
      </trkpt>
      <trkpt lat="43.90443" lon="7.07065">
        <ele>1125.8</ele>
        <time>2016-01-23T10:54:39Z</time>
      </trkpt>
      <trkpt lat="43.9045" lon="7.07057">
        <ele>1126.6</ele>
        <time>2016-01-23T10:54:44Z</time>
      </trkpt>
      <trkpt lat="43.90458" lon="7.07046">
        <ele>1126.7</ele>
        <time>2016-01-23T10:54:49Z</time>
      </trkpt>
      <trkpt lat="43.90465" lon="7.07037">
        <ele>1128</ele>
        <time>2016-01-23T10:54:54Z</time>
      </trkpt>
      <trkpt lat="43.90472" lon="7.07026">
        <ele>1128.3</ele>
        <time>2016-01-23T10:55:00Z</time>
      </trkpt>
      <trkpt lat="43.90476" lon="7.07014">
        <ele>1127.8</ele>
        <time>2016-01-23T10:55:07Z</time>
      </trkpt>
      <trkpt lat="43.90476" lon="7.06999">
        <ele>1128.7</ele>
        <time>2016-01-23T10:55:11Z</time>
      </trkpt>
      <trkpt lat="43.90471" lon="7.06988">
        <ele>1127.9</ele>
        <time>2016-01-23T10:55:15Z</time>
      </trkpt>
      <trkpt lat="43.90474" lon="7.06976">
        <ele>1127.1</ele>
        <time>2016-01-23T10:55:48Z</time>
      </trkpt>
      <trkpt lat="43.90479" lon="7.06988">
        <ele>1126.7</ele>
        <time>2016-01-23T10:56:00Z</time>
      </trkpt>
      <trkpt lat="43.90484" lon="7.06999">
        <ele>1126.8</ele>
        <time>2016-01-23T10:56:03Z</time>
      </trkpt>
      <trkpt lat="43.90494" lon="7.07003">
        <ele>1127</ele>
        <time>2016-01-23T10:56:06Z</time>
      </trkpt>
      <trkpt lat="43.90505" lon="7.07004">
        <ele>1127.8</ele>
        <time>2016-01-23T10:56:09Z</time>
      </trkpt>
      <trkpt lat="43.90516" lon="7.07004">
        <ele>1127.1</ele>
        <time>2016-01-23T10:56:12Z</time>
      </trkpt>
      <trkpt lat="43.90526" lon="7.07007">
        <ele>1127.2</ele>
        <time>2016-01-23T10:56:15Z</time>
      </trkpt>
      <trkpt lat="43.90536" lon="7.07013">
        <ele>1127.5</ele>
        <time>2016-01-23T10:56:18Z</time>
      </trkpt>
      <trkpt lat="43.90545" lon="7.07021">
        <ele>1127.3</ele>
        <time>2016-01-23T10:56:21Z</time>
      </trkpt>
      <trkpt lat="43.90553" lon="7.07032">
        <ele>1127.1</ele>
        <time>2016-01-23T10:56:24Z</time>
      </trkpt>
      <trkpt lat="43.9056" lon="7.07043">
        <ele>1127.3</ele>
        <time>2016-01-23T10:56:28Z</time>
      </trkpt>
      <trkpt lat="43.9056" lon="7.0703">
        <ele>1129.1</ele>
        <time>2016-01-23T10:56:45Z</time>
      </trkpt>
      <trkpt lat="43.90554" lon="7.0702">
        <ele>1131.8</ele>
        <time>2016-01-23T10:56:52Z</time>
      </trkpt>
      <trkpt lat="43.90547" lon="7.0701">
        <ele>1132.9</ele>
        <time>2016-01-23T10:57:00Z</time>
      </trkpt>
      <trkpt lat="43.90538" lon="7.07002">
        <ele>1133.9</ele>
        <time>2016-01-23T10:57:08Z</time>
      </trkpt>
      <trkpt lat="43.90538" lon="7.06988">
        <ele>1136.4</ele>
        <time>2016-01-23T10:57:16Z</time>
      </trkpt>
      <trkpt lat="43.90544" lon="7.06979">
        <ele>1136.8</ele>
        <time>2016-01-23T10:57:22Z</time>
      </trkpt>
      <trkpt lat="43.90549" lon="7.06967">
        <ele>1137.8</ele>
        <time>2016-01-23T10:57:29Z</time>
      </trkpt>
      <trkpt lat="43.90551" lon="7.06955">
        <ele>1138</ele>
        <time>2016-01-23T10:57:35Z</time>
      </trkpt>
      <trkpt lat="43.90554" lon="7.06941">
        <ele>1139.8</ele>
        <time>2016-01-23T10:57:41Z</time>
      </trkpt>
      <trkpt lat="43.90558" lon="7.06927">
        <ele>1139.7</ele>
        <time>2016-01-23T10:57:47Z</time>
      </trkpt>
      <trkpt lat="43.90561" lon="7.06913">
        <ele>1141.7</ele>
        <time>2016-01-23T10:57:53Z</time>
      </trkpt>
      <trkpt lat="43.90567" lon="7.06903">
        <ele>1143.3</ele>
        <time>2016-01-23T10:57:59Z</time>
      </trkpt>
      <trkpt lat="43.90572" lon="7.06914">
        <ele>1144.4</ele>
        <time>2016-01-23T10:58:06Z</time>
      </trkpt>
      <trkpt lat="43.90572" lon="7.06928">
        <ele>1145.5</ele>
        <time>2016-01-23T10:58:12Z</time>
      </trkpt>
      <trkpt lat="43.90572" lon="7.06943">
        <ele>1146.3</ele>
        <time>2016-01-23T10:58:18Z</time>
      </trkpt>
      <trkpt lat="43.90575" lon="7.06955">
        <ele>1147.2</ele>
        <time>2016-01-23T10:58:23Z</time>
      </trkpt>
      <trkpt lat="43.90579" lon="7.06966">
        <ele>1148.3</ele>
        <time>2016-01-23T10:58:28Z</time>
      </trkpt>
      <trkpt lat="43.90586" lon="7.06976">
        <ele>1149.7</ele>
        <time>2016-01-23T10:58:33Z</time>
      </trkpt>
      <trkpt lat="43.90593" lon="7.06987">
        <ele>1149.7</ele>
        <time>2016-01-23T10:58:38Z</time>
      </trkpt>
      <trkpt lat="43.906" lon="7.06996">
        <ele>1150.8</ele>
        <time>2016-01-23T10:58:43Z</time>
      </trkpt>
      <trkpt lat="43.90605" lon="7.07008">
        <ele>1151.9</ele>
        <time>2016-01-23T10:58:48Z</time>
      </trkpt>
      <trkpt lat="43.9061" lon="7.07021">
        <ele>1152.8</ele>
        <time>2016-01-23T10:58:53Z</time>
      </trkpt>
      <trkpt lat="43.90616" lon="7.07032">
        <ele>1153</ele>
        <time>2016-01-23T10:58:58Z</time>
      </trkpt>
      <trkpt lat="43.90622" lon="7.07042">
        <ele>1155.6</ele>
        <time>2016-01-23T10:59:03Z</time>
      </trkpt>
      <trkpt lat="43.90628" lon="7.07053">
        <ele>1155.9</ele>
        <time>2016-01-23T10:59:08Z</time>
      </trkpt>
      <trkpt lat="43.90632" lon="7.07065">
        <ele>1156.9</ele>
        <time>2016-01-23T10:59:14Z</time>
      </trkpt>
      <trkpt lat="43.90637" lon="7.07078">
        <ele>1156.9</ele>
        <time>2016-01-23T11:00:55Z</time>
      </trkpt>
      <trkpt lat="43.90646" lon="7.07085">
        <ele>1156.9</ele>
        <time>2016-01-23T11:01:01Z</time>
      </trkpt>
      <trkpt lat="43.90641" lon="7.07071">
        <ele>1159.2</ele>
        <time>2016-01-23T11:01:08Z</time>
      </trkpt>
      <trkpt lat="43.90636" lon="7.07059">
        <ele>1160</ele>
        <time>2016-01-23T11:01:12Z</time>
      </trkpt>
      <trkpt lat="43.90633" lon="7.07044">
        <ele>1160.5</ele>
        <time>2016-01-23T11:01:16Z</time>
      </trkpt>
      <trkpt lat="43.90631" lon="7.07031">
        <ele>1160.9</ele>
        <time>2016-01-23T11:01:19Z</time>
      </trkpt>
      <trkpt lat="43.90627" lon="7.07017">
        <ele>1162.2</ele>
        <time>2016-01-23T11:01:23Z</time>
      </trkpt>
      <trkpt lat="43.90623" lon="7.07002">
        <ele>1162.3</ele>
        <time>2016-01-23T11:01:27Z</time>
      </trkpt>
      <trkpt lat="43.90619" lon="7.0699">
        <ele>1162</ele>
        <time>2016-01-23T11:01:30Z</time>
      </trkpt>
      <trkpt lat="43.90616" lon="7.06976">
        <ele>1163.2</ele>
        <time>2016-01-23T11:01:34Z</time>
      </trkpt>
      <trkpt lat="43.90613" lon="7.06964">
        <ele>1164.1</ele>
        <time>2016-01-23T11:01:38Z</time>
      </trkpt>
      <trkpt lat="43.90609" lon="7.06952">
        <ele>1165.4</ele>
        <time>2016-01-23T11:01:42Z</time>
      </trkpt>
      <trkpt lat="43.90606" lon="7.06939">
        <ele>1166</ele>
        <time>2016-01-23T11:01:46Z</time>
      </trkpt>
      <trkpt lat="43.90605" lon="7.06926">
        <ele>1166.5</ele>
        <time>2016-01-23T11:01:50Z</time>
      </trkpt>
      <trkpt lat="43.90607" lon="7.06912">
        <ele>1166.5</ele>
        <time>2016-01-23T11:01:55Z</time>
      </trkpt>
      <trkpt lat="43.90608" lon="7.069">
        <ele>1168.5</ele>
        <time>2016-01-23T11:02:00Z</time>
      </trkpt>
      <trkpt lat="43.90609" lon="7.06887">
        <ele>1170.4</ele>
        <time>2016-01-23T11:02:05Z</time>
      </trkpt>
      <trkpt lat="43.90609" lon="7.06874">
        <ele>1170.7</ele>
        <time>2016-01-23T11:02:10Z</time>
      </trkpt>
      <trkpt lat="43.9061" lon="7.06861">
        <ele>1171.6</ele>
        <time>2016-01-23T11:02:15Z</time>
      </trkpt>
      <trkpt lat="43.90611" lon="7.06847">
        <ele>1172.6</ele>
        <time>2016-01-23T11:02:21Z</time>
      </trkpt>
      <trkpt lat="43.90613" lon="7.06833">
        <ele>1174.2</ele>
        <time>2016-01-23T11:02:27Z</time>
      </trkpt>
      <trkpt lat="43.9062" lon="7.06823">
        <ele>1175.6</ele>
        <time>2016-01-23T11:02:34Z</time>
      </trkpt>
      <trkpt lat="43.90628" lon="7.06818">
        <ele>1176.7</ele>
        <time>2016-01-23T11:02:41Z</time>
      </trkpt>
      <trkpt lat="43.90637" lon="7.06814">
        <ele>1180</ele>
        <time>2016-01-23T11:02:49Z</time>
      </trkpt>
      <trkpt lat="43.90646" lon="7.06809">
        <ele>1182.4</ele>
        <time>2016-01-23T11:02:58Z</time>
      </trkpt>
      <trkpt lat="43.90655" lon="7.06802">
        <ele>1185.3</ele>
        <time>2016-01-23T11:03:05Z</time>
      </trkpt>
      <trkpt lat="43.90661" lon="7.06792">
        <ele>1185.7</ele>
        <time>2016-01-23T11:03:11Z</time>
      </trkpt>
      <trkpt lat="43.90668" lon="7.06783">
        <ele>1186.3</ele>
        <time>2016-01-23T11:03:17Z</time>
      </trkpt>
      <trkpt lat="43.90676" lon="7.06775">
        <ele>1186.8</ele>
        <time>2016-01-23T11:03:22Z</time>
      </trkpt>
      <trkpt lat="43.90684" lon="7.06768">
        <ele>1186</ele>
        <time>2016-01-23T11:03:26Z</time>
      </trkpt>
      <trkpt lat="43.90693" lon="7.0676">
        <ele>1186.7</ele>
        <time>2016-01-23T11:03:31Z</time>
      </trkpt>
      <trkpt lat="43.90703" lon="7.06754">
        <ele>1187.2</ele>
        <time>2016-01-23T11:03:36Z</time>
      </trkpt>
      <trkpt lat="43.90712" lon="7.06751">
        <ele>1188</ele>
        <time>2016-01-23T11:03:41Z</time>
      </trkpt>
      <trkpt lat="43.90722" lon="7.06747">
        <ele>1188.8</ele>
        <time>2016-01-23T11:03:46Z</time>
      </trkpt>
      <trkpt lat="43.90731" lon="7.06741">
        <ele>1189.6</ele>
        <time>2016-01-23T11:03:51Z</time>
      </trkpt>
      <trkpt lat="43.9074" lon="7.06733">
        <ele>1191.1</ele>
        <time>2016-01-23T11:03:56Z</time>
      </trkpt>
      <trkpt lat="43.90747" lon="7.06724">
        <ele>1191</ele>
        <time>2016-01-23T11:04:00Z</time>
      </trkpt>
      <trkpt lat="43.90754" lon="7.06712">
        <ele>1192.1</ele>
        <time>2016-01-23T11:04:05Z</time>
      </trkpt>
      <trkpt lat="43.9076" lon="7.06701">
        <ele>1194.2</ele>
        <time>2016-01-23T11:04:10Z</time>
      </trkpt>
      <trkpt lat="43.90769" lon="7.06705">
        <ele>1195.4</ele>
        <time>2016-01-23T11:04:17Z</time>
      </trkpt>
      <trkpt lat="43.90768" lon="7.06718">
        <ele>1197.3</ele>
        <time>2016-01-23T11:04:25Z</time>
      </trkpt>
      <trkpt lat="43.90766" lon="7.0673">
        <ele>1197.9</ele>
        <time>2016-01-23T11:04:31Z</time>
      </trkpt>
      <trkpt lat="43.90761" lon="7.06742">
        <ele>1198.3</ele>
        <time>2016-01-23T11:04:36Z</time>
      </trkpt>
      <trkpt lat="43.90755" lon="7.06752">
        <ele>1198.2</ele>
        <time>2016-01-23T11:04:41Z</time>
      </trkpt>
      <trkpt lat="43.90749" lon="7.06761">
        <ele>1198.5</ele>
        <time>2016-01-23T11:04:46Z</time>
      </trkpt>
      <trkpt lat="43.90745" lon="7.06773">
        <ele>1199.7</ele>
        <time>2016-01-23T11:04:51Z</time>
      </trkpt>
      <trkpt lat="43.90741" lon="7.06786">
        <ele>1199.7</ele>
        <time>2016-01-23T11:04:57Z</time>
      </trkpt>
      <trkpt lat="43.90737" lon="7.06798">
        <ele>1200.7</ele>
        <time>2016-01-23T11:05:02Z</time>
      </trkpt>
      <trkpt lat="43.90732" lon="7.06811">
        <ele>1202.3</ele>
        <time>2016-01-23T11:05:07Z</time>
      </trkpt>
      <trkpt lat="43.90728" lon="7.06824">
        <ele>1203.4</ele>
        <time>2016-01-23T11:05:12Z</time>
      </trkpt>
      <trkpt lat="43.90726" lon="7.06836">
        <ele>1203.6</ele>
        <time>2016-01-23T11:05:16Z</time>
      </trkpt>
      <trkpt lat="43.90726" lon="7.06849">
        <ele>1203.8</ele>
        <time>2016-01-23T11:05:20Z</time>
      </trkpt>
      <trkpt lat="43.90727" lon="7.06863">
        <ele>1204</ele>
        <time>2016-01-23T11:05:24Z</time>
      </trkpt>
      <trkpt lat="43.90728" lon="7.06878">
        <ele>1203.6</ele>
        <time>2016-01-23T11:05:29Z</time>
      </trkpt>
      <trkpt lat="43.90726" lon="7.06891">
        <ele>1203.6</ele>
        <time>2016-01-23T11:05:33Z</time>
      </trkpt>
      <trkpt lat="43.90723" lon="7.06903">
        <ele>1204.7</ele>
        <time>2016-01-23T11:05:37Z</time>
      </trkpt>
      <trkpt lat="43.90721" lon="7.06918">
        <ele>1205.5</ele>
        <time>2016-01-23T11:05:42Z</time>
      </trkpt>
      <trkpt lat="43.9072" lon="7.06932">
        <ele>1206.3</ele>
        <time>2016-01-23T11:05:47Z</time>
      </trkpt>
      <trkpt lat="43.90721" lon="7.06947">
        <ele>1207.4</ele>
        <time>2016-01-23T11:05:52Z</time>
      </trkpt>
      <trkpt lat="43.90724" lon="7.0696">
        <ele>1209.3</ele>
        <time>2016-01-23T11:05:57Z</time>
      </trkpt>
      <trkpt lat="43.90724" lon="7.06974">
        <ele>1209.9</ele>
        <time>2016-01-23T11:06:03Z</time>
      </trkpt>
      <trkpt lat="43.90723" lon="7.06986">
        <ele>1210.8</ele>
        <time>2016-01-23T11:06:08Z</time>
      </trkpt>
      <trkpt lat="43.90721" lon="7.07001">
        <ele>1211.4</ele>
        <time>2016-01-23T11:06:14Z</time>
      </trkpt>
      <trkpt lat="43.90723" lon="7.07014">
        <ele>1212.3</ele>
        <time>2016-01-23T11:06:19Z</time>
      </trkpt>
      <trkpt lat="43.9073" lon="7.07004">
        <ele>1214</ele>
        <time>2016-01-23T11:06:27Z</time>
      </trkpt>
      <trkpt lat="43.90732" lon="7.06991">
        <ele>1214.7</ele>
        <time>2016-01-23T11:06:33Z</time>
      </trkpt>
      <trkpt lat="43.90734" lon="7.06978">
        <ele>1215.2</ele>
        <time>2016-01-23T11:06:38Z</time>
      </trkpt>
      <trkpt lat="43.90735" lon="7.06965">
        <ele>1216</ele>
        <time>2016-01-23T11:06:43Z</time>
      </trkpt>
      <trkpt lat="43.90741" lon="7.06955">
        <ele>1216.8</ele>
        <time>2016-01-23T11:06:48Z</time>
      </trkpt>
      <trkpt lat="43.90747" lon="7.06944">
        <ele>1217.2</ele>
        <time>2016-01-23T11:06:53Z</time>
      </trkpt>
      <trkpt lat="43.90752" lon="7.06932">
        <ele>1218.2</ele>
        <time>2016-01-23T11:06:58Z</time>
      </trkpt>
      <trkpt lat="43.90757" lon="7.06921">
        <ele>1218.8</ele>
        <time>2016-01-23T11:07:03Z</time>
      </trkpt>
      <trkpt lat="43.90764" lon="7.06912">
        <ele>1221</ele>
        <time>2016-01-23T11:07:10Z</time>
      </trkpt>
      <trkpt lat="43.90772" lon="7.06904">
        <ele>1221.7</ele>
        <time>2016-01-23T11:07:18Z</time>
      </trkpt>
      <trkpt lat="43.90779" lon="7.06895">
        <ele>1222</ele>
        <time>2016-01-23T11:07:23Z</time>
      </trkpt>
      <trkpt lat="43.90784" lon="7.06883">
        <ele>1222.9</ele>
        <time>2016-01-23T11:07:29Z</time>
      </trkpt>
      <trkpt lat="43.90787" lon="7.06869">
        <ele>1224.2</ele>
        <time>2016-01-23T11:07:34Z</time>
      </trkpt>
      <trkpt lat="43.90792" lon="7.06857">
        <ele>1224.9</ele>
        <time>2016-01-23T11:07:38Z</time>
      </trkpt>
      <trkpt lat="43.90796" lon="7.06843">
        <ele>1225</ele>
        <time>2016-01-23T11:07:43Z</time>
      </trkpt>
      <trkpt lat="43.90797" lon="7.0683">
        <ele>1226.6</ele>
        <time>2016-01-23T11:07:48Z</time>
      </trkpt>
      <trkpt lat="43.90797" lon="7.06816">
        <ele>1226.9</ele>
        <time>2016-01-23T11:07:53Z</time>
      </trkpt>
      <trkpt lat="43.90801" lon="7.06802">
        <ele>1227.9</ele>
        <time>2016-01-23T11:07:59Z</time>
      </trkpt>
      <trkpt lat="43.90806" lon="7.06791">
        <ele>1229.2</ele>
        <time>2016-01-23T11:08:04Z</time>
      </trkpt>
      <trkpt lat="43.90813" lon="7.06781">
        <ele>1230.1</ele>
        <time>2016-01-23T11:08:09Z</time>
      </trkpt>
      <trkpt lat="43.9082" lon="7.06772">
        <ele>1231.2</ele>
        <time>2016-01-23T11:08:15Z</time>
      </trkpt>
      <trkpt lat="43.90825" lon="7.0676">
        <ele>1232.1</ele>
        <time>2016-01-23T11:08:21Z</time>
      </trkpt>
      <trkpt lat="43.90831" lon="7.06748">
        <ele>1233.1</ele>
        <time>2016-01-23T11:08:27Z</time>
      </trkpt>
      <trkpt lat="43.90838" lon="7.06738">
        <ele>1233.5</ele>
        <time>2016-01-23T11:08:32Z</time>
      </trkpt>
      <trkpt lat="43.90841" lon="7.0675">
        <ele>1234.2</ele>
        <time>2016-01-23T11:08:42Z</time>
      </trkpt>
      <trkpt lat="43.90835" lon="7.06762">
        <ele>1235.3</ele>
        <time>2016-01-23T11:08:49Z</time>
      </trkpt>
      <trkpt lat="43.90832" lon="7.06776">
        <ele>1236.9</ele>
        <time>2016-01-23T11:08:55Z</time>
      </trkpt>
      <trkpt lat="43.9083" lon="7.06788">
        <ele>1237.5</ele>
        <time>2016-01-23T11:09:01Z</time>
      </trkpt>
      <trkpt lat="43.9083" lon="7.06802">
        <ele>1238.5</ele>
        <time>2016-01-23T11:09:08Z</time>
      </trkpt>
      <trkpt lat="43.90831" lon="7.06814">
        <ele>1239.8</ele>
        <time>2016-01-23T11:09:14Z</time>
      </trkpt>
      <trkpt lat="43.90831" lon="7.06828">
        <ele>1241</ele>
        <time>2016-01-23T11:09:20Z</time>
      </trkpt>
      <trkpt lat="43.90833" lon="7.0684">
        <ele>1241</ele>
        <time>2016-01-23T11:09:26Z</time>
      </trkpt>
      <trkpt lat="43.90835" lon="7.06854">
        <ele>1242.3</ele>
        <time>2016-01-23T11:09:32Z</time>
      </trkpt>
      <trkpt lat="43.90837" lon="7.06868">
        <ele>1243.7</ele>
        <time>2016-01-23T11:09:38Z</time>
      </trkpt>
      <trkpt lat="43.90839" lon="7.06881">
        <ele>1244.3</ele>
        <time>2016-01-23T11:09:44Z</time>
      </trkpt>
      <trkpt lat="43.90842" lon="7.06893">
        <ele>1245.6</ele>
        <time>2016-01-23T11:09:50Z</time>
      </trkpt>
      <trkpt lat="43.90844" lon="7.06906">
        <ele>1247</ele>
        <time>2016-01-23T11:09:56Z</time>
      </trkpt>
      <trkpt lat="43.90844" lon="7.06919">
        <ele>1247.9</ele>
        <time>2016-01-23T11:10:02Z</time>
      </trkpt>
      <trkpt lat="43.90843" lon="7.06933">
        <ele>1250.4</ele>
        <time>2016-01-23T11:10:09Z</time>
      </trkpt>
      <trkpt lat="43.90843" lon="7.06947">
        <ele>1251.7</ele>
        <time>2016-01-23T11:10:16Z</time>
      </trkpt>
      <trkpt lat="43.90843" lon="7.06961">
        <ele>1252.8</ele>
        <time>2016-01-23T11:10:22Z</time>
      </trkpt>
      <trkpt lat="43.90843" lon="7.06974">
        <ele>1252.9</ele>
        <time>2016-01-23T11:10:28Z</time>
      </trkpt>
      <trkpt lat="43.90844" lon="7.06988">
        <ele>1253.6</ele>
        <time>2016-01-23T11:10:34Z</time>
      </trkpt>
      <trkpt lat="43.90844" lon="7.07002">
        <ele>1254.7</ele>
        <time>2016-01-23T11:10:40Z</time>
      </trkpt>
      <trkpt lat="43.90844" lon="7.07015">
        <ele>1256.5</ele>
        <time>2016-01-23T11:10:46Z</time>
      </trkpt>
      <trkpt lat="43.90843" lon="7.0703">
        <ele>1257.3</ele>
        <time>2016-01-23T11:10:52Z</time>
      </trkpt>
      <trkpt lat="43.90842" lon="7.07044">
        <ele>1257.7</ele>
        <time>2016-01-23T11:10:58Z</time>
      </trkpt>
      <trkpt lat="43.9084" lon="7.07057">
        <ele>1257.5</ele>
        <time>2016-01-23T11:11:04Z</time>
      </trkpt>
      <trkpt lat="43.90849" lon="7.07051">
        <ele>1259.8</ele>
        <time>2016-01-23T11:11:18Z</time>
      </trkpt>
      <trkpt lat="43.90851" lon="7.07039">
        <ele>1261.1</ele>
        <time>2016-01-23T11:11:24Z</time>
      </trkpt>
      <trkpt lat="43.90853" lon="7.07025">
        <ele>1261.8</ele>
        <time>2016-01-23T11:11:30Z</time>
      </trkpt>
      <trkpt lat="43.90855" lon="7.07013">
        <ele>1262.4</ele>
        <time>2016-01-23T11:11:36Z</time>
      </trkpt>
      <trkpt lat="43.90859" lon="7.07001">
        <ele>1263.3</ele>
        <time>2016-01-23T11:11:42Z</time>
      </trkpt>
      <trkpt lat="43.90865" lon="7.06991">
        <ele>1264.4</ele>
        <time>2016-01-23T11:11:48Z</time>
      </trkpt>
      <trkpt lat="43.90872" lon="7.06981">
        <ele>1265.6</ele>
        <time>2016-01-23T11:11:54Z</time>
      </trkpt>
      <trkpt lat="43.90878" lon="7.0697">
        <ele>1266.7</ele>
        <time>2016-01-23T11:12:00Z</time>
      </trkpt>
      <trkpt lat="43.90883" lon="7.06958">
        <ele>1267.4</ele>
        <time>2016-01-23T11:12:06Z</time>
      </trkpt>
      <trkpt lat="43.90888" lon="7.06946">
        <ele>1269.2</ele>
        <time>2016-01-23T11:12:12Z</time>
      </trkpt>
      <trkpt lat="43.90893" lon="7.06934">
        <ele>1270.4</ele>
        <time>2016-01-23T11:12:18Z</time>
      </trkpt>
      <trkpt lat="43.90898" lon="7.06923">
        <ele>1270.3</ele>
        <time>2016-01-23T11:12:24Z</time>
      </trkpt>
      <trkpt lat="43.90902" lon="7.0691">
        <ele>1271.5</ele>
        <time>2016-01-23T11:12:31Z</time>
      </trkpt>
      <trkpt lat="43.90907" lon="7.06898">
        <ele>1273.5</ele>
        <time>2016-01-23T11:12:38Z</time>
      </trkpt>
      <trkpt lat="43.90913" lon="7.06886">
        <ele>1273.9</ele>
        <time>2016-01-23T11:12:44Z</time>
      </trkpt>
      <trkpt lat="43.9092" lon="7.06877">
        <ele>1276.3</ele>
        <time>2016-01-23T11:12:51Z</time>
      </trkpt>
      <trkpt lat="43.90923" lon="7.06866">
        <ele>1276.7</ele>
        <time>2016-01-23T11:12:59Z</time>
      </trkpt>
      <trkpt lat="43.90933" lon="7.06864">
        <ele>1278.2</ele>
        <time>2016-01-23T11:13:08Z</time>
      </trkpt>
      <trkpt lat="43.90931" lon="7.06879">
        <ele>1277.2</ele>
        <time>2016-01-23T11:13:15Z</time>
      </trkpt>
      <trkpt lat="43.90929" lon="7.06891">
        <ele>1278.4</ele>
        <time>2016-01-23T11:13:21Z</time>
      </trkpt>
      <trkpt lat="43.90927" lon="7.06904">
        <ele>1278.7</ele>
        <time>2016-01-23T11:13:27Z</time>
      </trkpt>
      <trkpt lat="43.9093" lon="7.06917">
        <ele>1280.2</ele>
        <time>2016-01-23T11:13:33Z</time>
      </trkpt>
      <trkpt lat="43.90934" lon="7.0693">
        <ele>1281.2</ele>
        <time>2016-01-23T11:13:39Z</time>
      </trkpt>
      <trkpt lat="43.90938" lon="7.06943">
        <ele>1282.9</ele>
        <time>2016-01-23T11:13:45Z</time>
      </trkpt>
      <trkpt lat="43.90942" lon="7.06955">
        <ele>1283.6</ele>
        <time>2016-01-23T11:13:51Z</time>
      </trkpt>
      <trkpt lat="43.90948" lon="7.06966">
        <ele>1284.8</ele>
        <time>2016-01-23T11:13:57Z</time>
      </trkpt>
      <trkpt lat="43.90953" lon="7.06976">
        <ele>1286.7</ele>
        <time>2016-01-23T11:14:03Z</time>
      </trkpt>
      <trkpt lat="43.90956" lon="7.06989">
        <ele>1288</ele>
        <time>2016-01-23T11:14:09Z</time>
      </trkpt>
      <trkpt lat="43.90956" lon="7.07002">
        <ele>1287.9</ele>
        <time>2016-01-23T11:14:15Z</time>
      </trkpt>
      <trkpt lat="43.90954" lon="7.07015">
        <ele>1289</ele>
        <time>2016-01-23T11:14:21Z</time>
      </trkpt>
      <trkpt lat="43.90949" lon="7.07027">
        <ele>1291</ele>
        <time>2016-01-23T11:14:27Z</time>
      </trkpt>
      <trkpt lat="43.90945" lon="7.07039">
        <ele>1291.3</ele>
        <time>2016-01-23T11:14:33Z</time>
      </trkpt>
      <trkpt lat="43.9094" lon="7.07052">
        <ele>1292.2</ele>
        <time>2016-01-23T11:14:40Z</time>
      </trkpt>
      <trkpt lat="43.90932" lon="7.07061">
        <ele>1293.8</ele>
        <time>2016-01-23T11:14:47Z</time>
      </trkpt>
      <trkpt lat="43.90924" lon="7.07067">
        <ele>1294.4</ele>
        <time>2016-01-23T11:14:53Z</time>
      </trkpt>
      <trkpt lat="43.90934" lon="7.07067">
        <ele>1291.3</ele>
        <time>2016-01-23T11:19:09Z</time>
      </trkpt>
      <trkpt lat="43.90943" lon="7.0706">
        <ele>1291.8</ele>
        <time>2016-01-23T11:19:14Z</time>
      </trkpt>
      <trkpt lat="43.90951" lon="7.07051">
        <ele>1292.2</ele>
        <time>2016-01-23T11:19:19Z</time>
      </trkpt>
      <trkpt lat="43.90958" lon="7.0704">
        <ele>1293.1</ele>
        <time>2016-01-23T11:19:24Z</time>
      </trkpt>
      <trkpt lat="43.90966" lon="7.07031">
        <ele>1293.7</ele>
        <time>2016-01-23T11:19:29Z</time>
      </trkpt>
      <trkpt lat="43.90975" lon="7.07023">
        <ele>1294.3</ele>
        <time>2016-01-23T11:19:34Z</time>
      </trkpt>
      <trkpt lat="43.90984" lon="7.07013">
        <ele>1295.1</ele>
        <time>2016-01-23T11:19:39Z</time>
      </trkpt>
      <trkpt lat="43.9099" lon="7.07">
        <ele>1295.5</ele>
        <time>2016-01-23T11:19:44Z</time>
      </trkpt>
      <trkpt lat="43.90993" lon="7.06988">
        <ele>1296.5</ele>
        <time>2016-01-23T11:19:48Z</time>
      </trkpt>
      <trkpt lat="43.90995" lon="7.06973">
        <ele>1297.6</ele>
        <time>2016-01-23T11:19:53Z</time>
      </trkpt>
      <trkpt lat="43.90997" lon="7.0696">
        <ele>1299</ele>
        <time>2016-01-23T11:19:58Z</time>
      </trkpt>
      <trkpt lat="43.91" lon="7.06946">
        <ele>1299.3</ele>
        <time>2016-01-23T11:20:03Z</time>
      </trkpt>
      <trkpt lat="43.91003" lon="7.06932">
        <ele>1300.5</ele>
        <time>2016-01-23T11:20:08Z</time>
      </trkpt>
      <trkpt lat="43.91006" lon="7.06918">
        <ele>1300.3</ele>
        <time>2016-01-23T11:20:13Z</time>
      </trkpt>
      <trkpt lat="43.91011" lon="7.06905">
        <ele>1301.7</ele>
        <time>2016-01-23T11:20:18Z</time>
      </trkpt>
      <trkpt lat="43.91013" lon="7.06892">
        <ele>1302.4</ele>
        <time>2016-01-23T11:20:23Z</time>
      </trkpt>
      <trkpt lat="43.91015" lon="7.06879">
        <ele>1303.6</ele>
        <time>2016-01-23T11:20:29Z</time>
      </trkpt>
      <trkpt lat="43.91015" lon="7.06866">
        <ele>1305</ele>
        <time>2016-01-23T11:20:34Z</time>
      </trkpt>
      <trkpt lat="43.91016" lon="7.06851">
        <ele>1305.8</ele>
        <time>2016-01-23T11:20:40Z</time>
      </trkpt>
      <trkpt lat="43.91019" lon="7.06837">
        <ele>1306.3</ele>
        <time>2016-01-23T11:20:46Z</time>
      </trkpt>
      <trkpt lat="43.91022" lon="7.06824">
        <ele>1306.8</ele>
        <time>2016-01-23T11:20:52Z</time>
      </trkpt>
      <trkpt lat="43.91027" lon="7.06813">
        <ele>1308.6</ele>
        <time>2016-01-23T11:20:58Z</time>
      </trkpt>
      <trkpt lat="43.91035" lon="7.06806">
        <ele>1308.5</ele>
        <time>2016-01-23T11:21:04Z</time>
      </trkpt>
      <trkpt lat="43.91045" lon="7.068">
        <ele>1310.6</ele>
        <time>2016-01-23T11:21:10Z</time>
      </trkpt>
      <trkpt lat="43.91054" lon="7.06796">
        <ele>1310.4</ele>
        <time>2016-01-23T11:21:15Z</time>
      </trkpt>
      <trkpt lat="43.91063" lon="7.06793">
        <ele>1312.2</ele>
        <time>2016-01-23T11:21:21Z</time>
      </trkpt>
      <trkpt lat="43.91074" lon="7.06793">
        <ele>1312.8</ele>
        <time>2016-01-23T11:21:28Z</time>
      </trkpt>
      <trkpt lat="43.91084" lon="7.06795">
        <ele>1313.8</ele>
        <time>2016-01-23T11:21:34Z</time>
      </trkpt>
      <trkpt lat="43.91095" lon="7.06792">
        <ele>1315.8</ele>
        <time>2016-01-23T11:21:40Z</time>
      </trkpt>
      <trkpt lat="43.91104" lon="7.06792">
        <ele>1315.6</ele>
        <time>2016-01-23T11:21:45Z</time>
      </trkpt>
      <trkpt lat="43.91113" lon="7.06793">
        <ele>1314.8</ele>
        <time>2016-01-23T11:21:50Z</time>
      </trkpt>
      <trkpt lat="43.91122" lon="7.06792">
        <ele>1317.5</ele>
        <time>2016-01-23T11:22:11Z</time>
      </trkpt>
      <trkpt lat="43.91131" lon="7.06787">
        <ele>1316.1</ele>
        <time>2016-01-23T11:24:17Z</time>
      </trkpt>
      <trkpt lat="43.9114" lon="7.0678">
        <ele>1315.7</ele>
        <time>2016-01-23T11:24:23Z</time>
      </trkpt>
      <trkpt lat="43.91149" lon="7.06771">
        <ele>1317</ele>
        <time>2016-01-23T11:24:28Z</time>
      </trkpt>
      <trkpt lat="43.91157" lon="7.06763">
        <ele>1317.8</ele>
        <time>2016-01-23T11:24:33Z</time>
      </trkpt>
      <trkpt lat="43.91166" lon="7.06757">
        <ele>1319.3</ele>
        <time>2016-01-23T11:24:38Z</time>
      </trkpt>
      <trkpt lat="43.91175" lon="7.06752">
        <ele>1320.9</ele>
        <time>2016-01-23T11:24:43Z</time>
      </trkpt>
      <trkpt lat="43.91185" lon="7.06747">
        <ele>1321.7</ele>
        <time>2016-01-23T11:24:49Z</time>
      </trkpt>
      <trkpt lat="43.91194" lon="7.0674">
        <ele>1322.7</ele>
        <time>2016-01-23T11:24:55Z</time>
      </trkpt>
      <trkpt lat="43.91202" lon="7.06733">
        <ele>1324.2</ele>
        <time>2016-01-23T11:25:02Z</time>
      </trkpt>
      <trkpt lat="43.91208" lon="7.06721">
        <ele>1325</ele>
        <time>2016-01-23T11:25:09Z</time>
      </trkpt>
      <trkpt lat="43.91212" lon="7.0671">
        <ele>1326.4</ele>
        <time>2016-01-23T11:25:16Z</time>
      </trkpt>
      <trkpt lat="43.91222" lon="7.06702">
        <ele>1324</ele>
        <time>2016-01-23T11:27:32Z</time>
      </trkpt>
      <trkpt lat="43.91235" lon="7.06698">
        <ele>1325</ele>
        <time>2016-01-23T11:27:40Z</time>
      </trkpt>
      <trkpt lat="43.91249" lon="7.06695">
        <ele>1327</ele>
        <time>2016-01-23T11:27:48Z</time>
      </trkpt>
      <trkpt lat="43.91261" lon="7.06687">
        <ele>1327</ele>
        <time>2016-01-23T11:27:56Z</time>
      </trkpt>
      <trkpt lat="43.91272" lon="7.06673">
        <ele>1329</ele>
        <time>2016-01-23T11:28:04Z</time>
      </trkpt>
      <trkpt lat="43.9128" lon="7.06662">
        <ele>1331</ele>
        <time>2016-01-23T11:28:11Z</time>
      </trkpt>
      <trkpt lat="43.91288" lon="7.06653">
        <ele>1331.5</ele>
        <time>2016-01-23T11:28:17Z</time>
      </trkpt>
      <trkpt lat="43.91297" lon="7.06642">
        <ele>1332</ele>
        <time>2016-01-23T11:28:24Z</time>
      </trkpt>
      <trkpt lat="43.91309" lon="7.06634">
        <ele>1334</ele>
        <time>2016-01-23T11:28:32Z</time>
      </trkpt>
      <trkpt lat="43.9132" lon="7.06625">
        <ele>1336</ele>
        <time>2016-01-23T11:28:40Z</time>
      </trkpt>
      <trkpt lat="43.91328" lon="7.06615">
        <ele>1337.5</ele>
        <time>2016-01-23T11:28:47Z</time>
      </trkpt>
      <trkpt lat="43.91334" lon="7.06605">
        <ele>1338.1</ele>
        <time>2016-01-23T11:28:53Z</time>
      </trkpt>
      <trkpt lat="43.91341" lon="7.06596">
        <ele>1339.1</ele>
        <time>2016-01-23T11:28:59Z</time>
      </trkpt>
      <trkpt lat="43.91349" lon="7.06589">
        <ele>1340.2</ele>
        <time>2016-01-23T11:29:05Z</time>
      </trkpt>
      <trkpt lat="43.91358" lon="7.06584">
        <ele>1341.7</ele>
        <time>2016-01-23T11:29:11Z</time>
      </trkpt>
      <trkpt lat="43.91366" lon="7.06577">
        <ele>1342.6</ele>
        <time>2016-01-23T11:29:17Z</time>
      </trkpt>
      <trkpt lat="43.91375" lon="7.06567">
        <ele>1342.1</ele>
        <time>2016-01-23T11:29:23Z</time>
      </trkpt>
      <trkpt lat="43.91383" lon="7.06558">
        <ele>1343.8</ele>
        <time>2016-01-23T11:29:29Z</time>
      </trkpt>
      <trkpt lat="43.91391" lon="7.06549">
        <ele>1343.9</ele>
        <time>2016-01-23T11:29:35Z</time>
      </trkpt>
      <trkpt lat="43.91399" lon="7.0654">
        <ele>1345.4</ele>
        <time>2016-01-23T11:29:41Z</time>
      </trkpt>
      <trkpt lat="43.91407" lon="7.06531">
        <ele>1345.8</ele>
        <time>2016-01-23T11:29:47Z</time>
      </trkpt>
      <trkpt lat="43.91415" lon="7.06522">
        <ele>1348</ele>
        <time>2016-01-23T11:29:53Z</time>
      </trkpt>
      <trkpt lat="43.91423" lon="7.06513">
        <ele>1348.2</ele>
        <time>2016-01-23T11:29:59Z</time>
      </trkpt>
      <trkpt lat="43.91432" lon="7.06504">
        <ele>1349.7</ele>
        <time>2016-01-23T11:30:05Z</time>
      </trkpt>
      <trkpt lat="43.9144" lon="7.06495">
        <ele>1350.8</ele>
        <time>2016-01-23T11:30:11Z</time>
      </trkpt>
      <trkpt lat="43.91448" lon="7.06487">
        <ele>1351.8</ele>
        <time>2016-01-23T11:30:17Z</time>
      </trkpt>
      <trkpt lat="43.91457" lon="7.06479">
        <ele>1353.1</ele>
        <time>2016-01-23T11:30:23Z</time>
      </trkpt>
      <trkpt lat="43.91466" lon="7.06474">
        <ele>1353.9</ele>
        <time>2016-01-23T11:30:29Z</time>
      </trkpt>
      <trkpt lat="43.91474" lon="7.06469">
        <ele>1355.1</ele>
        <time>2016-01-23T11:30:35Z</time>
      </trkpt>
      <trkpt lat="43.91483" lon="7.06462">
        <ele>1356</ele>
        <time>2016-01-23T11:30:41Z</time>
      </trkpt>
      <trkpt lat="43.91492" lon="7.06457">
        <ele>1357</ele>
        <time>2016-01-23T11:30:48Z</time>
      </trkpt>
      <trkpt lat="43.91501" lon="7.0645">
        <ele>1359</ele>
        <time>2016-01-23T11:30:55Z</time>
      </trkpt>
      <trkpt lat="43.91509" lon="7.06442">
        <ele>1358.6</ele>
        <time>2016-01-23T11:31:03Z</time>
      </trkpt>
      <trkpt lat="43.91506" lon="7.06454">
        <ele>1359.2</ele>
        <time>2016-01-23T11:31:18Z</time>
      </trkpt>
      <trkpt lat="43.91498" lon="7.0646">
        <ele>1360.1</ele>
        <time>2016-01-23T11:31:23Z</time>
      </trkpt>
      <trkpt lat="43.9149" lon="7.06467">
        <ele>1360.8</ele>
        <time>2016-01-23T11:31:28Z</time>
      </trkpt>
      <trkpt lat="43.91483" lon="7.06475">
        <ele>1361.4</ele>
        <time>2016-01-23T11:31:33Z</time>
      </trkpt>
      <trkpt lat="43.91476" lon="7.06483">
        <ele>1362.3</ele>
        <time>2016-01-23T11:31:38Z</time>
      </trkpt>
      <trkpt lat="43.91469" lon="7.06491">
        <ele>1363.9</ele>
        <time>2016-01-23T11:31:43Z</time>
      </trkpt>
      <trkpt lat="43.91462" lon="7.06501">
        <ele>1364.4</ele>
        <time>2016-01-23T11:31:48Z</time>
      </trkpt>
      <trkpt lat="43.91457" lon="7.06511">
        <ele>1365.5</ele>
        <time>2016-01-23T11:31:53Z</time>
      </trkpt>
      <trkpt lat="43.91451" lon="7.06521">
        <ele>1366.4</ele>
        <time>2016-01-23T11:31:58Z</time>
      </trkpt>
      <trkpt lat="43.91446" lon="7.06532">
        <ele>1367.5</ele>
        <time>2016-01-23T11:32:03Z</time>
      </trkpt>
      <trkpt lat="43.9144" lon="7.06542">
        <ele>1368.2</ele>
        <time>2016-01-23T11:32:08Z</time>
      </trkpt>
      <trkpt lat="43.91435" lon="7.06553">
        <ele>1368.7</ele>
        <time>2016-01-23T11:32:14Z</time>
      </trkpt>
      <trkpt lat="43.91431" lon="7.06566">
        <ele>1370.9</ele>
        <time>2016-01-23T11:32:20Z</time>
      </trkpt>
      <trkpt lat="43.91426" lon="7.06579">
        <ele>1372.2</ele>
        <time>2016-01-23T11:32:26Z</time>
      </trkpt>
      <trkpt lat="43.91422" lon="7.0659">
        <ele>1372.1</ele>
        <time>2016-01-23T11:32:31Z</time>
      </trkpt>
      <trkpt lat="43.91416" lon="7.06601">
        <ele>1372.8</ele>
        <time>2016-01-23T11:32:36Z</time>
      </trkpt>
      <trkpt lat="43.9141" lon="7.06613">
        <ele>1374.4</ele>
        <time>2016-01-23T11:32:42Z</time>
      </trkpt>
      <trkpt lat="43.91403" lon="7.06624">
        <ele>1374.9</ele>
        <time>2016-01-23T11:32:48Z</time>
      </trkpt>
      <trkpt lat="43.91397" lon="7.06633">
        <ele>1375.4</ele>
        <time>2016-01-23T11:32:53Z</time>
      </trkpt>
      <trkpt lat="43.91391" lon="7.06642">
        <ele>1376.4</ele>
        <time>2016-01-23T11:32:58Z</time>
      </trkpt>
      <trkpt lat="43.91384" lon="7.06652">
        <ele>1377</ele>
        <time>2016-01-23T11:33:04Z</time>
      </trkpt>
      <trkpt lat="43.91378" lon="7.06664">
        <ele>1378.9</ele>
        <time>2016-01-23T11:33:10Z</time>
      </trkpt>
      <trkpt lat="43.91372" lon="7.06675">
        <ele>1379.8</ele>
        <time>2016-01-23T11:33:16Z</time>
      </trkpt>
      <trkpt lat="43.91366" lon="7.06687">
        <ele>1381.1</ele>
        <time>2016-01-23T11:33:22Z</time>
      </trkpt>
      <trkpt lat="43.91362" lon="7.067">
        <ele>1382.1</ele>
        <time>2016-01-23T11:33:28Z</time>
      </trkpt>
      <trkpt lat="43.91358" lon="7.06714">
        <ele>1383.3</ele>
        <time>2016-01-23T11:33:34Z</time>
      </trkpt>
      <trkpt lat="43.91352" lon="7.06726">
        <ele>1383.4</ele>
        <time>2016-01-23T11:33:40Z</time>
      </trkpt>
      <trkpt lat="43.91346" lon="7.06736">
        <ele>1385</ele>
        <time>2016-01-23T11:33:45Z</time>
      </trkpt>
      <trkpt lat="43.9134" lon="7.06748">
        <ele>1386.3</ele>
        <time>2016-01-23T11:33:51Z</time>
      </trkpt>
      <trkpt lat="43.91335" lon="7.06759">
        <ele>1386.7</ele>
        <time>2016-01-23T11:33:56Z</time>
      </trkpt>
      <trkpt lat="43.91329" lon="7.06768">
        <ele>1386.9</ele>
        <time>2016-01-23T11:34:01Z</time>
      </trkpt>
      <trkpt lat="43.91322" lon="7.06778">
        <ele>1387.4</ele>
        <time>2016-01-23T11:34:07Z</time>
      </trkpt>
      <trkpt lat="43.91315" lon="7.06787">
        <ele>1389.4</ele>
        <time>2016-01-23T11:34:13Z</time>
      </trkpt>
      <trkpt lat="43.91308" lon="7.06797">
        <ele>1390.3</ele>
        <time>2016-01-23T11:34:19Z</time>
      </trkpt>
      <trkpt lat="43.913" lon="7.06808">
        <ele>1392.4</ele>
        <time>2016-01-23T11:34:25Z</time>
      </trkpt>
      <trkpt lat="43.91293" lon="7.06818">
        <ele>1392.9</ele>
        <time>2016-01-23T11:34:31Z</time>
      </trkpt>
      <trkpt lat="43.91286" lon="7.06827">
        <ele>1393.8</ele>
        <time>2016-01-23T11:34:36Z</time>
      </trkpt>
      <trkpt lat="43.91279" lon="7.06838">
        <ele>1394.9</ele>
        <time>2016-01-23T11:34:42Z</time>
      </trkpt>
      <trkpt lat="43.91271" lon="7.06849">
        <ele>1395.6</ele>
        <time>2016-01-23T11:34:48Z</time>
      </trkpt>
      <trkpt lat="43.91264" lon="7.06857">
        <ele>1396.3</ele>
        <time>2016-01-23T11:34:53Z</time>
      </trkpt>
      <trkpt lat="43.91258" lon="7.06866">
        <ele>1397.1</ele>
        <time>2016-01-23T11:34:58Z</time>
      </trkpt>
      <trkpt lat="43.9125" lon="7.06876">
        <ele>1398.3</ele>
        <time>2016-01-23T11:35:03Z</time>
      </trkpt>
      <trkpt lat="43.91244" lon="7.06884">
        <ele>1398.4</ele>
        <time>2016-01-23T11:35:08Z</time>
      </trkpt>
      <trkpt lat="43.91238" lon="7.06894">
        <ele>1399.2</ele>
        <time>2016-01-23T11:35:13Z</time>
      </trkpt>
      <trkpt lat="43.9123" lon="7.06905">
        <ele>1400</ele>
        <time>2016-01-23T11:35:19Z</time>
      </trkpt>
      <trkpt lat="43.91225" lon="7.06917">
        <ele>1400.3</ele>
        <time>2016-01-23T11:35:25Z</time>
      </trkpt>
      <trkpt lat="43.91223" lon="7.06929">
        <ele>1401.1</ele>
        <time>2016-01-23T11:35:32Z</time>
      </trkpt>
      <trkpt lat="43.91223" lon="7.06942">
        <ele>1401.4</ele>
        <time>2016-01-23T11:35:48Z</time>
      </trkpt>
      <trkpt lat="43.91231" lon="7.0695">
        <ele>1400.6</ele>
        <time>2016-01-23T11:45:57Z</time>
      </trkpt>
      <trkpt lat="43.9124" lon="7.0696">
        <ele>1399.4</ele>
        <time>2016-01-23T11:46:01Z</time>
      </trkpt>
      <trkpt lat="43.91246" lon="7.06973">
        <ele>1397.6</ele>
        <time>2016-01-23T11:46:04Z</time>
      </trkpt>
      <trkpt lat="43.91253" lon="7.06982">
        <ele>1396</ele>
        <time>2016-01-23T11:46:07Z</time>
      </trkpt>
      <trkpt lat="43.9126" lon="7.06993">
        <ele>1393.2</ele>
        <time>2016-01-23T11:46:11Z</time>
      </trkpt>
      <trkpt lat="43.91267" lon="7.07006">
        <ele>1390.9</ele>
        <time>2016-01-23T11:46:15Z</time>
      </trkpt>
      <trkpt lat="43.91275" lon="7.07017">
        <ele>1389.2</ele>
        <time>2016-01-23T11:46:19Z</time>
      </trkpt>
      <trkpt lat="43.91281" lon="7.07029">
        <ele>1387.1</ele>
        <time>2016-01-23T11:46:23Z</time>
      </trkpt>
      <trkpt lat="43.91287" lon="7.07041">
        <ele>1384.8</ele>
        <time>2016-01-23T11:46:26Z</time>
      </trkpt>
      <trkpt lat="43.91295" lon="7.07053">
        <ele>1383.5</ele>
        <time>2016-01-23T11:46:30Z</time>
      </trkpt>
      <trkpt lat="43.91301" lon="7.07063">
        <ele>1382.5</ele>
        <time>2016-01-23T11:46:33Z</time>
      </trkpt>
      <trkpt lat="43.91309" lon="7.07075">
        <ele>1380.7</ele>
        <time>2016-01-23T11:46:36Z</time>
      </trkpt>
      <trkpt lat="43.91316" lon="7.07084">
        <ele>1380.2</ele>
        <time>2016-01-23T11:46:39Z</time>
      </trkpt>
      <trkpt lat="43.91325" lon="7.07094">
        <ele>1378</ele>
        <time>2016-01-23T11:46:43Z</time>
      </trkpt>
      <trkpt lat="43.91333" lon="7.07104">
        <ele>1375</ele>
        <time>2016-01-23T11:46:48Z</time>
      </trkpt>
      <trkpt lat="43.91338" lon="7.07113">
        <ele>1372.3</ele>
        <time>2016-01-23T11:48:04Z</time>
      </trkpt>
      <trkpt lat="43.91349" lon="7.07118">
        <ele>1373.1</ele>
        <time>2016-01-23T11:48:22Z</time>
      </trkpt>
      <trkpt lat="43.91358" lon="7.07126">
        <ele>1372.2</ele>
        <time>2016-01-23T11:48:26Z</time>
      </trkpt>
      <trkpt lat="43.91367" lon="7.07133">
        <ele>1371.5</ele>
        <time>2016-01-23T11:48:29Z</time>
      </trkpt>
      <trkpt lat="43.91374" lon="7.07142">
        <ele>1369.4</ele>
        <time>2016-01-23T11:48:33Z</time>
      </trkpt>
      <trkpt lat="43.91382" lon="7.07148">
        <ele>1367.3</ele>
        <time>2016-01-23T11:48:38Z</time>
      </trkpt>
      <trkpt lat="43.91376" lon="7.07138">
        <ele>1365.7</ele>
        <time>2016-01-23T11:52:05Z</time>
      </trkpt>
      <trkpt lat="43.91368" lon="7.0713">
        <ele>1367.5</ele>
        <time>2016-01-23T11:52:16Z</time>
      </trkpt>
      <trkpt lat="43.9136" lon="7.07124">
        <ele>1369.4</ele>
        <time>2016-01-23T11:52:27Z</time>
      </trkpt>
      <trkpt lat="43.91352" lon="7.07118">
        <ele>1371.1</ele>
        <time>2016-01-23T11:52:38Z</time>
      </trkpt>
      <trkpt lat="43.91344" lon="7.07112">
        <ele>1373.4</ele>
        <time>2016-01-23T11:52:49Z</time>
      </trkpt>
      <trkpt lat="43.91336" lon="7.07104">
        <ele>1373.1</ele>
        <time>2016-01-23T11:53:00Z</time>
      </trkpt>
      <trkpt lat="43.91329" lon="7.07095">
        <ele>1375.8</ele>
        <time>2016-01-23T11:53:12Z</time>
      </trkpt>
      <trkpt lat="43.91322" lon="7.07088">
        <ele>1376.3</ele>
        <time>2016-01-23T11:53:23Z</time>
      </trkpt>
      <trkpt lat="43.91314" lon="7.0708">
        <ele>1379.3</ele>
        <time>2016-01-23T11:53:57Z</time>
      </trkpt>
      <trkpt lat="43.91307" lon="7.07071">
        <ele>1380.3</ele>
        <time>2016-01-23T11:54:07Z</time>
      </trkpt>
      <trkpt lat="43.91301" lon="7.07061">
        <ele>1383</ele>
        <time>2016-01-23T11:54:17Z</time>
      </trkpt>
      <trkpt lat="43.91294" lon="7.0705">
        <ele>1384.9</ele>
        <time>2016-01-23T11:54:27Z</time>
      </trkpt>
      <trkpt lat="43.91289" lon="7.0704">
        <ele>1385.3</ele>
        <time>2016-01-23T11:54:36Z</time>
      </trkpt>
      <trkpt lat="43.91283" lon="7.0703">
        <ele>1387.1</ele>
        <time>2016-01-23T11:54:46Z</time>
      </trkpt>
      <trkpt lat="43.91278" lon="7.07019">
        <ele>1389.3</ele>
        <time>2016-01-23T11:54:57Z</time>
      </trkpt>
      <trkpt lat="43.91271" lon="7.0701">
        <ele>1391.2</ele>
        <time>2016-01-23T11:55:09Z</time>
      </trkpt>
      <trkpt lat="43.91265" lon="7.07">
        <ele>1391.9</ele>
        <time>2016-01-23T11:55:19Z</time>
      </trkpt>
      <trkpt lat="43.9126" lon="7.0699">
        <ele>1394.3</ele>
        <time>2016-01-23T11:55:29Z</time>
      </trkpt>
      <trkpt lat="43.91253" lon="7.06979">
        <ele>1394.7</ele>
        <time>2016-01-23T11:55:40Z</time>
      </trkpt>
      <trkpt lat="43.91246" lon="7.0697">
        <ele>1396.8</ele>
        <time>2016-01-23T11:56:15Z</time>
      </trkpt>
      <trkpt lat="43.9124" lon="7.06959">
        <ele>1397.3</ele>
        <time>2016-01-23T11:56:24Z</time>
      </trkpt>
      <trkpt lat="43.91233" lon="7.0695">
        <ele>1399.2</ele>
        <time>2016-01-23T11:56:34Z</time>
      </trkpt>
      <trkpt lat="43.91227" lon="7.0694">
        <ele>1401.4</ele>
        <time>2016-01-23T11:56:52Z</time>
      </trkpt>
      <trkpt lat="43.91225" lon="7.06952">
        <ele>1401.7</ele>
        <time>2016-01-23T11:59:22Z</time>
      </trkpt>
      <trkpt lat="43.91218" lon="7.06961">
        <ele>1400.3</ele>
        <time>2016-01-23T11:59:28Z</time>
      </trkpt>
      <trkpt lat="43.9121" lon="7.06969">
        <ele>1396.6</ele>
        <time>2016-01-23T11:59:36Z</time>
      </trkpt>
      <trkpt lat="43.91213" lon="7.06981">
        <ele>1392.6</ele>
        <time>2016-01-23T11:59:47Z</time>
      </trkpt>
      <trkpt lat="43.91215" lon="7.06993">
        <ele>1387.4</ele>
        <time>2016-01-23T12:00:13Z</time>
      </trkpt>
      <trkpt lat="43.91211" lon="7.07004">
        <ele>1385.7</ele>
        <time>2016-01-23T12:00:19Z</time>
      </trkpt>
      <trkpt lat="43.91212" lon="7.07017">
        <ele>1380.3</ele>
        <time>2016-01-23T12:00:35Z</time>
      </trkpt>
      <trkpt lat="43.91209" lon="7.07033">
        <ele>1379.4</ele>
        <time>2016-01-23T12:00:40Z</time>
      </trkpt>
      <trkpt lat="43.91204" lon="7.07044">
        <ele>1376.4</ele>
        <time>2016-01-23T12:00:44Z</time>
      </trkpt>
      <trkpt lat="43.912" lon="7.07056">
        <ele>1372.8</ele>
        <time>2016-01-23T12:00:48Z</time>
      </trkpt>
      <trkpt lat="43.91192" lon="7.07068">
        <ele>1371.1</ele>
        <time>2016-01-23T12:00:51Z</time>
      </trkpt>
      <trkpt lat="43.91185" lon="7.07077">
        <ele>1369.8</ele>
        <time>2016-01-23T12:01:00Z</time>
      </trkpt>
      <trkpt lat="43.91178" lon="7.07088">
        <ele>1370.9</ele>
        <time>2016-01-23T12:01:06Z</time>
      </trkpt>
      <trkpt lat="43.91172" lon="7.07098">
        <ele>1369.4</ele>
        <time>2016-01-23T12:01:13Z</time>
      </trkpt>
      <trkpt lat="43.91167" lon="7.07111">
        <ele>1369.7</ele>
        <time>2016-01-23T12:01:18Z</time>
      </trkpt>
      <trkpt lat="43.91163" lon="7.07124">
        <ele>1369.5</ele>
        <time>2016-01-23T12:01:21Z</time>
      </trkpt>
      <trkpt lat="43.91158" lon="7.07136">
        <ele>1368.1</ele>
        <time>2016-01-23T12:01:25Z</time>
      </trkpt>
      <trkpt lat="43.91153" lon="7.0715">
        <ele>1366.5</ele>
        <time>2016-01-23T12:01:30Z</time>
      </trkpt>
      <trkpt lat="43.91149" lon="7.07162">
        <ele>1364.5</ele>
        <time>2016-01-23T12:01:33Z</time>
      </trkpt>
      <trkpt lat="43.91144" lon="7.07174">
        <ele>1362.9</ele>
        <time>2016-01-23T12:01:37Z</time>
      </trkpt>
      <trkpt lat="43.9114" lon="7.07187">
        <ele>1361.5</ele>
        <time>2016-01-23T12:01:41Z</time>
      </trkpt>
      <trkpt lat="43.91135" lon="7.07199">
        <ele>1358.8</ele>
        <time>2016-01-23T12:01:46Z</time>
      </trkpt>
      <trkpt lat="43.91129" lon="7.07208">
        <ele>1356.2</ele>
        <time>2016-01-23T12:01:54Z</time>
      </trkpt>
      <trkpt lat="43.91123" lon="7.0722">
        <ele>1356.5</ele>
        <time>2016-01-23T12:02:04Z</time>
      </trkpt>
      <trkpt lat="43.91119" lon="7.07231">
        <ele>1354.9</ele>
        <time>2016-01-23T12:02:10Z</time>
      </trkpt>
      <trkpt lat="43.91116" lon="7.07243">
        <ele>1353</ele>
        <time>2016-01-23T12:02:23Z</time>
      </trkpt>
      <trkpt lat="43.9111" lon="7.07252">
        <ele>1352.2</ele>
        <time>2016-01-23T12:02:39Z</time>
      </trkpt>
      <trkpt lat="43.91101" lon="7.07259">
        <ele>1351.7</ele>
        <time>2016-01-23T12:02:46Z</time>
      </trkpt>
      <trkpt lat="43.91096" lon="7.07269">
        <ele>1352.3</ele>
        <time>2016-01-23T12:03:01Z</time>
      </trkpt>
      <trkpt lat="43.91087" lon="7.07278">
        <ele>1349.2</ele>
        <time>2016-01-23T12:03:16Z</time>
      </trkpt>
      <trkpt lat="43.9108" lon="7.07287">
        <ele>1347.8</ele>
        <time>2016-01-23T12:03:28Z</time>
      </trkpt>
      <trkpt lat="43.91076" lon="7.07298">
        <ele>1344.5</ele>
        <time>2016-01-23T12:03:49Z</time>
      </trkpt>
      <trkpt lat="43.91074" lon="7.07311">
        <ele>1342.9</ele>
        <time>2016-01-23T12:04:12Z</time>
      </trkpt>
      <trkpt lat="43.91071" lon="7.07323">
        <ele>1339.7</ele>
        <time>2016-01-23T12:05:19Z</time>
      </trkpt>
      <trkpt lat="43.91067" lon="7.07336">
        <ele>1336.7</ele>
        <time>2016-01-23T12:05:25Z</time>
      </trkpt>
      <trkpt lat="43.91064" lon="7.0735">
        <ele>1333.4</ele>
        <time>2016-01-23T12:05:31Z</time>
      </trkpt>
      <trkpt lat="43.9106" lon="7.07363">
        <ele>1331.4</ele>
        <time>2016-01-23T12:05:35Z</time>
      </trkpt>
      <trkpt lat="43.91056" lon="7.07375">
        <ele>1329</ele>
        <time>2016-01-23T12:05:38Z</time>
      </trkpt>
      <trkpt lat="43.91052" lon="7.07389">
        <ele>1326.2</ele>
        <time>2016-01-23T12:05:42Z</time>
      </trkpt>
      <trkpt lat="43.91051" lon="7.07403">
        <ele>1323.9</ele>
        <time>2016-01-23T12:05:47Z</time>
      </trkpt>
      <trkpt lat="43.9105" lon="7.07418">
        <ele>1321.6</ele>
        <time>2016-01-23T12:05:52Z</time>
      </trkpt>
      <trkpt lat="43.91048" lon="7.07433">
        <ele>1320.6</ele>
        <time>2016-01-23T12:05:57Z</time>
      </trkpt>
      <trkpt lat="43.91047" lon="7.07446">
        <ele>1319.9</ele>
        <time>2016-01-23T12:06:01Z</time>
      </trkpt>
      <trkpt lat="43.91045" lon="7.07461">
        <ele>1319.8</ele>
        <time>2016-01-23T12:06:05Z</time>
      </trkpt>
      <trkpt lat="43.91043" lon="7.07473">
        <ele>1317.5</ele>
        <time>2016-01-23T12:06:16Z</time>
      </trkpt>
      <trkpt lat="43.91039" lon="7.07485">
        <ele>1316.7</ele>
        <time>2016-01-23T12:06:22Z</time>
      </trkpt>
      <trkpt lat="43.91038" lon="7.075">
        <ele>1315.1</ele>
        <time>2016-01-23T12:06:26Z</time>
      </trkpt>
      <trkpt lat="43.91036" lon="7.07514">
        <ele>1313.9</ele>
        <time>2016-01-23T12:06:30Z</time>
      </trkpt>
      <trkpt lat="43.91034" lon="7.07529">
        <ele>1312.1</ele>
        <time>2016-01-23T12:06:36Z</time>
      </trkpt>
      <trkpt lat="43.91033" lon="7.07543">
        <ele>1312</ele>
        <time>2016-01-23T12:06:39Z</time>
      </trkpt>
      <trkpt lat="43.91035" lon="7.07559">
        <ele>1310.4</ele>
        <time>2016-01-23T12:06:42Z</time>
      </trkpt>
      <trkpt lat="43.91038" lon="7.07573">
        <ele>1308.6</ele>
        <time>2016-01-23T12:06:44Z</time>
      </trkpt>
      <trkpt lat="43.91041" lon="7.07589">
        <ele>1307</ele>
        <time>2016-01-23T12:06:47Z</time>
      </trkpt>
      <trkpt lat="43.91043" lon="7.07607">
        <ele>1304.9</ele>
        <time>2016-01-23T12:06:50Z</time>
      </trkpt>
      <trkpt lat="43.91041" lon="7.07623">
        <ele>1303.7</ele>
        <time>2016-01-23T12:06:53Z</time>
      </trkpt>
      <trkpt lat="43.9104" lon="7.07635">
        <ele>1303.6</ele>
        <time>2016-01-23T12:07:06Z</time>
      </trkpt>
      <trkpt lat="43.91036" lon="7.07647">
        <ele>1302.7</ele>
        <time>2016-01-23T12:08:45Z</time>
      </trkpt>
      <trkpt lat="43.91033" lon="7.07662">
        <ele>1302.5</ele>
        <time>2016-01-23T12:08:53Z</time>
      </trkpt>
      <trkpt lat="43.91027" lon="7.07674">
        <ele>1302.5</ele>
        <time>2016-01-23T12:08:58Z</time>
      </trkpt>
      <trkpt lat="43.91023" lon="7.07688">
        <ele>1303.3</ele>
        <time>2016-01-23T12:09:02Z</time>
      </trkpt>
      <trkpt lat="43.91018" lon="7.07702">
        <ele>1300.7</ele>
        <time>2016-01-23T12:09:05Z</time>
      </trkpt>
      <trkpt lat="43.91014" lon="7.07714">
        <ele>1298.5</ele>
        <time>2016-01-23T12:09:08Z</time>
      </trkpt>
      <trkpt lat="43.9101" lon="7.07728">
        <ele>1295.3</ele>
        <time>2016-01-23T12:09:11Z</time>
      </trkpt>
      <trkpt lat="43.91007" lon="7.07744">
        <ele>1293.1</ele>
        <time>2016-01-23T12:09:15Z</time>
      </trkpt>
      <trkpt lat="43.91005" lon="7.07756">
        <ele>1292.2</ele>
        <time>2016-01-23T12:09:18Z</time>
      </trkpt>
      <trkpt lat="43.91002" lon="7.07768">
        <ele>1290.6</ele>
        <time>2016-01-23T12:09:22Z</time>
      </trkpt>
      <trkpt lat="43.90999" lon="7.07781">
        <ele>1289.5</ele>
        <time>2016-01-23T12:09:27Z</time>
      </trkpt>
      <trkpt lat="43.90991" lon="7.07788">
        <ele>1288.6</ele>
        <time>2016-01-23T12:09:45Z</time>
      </trkpt>
      <trkpt lat="43.90985" lon="7.07797">
        <ele>1286.1</ele>
        <time>2016-01-23T12:09:58Z</time>
      </trkpt>
      <trkpt lat="43.90978" lon="7.07806">
        <ele>1284</ele>
        <time>2016-01-23T12:10:11Z</time>
      </trkpt>
      <trkpt lat="43.9097" lon="7.07813">
        <ele>1285.2</ele>
        <time>2016-01-23T12:10:16Z</time>
      </trkpt>
      <trkpt lat="43.90964" lon="7.07825">
        <ele>1284.1</ele>
        <time>2016-01-23T12:10:21Z</time>
      </trkpt>
      <trkpt lat="43.90958" lon="7.07835">
        <ele>1284.5</ele>
        <time>2016-01-23T12:10:31Z</time>
      </trkpt>
      <trkpt lat="43.90959" lon="7.07848">
        <ele>1287.1</ele>
        <time>2016-01-23T12:10:44Z</time>
      </trkpt>
      <trkpt lat="43.90962" lon="7.0786">
        <ele>1287.1</ele>
        <time>2016-01-23T12:11:18Z</time>
      </trkpt>
      <trkpt lat="43.9096" lon="7.07872">
        <ele>1289</ele>
        <time>2016-01-23T12:11:53Z</time>
      </trkpt>
      <trkpt lat="43.90953" lon="7.07881">
        <ele>1291</ele>
        <time>2016-01-23T12:12:03Z</time>
      </trkpt>
      <trkpt lat="43.90949" lon="7.07892">
        <ele>1292.3</ele>
        <time>2016-01-23T12:12:15Z</time>
      </trkpt>
      <trkpt lat="43.90943" lon="7.07905">
        <ele>1291.1</ele>
        <time>2016-01-23T12:12:38Z</time>
      </trkpt>
      <trkpt lat="43.90937" lon="7.07915">
        <ele>1288.1</ele>
        <time>2016-01-23T12:12:52Z</time>
      </trkpt>
      <trkpt lat="43.90934" lon="7.07928">
        <ele>1283.2</ele>
        <time>2016-01-23T12:13:10Z</time>
      </trkpt>
      <trkpt lat="43.90926" lon="7.07937">
        <ele>1283.7</ele>
        <time>2016-01-23T12:13:14Z</time>
      </trkpt>
      <trkpt lat="43.90921" lon="7.07947">
        <ele>1280.7</ele>
        <time>2016-01-23T12:13:25Z</time>
      </trkpt>
      <trkpt lat="43.90918" lon="7.07959">
        <ele>1280.1</ele>
        <time>2016-01-23T12:14:07Z</time>
      </trkpt>
      <trkpt lat="43.90921" lon="7.07971">
        <ele>1278.9</ele>
        <time>2016-01-23T12:14:15Z</time>
      </trkpt>
      <trkpt lat="43.90922" lon="7.07984">
        <ele>1276.7</ele>
        <time>2016-01-23T12:14:39Z</time>
      </trkpt>
      <trkpt lat="43.90915" lon="7.07994">
        <ele>1274.5</ele>
        <time>2016-01-23T12:14:44Z</time>
      </trkpt>
      <trkpt lat="43.90905" lon="7.08001">
        <ele>1271.8</ele>
        <time>2016-01-23T12:14:49Z</time>
      </trkpt>
      <trkpt lat="43.90905" lon="7.08016">
        <ele>1268.5</ele>
        <time>2016-01-23T12:14:53Z</time>
      </trkpt>
      <trkpt lat="43.90906" lon="7.08032">
        <ele>1267.2</ele>
        <time>2016-01-23T12:14:56Z</time>
      </trkpt>
      <trkpt lat="43.90903" lon="7.08049">
        <ele>1265.7</ele>
        <time>2016-01-23T12:14:59Z</time>
      </trkpt>
      <trkpt lat="43.90904" lon="7.08063">
        <ele>1265.1</ele>
        <time>2016-01-23T12:15:02Z</time>
      </trkpt>
      <trkpt lat="43.90905" lon="7.08078">
        <ele>1263.4</ele>
        <time>2016-01-23T12:15:05Z</time>
      </trkpt>
      <trkpt lat="43.90909" lon="7.08093">
        <ele>1262.6</ele>
        <time>2016-01-23T12:15:09Z</time>
      </trkpt>
      <trkpt lat="43.90915" lon="7.08105">
        <ele>1262.8</ele>
        <time>2016-01-23T12:15:13Z</time>
      </trkpt>
      <trkpt lat="43.90917" lon="7.08117">
        <ele>1265.2</ele>
        <time>2016-01-23T12:15:21Z</time>
      </trkpt>
      <trkpt lat="43.90919" lon="7.08129">
        <ele>1265.1</ele>
        <time>2016-01-23T12:15:41Z</time>
      </trkpt>
      <trkpt lat="43.90917" lon="7.08142">
        <ele>1268.6</ele>
        <time>2016-01-23T12:15:59Z</time>
      </trkpt>
      <trkpt lat="43.90916" lon="7.08155">
        <ele>1271.1</ele>
        <time>2016-01-23T12:16:16Z</time>
      </trkpt>
      <trkpt lat="43.90915" lon="7.08167">
        <ele>1271.4</ele>
        <time>2016-01-23T12:16:35Z</time>
      </trkpt>
      <trkpt lat="43.90916" lon="7.08181">
        <ele>1272.1</ele>
        <time>2016-01-23T12:16:41Z</time>
      </trkpt>
      <trkpt lat="43.90915" lon="7.08194">
        <ele>1273.6</ele>
        <time>2016-01-23T12:16:48Z</time>
      </trkpt>
      <trkpt lat="43.90913" lon="7.08206">
        <ele>1273.7</ele>
        <time>2016-01-23T12:16:55Z</time>
      </trkpt>
      <trkpt lat="43.90913" lon="7.0822">
        <ele>1274.2</ele>
        <time>2016-01-23T12:17:02Z</time>
      </trkpt>
      <trkpt lat="43.90913" lon="7.08234">
        <ele>1273.1</ele>
        <time>2016-01-23T12:17:07Z</time>
      </trkpt>
      <trkpt lat="43.9091" lon="7.08247">
        <ele>1274.1</ele>
        <time>2016-01-23T12:17:11Z</time>
      </trkpt>
      <trkpt lat="43.90905" lon="7.08259">
        <ele>1274.4</ele>
        <time>2016-01-23T12:17:16Z</time>
      </trkpt>
      <trkpt lat="43.909" lon="7.08272">
        <ele>1276</ele>
        <time>2016-01-23T12:17:22Z</time>
      </trkpt>
      <trkpt lat="43.90896" lon="7.08286">
        <ele>1278.1</ele>
        <time>2016-01-23T12:17:27Z</time>
      </trkpt>
      <trkpt lat="43.90893" lon="7.08301">
        <ele>1279.8</ele>
        <time>2016-01-23T12:17:32Z</time>
      </trkpt>
      <trkpt lat="43.90893" lon="7.08314">
        <ele>1280.4</ele>
        <time>2016-01-23T12:17:37Z</time>
      </trkpt>
      <trkpt lat="43.90892" lon="7.08327">
        <ele>1280.9</ele>
        <time>2016-01-23T12:17:42Z</time>
      </trkpt>
      <trkpt lat="43.90889" lon="7.0834">
        <ele>1282.6</ele>
        <time>2016-01-23T12:17:49Z</time>
      </trkpt>
      <trkpt lat="43.90888" lon="7.08353">
        <ele>1285.2</ele>
        <time>2016-01-23T12:18:00Z</time>
      </trkpt>
      <trkpt lat="43.90885" lon="7.08365">
        <ele>1285.1</ele>
        <time>2016-01-23T12:18:22Z</time>
      </trkpt>
      <trkpt lat="43.90884" lon="7.08377">
        <ele>1284.7</ele>
        <time>2016-01-23T12:19:24Z</time>
      </trkpt>
      <trkpt lat="43.90883" lon="7.0839">
        <ele>1285.6</ele>
        <time>2016-01-23T12:20:07Z</time>
      </trkpt>
      <trkpt lat="43.90883" lon="7.08403">
        <ele>1286</ele>
        <time>2016-01-23T12:20:12Z</time>
      </trkpt>
      <trkpt lat="43.90883" lon="7.08417">
        <ele>1286.1</ele>
        <time>2016-01-23T12:20:17Z</time>
      </trkpt>
      <trkpt lat="43.90879" lon="7.0843">
        <ele>1285.6</ele>
        <time>2016-01-23T12:20:22Z</time>
      </trkpt>
      <trkpt lat="43.90876" lon="7.08444">
        <ele>1286.5</ele>
        <time>2016-01-23T12:20:27Z</time>
      </trkpt>
      <trkpt lat="43.9087" lon="7.08455">
        <ele>1286.8</ele>
        <time>2016-01-23T12:21:31Z</time>
      </trkpt>
      <trkpt lat="43.90864" lon="7.08466">
        <ele>1286.8</ele>
        <time>2016-01-23T12:21:37Z</time>
      </trkpt>
      <trkpt lat="43.90859" lon="7.08477">
        <ele>1285.9</ele>
        <time>2016-01-23T12:21:43Z</time>
      </trkpt>
      <trkpt lat="43.90854" lon="7.0849">
        <ele>1286.5</ele>
        <time>2016-01-23T12:21:50Z</time>
      </trkpt>
      <trkpt lat="43.90845" lon="7.08497">
        <ele>1286.6</ele>
        <time>2016-01-23T12:21:55Z</time>
      </trkpt>
      <trkpt lat="43.90837" lon="7.08503">
        <ele>1286.9</ele>
        <time>2016-01-23T12:22:00Z</time>
      </trkpt>
      <trkpt lat="43.90829" lon="7.0851">
        <ele>1285.6</ele>
        <time>2016-01-23T12:22:08Z</time>
      </trkpt>
      <trkpt lat="43.90825" lon="7.08521">
        <ele>1282.4</ele>
        <time>2016-01-23T12:22:25Z</time>
      </trkpt>
      <trkpt lat="43.90829" lon="7.08533">
        <ele>1280.4</ele>
        <time>2016-01-23T12:23:02Z</time>
      </trkpt>
      <trkpt lat="43.90831" lon="7.08545">
        <ele>1278.7</ele>
        <time>2016-01-23T12:23:08Z</time>
      </trkpt>
      <trkpt lat="43.90831" lon="7.08559">
        <ele>1278.1</ele>
        <time>2016-01-23T12:23:15Z</time>
      </trkpt>
      <trkpt lat="43.90829" lon="7.08572">
        <ele>1278.8</ele>
        <time>2016-01-23T12:23:23Z</time>
      </trkpt>
      <trkpt lat="43.90831" lon="7.08586">
        <ele>1278.7</ele>
        <time>2016-01-23T12:23:29Z</time>
      </trkpt>
      <trkpt lat="43.90831" lon="7.08599">
        <ele>1281.4</ele>
        <time>2016-01-23T12:23:42Z</time>
      </trkpt>
      <trkpt lat="43.90826" lon="7.0861">
        <ele>1281.3</ele>
        <time>2016-01-23T12:23:50Z</time>
      </trkpt>
      <trkpt lat="43.90821" lon="7.08622">
        <ele>1281.4</ele>
        <time>2016-01-23T12:24:10Z</time>
      </trkpt>
      <trkpt lat="43.90821" lon="7.08635">
        <ele>1279.7</ele>
        <time>2016-01-23T12:24:27Z</time>
      </trkpt>
      <trkpt lat="43.90821" lon="7.08648">
        <ele>1276.2</ele>
        <time>2016-01-23T12:24:53Z</time>
      </trkpt>
      <trkpt lat="43.90824" lon="7.0866">
        <ele>1274.1</ele>
        <time>2016-01-23T12:24:59Z</time>
      </trkpt>
      <trkpt lat="43.90828" lon="7.08672">
        <ele>1272.9</ele>
        <time>2016-01-23T12:25:13Z</time>
      </trkpt>
      <trkpt lat="43.90834" lon="7.08681">
        <ele>1272.8</ele>
        <time>2016-01-23T12:25:24Z</time>
      </trkpt>
      <trkpt lat="43.90839" lon="7.08692">
        <ele>1273.4</ele>
        <time>2016-01-23T12:28:53Z</time>
      </trkpt>
      <trkpt lat="43.90837" lon="7.08705">
        <ele>1273.7</ele>
        <time>2016-01-23T12:46:19Z</time>
      </trkpt>
      <trkpt lat="43.90828" lon="7.0871">
        <ele>1273.3</ele>
        <time>2016-01-23T12:46:24Z</time>
      </trkpt>
      <trkpt lat="43.90823" lon="7.08721">
        <ele>1272.6</ele>
        <time>2016-01-23T12:46:28Z</time>
      </trkpt>
      <trkpt lat="43.90822" lon="7.08733">
        <ele>1270.3</ele>
        <time>2016-01-23T12:46:50Z</time>
      </trkpt>
      <trkpt lat="43.90821" lon="7.08748">
        <ele>1270.6</ele>
        <time>2016-01-23T12:46:53Z</time>
      </trkpt>
      <trkpt lat="43.9082" lon="7.08763">
        <ele>1269.4</ele>
        <time>2016-01-23T12:46:56Z</time>
      </trkpt>
      <trkpt lat="43.90815" lon="7.08779">
        <ele>1268.9</ele>
        <time>2016-01-23T12:46:59Z</time>
      </trkpt>
      <trkpt lat="43.90813" lon="7.08792">
        <ele>1267.3</ele>
        <time>2016-01-23T12:47:02Z</time>
      </trkpt>
      <trkpt lat="43.90809" lon="7.08807">
        <ele>1267.5</ele>
        <time>2016-01-23T12:47:06Z</time>
      </trkpt>
      <trkpt lat="43.90805" lon="7.08819">
        <ele>1269.7</ele>
        <time>2016-01-23T12:47:14Z</time>
      </trkpt>
      <trkpt lat="43.908" lon="7.0883">
        <ele>1267.9</ele>
        <time>2016-01-23T12:48:42Z</time>
      </trkpt>
      <trkpt lat="43.90798" lon="7.08843">
        <ele>1268.5</ele>
        <time>2016-01-23T12:49:00Z</time>
      </trkpt>
      <trkpt lat="43.9079" lon="7.08848">
        <ele>1263.8</ele>
        <time>2016-01-23T12:49:18Z</time>
      </trkpt>
      <trkpt lat="43.90782" lon="7.08844">
        <ele>1262.2</ele>
        <time>2016-01-23T12:49:37Z</time>
      </trkpt>
      <trkpt lat="43.90784" lon="7.08832">
        <ele>1264.2</ele>
        <time>2016-01-23T12:50:44Z</time>
      </trkpt>
      <trkpt lat="43.90777" lon="7.08841">
        <ele>1264.7</ele>
        <time>2016-01-23T12:51:21Z</time>
      </trkpt>
      <trkpt lat="43.90772" lon="7.08851">
        <ele>1263.4</ele>
        <time>2016-01-23T12:51:41Z</time>
      </trkpt>
      <trkpt lat="43.90767" lon="7.08862">
        <ele>1262.8</ele>
        <time>2016-01-23T12:52:12Z</time>
      </trkpt>
      <trkpt lat="43.90758" lon="7.08869">
        <ele>1260</ele>
        <time>2016-01-23T12:52:49Z</time>
      </trkpt>
      <trkpt lat="43.90748" lon="7.08876">
        <ele>1258.7</ele>
        <time>2016-01-23T12:52:56Z</time>
      </trkpt>
      <trkpt lat="43.9074" lon="7.08886">
        <ele>1257.9</ele>
        <time>2016-01-23T12:53:02Z</time>
      </trkpt>
      <trkpt lat="43.90731" lon="7.0889">
        <ele>1258.4</ele>
        <time>2016-01-23T12:53:07Z</time>
      </trkpt>
      <trkpt lat="43.90722" lon="7.08894">
        <ele>1259.5</ele>
        <time>2016-01-23T12:53:12Z</time>
      </trkpt>
      <trkpt lat="43.90713" lon="7.08897">
        <ele>1261.3</ele>
        <time>2016-01-23T12:53:19Z</time>
      </trkpt>
      <trkpt lat="43.90704" lon="7.08899">
        <ele>1254</ele>
        <time>2016-01-23T12:53:40Z</time>
      </trkpt>
      <trkpt lat="43.90696" lon="7.08892">
        <ele>1250.7</ele>
        <time>2016-01-23T12:53:57Z</time>
      </trkpt>
      <trkpt lat="43.90687" lon="7.08901">
        <ele>1246.4</ele>
        <time>2016-01-23T12:54:14Z</time>
      </trkpt>
      <trkpt lat="43.90681" lon="7.08912">
        <ele>1245.3</ele>
        <time>2016-01-23T12:54:19Z</time>
      </trkpt>
      <trkpt lat="43.90667" lon="7.08914">
        <ele>1243.2</ele>
        <time>2016-01-23T12:54:23Z</time>
      </trkpt>
      <trkpt lat="43.90658" lon="7.08918">
        <ele>1242</ele>
        <time>2016-01-23T12:54:25Z</time>
      </trkpt>
      <trkpt lat="43.90649" lon="7.08923">
        <ele>1239.6</ele>
        <time>2016-01-23T12:54:29Z</time>
      </trkpt>
      <trkpt lat="43.90642" lon="7.08932">
        <ele>1237.7</ele>
        <time>2016-01-23T12:54:33Z</time>
      </trkpt>
      <trkpt lat="43.90634" lon="7.08942">
        <ele>1237.4</ele>
        <time>2016-01-23T12:54:38Z</time>
      </trkpt>
      <trkpt lat="43.90628" lon="7.08953">
        <ele>1237.3</ele>
        <time>2016-01-23T12:54:41Z</time>
      </trkpt>
      <trkpt lat="43.90622" lon="7.08967">
        <ele>1237</ele>
        <time>2016-01-23T12:54:44Z</time>
      </trkpt>
      <trkpt lat="43.90617" lon="7.08979">
        <ele>1236</ele>
        <time>2016-01-23T12:54:47Z</time>
      </trkpt>
      <trkpt lat="43.90614" lon="7.0899">
        <ele>1235.6</ele>
        <time>2016-01-23T12:54:54Z</time>
      </trkpt>
      <trkpt lat="43.90611" lon="7.09002">
        <ele>1234.6</ele>
        <time>2016-01-23T12:55:00Z</time>
      </trkpt>
      <trkpt lat="43.90608" lon="7.09015">
        <ele>1234</ele>
        <time>2016-01-23T12:55:03Z</time>
      </trkpt>
      <trkpt lat="43.90606" lon="7.09028">
        <ele>1233.4</ele>
        <time>2016-01-23T12:55:06Z</time>
      </trkpt>
      <trkpt lat="43.90602" lon="7.0904">
        <ele>1230.3</ele>
        <time>2016-01-23T12:55:10Z</time>
      </trkpt>
      <trkpt lat="43.90594" lon="7.09052">
        <ele>1228</ele>
        <time>2016-01-23T12:55:14Z</time>
      </trkpt>
      <trkpt lat="43.90586" lon="7.09064">
        <ele>1225.8</ele>
        <time>2016-01-23T12:55:17Z</time>
      </trkpt>
      <trkpt lat="43.90578" lon="7.09073">
        <ele>1224.6</ele>
        <time>2016-01-23T12:55:19Z</time>
      </trkpt>
      <trkpt lat="43.9057" lon="7.09081">
        <ele>1223.2</ele>
        <time>2016-01-23T12:55:21Z</time>
      </trkpt>
      <trkpt lat="43.9056" lon="7.09087">
        <ele>1222.2</ele>
        <time>2016-01-23T12:55:23Z</time>
      </trkpt>
      <trkpt lat="43.90548" lon="7.09093">
        <ele>1221.8</ele>
        <time>2016-01-23T12:55:25Z</time>
      </trkpt>
      <trkpt lat="43.90537" lon="7.09092">
        <ele>1220.9</ele>
        <time>2016-01-23T12:55:27Z</time>
      </trkpt>
      <trkpt lat="43.90527" lon="7.09088">
        <ele>1219.4</ele>
        <time>2016-01-23T12:55:29Z</time>
      </trkpt>
      <trkpt lat="43.90534" lon="7.09097">
        <ele>1217.3</ele>
        <time>2016-01-23T12:55:40Z</time>
      </trkpt>
      <trkpt lat="43.90533" lon="7.0911">
        <ele>1218</ele>
        <time>2016-01-23T12:57:52Z</time>
      </trkpt>
      <trkpt lat="43.90535" lon="7.09123">
        <ele>1216.9</ele>
        <time>2016-01-23T12:57:59Z</time>
      </trkpt>
      <trkpt lat="43.90535" lon="7.09136">
        <ele>1215.5</ele>
        <time>2016-01-23T12:58:07Z</time>
      </trkpt>
      <trkpt lat="43.90534" lon="7.0915">
        <ele>1214.6</ele>
        <time>2016-01-23T12:58:11Z</time>
      </trkpt>
      <trkpt lat="43.90533" lon="7.09168">
        <ele>1214.7</ele>
        <time>2016-01-23T12:58:14Z</time>
      </trkpt>
      <trkpt lat="43.90532" lon="7.09181">
        <ele>1213.3</ele>
        <time>2016-01-23T12:58:16Z</time>
      </trkpt>
      <trkpt lat="43.90531" lon="7.09195">
        <ele>1211.3</ele>
        <time>2016-01-23T12:58:18Z</time>
      </trkpt>
      <trkpt lat="43.9053" lon="7.09208">
        <ele>1211</ele>
        <time>2016-01-23T12:58:20Z</time>
      </trkpt>
      <trkpt lat="43.90526" lon="7.09224">
        <ele>1209.6</ele>
        <time>2016-01-23T12:58:23Z</time>
      </trkpt>
      <trkpt lat="43.90523" lon="7.09239">
        <ele>1208.6</ele>
        <time>2016-01-23T12:58:25Z</time>
      </trkpt>
      <trkpt lat="43.90522" lon="7.09255">
        <ele>1207.7</ele>
        <time>2016-01-23T12:58:27Z</time>
      </trkpt>
      <trkpt lat="43.90518" lon="7.09272">
        <ele>1206.8</ele>
        <time>2016-01-23T12:58:29Z</time>
      </trkpt>
      <trkpt lat="43.90515" lon="7.09287">
        <ele>1205.3</ele>
        <time>2016-01-23T12:58:31Z</time>
      </trkpt>
      <trkpt lat="43.9051" lon="7.09302">
        <ele>1203.5</ele>
        <time>2016-01-23T12:58:33Z</time>
      </trkpt>
      <trkpt lat="43.90506" lon="7.09321">
        <ele>1202</ele>
        <time>2016-01-23T12:58:35Z</time>
      </trkpt>
      <trkpt lat="43.90504" lon="7.09339">
        <ele>1201.2</ele>
        <time>2016-01-23T12:58:37Z</time>
      </trkpt>
      <trkpt lat="43.90499" lon="7.09353">
        <ele>1199.8</ele>
        <time>2016-01-23T12:58:39Z</time>
      </trkpt>
      <trkpt lat="43.90494" lon="7.09367">
        <ele>1198.6</ele>
        <time>2016-01-23T12:58:41Z</time>
      </trkpt>
      <trkpt lat="43.90489" lon="7.0938">
        <ele>1197.8</ele>
        <time>2016-01-23T12:58:43Z</time>
      </trkpt>
      <trkpt lat="43.90487" lon="7.09392">
        <ele>1197.2</ele>
        <time>2016-01-23T12:58:45Z</time>
      </trkpt>
      <trkpt lat="43.90481" lon="7.09405">
        <ele>1196.5</ele>
        <time>2016-01-23T12:58:47Z</time>
      </trkpt>
      <trkpt lat="43.90475" lon="7.0942">
        <ele>1194.1</ele>
        <time>2016-01-23T12:58:50Z</time>
      </trkpt>
      <trkpt lat="43.90472" lon="7.09433">
        <ele>1193.1</ele>
        <time>2016-01-23T12:58:53Z</time>
      </trkpt>
      <trkpt lat="43.90468" lon="7.09445">
        <ele>1193.2</ele>
        <time>2016-01-23T12:58:56Z</time>
      </trkpt>
      <trkpt lat="43.90463" lon="7.0946">
        <ele>1193.4</ele>
        <time>2016-01-23T12:58:59Z</time>
      </trkpt>
      <trkpt lat="43.90458" lon="7.09471">
        <ele>1192.8</ele>
        <time>2016-01-23T12:59:01Z</time>
      </trkpt>
      <trkpt lat="43.90454" lon="7.09483">
        <ele>1191.7</ele>
        <time>2016-01-23T12:59:03Z</time>
      </trkpt>
      <trkpt lat="43.9045" lon="7.09496">
        <ele>1191</ele>
        <time>2016-01-23T12:59:05Z</time>
      </trkpt>
      <trkpt lat="43.9045" lon="7.09511">
        <ele>1190.5</ele>
        <time>2016-01-23T12:59:07Z</time>
      </trkpt>
      <trkpt lat="43.90453" lon="7.09528">
        <ele>1189.3</ele>
        <time>2016-01-23T12:59:09Z</time>
      </trkpt>
      <trkpt lat="43.90456" lon="7.09545">
        <ele>1188.1</ele>
        <time>2016-01-23T12:59:11Z</time>
      </trkpt>
      <trkpt lat="43.90462" lon="7.09561">
        <ele>1187</ele>
        <time>2016-01-23T12:59:13Z</time>
      </trkpt>
      <trkpt lat="43.90468" lon="7.09577">
        <ele>1184.7</ele>
        <time>2016-01-23T12:59:15Z</time>
      </trkpt>
      <trkpt lat="43.9047" lon="7.09593">
        <ele>1184.2</ele>
        <time>2016-01-23T12:59:17Z</time>
      </trkpt>
      <trkpt lat="43.9047" lon="7.09607">
        <ele>1183.3</ele>
        <time>2016-01-23T12:59:19Z</time>
      </trkpt>
      <trkpt lat="43.90468" lon="7.0962">
        <ele>1182.3</ele>
        <time>2016-01-23T12:59:22Z</time>
      </trkpt>
      <trkpt lat="43.90468" lon="7.09634">
        <ele>1182.1</ele>
        <time>2016-01-23T12:59:25Z</time>
      </trkpt>
      <trkpt lat="43.90465" lon="7.09647">
        <ele>1182.9</ele>
        <time>2016-01-23T12:59:28Z</time>
      </trkpt>
      <trkpt lat="43.90461" lon="7.09662">
        <ele>1183</ele>
        <time>2016-01-23T12:59:31Z</time>
      </trkpt>
      <trkpt lat="43.90457" lon="7.09676">
        <ele>1182.2</ele>
        <time>2016-01-23T12:59:34Z</time>
      </trkpt>
      <trkpt lat="43.90454" lon="7.0969">
        <ele>1182.9</ele>
        <time>2016-01-23T12:59:37Z</time>
      </trkpt>
      <trkpt lat="43.90452" lon="7.09703">
        <ele>1183.5</ele>
        <time>2016-01-23T12:59:40Z</time>
      </trkpt>
      <trkpt lat="43.90451" lon="7.09719">
        <ele>1183.5</ele>
        <time>2016-01-23T12:59:43Z</time>
      </trkpt>
      <trkpt lat="43.90442" lon="7.09727">
        <ele>1182.6</ele>
        <time>2016-01-23T12:59:47Z</time>
      </trkpt>
      <trkpt lat="43.90432" lon="7.09734">
        <ele>1181.7</ele>
        <time>2016-01-23T12:59:50Z</time>
      </trkpt>
      <trkpt lat="43.90423" lon="7.09739">
        <ele>1179.4</ele>
        <time>2016-01-23T12:59:55Z</time>
      </trkpt>
      <trkpt lat="43.90414" lon="7.09742">
        <ele>1176.5</ele>
        <time>2016-01-23T13:00:19Z</time>
      </trkpt>
      <trkpt lat="43.90404" lon="7.09749">
        <ele>1176.6</ele>
        <time>2016-01-23T13:00:27Z</time>
      </trkpt>
      <trkpt lat="43.90395" lon="7.09753">
        <ele>1177.1</ele>
        <time>2016-01-23T13:00:30Z</time>
      </trkpt>
      <trkpt lat="43.90388" lon="7.09761">
        <ele>1177.8</ele>
        <time>2016-01-23T13:00:33Z</time>
      </trkpt>
      <trkpt lat="43.90379" lon="7.09773">
        <ele>1178.3</ele>
        <time>2016-01-23T13:00:37Z</time>
      </trkpt>
      <trkpt lat="43.90373" lon="7.09782">
        <ele>1178.5</ele>
        <time>2016-01-23T13:00:40Z</time>
      </trkpt>
      <trkpt lat="43.90365" lon="7.09793">
        <ele>1180.2</ele>
        <time>2016-01-23T13:00:44Z</time>
      </trkpt>
      <trkpt lat="43.90356" lon="7.09801">
        <ele>1179.8</ele>
        <time>2016-01-23T13:00:47Z</time>
      </trkpt>
      <trkpt lat="43.90349" lon="7.09812">
        <ele>1179</ele>
        <time>2016-01-23T13:00:50Z</time>
      </trkpt>
      <trkpt lat="43.90342" lon="7.09821">
        <ele>1179.1</ele>
        <time>2016-01-23T13:00:53Z</time>
      </trkpt>
      <trkpt lat="43.90335" lon="7.09831">
        <ele>1179</ele>
        <time>2016-01-23T13:00:56Z</time>
      </trkpt>
      <trkpt lat="43.90324" lon="7.09845">
        <ele>1178.2</ele>
        <time>2016-01-23T13:00:59Z</time>
      </trkpt>
      <trkpt lat="43.90316" lon="7.09856">
        <ele>1177.1</ele>
        <time>2016-01-23T13:01:01Z</time>
      </trkpt>
      <trkpt lat="43.90307" lon="7.09869">
        <ele>1175.6</ele>
        <time>2016-01-23T13:01:03Z</time>
      </trkpt>
      <trkpt lat="43.90298" lon="7.09881">
        <ele>1174.3</ele>
        <time>2016-01-23T13:01:05Z</time>
      </trkpt>
      <trkpt lat="43.90293" lon="7.09895">
        <ele>1173.4</ele>
        <time>2016-01-23T13:01:07Z</time>
      </trkpt>
      <trkpt lat="43.9029" lon="7.09907">
        <ele>1172.3</ele>
        <time>2016-01-23T13:01:09Z</time>
      </trkpt>
      <trkpt lat="43.90288" lon="7.09919">
        <ele>1171.1</ele>
        <time>2016-01-23T13:01:11Z</time>
      </trkpt>
      <trkpt lat="43.90285" lon="7.09935">
        <ele>1170.4</ele>
        <time>2016-01-23T13:01:14Z</time>
      </trkpt>
      <trkpt lat="43.90281" lon="7.0995">
        <ele>1170.9</ele>
        <time>2016-01-23T13:01:17Z</time>
      </trkpt>
      <trkpt lat="43.90276" lon="7.09964">
        <ele>1171.2</ele>
        <time>2016-01-23T13:01:20Z</time>
      </trkpt>
      <trkpt lat="43.90272" lon="7.09975">
        <ele>1171.7</ele>
        <time>2016-01-23T13:01:23Z</time>
      </trkpt>
      <trkpt lat="43.90266" lon="7.09987">
        <ele>1172.2</ele>
        <time>2016-01-23T13:01:26Z</time>
      </trkpt>
      <trkpt lat="43.9026" lon="7.09998">
        <ele>1173.8</ele>
        <time>2016-01-23T13:01:29Z</time>
      </trkpt>
      <trkpt lat="43.90255" lon="7.10009">
        <ele>1174.4</ele>
        <time>2016-01-23T13:01:32Z</time>
      </trkpt>
      <trkpt lat="43.90245" lon="7.10014">
        <ele>1175</ele>
        <time>2016-01-23T13:01:35Z</time>
      </trkpt>
      <trkpt lat="43.90234" lon="7.10014">
        <ele>1173.7</ele>
        <time>2016-01-23T13:01:38Z</time>
      </trkpt>
      <trkpt lat="43.90226" lon="7.10026">
        <ele>1170.5</ele>
        <time>2016-01-23T13:01:43Z</time>
      </trkpt>
      <trkpt lat="43.90223" lon="7.10041">
        <ele>1168.6</ele>
        <time>2016-01-23T13:01:46Z</time>
      </trkpt>
      <trkpt lat="43.90225" lon="7.10056">
        <ele>1166.7</ele>
        <time>2016-01-23T13:01:49Z</time>
      </trkpt>
      <trkpt lat="43.90236" lon="7.10061">
        <ele>1164.6</ele>
        <time>2016-01-23T13:01:52Z</time>
      </trkpt>
      <trkpt lat="43.90246" lon="7.10063">
        <ele>1162.9</ele>
        <time>2016-01-23T13:01:54Z</time>
      </trkpt>
      <trkpt lat="43.90255" lon="7.1007">
        <ele>1162.3</ele>
        <time>2016-01-23T13:01:56Z</time>
      </trkpt>
      <trkpt lat="43.90262" lon="7.10082">
        <ele>1161.6</ele>
        <time>2016-01-23T13:01:58Z</time>
      </trkpt>
      <trkpt lat="43.90267" lon="7.10094">
        <ele>1159.8</ele>
        <time>2016-01-23T13:02:00Z</time>
      </trkpt>
      <trkpt lat="43.90273" lon="7.10107">
        <ele>1157.4</ele>
        <time>2016-01-23T13:02:02Z</time>
      </trkpt>
      <trkpt lat="43.90277" lon="7.10121">
        <ele>1155.5</ele>
        <time>2016-01-23T13:02:04Z</time>
      </trkpt>
      <trkpt lat="43.90281" lon="7.10137">
        <ele>1154.2</ele>
        <time>2016-01-23T13:02:06Z</time>
      </trkpt>
      <trkpt lat="43.90288" lon="7.10148">
        <ele>1151.7</ele>
        <time>2016-01-23T13:02:08Z</time>
      </trkpt>
      <trkpt lat="43.90297" lon="7.10161">
        <ele>1149.3</ele>
        <time>2016-01-23T13:02:11Z</time>
      </trkpt>
      <trkpt lat="43.90298" lon="7.10177">
        <ele>1147.7</ele>
        <time>2016-01-23T13:02:13Z</time>
      </trkpt>
      <trkpt lat="43.903" lon="7.10194">
        <ele>1146.7</ele>
        <time>2016-01-23T13:02:15Z</time>
      </trkpt>
      <trkpt lat="43.90303" lon="7.1021">
        <ele>1145.5</ele>
        <time>2016-01-23T13:02:17Z</time>
      </trkpt>
      <trkpt lat="43.90308" lon="7.10223">
        <ele>1144.5</ele>
        <time>2016-01-23T13:02:19Z</time>
      </trkpt>
      <trkpt lat="43.90317" lon="7.1023">
        <ele>1143.4</ele>
        <time>2016-01-23T13:02:22Z</time>
      </trkpt>
      <trkpt lat="43.90326" lon="7.1024">
        <ele>1141.7</ele>
        <time>2016-01-23T13:02:25Z</time>
      </trkpt>
      <trkpt lat="43.90326" lon="7.10254">
        <ele>1139.3</ele>
        <time>2016-01-23T13:02:28Z</time>
      </trkpt>
      <trkpt lat="43.90321" lon="7.10265">
        <ele>1137.9</ele>
        <time>2016-01-23T13:02:31Z</time>
      </trkpt>
      <trkpt lat="43.90315" lon="7.10274">
        <ele>1135</ele>
        <time>2016-01-23T13:02:36Z</time>
      </trkpt>
      <trkpt lat="43.90309" lon="7.10286">
        <ele>1130.9</ele>
        <time>2016-01-23T13:02:44Z</time>
      </trkpt>
      <trkpt lat="43.90308" lon="7.10301">
        <ele>1129.2</ele>
        <time>2016-01-23T13:02:48Z</time>
      </trkpt>
      <trkpt lat="43.90308" lon="7.10315">
        <ele>1126.6</ele>
        <time>2016-01-23T13:02:51Z</time>
      </trkpt>
      <trkpt lat="43.90315" lon="7.10325">
        <ele>1125</ele>
        <time>2016-01-23T13:02:54Z</time>
      </trkpt>
      <trkpt lat="43.90324" lon="7.10334">
        <ele>1124</ele>
        <time>2016-01-23T13:02:57Z</time>
      </trkpt>
      <trkpt lat="43.9033" lon="7.10348">
        <ele>1122.3</ele>
        <time>2016-01-23T13:03:00Z</time>
      </trkpt>
      <trkpt lat="43.90333" lon="7.10364">
        <ele>1121.5</ele>
        <time>2016-01-23T13:03:03Z</time>
      </trkpt>
      <trkpt lat="43.90336" lon="7.10379">
        <ele>1119.1</ele>
        <time>2016-01-23T13:03:07Z</time>
      </trkpt>
      <trkpt lat="43.90339" lon="7.10392">
        <ele>1117.7</ele>
        <time>2016-01-23T13:03:10Z</time>
      </trkpt>
      <trkpt lat="43.90338" lon="7.10408">
        <ele>1116</ele>
        <time>2016-01-23T13:03:14Z</time>
      </trkpt>
      <trkpt lat="43.90338" lon="7.10423">
        <ele>1114.3</ele>
        <time>2016-01-23T13:03:17Z</time>
      </trkpt>
      <trkpt lat="43.90337" lon="7.1044">
        <ele>1113</ele>
        <time>2016-01-23T13:03:20Z</time>
      </trkpt>
      <trkpt lat="43.90335" lon="7.10454">
        <ele>1112.2</ele>
        <time>2016-01-23T13:03:22Z</time>
      </trkpt>
      <trkpt lat="43.90325" lon="7.10465">
        <ele>1109.4</ele>
        <time>2016-01-23T13:03:25Z</time>
      </trkpt>
      <trkpt lat="43.90324" lon="7.10481">
        <ele>1106.4</ele>
        <time>2016-01-23T13:03:29Z</time>
      </trkpt>
      <trkpt lat="43.90321" lon="7.10494">
        <ele>1101.4</ele>
        <time>2016-01-23T13:04:14Z</time>
      </trkpt>
      <trkpt lat="43.90322" lon="7.10508">
        <ele>1101.1</ele>
        <time>2016-01-23T13:04:18Z</time>
      </trkpt>
      <trkpt lat="43.90319" lon="7.10524">
        <ele>1099.9</ele>
        <time>2016-01-23T13:04:22Z</time>
      </trkpt>
      <trkpt lat="43.90318" lon="7.1054">
        <ele>1099.5</ele>
        <time>2016-01-23T13:04:26Z</time>
      </trkpt>
      <trkpt lat="43.90316" lon="7.10553">
        <ele>1100.5</ele>
        <time>2016-01-23T13:04:29Z</time>
      </trkpt>
      <trkpt lat="43.90312" lon="7.10567">
        <ele>1099.4</ele>
        <time>2016-01-23T13:04:33Z</time>
      </trkpt>
      <trkpt lat="43.90314" lon="7.10581">
        <ele>1099.5</ele>
        <time>2016-01-23T13:04:36Z</time>
      </trkpt>
      <trkpt lat="43.90311" lon="7.10595">
        <ele>1100.1</ele>
        <time>2016-01-23T13:04:39Z</time>
      </trkpt>
      <trkpt lat="43.90311" lon="7.10608">
        <ele>1101.6</ele>
        <time>2016-01-23T13:04:43Z</time>
      </trkpt>
      <trkpt lat="43.90315" lon="7.10622">
        <ele>1101.7</ele>
        <time>2016-01-23T13:04:46Z</time>
      </trkpt>
      <trkpt lat="43.9032" lon="7.10634">
        <ele>1100.5</ele>
        <time>2016-01-23T13:04:50Z</time>
      </trkpt>
      <trkpt lat="43.90317" lon="7.10646">
        <ele>1100.1</ele>
        <time>2016-01-23T13:04:55Z</time>
      </trkpt>
      <trkpt lat="43.90308" lon="7.10654">
        <ele>1099.4</ele>
        <time>2016-01-23T13:04:59Z</time>
      </trkpt>
      <trkpt lat="43.90301" lon="7.10662">
        <ele>1098.6</ele>
        <time>2016-01-23T13:05:02Z</time>
      </trkpt>
      <trkpt lat="43.90288" lon="7.10663">
        <ele>1096.1</ele>
        <time>2016-01-23T13:05:05Z</time>
      </trkpt>
      <trkpt lat="43.9028" lon="7.10667">
        <ele>1094.4</ele>
        <time>2016-01-23T13:05:07Z</time>
      </trkpt>
      <trkpt lat="43.90274" lon="7.10678">
        <ele>1091.6</ele>
        <time>2016-01-23T13:05:09Z</time>
      </trkpt>
      <trkpt lat="43.90269" lon="7.10691">
        <ele>1088.9</ele>
        <time>2016-01-23T13:05:11Z</time>
      </trkpt>
      <trkpt lat="43.90266" lon="7.10703">
        <ele>1087.2</ele>
        <time>2016-01-23T13:05:13Z</time>
      </trkpt>
      <trkpt lat="43.9026" lon="7.10717">
        <ele>1084</ele>
        <time>2016-01-23T13:05:16Z</time>
      </trkpt>
      <trkpt lat="43.90252" lon="7.10733">
        <ele>1081.1</ele>
        <time>2016-01-23T13:05:19Z</time>
      </trkpt>
      <trkpt lat="43.90247" lon="7.10748">
        <ele>1077.1</ele>
        <time>2016-01-23T13:05:22Z</time>
      </trkpt>
      <trkpt lat="43.90248" lon="7.10764">
        <ele>1073.5</ele>
        <time>2016-01-23T13:05:25Z</time>
      </trkpt>
      <trkpt lat="43.9025" lon="7.1078">
        <ele>1070.2</ele>
        <time>2016-01-23T13:05:28Z</time>
      </trkpt>
      <trkpt lat="43.90244" lon="7.10789">
        <ele>1064.7</ele>
        <time>2016-01-23T13:05:49Z</time>
      </trkpt>
      <trkpt lat="43.90253" lon="7.10796">
        <ele>1067.1</ele>
        <time>2016-01-23T13:06:47Z</time>
      </trkpt>
      <trkpt lat="43.90262" lon="7.10802">
        <ele>1069.1</ele>
        <time>2016-01-23T13:06:57Z</time>
      </trkpt>
      <trkpt lat="43.90269" lon="7.10813">
        <ele>1069.5</ele>
        <time>2016-01-23T13:07:02Z</time>
      </trkpt>
      <trkpt lat="43.90276" lon="7.10823">
        <ele>1068.8</ele>
        <time>2016-01-23T13:07:05Z</time>
      </trkpt>
      <trkpt lat="43.90284" lon="7.10835">
        <ele>1068.1</ele>
        <time>2016-01-23T13:07:08Z</time>
      </trkpt>
      <trkpt lat="43.90293" lon="7.10839">
        <ele>1065.9</ele>
        <time>2016-01-23T13:07:13Z</time>
      </trkpt>
      <trkpt lat="43.90301" lon="7.10846">
        <ele>1067.3</ele>
        <time>2016-01-23T13:07:29Z</time>
      </trkpt>
      <trkpt lat="43.90304" lon="7.10858">
        <ele>1067.7</ele>
        <time>2016-01-23T13:07:42Z</time>
      </trkpt>
      <trkpt lat="43.90296" lon="7.10865">
        <ele>1067.1</ele>
        <time>2016-01-23T13:07:47Z</time>
      </trkpt>
      <trkpt lat="43.90287" lon="7.10871">
        <ele>1066.6</ele>
        <time>2016-01-23T13:07:50Z</time>
      </trkpt>
      <trkpt lat="43.9028" lon="7.1088">
        <ele>1064.9</ele>
        <time>2016-01-23T13:07:55Z</time>
      </trkpt>
      <trkpt lat="43.90274" lon="7.1089">
        <ele>1063.1</ele>
        <time>2016-01-23T13:08:00Z</time>
      </trkpt>
      <trkpt lat="43.90266" lon="7.10897">
        <ele>1060.5</ele>
        <time>2016-01-23T13:08:03Z</time>
      </trkpt>
      <trkpt lat="43.9026" lon="7.10909">
        <ele>1058.5</ele>
        <time>2016-01-23T13:08:06Z</time>
      </trkpt>
      <trkpt lat="43.90252" lon="7.1092">
        <ele>1055.9</ele>
        <time>2016-01-23T13:08:09Z</time>
      </trkpt>
      <trkpt lat="43.90245" lon="7.10931">
        <ele>1054.2</ele>
        <time>2016-01-23T13:08:12Z</time>
      </trkpt>
      <trkpt lat="43.90245" lon="7.10945">
        <ele>1051.5</ele>
        <time>2016-01-23T13:08:15Z</time>
      </trkpt>
      <trkpt lat="43.90242" lon="7.10958">
        <ele>1050</ele>
        <time>2016-01-23T13:08:18Z</time>
      </trkpt>
      <trkpt lat="43.90238" lon="7.1097">
        <ele>1049.3</ele>
        <time>2016-01-23T13:08:21Z</time>
      </trkpt>
      <trkpt lat="43.90236" lon="7.10983">
        <ele>1047.3</ele>
        <time>2016-01-23T13:08:25Z</time>
      </trkpt>
      <trkpt lat="43.90238" lon="7.10997">
        <ele>1045.2</ele>
        <time>2016-01-23T13:08:30Z</time>
      </trkpt>
      <trkpt lat="43.90239" lon="7.11011">
        <ele>1044.9</ele>
        <time>2016-01-23T13:08:33Z</time>
      </trkpt>
      <trkpt lat="43.90234" lon="7.11022">
        <ele>1044.3</ele>
        <time>2016-01-23T13:08:39Z</time>
      </trkpt>
      <trkpt lat="43.90225" lon="7.11023">
        <ele>1042.5</ele>
        <time>2016-01-23T13:08:44Z</time>
      </trkpt>
      <trkpt lat="43.90215" lon="7.11027">
        <ele>1039.4</ele>
        <time>2016-01-23T13:08:49Z</time>
      </trkpt>
      <trkpt lat="43.90207" lon="7.11036">
        <ele>1035.7</ele>
        <time>2016-01-23T13:09:00Z</time>
      </trkpt>
      <trkpt lat="43.90197" lon="7.11038">
        <ele>1032.8</ele>
        <time>2016-01-23T13:09:05Z</time>
      </trkpt>
      <trkpt lat="43.90188" lon="7.11045">
        <ele>1028.9</ele>
        <time>2016-01-23T13:09:10Z</time>
      </trkpt>
      <trkpt lat="43.90182" lon="7.11056">
        <ele>1027</ele>
        <time>2016-01-23T13:09:14Z</time>
      </trkpt>
      <trkpt lat="43.90175" lon="7.11066">
        <ele>1023</ele>
        <time>2016-01-23T13:09:18Z</time>
      </trkpt>
      <trkpt lat="43.9017" lon="7.1108">
        <ele>1018</ele>
        <time>2016-01-23T13:09:23Z</time>
      </trkpt>
      <trkpt lat="43.90165" lon="7.11091">
        <ele>1012.2</ele>
        <time>2016-01-23T13:09:31Z</time>
      </trkpt>
      <trkpt lat="43.90173" lon="7.111">
        <ele>1009.8</ele>
        <time>2016-01-23T13:09:35Z</time>
      </trkpt>
      <trkpt lat="43.9017" lon="7.11112">
        <ele>1007.1</ele>
        <time>2016-01-23T13:09:50Z</time>
      </trkpt>
      <trkpt lat="43.90176" lon="7.11122">
        <ele>1008.2</ele>
        <time>2016-01-23T13:10:06Z</time>
      </trkpt>
      <trkpt lat="43.90167" lon="7.11126">
        <ele>1005.8</ele>
        <time>2016-01-23T13:10:17Z</time>
      </trkpt>
      <trkpt lat="43.90167" lon="7.1114">
        <ele>1003.7</ele>
        <time>2016-01-23T13:10:21Z</time>
      </trkpt>
      <trkpt lat="43.90161" lon="7.11154">
        <ele>1001.6</ele>
        <time>2016-01-23T13:10:25Z</time>
      </trkpt>
      <trkpt lat="43.90156" lon="7.11165">
        <ele>999.7</ele>
        <time>2016-01-23T13:10:27Z</time>
      </trkpt>
      <trkpt lat="43.90155" lon="7.11179">
        <ele>995.4</ele>
        <time>2016-01-23T13:10:30Z</time>
      </trkpt>
      <trkpt lat="43.90149" lon="7.11193">
        <ele>990.4</ele>
        <time>2016-01-23T13:10:34Z</time>
      </trkpt>
      <trkpt lat="43.90153" lon="7.11206">
        <ele>989.1</ele>
        <time>2016-01-23T13:10:37Z</time>
      </trkpt>
      <trkpt lat="43.9016" lon="7.11214">
        <ele>987.4</ele>
        <time>2016-01-23T13:10:39Z</time>
      </trkpt>
      <trkpt lat="43.90168" lon="7.11226">
        <ele>985.5</ele>
        <time>2016-01-23T13:10:42Z</time>
      </trkpt>
      <trkpt lat="43.90169" lon="7.1124">
        <ele>983.1</ele>
        <time>2016-01-23T13:10:46Z</time>
      </trkpt>
      <trkpt lat="43.90165" lon="7.11253">
        <ele>981.6</ele>
        <time>2016-01-23T13:11:01Z</time>
      </trkpt>
      <trkpt lat="43.90164" lon="7.11272">
        <ele>980.8</ele>
        <time>2016-01-23T13:12:21Z</time>
      </trkpt>
      <trkpt lat="43.90165" lon="7.11286">
        <ele>979.2</ele>
        <time>2016-01-23T13:12:23Z</time>
      </trkpt>
      <trkpt lat="43.90165" lon="7.11302">
        <ele>978.3</ele>
        <time>2016-01-23T13:12:26Z</time>
      </trkpt>
      <trkpt lat="43.90164" lon="7.11315">
        <ele>977</ele>
        <time>2016-01-23T13:12:28Z</time>
      </trkpt>
      <trkpt lat="43.90163" lon="7.11329">
        <ele>976.3</ele>
        <time>2016-01-23T13:12:30Z</time>
      </trkpt>
      <trkpt lat="43.90159" lon="7.11342">
        <ele>975.7</ele>
        <time>2016-01-23T13:12:32Z</time>
      </trkpt>
      <trkpt lat="43.90155" lon="7.11355">
        <ele>974.1</ele>
        <time>2016-01-23T13:12:34Z</time>
      </trkpt>
      <trkpt lat="43.90152" lon="7.1137">
        <ele>971.2</ele>
        <time>2016-01-23T13:12:37Z</time>
      </trkpt>
      <trkpt lat="43.90151" lon="7.11383">
        <ele>969.2</ele>
        <time>2016-01-23T13:12:40Z</time>
      </trkpt>
      <trkpt lat="43.9015" lon="7.11401">
        <ele>967.9</ele>
        <time>2016-01-23T13:12:43Z</time>
      </trkpt>
      <trkpt lat="43.90152" lon="7.11414">
        <ele>964</ele>
        <time>2016-01-23T13:12:51Z</time>
      </trkpt>
      <trkpt lat="43.90146" lon="7.11424">
        <ele>962</ele>
        <time>2016-01-23T13:13:29Z</time>
      </trkpt>
      <trkpt lat="43.90144" lon="7.11439">
        <ele>963.4</ele>
        <time>2016-01-23T13:14:13Z</time>
      </trkpt>
      <trkpt lat="43.9014" lon="7.11428">
        <ele>963.6</ele>
        <time>2016-01-23T13:14:43Z</time>
      </trkpt>
      <trkpt lat="43.90138" lon="7.11416">
        <ele>963</ele>
        <time>2016-01-23T13:14:56Z</time>
      </trkpt>
      <trkpt lat="43.90127" lon="7.1142">
        <ele>954</ele>
        <time>2016-01-23T13:16:09Z</time>
      </trkpt>
      <trkpt lat="43.90118" lon="7.11415">
        <ele>949.9</ele>
        <time>2016-01-23T13:16:15Z</time>
      </trkpt>
      <trkpt lat="43.9011" lon="7.11407">
        <ele>947.7</ele>
        <time>2016-01-23T13:16:18Z</time>
      </trkpt>
      <trkpt lat="43.901" lon="7.11408">
        <ele>944.9</ele>
        <time>2016-01-23T13:16:23Z</time>
      </trkpt>
      <trkpt lat="43.90091" lon="7.11402">
        <ele>942.6</ele>
        <time>2016-01-23T13:16:27Z</time>
      </trkpt>
      <trkpt lat="43.90082" lon="7.11398">
        <ele>942.9</ele>
        <time>2016-01-23T13:16:50Z</time>
      </trkpt>
      <trkpt lat="43.90073" lon="7.11393">
        <ele>943.1</ele>
        <time>2016-01-23T13:17:13Z</time>
      </trkpt>
      <trkpt lat="43.90064" lon="7.11389">
        <ele>943.2</ele>
        <time>2016-01-23T13:17:16Z</time>
      </trkpt>
      <trkpt lat="43.90053" lon="7.11384">
        <ele>943.1</ele>
        <time>2016-01-23T13:17:20Z</time>
      </trkpt>
      <trkpt lat="43.90042" lon="7.11379">
        <ele>942.5</ele>
        <time>2016-01-23T13:17:24Z</time>
      </trkpt>
      <trkpt lat="43.90034" lon="7.11375">
        <ele>942.2</ele>
        <time>2016-01-23T13:17:27Z</time>
      </trkpt>
      <trkpt lat="43.90022" lon="7.11371">
        <ele>941</ele>
        <time>2016-01-23T13:17:32Z</time>
      </trkpt>
      <trkpt lat="43.90013" lon="7.11368">
        <ele>943.5</ele>
        <time>2016-01-23T13:17:40Z</time>
      </trkpt>
      <trkpt lat="43.90007" lon="7.11357">
        <ele>944.1</ele>
        <time>2016-01-23T13:17:50Z</time>
      </trkpt>
      <trkpt lat="43.90002" lon="7.11345">
        <ele>944.5</ele>
        <time>2016-01-23T13:17:55Z</time>
      </trkpt>
      <trkpt lat="43.89995" lon="7.11335">
        <ele>945.7</ele>
        <time>2016-01-23T13:17:59Z</time>
      </trkpt>
      <trkpt lat="43.8999" lon="7.11321">
        <ele>947.5</ele>
        <time>2016-01-23T13:18:04Z</time>
      </trkpt>
      <trkpt lat="43.89988" lon="7.11309">
        <ele>948.3</ele>
        <time>2016-01-23T13:18:09Z</time>
      </trkpt>
      <trkpt lat="43.89991" lon="7.11323">
        <ele>949</ele>
        <time>2016-01-23T13:18:14Z</time>
      </trkpt>
      <trkpt lat="43.89997" lon="7.11337">
        <ele>949.3</ele>
        <time>2016-01-23T13:18:17Z</time>
      </trkpt>
      <trkpt lat="43.90003" lon="7.11347">
        <ele>947.6</ele>
        <time>2016-01-23T13:18:20Z</time>
      </trkpt>
      <trkpt lat="43.90008" lon="7.1136">
        <ele>946.3</ele>
        <time>2016-01-23T13:18:24Z</time>
      </trkpt>
      <trkpt lat="43.90016" lon="7.1137">
        <ele>944.3</ele>
        <time>2016-01-23T13:18:29Z</time>
      </trkpt>
      <trkpt lat="43.90007" lon="7.11374">
        <ele>943.2</ele>
        <time>2016-01-23T13:18:35Z</time>
      </trkpt>
      <trkpt lat="43.89998" lon="7.11376">
        <ele>941.2</ele>
        <time>2016-01-23T13:18:41Z</time>
      </trkpt>
      <trkpt lat="43.90007" lon="7.11379">
        <ele>941</ele>
        <time>2016-01-23T13:20:21Z</time>
      </trkpt>
      <trkpt lat="43.90015" lon="7.11376">
        <ele>942.5</ele>
        <time>2016-01-23T13:20:33Z</time>
      </trkpt>
      <trkpt lat="43.90025" lon="7.11376">
        <ele>942.2</ele>
        <time>2016-01-23T13:20:39Z</time>
      </trkpt>
      <trkpt lat="43.90034" lon="7.1138">
        <ele>941.5</ele>
        <time>2016-01-23T13:20:42Z</time>
      </trkpt>
      <trkpt lat="43.90044" lon="7.11383">
        <ele>941.9</ele>
        <time>2016-01-23T13:20:45Z</time>
      </trkpt>
      <trkpt lat="43.90053" lon="7.11386">
        <ele>942.5</ele>
        <time>2016-01-23T13:20:48Z</time>
      </trkpt>
      <trkpt lat="43.90064" lon="7.11392">
        <ele>942.7</ele>
        <time>2016-01-23T13:20:52Z</time>
      </trkpt>
      <trkpt lat="43.90073" lon="7.11398">
        <ele>942.6</ele>
        <time>2016-01-23T13:20:55Z</time>
      </trkpt>
      <trkpt lat="43.90064" lon="7.11403">
        <ele>939</ele>
        <time>2016-01-23T13:21:44Z</time>
      </trkpt>
      <trkpt lat="43.90058" lon="7.11415">
        <ele>938</ele>
        <time>2016-01-23T13:21:49Z</time>
      </trkpt>
      <trkpt lat="43.90057" lon="7.11431">
        <ele>937.1</ele>
        <time>2016-01-23T13:21:53Z</time>
      </trkpt>
      <trkpt lat="43.90053" lon="7.11446">
        <ele>935.8</ele>
        <time>2016-01-23T13:21:57Z</time>
      </trkpt>
      <trkpt lat="43.90046" lon="7.11455">
        <ele>935.4</ele>
        <time>2016-01-23T13:22:14Z</time>
      </trkpt>
      <trkpt lat="43.90036" lon="7.1146">
        <ele>936.2</ele>
        <time>2016-01-23T13:22:21Z</time>
      </trkpt>
      <trkpt lat="43.90026" lon="7.11465">
        <ele>936.5</ele>
        <time>2016-01-23T13:22:26Z</time>
      </trkpt>
      <trkpt lat="43.90018" lon="7.11471">
        <ele>938.7</ele>
        <time>2016-01-23T13:22:33Z</time>
      </trkpt>
      <trkpt lat="43.90009" lon="7.11474">
        <ele>940</ele>
        <time>2016-01-23T13:22:40Z</time>
      </trkpt>
      <trkpt lat="43.9" lon="7.11475">
        <ele>940.4</ele>
        <time>2016-01-23T13:22:47Z</time>
      </trkpt>
      <trkpt lat="43.89991" lon="7.11478">
        <ele>940.4</ele>
        <time>2016-01-23T13:22:52Z</time>
      </trkpt>
      <trkpt lat="43.89989" lon="7.11493">
        <ele>938.7</ele>
        <time>2016-01-23T13:22:58Z</time>
      </trkpt>
      <trkpt lat="43.89992" lon="7.11506">
        <ele>937.4</ele>
        <time>2016-01-23T13:23:02Z</time>
      </trkpt>
      <trkpt lat="43.89984" lon="7.11515">
        <ele>932.5</ele>
        <time>2016-01-23T13:23:10Z</time>
      </trkpt>
      <trkpt lat="43.89974" lon="7.11517">
        <ele>929.9</ele>
        <time>2016-01-23T13:26:56Z</time>
      </trkpt>
      <trkpt lat="43.89966" lon="7.11511">
        <ele>929.6</ele>
        <time>2016-01-23T13:27:12Z</time>
      </trkpt>
      <trkpt lat="43.89974" lon="7.11518">
        <ele>930.3</ele>
        <time>2016-01-23T13:28:58Z</time>
      </trkpt>
      <trkpt lat="43.89984" lon="7.11517">
        <ele>931.1</ele>
        <time>2016-01-23T13:29:06Z</time>
      </trkpt>
      <trkpt lat="43.89984" lon="7.11504">
        <ele>935.1</ele>
        <time>2016-01-23T13:29:19Z</time>
      </trkpt>
      <trkpt lat="43.89983" lon="7.11491">
        <ele>937.3</ele>
        <time>2016-01-23T13:29:29Z</time>
      </trkpt>
      <trkpt lat="43.89987" lon="7.11479">
        <ele>939.7</ele>
        <time>2016-01-23T13:29:43Z</time>
      </trkpt>
      <trkpt lat="43.89997" lon="7.11477">
        <ele>940.5</ele>
        <time>2016-01-23T13:29:54Z</time>
      </trkpt>
      <trkpt lat="43.90007" lon="7.11476">
        <ele>942.3</ele>
        <time>2016-01-23T13:30:04Z</time>
      </trkpt>
      <trkpt lat="43.90016" lon="7.11467">
        <ele>940.8</ele>
        <time>2016-01-23T13:30:08Z</time>
      </trkpt>
      <trkpt lat="43.90025" lon="7.11461">
        <ele>939.8</ele>
        <time>2016-01-23T13:30:11Z</time>
      </trkpt>
      <trkpt lat="43.90024" lon="7.11448">
        <ele>938.9</ele>
        <time>2016-01-23T13:30:19Z</time>
      </trkpt>
      <trkpt lat="43.90018" lon="7.11438">
        <ele>939.6</ele>
        <time>2016-01-23T13:30:24Z</time>
      </trkpt>
      <trkpt lat="43.90012" lon="7.11429">
        <ele>939.9</ele>
        <time>2016-01-23T13:30:29Z</time>
      </trkpt>
      <trkpt lat="43.90005" lon="7.1142">
        <ele>940.1</ele>
        <time>2016-01-23T13:30:34Z</time>
      </trkpt>
      <trkpt lat="43.89999" lon="7.11409">
        <ele>939.7</ele>
        <time>2016-01-23T13:30:40Z</time>
      </trkpt>
      <trkpt lat="43.89998" lon="7.11396">
        <ele>940</ele>
        <time>2016-01-23T13:30:47Z</time>
      </trkpt>
      <trkpt lat="43.89999" lon="7.11382">
        <ele>940.5</ele>
        <time>2016-01-23T13:30:55Z</time>
      </trkpt>
      <trkpt lat="43.90008" lon="7.11377">
        <ele>940.9</ele>
        <time>2016-01-23T13:31:02Z</time>
      </trkpt>
      <trkpt lat="43.90017" lon="7.11374">
        <ele>943.2</ele>
        <time>2016-01-23T13:31:09Z</time>
      </trkpt>
      <trkpt lat="43.90026" lon="7.11375">
        <ele>943.8</ele>
        <time>2016-01-23T13:31:13Z</time>
      </trkpt>
      <trkpt lat="43.90036" lon="7.11378">
        <ele>942.9</ele>
        <time>2016-01-23T13:31:17Z</time>
      </trkpt>
      <trkpt lat="43.90045" lon="7.11382">
        <ele>943.1</ele>
        <time>2016-01-23T13:31:21Z</time>
      </trkpt>
      <trkpt lat="43.90054" lon="7.11384">
        <ele>943.6</ele>
        <time>2016-01-23T13:31:27Z</time>
      </trkpt>
      <trkpt lat="43.90043" lon="7.11381">
        <ele>943.6</ele>
        <time>2016-01-23T13:31:40Z</time>
      </trkpt>
      <trkpt lat="43.90033" lon="7.11377">
        <ele>943.3</ele>
        <time>2016-01-23T13:31:44Z</time>
      </trkpt>
      <trkpt lat="43.90023" lon="7.11373">
        <ele>942</ele>
        <time>2016-01-23T13:31:48Z</time>
      </trkpt>
      <trkpt lat="43.90013" lon="7.11366">
        <ele>943.2</ele>
        <time>2016-01-23T13:31:53Z</time>
      </trkpt>
      <trkpt lat="43.90006" lon="7.11354">
        <ele>944.5</ele>
        <time>2016-01-23T13:31:58Z</time>
      </trkpt>
      <trkpt lat="43.89999" lon="7.11342">
        <ele>946.4</ele>
        <time>2016-01-23T13:32:03Z</time>
      </trkpt>
      <trkpt lat="43.89993" lon="7.1133">
        <ele>947.4</ele>
        <time>2016-01-23T13:32:08Z</time>
      </trkpt>
      <trkpt lat="43.89989" lon="7.11318">
        <ele>948</ele>
        <time>2016-01-23T13:32:12Z</time>
      </trkpt>
      <trkpt lat="43.89986" lon="7.11306">
        <ele>948.1</ele>
        <time>2016-01-23T13:32:16Z</time>
      </trkpt>
      <trkpt lat="43.89983" lon="7.11293">
        <ele>949.6</ele>
        <time>2016-01-23T13:32:20Z</time>
      </trkpt>
      <trkpt lat="43.8998" lon="7.11281">
        <ele>951.1</ele>
        <time>2016-01-23T13:32:24Z</time>
      </trkpt>
      <trkpt lat="43.89978" lon="7.11266">
        <ele>951.7</ele>
        <time>2016-01-23T13:32:29Z</time>
      </trkpt>
      <trkpt lat="43.89979" lon="7.11254">
        <ele>952.7</ele>
        <time>2016-01-23T13:32:33Z</time>
      </trkpt>
      <trkpt lat="43.89982" lon="7.11239">
        <ele>953.8</ele>
        <time>2016-01-23T13:32:38Z</time>
      </trkpt>
      <trkpt lat="43.89986" lon="7.11228">
        <ele>954.6</ele>
        <time>2016-01-23T13:32:42Z</time>
      </trkpt>
      <trkpt lat="43.89991" lon="7.11214">
        <ele>955.2</ele>
        <time>2016-01-23T13:32:47Z</time>
      </trkpt>
      <trkpt lat="43.89998" lon="7.11202">
        <ele>955.7</ele>
        <time>2016-01-23T13:32:52Z</time>
      </trkpt>
      <trkpt lat="43.90004" lon="7.11189">
        <ele>956.8</ele>
        <time>2016-01-23T13:32:57Z</time>
      </trkpt>
      <trkpt lat="43.90008" lon="7.11175">
        <ele>957.6</ele>
        <time>2016-01-23T13:33:02Z</time>
      </trkpt>
      <trkpt lat="43.90012" lon="7.11161">
        <ele>959.3</ele>
        <time>2016-01-23T13:33:07Z</time>
      </trkpt>
      <trkpt lat="43.90018" lon="7.11149">
        <ele>960.1</ele>
        <time>2016-01-23T13:33:12Z</time>
      </trkpt>
      <trkpt lat="43.90024" lon="7.11136">
        <ele>961.6</ele>
        <time>2016-01-23T13:33:17Z</time>
      </trkpt>
      <trkpt lat="43.9003" lon="7.11124">
        <ele>962.1</ele>
        <time>2016-01-23T13:33:22Z</time>
      </trkpt>
      <trkpt lat="43.90035" lon="7.11113">
        <ele>962.2</ele>
        <time>2016-01-23T13:33:26Z</time>
      </trkpt>
      <trkpt lat="43.90039" lon="7.11102">
        <ele>963.5</ele>
        <time>2016-01-23T13:33:30Z</time>
      </trkpt>
      <trkpt lat="43.90043" lon="7.11087">
        <ele>964.8</ele>
        <time>2016-01-23T13:33:35Z</time>
      </trkpt>
      <trkpt lat="43.90045" lon="7.11074">
        <ele>966.2</ele>
        <time>2016-01-23T13:33:39Z</time>
      </trkpt>
      <trkpt lat="43.90045" lon="7.1106">
        <ele>966.3</ele>
        <time>2016-01-23T13:33:44Z</time>
      </trkpt>
      <trkpt lat="43.90045" lon="7.11047">
        <ele>967.3</ele>
        <time>2016-01-23T13:33:49Z</time>
      </trkpt>
      <trkpt lat="43.90049" lon="7.11035">
        <ele>967.5</ele>
        <time>2016-01-23T13:33:57Z</time>
      </trkpt>
      <trkpt lat="43.90053" lon="7.11021">
        <ele>967.2</ele>
        <time>2016-01-23T13:34:03Z</time>
      </trkpt>
      <trkpt lat="43.90048" lon="7.11009">
        <ele>967.1</ele>
        <time>2016-01-23T13:34:07Z</time>
      </trkpt>
      <trkpt lat="43.90039" lon="7.11">
        <ele>966.5</ele>
        <time>2016-01-23T13:34:11Z</time>
      </trkpt>
      <trkpt lat="43.90033" lon="7.10989">
        <ele>965.3</ele>
        <time>2016-01-23T13:34:14Z</time>
      </trkpt>
      <trkpt lat="43.90028" lon="7.10973">
        <ele>964.6</ele>
        <time>2016-01-23T13:34:17Z</time>
      </trkpt>
      <trkpt lat="43.90024" lon="7.10961">
        <ele>964.1</ele>
        <time>2016-01-23T13:34:19Z</time>
      </trkpt>
      <trkpt lat="43.90017" lon="7.1095">
        <ele>963.8</ele>
        <time>2016-01-23T13:34:21Z</time>
      </trkpt>
      <trkpt lat="43.90009" lon="7.10941">
        <ele>962.4</ele>
        <time>2016-01-23T13:34:23Z</time>
      </trkpt>
      <trkpt lat="43.89998" lon="7.10935">
        <ele>962.4</ele>
        <time>2016-01-23T13:34:26Z</time>
      </trkpt>
      <trkpt lat="43.89988" lon="7.10931">
        <ele>958.9</ele>
        <time>2016-01-23T13:34:35Z</time>
      </trkpt>
      <trkpt lat="43.89979" lon="7.10927">
        <ele>958.3</ele>
        <time>2016-01-23T13:34:38Z</time>
      </trkpt>
      <trkpt lat="43.89968" lon="7.10921">
        <ele>957.2</ele>
        <time>2016-01-23T13:34:42Z</time>
      </trkpt>
      <trkpt lat="43.89962" lon="7.10908">
        <ele>956</ele>
        <time>2016-01-23T13:34:46Z</time>
      </trkpt>
      <trkpt lat="43.89962" lon="7.10892">
        <ele>955.7</ele>
        <time>2016-01-23T13:34:49Z</time>
      </trkpt>
      <trkpt lat="43.89964" lon="7.10878">
        <ele>954.8</ele>
        <time>2016-01-23T13:34:51Z</time>
      </trkpt>
      <trkpt lat="43.89965" lon="7.10862">
        <ele>954.2</ele>
        <time>2016-01-23T13:34:53Z</time>
      </trkpt>
      <trkpt lat="43.89966" lon="7.10844">
        <ele>954.1</ele>
        <time>2016-01-23T13:34:55Z</time>
      </trkpt>
      <trkpt lat="43.89964" lon="7.10824">
        <ele>954.1</ele>
        <time>2016-01-23T13:34:57Z</time>
      </trkpt>
      <trkpt lat="43.89963" lon="7.10803">
        <ele>953.2</ele>
        <time>2016-01-23T13:34:59Z</time>
      </trkpt>
      <trkpt lat="43.89962" lon="7.10784">
        <ele>951.7</ele>
        <time>2016-01-23T13:35:01Z</time>
      </trkpt>
      <trkpt lat="43.89957" lon="7.10772">
        <ele>949.7</ele>
        <time>2016-01-23T13:35:03Z</time>
      </trkpt>
      <trkpt lat="43.89948" lon="7.10776">
        <ele>948.2</ele>
        <time>2016-01-23T13:35:06Z</time>
      </trkpt>
      <trkpt lat="43.89949" lon="7.10792">
        <ele>946.6</ele>
        <time>2016-01-23T13:35:10Z</time>
      </trkpt>
      <trkpt lat="43.89953" lon="7.10809">
        <ele>946</ele>
        <time>2016-01-23T13:35:13Z</time>
      </trkpt>
      <trkpt lat="43.89956" lon="7.10822">
        <ele>945.7</ele>
        <time>2016-01-23T13:35:15Z</time>
      </trkpt>
      <trkpt lat="43.89956" lon="7.10837">
        <ele>945.8</ele>
        <time>2016-01-23T13:35:17Z</time>
      </trkpt>
      <trkpt lat="43.89952" lon="7.10853">
        <ele>945</ele>
        <time>2016-01-23T13:35:19Z</time>
      </trkpt>
      <trkpt lat="43.89947" lon="7.10871">
        <ele>943.9</ele>
        <time>2016-01-23T13:35:21Z</time>
      </trkpt>
      <trkpt lat="43.89942" lon="7.10891">
        <ele>943.2</ele>
        <time>2016-01-23T13:35:23Z</time>
      </trkpt>
      <trkpt lat="43.89936" lon="7.10911">
        <ele>941.8</ele>
        <time>2016-01-23T13:35:25Z</time>
      </trkpt>
      <trkpt lat="43.89936" lon="7.10932">
        <ele>940.5</ele>
        <time>2016-01-23T13:35:27Z</time>
      </trkpt>
      <trkpt lat="43.89934" lon="7.10945">
        <ele>939.1</ele>
        <time>2016-01-23T13:35:29Z</time>
      </trkpt>
      <trkpt lat="43.89925" lon="7.10937">
        <ele>937.6</ele>
        <time>2016-01-23T13:35:33Z</time>
      </trkpt>
      <trkpt lat="43.89927" lon="7.1092">
        <ele>937.2</ele>
        <time>2016-01-23T13:35:36Z</time>
      </trkpt>
      <trkpt lat="43.8993" lon="7.10904">
        <ele>935.9</ele>
        <time>2016-01-23T13:35:39Z</time>
      </trkpt>
      <trkpt lat="43.89933" lon="7.10889">
        <ele>934.3</ele>
        <time>2016-01-23T13:35:41Z</time>
      </trkpt>
      <trkpt lat="43.89936" lon="7.10872">
        <ele>933.2</ele>
        <time>2016-01-23T13:35:43Z</time>
      </trkpt>
      <trkpt lat="43.89938" lon="7.10852">
        <ele>932.4</ele>
        <time>2016-01-23T13:35:45Z</time>
      </trkpt>
      <trkpt lat="43.89936" lon="7.10835">
        <ele>931.4</ele>
        <time>2016-01-23T13:35:47Z</time>
      </trkpt>
      <trkpt lat="43.89933" lon="7.10823">
        <ele>930.5</ele>
        <time>2016-01-23T13:35:49Z</time>
      </trkpt>
      <trkpt lat="43.89925" lon="7.10816">
        <ele>928.1</ele>
        <time>2016-01-23T13:35:53Z</time>
      </trkpt>
      <trkpt lat="43.89929" lon="7.10832">
        <ele>926.8</ele>
        <time>2016-01-23T13:35:58Z</time>
      </trkpt>
      <trkpt lat="43.8993" lon="7.10847">
        <ele>925.8</ele>
        <time>2016-01-23T13:36:01Z</time>
      </trkpt>
      <trkpt lat="43.89926" lon="7.10865">
        <ele>924.4</ele>
        <time>2016-01-23T13:36:04Z</time>
      </trkpt>
      <trkpt lat="43.89922" lon="7.10877">
        <ele>923.8</ele>
        <time>2016-01-23T13:36:06Z</time>
      </trkpt>
      <trkpt lat="43.8992" lon="7.10891">
        <ele>923.1</ele>
        <time>2016-01-23T13:36:08Z</time>
      </trkpt>
      <trkpt lat="43.89918" lon="7.10904">
        <ele>923.1</ele>
        <time>2016-01-23T13:36:10Z</time>
      </trkpt>
      <trkpt lat="43.89914" lon="7.10916">
        <ele>923.2</ele>
        <time>2016-01-23T13:36:12Z</time>
      </trkpt>
      <trkpt lat="43.89909" lon="7.10928">
        <ele>921.3</ele>
        <time>2016-01-23T13:36:14Z</time>
      </trkpt>
      <trkpt lat="43.89904" lon="7.10939">
        <ele>920.6</ele>
        <time>2016-01-23T13:36:16Z</time>
      </trkpt>
      <trkpt lat="43.89903" lon="7.10956">
        <ele>918.4</ele>
        <time>2016-01-23T13:36:19Z</time>
      </trkpt>
      <trkpt lat="43.89905" lon="7.1097">
        <ele>917.1</ele>
        <time>2016-01-23T13:36:22Z</time>
      </trkpt>
      <trkpt lat="43.89911" lon="7.10982">
        <ele>915</ele>
        <time>2016-01-23T13:36:25Z</time>
      </trkpt>
      <trkpt lat="43.89919" lon="7.10992">
        <ele>913.7</ele>
        <time>2016-01-23T13:36:28Z</time>
      </trkpt>
      <trkpt lat="43.89925" lon="7.11001">
        <ele>909.9</ele>
        <time>2016-01-23T13:36:44Z</time>
      </trkpt>
      <trkpt lat="43.89935" lon="7.11012">
        <ele>909.6</ele>
        <time>2016-01-23T13:36:51Z</time>
      </trkpt>
      <trkpt lat="43.89944" lon="7.11022">
        <ele>910</ele>
        <time>2016-01-23T13:36:54Z</time>
      </trkpt>
      <trkpt lat="43.89952" lon="7.1103">
        <ele>909.4</ele>
        <time>2016-01-23T13:36:56Z</time>
      </trkpt>
      <trkpt lat="43.89957" lon="7.11044">
        <ele>908.1</ele>
        <time>2016-01-23T13:36:59Z</time>
      </trkpt>
      <trkpt lat="43.89948" lon="7.11057">
        <ele>906.6</ele>
        <time>2016-01-23T13:37:02Z</time>
      </trkpt>
      <trkpt lat="43.89942" lon="7.1107">
        <ele>905.3</ele>
        <time>2016-01-23T13:37:04Z</time>
      </trkpt>
      <trkpt lat="43.89935" lon="7.11085">
        <ele>904.2</ele>
        <time>2016-01-23T13:37:06Z</time>
      </trkpt>
      <trkpt lat="43.89928" lon="7.11103">
        <ele>902.9</ele>
        <time>2016-01-23T13:37:08Z</time>
      </trkpt>
      <trkpt lat="43.8992" lon="7.11126">
        <ele>901.8</ele>
        <time>2016-01-23T13:37:10Z</time>
      </trkpt>
      <trkpt lat="43.89916" lon="7.11138">
        <ele>900.9</ele>
        <time>2016-01-23T13:37:11Z</time>
      </trkpt>
      <trkpt lat="43.89912" lon="7.1115">
        <ele>900.2</ele>
        <time>2016-01-23T13:37:12Z</time>
      </trkpt>
      <trkpt lat="43.89907" lon="7.11162">
        <ele>898.7</ele>
        <time>2016-01-23T13:37:13Z</time>
      </trkpt>
      <trkpt lat="43.89901" lon="7.11172">
        <ele>897.5</ele>
        <time>2016-01-23T13:37:14Z</time>
      </trkpt>
      <trkpt lat="43.89894" lon="7.11182">
        <ele>896.2</ele>
        <time>2016-01-23T13:37:15Z</time>
      </trkpt>
      <trkpt lat="43.89883" lon="7.11195">
        <ele>894.4</ele>
        <time>2016-01-23T13:37:17Z</time>
      </trkpt>
      <trkpt lat="43.89873" lon="7.11202">
        <ele>892.6</ele>
        <time>2016-01-23T13:37:19Z</time>
      </trkpt>
      <trkpt lat="43.89865" lon="7.11208">
        <ele>890.1</ele>
        <time>2016-01-23T13:37:21Z</time>
      </trkpt>
      <trkpt lat="43.89854" lon="7.11216">
        <ele>887.6</ele>
        <time>2016-01-23T13:37:24Z</time>
      </trkpt>
      <trkpt lat="43.89846" lon="7.11227">
        <ele>885.4</ele>
        <time>2016-01-23T13:37:27Z</time>
      </trkpt>
      <trkpt lat="43.89842" lon="7.11238">
        <ele>883.3</ele>
        <time>2016-01-23T13:37:30Z</time>
      </trkpt>
      <trkpt lat="43.8984" lon="7.11253">
        <ele>880.8</ele>
        <time>2016-01-23T13:37:36Z</time>
      </trkpt>
      <trkpt lat="43.89844" lon="7.11268">
        <ele>879.7</ele>
        <time>2016-01-23T13:37:39Z</time>
      </trkpt>
      <trkpt lat="43.89849" lon="7.11282">
        <ele>879</ele>
        <time>2016-01-23T13:37:42Z</time>
      </trkpt>
      <trkpt lat="43.89853" lon="7.11294">
        <ele>876.5</ele>
        <time>2016-01-23T13:37:47Z</time>
      </trkpt>
      <trkpt lat="43.89845" lon="7.11299">
        <ele>874.8</ele>
        <time>2016-01-23T13:38:08Z</time>
      </trkpt>
      <trkpt lat="43.89834" lon="7.11297">
        <ele>872.2</ele>
        <time>2016-01-23T13:38:12Z</time>
      </trkpt>
      <trkpt lat="43.89825" lon="7.11292">
        <ele>869.7</ele>
        <time>2016-01-23T13:38:15Z</time>
      </trkpt>
      <trkpt lat="43.89821" lon="7.1128">
        <ele>865.1</ele>
        <time>2016-01-23T13:38:20Z</time>
      </trkpt>
      <trkpt lat="43.89817" lon="7.11292">
        <ele>860.7</ele>
        <time>2016-01-23T13:38:39Z</time>
      </trkpt>
      <trkpt lat="43.89816" lon="7.11306">
        <ele>858.4</ele>
        <time>2016-01-23T13:38:43Z</time>
      </trkpt>
      <trkpt lat="43.8981" lon="7.11318">
        <ele>855.5</ele>
        <time>2016-01-23T13:38:47Z</time>
      </trkpt>
      <trkpt lat="43.89803" lon="7.11329">
        <ele>852.5</ele>
        <time>2016-01-23T13:38:52Z</time>
      </trkpt>
      <trkpt lat="43.89795" lon="7.11339">
        <ele>848.9</ele>
        <time>2016-01-23T13:39:30Z</time>
      </trkpt>
      <trkpt lat="43.89787" lon="7.11346">
        <ele>847.4</ele>
        <time>2016-01-23T13:39:35Z</time>
      </trkpt>
      <trkpt lat="43.89784" lon="7.11362">
        <ele>846.5</ele>
        <time>2016-01-23T13:39:39Z</time>
      </trkpt>
      <trkpt lat="43.89781" lon="7.11374">
        <ele>845.1</ele>
        <time>2016-01-23T13:39:43Z</time>
      </trkpt>
      <trkpt lat="43.89776" lon="7.11363">
        <ele>841.8</ele>
        <time>2016-01-23T13:40:24Z</time>
      </trkpt>
      <trkpt lat="43.89777" lon="7.11351">
        <ele>841.9</ele>
        <time>2016-01-23T13:40:28Z</time>
      </trkpt>
      <trkpt lat="43.89777" lon="7.11337">
        <ele>842.2</ele>
        <time>2016-01-23T13:40:32Z</time>
      </trkpt>
      <trkpt lat="43.8978" lon="7.11322">
        <ele>841.6</ele>
        <time>2016-01-23T13:40:35Z</time>
      </trkpt>
      <trkpt lat="43.89783" lon="7.11309">
        <ele>841.5</ele>
        <time>2016-01-23T13:40:38Z</time>
      </trkpt>
      <trkpt lat="43.89785" lon="7.11296">
        <ele>839.8</ele>
        <time>2016-01-23T13:40:41Z</time>
      </trkpt>
      <trkpt lat="43.89784" lon="7.11284">
        <ele>838.3</ele>
        <time>2016-01-23T13:40:46Z</time>
      </trkpt>
      <trkpt lat="43.89776" lon="7.11278">
        <ele>832.2</ele>
        <time>2016-01-23T13:43:01Z</time>
      </trkpt>
      <trkpt lat="43.89768" lon="7.11267">
        <ele>829.6</ele>
        <time>2016-01-23T13:43:15Z</time>
      </trkpt>
      <trkpt lat="43.89759" lon="7.11266">
        <ele>828.2</ele>
        <time>2016-01-23T13:43:19Z</time>
      </trkpt>
      <trkpt lat="43.8975" lon="7.11269">
        <ele>826.1</ele>
        <time>2016-01-23T13:43:22Z</time>
      </trkpt>
      <trkpt lat="43.89739" lon="7.11271">
        <ele>823</ele>
        <time>2016-01-23T13:43:26Z</time>
      </trkpt>
      <trkpt lat="43.89731" lon="7.11275">
        <ele>819.9</ele>
        <time>2016-01-23T13:43:39Z</time>
      </trkpt>
      <trkpt lat="43.89721" lon="7.11277">
        <ele>819.2</ele>
        <time>2016-01-23T13:43:46Z</time>
      </trkpt>
      <trkpt lat="43.8971" lon="7.11278">
        <ele>817.5</ele>
        <time>2016-01-23T13:43:49Z</time>
      </trkpt>
      <trkpt lat="43.897" lon="7.11278">
        <ele>816.5</ele>
        <time>2016-01-23T13:43:51Z</time>
      </trkpt>
      <trkpt lat="43.8969" lon="7.11277">
        <ele>814.7</ele>
        <time>2016-01-23T13:43:53Z</time>
      </trkpt>
      <trkpt lat="43.89681" lon="7.11276">
        <ele>812.7</ele>
        <time>2016-01-23T13:43:55Z</time>
      </trkpt>
      <trkpt lat="43.89675" lon="7.11288">
        <ele>809.2</ele>
        <time>2016-01-23T13:43:59Z</time>
      </trkpt>
      <trkpt lat="43.89672" lon="7.113">
        <ele>805.6</ele>
        <time>2016-01-23T13:44:06Z</time>
      </trkpt>
      <trkpt lat="43.89661" lon="7.11305">
        <ele>802.7</ele>
        <time>2016-01-23T13:44:15Z</time>
      </trkpt>
      <trkpt lat="43.89651" lon="7.11307">
        <ele>800.8</ele>
        <time>2016-01-23T13:44:19Z</time>
      </trkpt>
      <trkpt lat="43.89641" lon="7.11309">
        <ele>799.2</ele>
        <time>2016-01-23T13:44:22Z</time>
      </trkpt>
      <trkpt lat="43.89631" lon="7.11316">
        <ele>795.4</ele>
        <time>2016-01-23T13:44:26Z</time>
      </trkpt>
      <trkpt lat="43.89622" lon="7.11322">
        <ele>792.1</ele>
        <time>2016-01-23T13:44:29Z</time>
      </trkpt>
      <trkpt lat="43.89613" lon="7.11327">
        <ele>788.2</ele>
        <time>2016-01-23T13:44:33Z</time>
      </trkpt>
      <trkpt lat="43.89608" lon="7.11338">
        <ele>784.1</ele>
        <time>2016-01-23T13:44:38Z</time>
      </trkpt>
      <trkpt lat="43.89608" lon="7.11352">
        <ele>781.3</ele>
        <time>2016-01-23T13:44:43Z</time>
      </trkpt>
      <trkpt lat="43.8961" lon="7.11368">
        <ele>779.7</ele>
        <time>2016-01-23T13:44:48Z</time>
      </trkpt>
      <trkpt lat="43.89609" lon="7.11383">
        <ele>779.4</ele>
        <time>2016-01-23T13:44:53Z</time>
      </trkpt>
      <trkpt lat="43.89605" lon="7.11395">
        <ele>779.9</ele>
        <time>2016-01-23T13:45:01Z</time>
      </trkpt>
      <trkpt lat="43.896" lon="7.11406">
        <ele>780.5</ele>
        <time>2016-01-23T13:45:10Z</time>
      </trkpt>
      <trkpt lat="43.89595" lon="7.11416">
        <ele>781.3</ele>
        <time>2016-01-23T13:45:20Z</time>
      </trkpt>
      <trkpt lat="43.89589" lon="7.11427">
        <ele>780.8</ele>
        <time>2016-01-23T13:45:31Z</time>
      </trkpt>
      <trkpt lat="43.89583" lon="7.11438">
        <ele>780.9</ele>
        <time>2016-01-23T13:45:36Z</time>
      </trkpt>
      <trkpt lat="43.89573" lon="7.11447">
        <ele>781.2</ele>
        <time>2016-01-23T13:45:41Z</time>
      </trkpt>
      <trkpt lat="43.89567" lon="7.11456">
        <ele>779.3</ele>
        <time>2016-01-23T13:45:51Z</time>
      </trkpt>
      <trkpt lat="43.89567" lon="7.11443">
        <ele>777.9</ele>
        <time>2016-01-23T13:46:57Z</time>
      </trkpt>
      <trkpt lat="43.8956" lon="7.11451">
        <ele>774.8</ele>
        <time>2016-01-23T13:47:39Z</time>
      </trkpt>
      <trkpt lat="43.89559" lon="7.11463">
        <ele>774.9</ele>
        <time>2016-01-23T13:47:47Z</time>
      </trkpt>
      <trkpt lat="43.8956" lon="7.11477">
        <ele>773.2</ele>
        <time>2016-01-23T13:48:09Z</time>
      </trkpt>
      <trkpt lat="43.89564" lon="7.11488">
        <ele>771.9</ele>
        <time>2016-01-23T13:48:14Z</time>
      </trkpt>
      <trkpt lat="43.8957" lon="7.11498">
        <ele>768.7</ele>
        <time>2016-01-23T13:48:19Z</time>
      </trkpt>
      <trkpt lat="43.89562" lon="7.11504">
        <ele>762.3</ele>
        <time>2016-01-23T13:48:52Z</time>
      </trkpt>
      <trkpt lat="43.89555" lon="7.11514">
        <ele>757.1</ele>
        <time>2016-01-23T13:49:14Z</time>
      </trkpt>
      <trkpt lat="43.89559" lon="7.11527">
        <ele>755.3</ele>
        <time>2016-01-23T13:49:21Z</time>
      </trkpt>
      <trkpt lat="43.8955" lon="7.11531">
        <ele>752.2</ele>
        <time>2016-01-23T13:49:29Z</time>
      </trkpt>
      <trkpt lat="43.89539" lon="7.11532">
        <ele>751</ele>
        <time>2016-01-23T13:49:34Z</time>
      </trkpt>
      <trkpt lat="43.89529" lon="7.1153">
        <ele>748.4</ele>
        <time>2016-01-23T13:49:39Z</time>
      </trkpt>
      <trkpt lat="43.89521" lon="7.1152">
        <ele>746.3</ele>
        <time>2016-01-23T13:49:58Z</time>
      </trkpt>
      <trkpt lat="43.89512" lon="7.11514">
        <ele>744.9</ele>
        <time>2016-01-23T13:50:04Z</time>
      </trkpt>
      <trkpt lat="43.89503" lon="7.11516">
        <ele>743.2</ele>
        <time>2016-01-23T13:50:16Z</time>
      </trkpt>
      <trkpt lat="43.89492" lon="7.11518">
        <ele>743.5</ele>
        <time>2016-01-23T13:50:23Z</time>
      </trkpt>
      <trkpt lat="43.89483" lon="7.11523">
        <ele>741.9</ele>
        <time>2016-01-23T13:50:30Z</time>
      </trkpt>
      <trkpt lat="43.89474" lon="7.11525">
        <ele>741.2</ele>
        <time>2016-01-23T13:50:40Z</time>
      </trkpt>
      <trkpt lat="43.89465" lon="7.11523">
        <ele>742.8</ele>
        <time>2016-01-23T13:50:46Z</time>
      </trkpt>
      <trkpt lat="43.89457" lon="7.11516">
        <ele>741.6</ele>
        <time>2016-01-23T13:50:52Z</time>
      </trkpt>
      <trkpt lat="43.89448" lon="7.11513">
        <ele>743.9</ele>
        <time>2016-01-23T13:51:06Z</time>
      </trkpt>
      <trkpt lat="43.89437" lon="7.11513">
        <ele>743.2</ele>
        <time>2016-01-23T13:51:15Z</time>
      </trkpt>
      <trkpt lat="43.89426" lon="7.11514">
        <ele>742.8</ele>
        <time>2016-01-23T13:51:21Z</time>
      </trkpt>
      <trkpt lat="43.89416" lon="7.11514">
        <ele>740</ele>
        <time>2016-01-23T13:51:26Z</time>
      </trkpt>
      <trkpt lat="43.89407" lon="7.11515">
        <ele>736.4</ele>
        <time>2016-01-23T13:51:50Z</time>
      </trkpt>
      <trkpt lat="43.89398" lon="7.11519">
        <ele>734</ele>
        <time>2016-01-23T13:51:57Z</time>
      </trkpt>
      <trkpt lat="43.89388" lon="7.11523">
        <ele>731.2</ele>
        <time>2016-01-23T13:52:05Z</time>
      </trkpt>
      <trkpt lat="43.89379" lon="7.11526">
        <ele>729.9</ele>
        <time>2016-01-23T13:52:09Z</time>
      </trkpt>
      <trkpt lat="43.89377" lon="7.11539">
        <ele>727.6</ele>
        <time>2016-01-23T13:52:15Z</time>
      </trkpt>
      <trkpt lat="43.89378" lon="7.11551">
        <ele>726.2</ele>
        <time>2016-01-23T13:52:19Z</time>
      </trkpt>
      <trkpt lat="43.89369" lon="7.11554">
        <ele>725.5</ele>
        <time>2016-01-23T13:52:43Z</time>
      </trkpt>
      <trkpt lat="43.89362" lon="7.11545">
        <ele>727.6</ele>
        <time>2016-01-23T13:52:55Z</time>
      </trkpt>
      <trkpt lat="43.89355" lon="7.11536">
        <ele>728.7</ele>
        <time>2016-01-23T13:53:07Z</time>
      </trkpt>
      <trkpt lat="43.89346" lon="7.11531">
        <ele>729.3</ele>
        <time>2016-01-23T13:53:19Z</time>
      </trkpt>
      <trkpt lat="43.89338" lon="7.11519">
        <ele>728.5</ele>
        <time>2016-01-23T13:53:25Z</time>
      </trkpt>
      <trkpt lat="43.89327" lon="7.11511">
        <ele>728.5</ele>
        <time>2016-01-23T13:53:29Z</time>
      </trkpt>
      <trkpt lat="43.89316" lon="7.11508">
        <ele>727.8</ele>
        <time>2016-01-23T13:53:33Z</time>
      </trkpt>
      <trkpt lat="43.89304" lon="7.11509">
        <ele>727.5</ele>
        <time>2016-01-23T13:53:37Z</time>
      </trkpt>
      <trkpt lat="43.89294" lon="7.11507">
        <ele>727.7</ele>
        <time>2016-01-23T13:53:41Z</time>
      </trkpt>
      <trkpt lat="43.89284" lon="7.11511">
        <ele>728.4</ele>
        <time>2016-01-23T13:53:46Z</time>
      </trkpt>
      <trkpt lat="43.89277" lon="7.11503">
        <ele>727.9</ele>
        <time>2016-01-23T13:53:50Z</time>
      </trkpt>
      <trkpt lat="43.89271" lon="7.11493">
        <ele>726.1</ele>
        <time>2016-01-23T13:53:56Z</time>
      </trkpt>
      <trkpt lat="43.89263" lon="7.11484">
        <ele>724.4</ele>
        <time>2016-01-23T13:54:01Z</time>
      </trkpt>
      <trkpt lat="43.8926" lon="7.11472">
        <ele>719.3</ele>
        <time>2016-01-23T13:54:10Z</time>
      </trkpt>
      <trkpt lat="43.8926" lon="7.11458">
        <ele>716</ele>
        <time>2016-01-23T13:54:17Z</time>
      </trkpt>
      <trkpt lat="43.89257" lon="7.11442">
        <ele>714.2</ele>
        <time>2016-01-23T13:54:21Z</time>
      </trkpt>
      <trkpt lat="43.89244" lon="7.11438">
        <ele>710.6</ele>
        <time>2016-01-23T13:54:27Z</time>
      </trkpt>
      <trkpt lat="43.89234" lon="7.11434">
        <ele>709.1</ele>
        <time>2016-01-23T13:54:31Z</time>
      </trkpt>
      <trkpt lat="43.89226" lon="7.11427">
        <ele>707.2</ele>
        <time>2016-01-23T13:54:44Z</time>
      </trkpt>
      <trkpt lat="43.89217" lon="7.11423">
        <ele>708.5</ele>
        <time>2016-01-23T13:54:54Z</time>
      </trkpt>
      <trkpt lat="43.89207" lon="7.11418">
        <ele>708.4</ele>
        <time>2016-01-23T13:55:02Z</time>
      </trkpt>
      <trkpt lat="43.89197" lon="7.11414">
        <ele>708.7</ele>
        <time>2016-01-23T13:55:06Z</time>
      </trkpt>
      <trkpt lat="43.89188" lon="7.1141">
        <ele>708.7</ele>
        <time>2016-01-23T13:55:11Z</time>
      </trkpt>
      <trkpt lat="43.89179" lon="7.11409">
        <ele>709.1</ele>
        <time>2016-01-23T13:55:17Z</time>
      </trkpt>
      <trkpt lat="43.8917" lon="7.11416">
        <ele>709.8</ele>
        <time>2016-01-23T13:55:22Z</time>
      </trkpt>
      <trkpt lat="43.89159" lon="7.11412">
        <ele>708.2</ele>
        <time>2016-01-23T13:55:26Z</time>
      </trkpt>
      <trkpt lat="43.89148" lon="7.11405">
        <ele>706.5</ele>
        <time>2016-01-23T13:55:29Z</time>
      </trkpt>
      <trkpt lat="43.89138" lon="7.11401">
        <ele>703.4</ele>
        <time>2016-01-23T13:55:32Z</time>
      </trkpt>
      <trkpt lat="43.89129" lon="7.11407">
        <ele>701.4</ele>
        <time>2016-01-23T13:55:35Z</time>
      </trkpt>
      <trkpt lat="43.89123" lon="7.11417">
        <ele>700.1</ele>
        <time>2016-01-23T13:55:38Z</time>
      </trkpt>
      <trkpt lat="43.89118" lon="7.11428">
        <ele>699.2</ele>
        <time>2016-01-23T13:55:48Z</time>
      </trkpt>
      <trkpt lat="43.89112" lon="7.11438">
        <ele>700.3</ele>
        <time>2016-01-23T13:55:56Z</time>
      </trkpt>
      <trkpt lat="43.89106" lon="7.11447">
        <ele>699.7</ele>
        <time>2016-01-23T13:56:05Z</time>
      </trkpt>
      <trkpt lat="43.89098" lon="7.11456">
        <ele>699.8</ele>
        <time>2016-01-23T13:56:16Z</time>
      </trkpt>
      <trkpt lat="43.89089" lon="7.1145">
        <ele>699.5</ele>
        <time>2016-01-23T13:56:27Z</time>
      </trkpt>
      <trkpt lat="43.89081" lon="7.11444">
        <ele>699.9</ele>
        <time>2016-01-23T13:56:32Z</time>
      </trkpt>
      <trkpt lat="43.89078" lon="7.11429">
        <ele>699.1</ele>
        <time>2016-01-23T13:56:36Z</time>
      </trkpt>
      <trkpt lat="43.89073" lon="7.11415">
        <ele>698.6</ele>
        <time>2016-01-23T13:56:39Z</time>
      </trkpt>
      <trkpt lat="43.89065" lon="7.11401">
        <ele>697.5</ele>
        <time>2016-01-23T13:56:42Z</time>
      </trkpt>
      <trkpt lat="43.89057" lon="7.11392">
        <ele>695.5</ele>
        <time>2016-01-23T13:56:44Z</time>
      </trkpt>
      <trkpt lat="43.89043" lon="7.1139">
        <ele>694.3</ele>
        <time>2016-01-23T13:56:47Z</time>
      </trkpt>
      <trkpt lat="43.89033" lon="7.11389">
        <ele>692.5</ele>
        <time>2016-01-23T13:56:51Z</time>
      </trkpt>
      <trkpt lat="43.89025" lon="7.11381">
        <ele>691.5</ele>
        <time>2016-01-23T13:56:54Z</time>
      </trkpt>
      <trkpt lat="43.89016" lon="7.11371">
        <ele>690.6</ele>
        <time>2016-01-23T13:56:57Z</time>
      </trkpt>
      <trkpt lat="43.89007" lon="7.11363">
        <ele>690.1</ele>
        <time>2016-01-23T13:57:00Z</time>
      </trkpt>
      <trkpt lat="43.88998" lon="7.11357">
        <ele>688.8</ele>
        <time>2016-01-23T13:57:08Z</time>
      </trkpt>
      <trkpt lat="43.88989" lon="7.11351">
        <ele>686.4</ele>
        <time>2016-01-23T13:57:18Z</time>
      </trkpt>
      <trkpt lat="43.8898" lon="7.11349">
        <ele>687</ele>
        <time>2016-01-23T13:57:24Z</time>
      </trkpt>
      <trkpt lat="43.8897" lon="7.11347">
        <ele>686.5</ele>
        <time>2016-01-23T13:57:32Z</time>
      </trkpt>
      <trkpt lat="43.88959" lon="7.11342">
        <ele>685.4</ele>
        <time>2016-01-23T13:57:38Z</time>
      </trkpt>
      <trkpt lat="43.88948" lon="7.11338">
        <ele>684.3</ele>
        <time>2016-01-23T13:57:42Z</time>
      </trkpt>
      <trkpt lat="43.88938" lon="7.11332">
        <ele>683.1</ele>
        <time>2016-01-23T13:57:46Z</time>
      </trkpt>
      <trkpt lat="43.8893" lon="7.11325">
        <ele>681.1</ele>
        <time>2016-01-23T13:57:50Z</time>
      </trkpt>
      <trkpt lat="43.8892" lon="7.1132">
        <ele>680.3</ele>
        <time>2016-01-23T13:57:53Z</time>
      </trkpt>
      <trkpt lat="43.88911" lon="7.11317">
        <ele>679.1</ele>
        <time>2016-01-23T13:57:56Z</time>
      </trkpt>
      <trkpt lat="43.88899" lon="7.11312">
        <ele>676.1</ele>
        <time>2016-01-23T13:57:59Z</time>
      </trkpt>
      <trkpt lat="43.8889" lon="7.11312">
        <ele>674.3</ele>
        <time>2016-01-23T13:58:01Z</time>
      </trkpt>
      <trkpt lat="43.88881" lon="7.11317">
        <ele>670.6</ele>
        <time>2016-01-23T13:58:05Z</time>
      </trkpt>
      <trkpt lat="43.88872" lon="7.11324">
        <ele>666.8</ele>
        <time>2016-01-23T13:58:11Z</time>
      </trkpt>
      <trkpt lat="43.88863" lon="7.11324">
        <ele>665.7</ele>
        <time>2016-01-23T13:58:14Z</time>
      </trkpt>
      <trkpt lat="43.88852" lon="7.11321">
        <ele>664</ele>
        <time>2016-01-23T13:58:18Z</time>
      </trkpt>
      <trkpt lat="43.88843" lon="7.11316">
        <ele>662.7</ele>
        <time>2016-01-23T13:58:21Z</time>
      </trkpt>
      <trkpt lat="43.88833" lon="7.11315">
        <ele>660.3</ele>
        <time>2016-01-23T13:58:27Z</time>
      </trkpt>
      <trkpt lat="43.88824" lon="7.11313">
        <ele>657.6</ele>
        <time>2016-01-23T13:58:38Z</time>
      </trkpt>
      <trkpt lat="43.88815" lon="7.1131">
        <ele>656.8</ele>
        <time>2016-01-23T13:58:49Z</time>
      </trkpt>
      <trkpt lat="43.88805" lon="7.1131">
        <ele>654.5</ele>
        <time>2016-01-23T13:59:01Z</time>
      </trkpt>
      <trkpt lat="43.88794" lon="7.11309">
        <ele>652.3</ele>
        <time>2016-01-23T13:59:06Z</time>
      </trkpt>
      <trkpt lat="43.88785" lon="7.11312">
        <ele>649.9</ele>
        <time>2016-01-23T13:59:10Z</time>
      </trkpt>
      <trkpt lat="43.88776" lon="7.11321">
        <ele>647.3</ele>
        <time>2016-01-23T13:59:14Z</time>
      </trkpt>
      <trkpt lat="43.8877" lon="7.11333">
        <ele>643.7</ele>
        <time>2016-01-23T13:59:18Z</time>
      </trkpt>
      <trkpt lat="43.88768" lon="7.11346">
        <ele>642.1</ele>
        <time>2016-01-23T13:59:21Z</time>
      </trkpt>
      <trkpt lat="43.88766" lon="7.11363">
        <ele>641</ele>
        <time>2016-01-23T13:59:25Z</time>
      </trkpt>
      <trkpt lat="43.88758" lon="7.1137">
        <ele>639.3</ele>
        <time>2016-01-23T13:59:29Z</time>
      </trkpt>
      <trkpt lat="43.88749" lon="7.11376">
        <ele>639</ele>
        <time>2016-01-23T13:59:33Z</time>
      </trkpt>
      <trkpt lat="43.88739" lon="7.11378">
        <ele>638.7</ele>
        <time>2016-01-23T13:59:44Z</time>
      </trkpt>
      <trkpt lat="43.88731" lon="7.11372">
        <ele>636.9</ele>
        <time>2016-01-23T13:59:52Z</time>
      </trkpt>
      <trkpt lat="43.88724" lon="7.11361">
        <ele>636.8</ele>
        <time>2016-01-23T13:59:56Z</time>
      </trkpt>
      <trkpt lat="43.88715" lon="7.11357">
        <ele>635.4</ele>
        <time>2016-01-23T13:59:59Z</time>
      </trkpt>
      <trkpt lat="43.88706" lon="7.11356">
        <ele>632.8</ele>
        <time>2016-01-23T14:00:04Z</time>
      </trkpt>
      <trkpt lat="43.887" lon="7.11367">
        <ele>630.2</ele>
        <time>2016-01-23T14:00:09Z</time>
      </trkpt>
      <trkpt lat="43.88691" lon="7.11367">
        <ele>627.6</ele>
        <time>2016-01-23T14:00:15Z</time>
      </trkpt>
      <trkpt lat="43.88684" lon="7.11356">
        <ele>627.1</ele>
        <time>2016-01-23T14:00:18Z</time>
      </trkpt>
      <trkpt lat="43.88676" lon="7.11345">
        <ele>626.6</ele>
        <time>2016-01-23T14:00:21Z</time>
      </trkpt>
      <trkpt lat="43.88666" lon="7.11339">
        <ele>623.9</ele>
        <time>2016-01-23T14:00:25Z</time>
      </trkpt>
      <trkpt lat="43.88656" lon="7.11341">
        <ele>623</ele>
        <time>2016-01-23T14:00:28Z</time>
      </trkpt>
      <trkpt lat="43.88648" lon="7.11346">
        <ele>620</ele>
        <time>2016-01-23T14:00:38Z</time>
      </trkpt>
      <trkpt lat="43.88637" lon="7.11352">
        <ele>620.3</ele>
        <time>2016-01-23T14:00:52Z</time>
      </trkpt>
      <trkpt lat="43.88625" lon="7.11356">
        <ele>619.3</ele>
        <time>2016-01-23T14:00:55Z</time>
      </trkpt>
      <trkpt lat="43.88614" lon="7.11359">
        <ele>618.2</ele>
        <time>2016-01-23T14:00:57Z</time>
      </trkpt>
      <trkpt lat="43.88602" lon="7.1136">
        <ele>617.6</ele>
        <time>2016-01-23T14:00:59Z</time>
      </trkpt>
      <trkpt lat="43.88591" lon="7.11361">
        <ele>615</ele>
        <time>2016-01-23T14:01:02Z</time>
      </trkpt>
      <trkpt lat="43.88581" lon="7.11364">
        <ele>611.5</ele>
        <time>2016-01-23T14:01:05Z</time>
      </trkpt>
      <trkpt lat="43.8857" lon="7.11365">
        <ele>608.8</ele>
        <time>2016-01-23T14:01:08Z</time>
      </trkpt>
      <trkpt lat="43.88559" lon="7.11368">
        <ele>606.2</ele>
        <time>2016-01-23T14:01:11Z</time>
      </trkpt>
      <trkpt lat="43.88548" lon="7.11372">
        <ele>603.9</ele>
        <time>2016-01-23T14:01:14Z</time>
      </trkpt>
      <trkpt lat="43.88536" lon="7.11378">
        <ele>601.2</ele>
        <time>2016-01-23T14:01:17Z</time>
      </trkpt>
      <trkpt lat="43.88527" lon="7.11381">
        <ele>599.9</ele>
        <time>2016-01-23T14:01:20Z</time>
      </trkpt>
      <trkpt lat="43.88516" lon="7.11384">
        <ele>598.2</ele>
        <time>2016-01-23T14:01:23Z</time>
      </trkpt>
      <trkpt lat="43.88505" lon="7.11389">
        <ele>596.7</ele>
        <time>2016-01-23T14:01:26Z</time>
      </trkpt>
      <trkpt lat="43.88493" lon="7.11389">
        <ele>594.3</ele>
        <time>2016-01-23T14:01:29Z</time>
      </trkpt>
      <trkpt lat="43.88483" lon="7.11394">
        <ele>592.8</ele>
        <time>2016-01-23T14:01:32Z</time>
      </trkpt>
      <trkpt lat="43.88473" lon="7.11394">
        <ele>590.6</ele>
        <time>2016-01-23T14:01:35Z</time>
      </trkpt>
      <trkpt lat="43.88462" lon="7.11395">
        <ele>588.8</ele>
        <time>2016-01-23T14:01:38Z</time>
      </trkpt>
      <trkpt lat="43.88453" lon="7.11401">
        <ele>587</ele>
        <time>2016-01-23T14:01:41Z</time>
      </trkpt>
      <trkpt lat="43.88444" lon="7.11397">
        <ele>586.5</ele>
        <time>2016-01-23T14:01:43Z</time>
      </trkpt>
      <trkpt lat="43.88435" lon="7.11395">
        <ele>585.8</ele>
        <time>2016-01-23T14:01:45Z</time>
      </trkpt>
      <trkpt lat="43.88423" lon="7.11399">
        <ele>582.4</ele>
        <time>2016-01-23T14:01:48Z</time>
      </trkpt>
      <trkpt lat="43.88414" lon="7.11409">
        <ele>579.1</ele>
        <time>2016-01-23T14:01:52Z</time>
      </trkpt>
      <trkpt lat="43.88404" lon="7.11411">
        <ele>576.9</ele>
        <time>2016-01-23T14:01:55Z</time>
      </trkpt>
      <trkpt lat="43.88395" lon="7.11416">
        <ele>575</ele>
        <time>2016-01-23T14:01:58Z</time>
      </trkpt>
      <trkpt lat="43.88386" lon="7.11421">
        <ele>573.2</ele>
        <time>2016-01-23T14:02:01Z</time>
      </trkpt>
      <trkpt lat="43.88377" lon="7.11421">
        <ele>572</ele>
        <time>2016-01-23T14:02:04Z</time>
      </trkpt>
      <trkpt lat="43.88367" lon="7.11418">
        <ele>570.9</ele>
        <time>2016-01-23T14:02:22Z</time>
      </trkpt>
      <trkpt lat="43.88357" lon="7.11417">
        <ele>570.7</ele>
        <time>2016-01-23T14:02:28Z</time>
      </trkpt>
      <trkpt lat="43.88347" lon="7.1142">
        <ele>571</ele>
        <time>2016-01-23T14:02:32Z</time>
      </trkpt>
      <trkpt lat="43.88337" lon="7.11427">
        <ele>570.1</ele>
        <time>2016-01-23T14:02:36Z</time>
      </trkpt>
      <trkpt lat="43.88331" lon="7.11439">
        <ele>570.1</ele>
        <time>2016-01-23T14:02:41Z</time>
      </trkpt>
      <trkpt lat="43.88321" lon="7.11438">
        <ele>570.1</ele>
        <time>2016-01-23T14:02:46Z</time>
      </trkpt>
      <trkpt lat="43.88311" lon="7.11443">
        <ele>570.2</ele>
        <time>2016-01-23T14:02:50Z</time>
      </trkpt>
      <trkpt lat="43.88305" lon="7.11456">
        <ele>569.8</ele>
        <time>2016-01-23T14:02:54Z</time>
      </trkpt>
      <trkpt lat="43.88295" lon="7.11456">
        <ele>569.4</ele>
        <time>2016-01-23T14:02:57Z</time>
      </trkpt>
      <trkpt lat="43.88286" lon="7.11455">
        <ele>568.9</ele>
        <time>2016-01-23T14:03:00Z</time>
      </trkpt>
      <trkpt lat="43.88275" lon="7.11456">
        <ele>567.5</ele>
        <time>2016-01-23T14:03:04Z</time>
      </trkpt>
      <trkpt lat="43.88265" lon="7.1146">
        <ele>566.7</ele>
        <time>2016-01-23T14:03:13Z</time>
      </trkpt>
      <trkpt lat="43.88257" lon="7.1147">
        <ele>566</ele>
        <time>2016-01-23T14:03:16Z</time>
      </trkpt>
      <trkpt lat="43.88249" lon="7.11483">
        <ele>564.4</ele>
        <time>2016-01-23T14:03:19Z</time>
      </trkpt>
      <trkpt lat="43.88236" lon="7.1149">
        <ele>562.8</ele>
        <time>2016-01-23T14:03:22Z</time>
      </trkpt>
      <trkpt lat="43.88225" lon="7.11488">
        <ele>561.9</ele>
        <time>2016-01-23T14:03:24Z</time>
      </trkpt>
      <trkpt lat="43.88215" lon="7.11484">
        <ele>559</ele>
        <time>2016-01-23T14:03:27Z</time>
      </trkpt>
      <trkpt lat="43.88206" lon="7.11486">
        <ele>557.3</ele>
        <time>2016-01-23T14:03:30Z</time>
      </trkpt>
      <trkpt lat="43.88198" lon="7.11479">
        <ele>554.7</ele>
        <time>2016-01-23T14:03:35Z</time>
      </trkpt>
      <trkpt lat="43.8819" lon="7.11473">
        <ele>554.4</ele>
        <time>2016-01-23T14:03:38Z</time>
      </trkpt>
      <trkpt lat="43.88179" lon="7.11472">
        <ele>553.8</ele>
        <time>2016-01-23T14:03:42Z</time>
      </trkpt>
      <trkpt lat="43.88169" lon="7.11473">
        <ele>553.7</ele>
        <time>2016-01-23T14:03:45Z</time>
      </trkpt>
      <trkpt lat="43.88159" lon="7.11476">
        <ele>553.3</ele>
        <time>2016-01-23T14:03:49Z</time>
      </trkpt>
      <trkpt lat="43.8815" lon="7.11482">
        <ele>554.8</ele>
        <time>2016-01-23T14:03:53Z</time>
      </trkpt>
      <trkpt lat="43.88145" lon="7.11495">
        <ele>554</ele>
        <time>2016-01-23T14:03:57Z</time>
      </trkpt>
      <trkpt lat="43.88142" lon="7.11509">
        <ele>553.8</ele>
        <time>2016-01-23T14:04:01Z</time>
      </trkpt>
      <trkpt lat="43.88133" lon="7.11518">
        <ele>554.8</ele>
        <time>2016-01-23T14:04:05Z</time>
      </trkpt>
      <trkpt lat="43.88122" lon="7.1152">
        <ele>556.6</ele>
        <time>2016-01-23T14:04:10Z</time>
      </trkpt>
      <trkpt lat="43.88112" lon="7.11523">
        <ele>557</ele>
        <time>2016-01-23T14:04:15Z</time>
      </trkpt>
      <trkpt lat="43.88103" lon="7.11526">
        <ele>557.7</ele>
        <time>2016-01-23T14:04:20Z</time>
      </trkpt>
      <trkpt lat="43.88092" lon="7.11528">
        <ele>558.5</ele>
        <time>2016-01-23T14:04:25Z</time>
      </trkpt>
      <trkpt lat="43.8808" lon="7.11531">
        <ele>557.8</ele>
        <time>2016-01-23T14:04:29Z</time>
      </trkpt>
      <trkpt lat="43.88072" lon="7.11537">
        <ele>556.2</ele>
        <time>2016-01-23T14:04:37Z</time>
      </trkpt>
      <trkpt lat="43.88064" lon="7.11544">
        <ele>554.9</ele>
        <time>2016-01-23T14:04:42Z</time>
      </trkpt>
      <trkpt lat="43.88055" lon="7.11551">
        <ele>552.9</ele>
        <time>2016-01-23T14:04:46Z</time>
      </trkpt>
      <trkpt lat="43.88045" lon="7.11555">
        <ele>551.6</ele>
        <time>2016-01-23T14:04:50Z</time>
      </trkpt>
      <trkpt lat="43.88037" lon="7.11561">
        <ele>548.2</ele>
        <time>2016-01-23T14:04:57Z</time>
      </trkpt>
      <trkpt lat="43.88028" lon="7.11564">
        <ele>546</ele>
        <time>2016-01-23T14:05:09Z</time>
      </trkpt>
      <trkpt lat="43.88018" lon="7.11567">
        <ele>545.6</ele>
        <time>2016-01-23T14:05:46Z</time>
      </trkpt>
      <trkpt lat="43.88007" lon="7.11569">
        <ele>542.5</ele>
        <time>2016-01-23T14:05:50Z</time>
      </trkpt>
      <trkpt lat="43.87996" lon="7.1157">
        <ele>538.6</ele>
        <time>2016-01-23T14:06:10Z</time>
      </trkpt>
      <trkpt lat="43.87987" lon="7.1157">
        <ele>534.3</ele>
        <time>2016-01-23T14:06:17Z</time>
      </trkpt>
      <trkpt lat="43.87978" lon="7.11561">
        <ele>529.8</ele>
        <time>2016-01-23T14:06:27Z</time>
      </trkpt>
      <trkpt lat="43.87967" lon="7.11568">
        <ele>527.9</ele>
        <time>2016-01-23T14:06:30Z</time>
      </trkpt>
      <trkpt lat="43.87954" lon="7.1157">
        <ele>525.1</ele>
        <time>2016-01-23T14:06:33Z</time>
      </trkpt>
      <trkpt lat="43.87942" lon="7.11572">
        <ele>521.3</ele>
        <time>2016-01-23T14:06:36Z</time>
      </trkpt>
      <trkpt lat="43.87931" lon="7.11577">
        <ele>517.4</ele>
        <time>2016-01-23T14:06:40Z</time>
      </trkpt>
      <trkpt lat="43.87923" lon="7.11587">
        <ele>515</ele>
        <time>2016-01-23T14:06:43Z</time>
      </trkpt>
      <trkpt lat="43.87913" lon="7.11596">
        <ele>511.6</ele>
        <time>2016-01-23T14:06:48Z</time>
      </trkpt>
      <trkpt lat="43.87902" lon="7.116">
        <ele>508.7</ele>
        <time>2016-01-23T14:06:51Z</time>
      </trkpt>
      <trkpt lat="43.87892" lon="7.11605">
        <ele>507</ele>
        <time>2016-01-23T14:06:54Z</time>
      </trkpt>
      <trkpt lat="43.87882" lon="7.116">
        <ele>502.3</ele>
        <time>2016-01-23T14:07:00Z</time>
      </trkpt>
      <trkpt lat="43.8787" lon="7.11606">
        <ele>499.3</ele>
        <time>2016-01-23T14:07:03Z</time>
      </trkpt>
      <trkpt lat="43.87859" lon="7.1161">
        <ele>496.7</ele>
        <time>2016-01-23T14:07:05Z</time>
      </trkpt>
      <trkpt lat="43.8785" lon="7.11615">
        <ele>494.2</ele>
        <time>2016-01-23T14:07:07Z</time>
      </trkpt>
      <trkpt lat="43.87839" lon="7.11621">
        <ele>490.2</ele>
        <time>2016-01-23T14:07:10Z</time>
      </trkpt>
      <trkpt lat="43.87827" lon="7.11615">
        <ele>486</ele>
        <time>2016-01-23T14:07:13Z</time>
      </trkpt>
      <trkpt lat="43.87818" lon="7.11614">
        <ele>483.7</ele>
        <time>2016-01-23T14:07:15Z</time>
      </trkpt>
      <trkpt lat="43.87807" lon="7.11617">
        <ele>479.8</ele>
        <time>2016-01-23T14:07:18Z</time>
      </trkpt>
      <trkpt lat="43.87797" lon="7.11622">
        <ele>474.6</ele>
        <time>2016-01-23T14:07:22Z</time>
      </trkpt>
      <trkpt lat="43.87787" lon="7.11629">
        <ele>471.6</ele>
        <time>2016-01-23T14:07:26Z</time>
      </trkpt>
      <trkpt lat="43.87775" lon="7.11635">
        <ele>468.2</ele>
        <time>2016-01-23T14:07:29Z</time>
      </trkpt>
      <trkpt lat="43.87766" lon="7.11642">
        <ele>466.1</ele>
        <time>2016-01-23T14:07:31Z</time>
      </trkpt>
      <trkpt lat="43.87758" lon="7.1165">
        <ele>464.5</ele>
        <time>2016-01-23T14:07:33Z</time>
      </trkpt>
      <trkpt lat="43.87748" lon="7.1166">
        <ele>461.8</ele>
        <time>2016-01-23T14:07:36Z</time>
      </trkpt>
      <trkpt lat="43.87738" lon="7.11665">
        <ele>460.2</ele>
        <time>2016-01-23T14:07:39Z</time>
      </trkpt>
      <trkpt lat="43.87727" lon="7.1167">
        <ele>459.5</ele>
        <time>2016-01-23T14:07:42Z</time>
      </trkpt>
      <trkpt lat="43.87719" lon="7.11677">
        <ele>459.2</ele>
        <time>2016-01-23T14:07:45Z</time>
      </trkpt>
      <trkpt lat="43.87706" lon="7.11685">
        <ele>457.9</ele>
        <time>2016-01-23T14:07:48Z</time>
      </trkpt>
      <trkpt lat="43.87697" lon="7.11685">
        <ele>456.7</ele>
        <time>2016-01-23T14:07:50Z</time>
      </trkpt>
      <trkpt lat="43.87687" lon="7.11688">
        <ele>454.7</ele>
        <time>2016-01-23T14:07:54Z</time>
      </trkpt>
      <trkpt lat="43.87685" lon="7.11701">
        <ele>449.4</ele>
        <time>2016-01-23T14:08:03Z</time>
      </trkpt>
      <trkpt lat="43.87679" lon="7.11714">
        <ele>446.1</ele>
        <time>2016-01-23T14:08:08Z</time>
      </trkpt>
      <trkpt lat="43.87675" lon="7.11727">
        <ele>440.5</ele>
        <time>2016-01-23T14:08:15Z</time>
      </trkpt>
      <trkpt lat="43.8767" lon="7.11737">
        <ele>435.9</ele>
        <time>2016-01-23T14:08:34Z</time>
      </trkpt>
      <trkpt lat="43.8766" lon="7.11735">
        <ele>432.9</ele>
        <time>2016-01-23T14:09:30Z</time>
      </trkpt>
      <trkpt lat="43.87653" lon="7.11725">
        <ele>428.1</ele>
        <time>2016-01-23T14:09:35Z</time>
      </trkpt>
      <trkpt lat="43.87644" lon="7.1172">
        <ele>424</ele>
        <time>2016-01-23T14:09:40Z</time>
      </trkpt>
      <trkpt lat="43.87635" lon="7.11721">
        <ele>418.2</ele>
        <time>2016-01-23T14:10:06Z</time>
      </trkpt>
      <trkpt lat="43.87636" lon="7.11733">
        <ele>419</ele>
        <time>2016-01-23T14:11:31Z</time>
      </trkpt>
      <trkpt lat="43.87643" lon="7.11725">
        <ele>418.1</ele>
        <time>2016-01-23T14:12:03Z</time>
      </trkpt>
      <trkpt lat="43.87637" lon="7.11715">
        <ele>418.9</ele>
        <time>2016-01-23T14:12:12Z</time>
      </trkpt>
      <trkpt lat="43.87628" lon="7.1171">
        <ele>418.3</ele>
        <time>2016-01-23T14:12:22Z</time>
      </trkpt>
      <trkpt lat="43.87619" lon="7.11714">
        <ele>418.6</ele>
        <time>2016-01-23T14:12:34Z</time>
      </trkpt>
      <trkpt lat="43.8762" lon="7.11728">
        <ele>421.1</ele>
        <time>2016-01-23T14:12:47Z</time>
      </trkpt>
      <trkpt lat="43.87625" lon="7.11738">
        <ele>422</ele>
        <time>2016-01-23T14:12:57Z</time>
      </trkpt>
      <trkpt lat="43.8763" lon="7.11749">
        <ele>424.3</ele>
        <time>2016-01-23T14:13:16Z</time>
      </trkpt>
      <trkpt lat="43.87632" lon="7.11762">
        <ele>425.1</ele>
        <time>2016-01-23T14:14:32Z</time>
      </trkpt>
      <trkpt lat="43.87629" lon="7.11774">
        <ele>426.2</ele>
        <time>2016-01-23T14:14:46Z</time>
      </trkpt>
      <trkpt lat="43.87624" lon="7.11785">
        <ele>428.2</ele>
        <time>2016-01-23T14:14:58Z</time>
      </trkpt>
      <trkpt lat="43.87624" lon="7.11798">
        <ele>430.8</ele>
        <time>2016-01-23T14:15:14Z</time>
      </trkpt>
      <trkpt lat="43.87617" lon="7.11804">
        <ele>431.5</ele>
        <time>2016-01-23T14:15:37Z</time>
      </trkpt>
      <trkpt lat="43.8761" lon="7.11814">
        <ele>432.2</ele>
        <time>2016-01-23T14:15:54Z</time>
      </trkpt>
      <trkpt lat="43.87601" lon="7.11819">
        <ele>432.5</ele>
        <time>2016-01-23T14:16:04Z</time>
      </trkpt>
      <trkpt lat="43.87592" lon="7.11822">
        <ele>434.8</ele>
        <time>2016-01-23T14:16:28Z</time>
      </trkpt>
      <trkpt lat="43.87583" lon="7.11823">
        <ele>434.1</ele>
        <time>2016-01-23T14:16:34Z</time>
      </trkpt>
      <trkpt lat="43.87572" lon="7.11822">
        <ele>435.8</ele>
        <time>2016-01-23T14:16:39Z</time>
      </trkpt>
      <trkpt lat="43.87563" lon="7.11818">
        <ele>438.9</ele>
        <time>2016-01-23T14:16:45Z</time>
      </trkpt>
      <trkpt lat="43.87552" lon="7.11814">
        <ele>440.1</ele>
        <time>2016-01-23T14:16:51Z</time>
      </trkpt>
      <trkpt lat="43.87543" lon="7.11815">
        <ele>440.8</ele>
        <time>2016-01-23T14:16:55Z</time>
      </trkpt>
      <trkpt lat="43.87534" lon="7.11815">
        <ele>440.4</ele>
        <time>2016-01-23T14:16:58Z</time>
      </trkpt>
      <trkpt lat="43.87524" lon="7.11816">
        <ele>439.7</ele>
        <time>2016-01-23T14:17:01Z</time>
      </trkpt>
      <trkpt lat="43.87513" lon="7.11817">
        <ele>439.6</ele>
        <time>2016-01-23T14:17:05Z</time>
      </trkpt>
      <trkpt lat="43.87502" lon="7.11818">
        <ele>439.8</ele>
        <time>2016-01-23T14:17:09Z</time>
      </trkpt>
      <trkpt lat="43.87492" lon="7.1182">
        <ele>439.1</ele>
        <time>2016-01-23T14:17:13Z</time>
      </trkpt>
      <trkpt lat="43.87481" lon="7.11821">
        <ele>438.3</ele>
        <time>2016-01-23T14:17:17Z</time>
      </trkpt>
      <trkpt lat="43.87469" lon="7.11822">
        <ele>438.7</ele>
        <time>2016-01-23T14:17:20Z</time>
      </trkpt>
      <trkpt lat="43.87458" lon="7.11822">
        <ele>437.9</ele>
        <time>2016-01-23T14:17:23Z</time>
      </trkpt>
      <trkpt lat="43.87448" lon="7.11828">
        <ele>439.1</ele>
        <time>2016-01-23T14:17:27Z</time>
      </trkpt>
      <trkpt lat="43.87439" lon="7.11829">
        <ele>439.2</ele>
        <time>2016-01-23T14:17:33Z</time>
      </trkpt>
      <trkpt lat="43.8743" lon="7.11825">
        <ele>440.4</ele>
        <time>2016-01-23T14:17:38Z</time>
      </trkpt>
      <trkpt lat="43.87421" lon="7.11819">
        <ele>442.7</ele>
        <time>2016-01-23T14:17:47Z</time>
      </trkpt>
      <trkpt lat="43.87413" lon="7.11816">
        <ele>443.5</ele>
        <time>2016-01-23T14:17:57Z</time>
      </trkpt>
      <trkpt lat="43.87404" lon="7.11811">
        <ele>445.8</ele>
        <time>2016-01-23T14:18:14Z</time>
      </trkpt>
      <trkpt lat="43.87394" lon="7.1181">
        <ele>447.6</ele>
        <time>2016-01-23T14:18:27Z</time>
      </trkpt>
      <trkpt lat="43.87385" lon="7.11808">
        <ele>450.1</ele>
        <time>2016-01-23T14:18:42Z</time>
      </trkpt>
      <trkpt lat="43.87376" lon="7.11807">
        <ele>451.9</ele>
        <time>2016-01-23T14:18:56Z</time>
      </trkpt>
      <trkpt lat="43.87366" lon="7.11804">
        <ele>455</ele>
        <time>2016-01-23T14:19:10Z</time>
      </trkpt>
      <trkpt lat="43.87357" lon="7.11803">
        <ele>457.4</ele>
        <time>2016-01-23T14:19:23Z</time>
      </trkpt>
      <trkpt lat="43.87347" lon="7.11806">
        <ele>459.2</ele>
        <time>2016-01-23T14:19:40Z</time>
      </trkpt>
      <trkpt lat="43.87338" lon="7.11807">
        <ele>460.4</ele>
        <time>2016-01-23T14:19:47Z</time>
      </trkpt>
      <trkpt lat="43.87329" lon="7.1181">
        <ele>462.5</ele>
        <time>2016-01-23T14:20:16Z</time>
      </trkpt>
      <trkpt lat="43.8732" lon="7.11811">
        <ele>464.2</ele>
        <time>2016-01-23T14:20:28Z</time>
      </trkpt>
      <trkpt lat="43.87311" lon="7.11808">
        <ele>466.8</ele>
        <time>2016-01-23T14:20:38Z</time>
      </trkpt>
      <trkpt lat="43.87302" lon="7.11805">
        <ele>469.2</ele>
        <time>2016-01-23T14:20:51Z</time>
      </trkpt>
      <trkpt lat="43.87293" lon="7.11805">
        <ele>471.2</ele>
        <time>2016-01-23T14:21:04Z</time>
      </trkpt>
      <trkpt lat="43.87283" lon="7.11802">
        <ele>473.8</ele>
        <time>2016-01-23T14:21:29Z</time>
      </trkpt>
      <trkpt lat="43.87275" lon="7.11799">
        <ele>477.6</ele>
        <time>2016-01-23T14:21:45Z</time>
      </trkpt>
      <trkpt lat="43.87265" lon="7.11797">
        <ele>479.8</ele>
        <time>2016-01-23T14:21:58Z</time>
      </trkpt>
      <trkpt lat="43.87256" lon="7.11795">
        <ele>481.6</ele>
        <time>2016-01-23T14:22:10Z</time>
      </trkpt>
      <trkpt lat="43.87247" lon="7.11795">
        <ele>483</ele>
        <time>2016-01-23T14:22:21Z</time>
      </trkpt>
      <trkpt lat="43.87237" lon="7.11795">
        <ele>484.5</ele>
        <time>2016-01-23T14:22:32Z</time>
      </trkpt>
      <trkpt lat="43.87228" lon="7.11797">
        <ele>485.8</ele>
        <time>2016-01-23T14:22:43Z</time>
      </trkpt>
      <trkpt lat="43.87219" lon="7.11797">
        <ele>489</ele>
        <time>2016-01-23T14:22:55Z</time>
      </trkpt>
      <trkpt lat="43.8721" lon="7.11797">
        <ele>491.4</ele>
        <time>2016-01-23T14:23:07Z</time>
      </trkpt>
      <trkpt lat="43.87201" lon="7.11802">
        <ele>493.9</ele>
        <time>2016-01-23T14:25:45Z</time>
      </trkpt>
      <trkpt lat="43.87195" lon="7.11792">
        <ele>491.3</ele>
        <time>2016-01-23T14:27:35Z</time>
      </trkpt>
      <trkpt lat="43.87188" lon="7.11784">
        <ele>490.4</ele>
        <time>2016-01-23T14:27:38Z</time>
      </trkpt>
      <trkpt lat="43.87178" lon="7.11777">
        <ele>490</ele>
        <time>2016-01-23T14:27:41Z</time>
      </trkpt>
      <trkpt lat="43.87168" lon="7.11769">
        <ele>487.8</ele>
        <time>2016-01-23T14:27:44Z</time>
      </trkpt>
      <trkpt lat="43.87156" lon="7.11763">
        <ele>487.2</ele>
        <time>2016-01-23T14:27:47Z</time>
      </trkpt>
      <trkpt lat="43.87146" lon="7.11756">
        <ele>485.4</ele>
        <time>2016-01-23T14:27:50Z</time>
      </trkpt>
      <trkpt lat="43.87143" lon="7.11743">
        <ele>483.7</ele>
        <time>2016-01-23T14:27:54Z</time>
      </trkpt>
      <trkpt lat="43.87141" lon="7.11729">
        <ele>482.8</ele>
        <time>2016-01-23T14:27:59Z</time>
      </trkpt>
      <trkpt lat="43.87139" lon="7.11715">
        <ele>482.4</ele>
        <time>2016-01-23T14:28:03Z</time>
      </trkpt>
      <trkpt lat="43.87138" lon="7.117">
        <ele>482.6</ele>
        <time>2016-01-23T14:28:07Z</time>
      </trkpt>
      <trkpt lat="43.87135" lon="7.11687">
        <ele>483.2</ele>
        <time>2016-01-23T14:28:11Z</time>
      </trkpt>
      <trkpt lat="43.87131" lon="7.11675">
        <ele>483.4</ele>
        <time>2016-01-23T14:28:14Z</time>
      </trkpt>
      <trkpt lat="43.87124" lon="7.11663">
        <ele>482.5</ele>
        <time>2016-01-23T14:28:18Z</time>
      </trkpt>
      <trkpt lat="43.87116" lon="7.11654">
        <ele>483.2</ele>
        <time>2016-01-23T14:28:22Z</time>
      </trkpt>
      <trkpt lat="43.87106" lon="7.11647">
        <ele>483.3</ele>
        <time>2016-01-23T14:28:26Z</time>
      </trkpt>
      <trkpt lat="43.87098" lon="7.11641">
        <ele>485.3</ele>
        <time>2016-01-23T14:28:31Z</time>
      </trkpt>
      <trkpt lat="43.87089" lon="7.11635">
        <ele>486.5</ele>
        <time>2016-01-23T14:28:36Z</time>
      </trkpt>
      <trkpt lat="43.87084" lon="7.11623">
        <ele>487.9</ele>
        <time>2016-01-23T14:28:42Z</time>
      </trkpt>
      <trkpt lat="43.87081" lon="7.11611">
        <ele>488.6</ele>
        <time>2016-01-23T14:28:48Z</time>
      </trkpt>
      <trkpt lat="43.87071" lon="7.11613">
        <ele>489.9</ele>
        <time>2016-01-23T14:28:52Z</time>
      </trkpt>
      <trkpt lat="43.87062" lon="7.11608">
        <ele>489.1</ele>
        <time>2016-01-23T14:28:59Z</time>
      </trkpt>
      <trkpt lat="43.87053" lon="7.11606">
        <ele>491.4</ele>
        <time>2016-01-23T14:29:11Z</time>
      </trkpt>
      <trkpt lat="43.87044" lon="7.11605">
        <ele>492</ele>
        <time>2016-01-23T14:29:24Z</time>
      </trkpt>
      <trkpt lat="43.87035" lon="7.11605">
        <ele>494.3</ele>
        <time>2016-01-23T14:29:36Z</time>
      </trkpt>
      <trkpt lat="43.87025" lon="7.11602">
        <ele>494.4</ele>
        <time>2016-01-23T14:29:50Z</time>
      </trkpt>
      <trkpt lat="43.87016" lon="7.11598">
        <ele>495.8</ele>
        <time>2016-01-23T14:29:56Z</time>
      </trkpt>
      <trkpt lat="43.87007" lon="7.11593">
        <ele>495.5</ele>
        <time>2016-01-23T14:30:00Z</time>
      </trkpt>
      <trkpt lat="43.86998" lon="7.11587">
        <ele>496</ele>
        <time>2016-01-23T14:30:05Z</time>
      </trkpt>
      <trkpt lat="43.8699" lon="7.11579">
        <ele>496.7</ele>
        <time>2016-01-23T14:30:10Z</time>
      </trkpt>
      <trkpt lat="43.86983" lon="7.1157">
        <ele>496.7</ele>
        <time>2016-01-23T14:30:16Z</time>
      </trkpt>
      <trkpt lat="43.86976" lon="7.11561">
        <ele>499.8</ele>
        <time>2016-01-23T14:30:23Z</time>
      </trkpt>
      <trkpt lat="43.86968" lon="7.11554">
        <ele>501.9</ele>
        <time>2016-01-23T14:30:33Z</time>
      </trkpt>
      <trkpt lat="43.8696" lon="7.11546">
        <ele>504.8</ele>
        <time>2016-01-23T14:30:41Z</time>
      </trkpt>
      <trkpt lat="43.86953" lon="7.11555">
        <ele>505.2</ele>
        <time>2016-01-23T14:30:51Z</time>
      </trkpt>
      <trkpt lat="43.86945" lon="7.11562">
        <ele>505.4</ele>
        <time>2016-01-23T14:30:58Z</time>
      </trkpt>
      <trkpt lat="43.86937" lon="7.11568">
        <ele>505.2</ele>
        <time>2016-01-23T14:31:05Z</time>
      </trkpt>
      <trkpt lat="43.86927" lon="7.1157">
        <ele>506.9</ele>
        <time>2016-01-23T14:31:13Z</time>
      </trkpt>
      <trkpt lat="43.86921" lon="7.1158">
        <ele>510.3</ele>
        <time>2016-01-23T14:31:28Z</time>
      </trkpt>
      <trkpt lat="43.86912" lon="7.11585">
        <ele>511.5</ele>
        <time>2016-01-23T14:31:43Z</time>
      </trkpt>
      <trkpt lat="43.86904" lon="7.1159">
        <ele>513.4</ele>
        <time>2016-01-23T14:31:59Z</time>
      </trkpt>
      <trkpt lat="43.86895" lon="7.11593">
        <ele>516.9</ele>
        <time>2016-01-23T14:32:13Z</time>
      </trkpt>
      <trkpt lat="43.86887" lon="7.11598">
        <ele>517.2</ele>
        <time>2016-01-23T14:32:24Z</time>
      </trkpt>
      <trkpt lat="43.86878" lon="7.11604">
        <ele>519.2</ele>
        <time>2016-01-23T14:32:35Z</time>
      </trkpt>
      <trkpt lat="43.86869" lon="7.11608">
        <ele>519.5</ele>
        <time>2016-01-23T14:32:47Z</time>
      </trkpt>
      <trkpt lat="43.86859" lon="7.11611">
        <ele>520.8</ele>
        <time>2016-01-23T14:32:54Z</time>
      </trkpt>
      <trkpt lat="43.86849" lon="7.11613">
        <ele>521.9</ele>
        <time>2016-01-23T14:33:00Z</time>
      </trkpt>
      <trkpt lat="43.8684" lon="7.11618">
        <ele>523.6</ele>
        <time>2016-01-23T14:33:08Z</time>
      </trkpt>
      <trkpt lat="43.8683" lon="7.11622">
        <ele>525.2</ele>
        <time>2016-01-23T14:33:15Z</time>
      </trkpt>
      <trkpt lat="43.86822" lon="7.11627">
        <ele>527.2</ele>
        <time>2016-01-23T14:33:26Z</time>
      </trkpt>
      <trkpt lat="43.86813" lon="7.11627">
        <ele>528.8</ele>
        <time>2016-01-23T14:33:39Z</time>
      </trkpt>
      <trkpt lat="43.86803" lon="7.11627">
        <ele>530.5</ele>
        <time>2016-01-23T14:33:53Z</time>
      </trkpt>
      <trkpt lat="43.86793" lon="7.11627">
        <ele>532.3</ele>
        <time>2016-01-23T14:34:16Z</time>
      </trkpt>
      <trkpt lat="43.86784" lon="7.11632">
        <ele>531.4</ele>
        <time>2016-01-23T14:34:20Z</time>
      </trkpt>
      <trkpt lat="43.86774" lon="7.11637">
        <ele>531.6</ele>
        <time>2016-01-23T14:34:25Z</time>
      </trkpt>
      <trkpt lat="43.86766" lon="7.11645">
        <ele>531</ele>
        <time>2016-01-23T14:34:30Z</time>
      </trkpt>
      <trkpt lat="43.86757" lon="7.11651">
        <ele>531.2</ele>
        <time>2016-01-23T14:34:35Z</time>
      </trkpt>
      <trkpt lat="43.86748" lon="7.11658">
        <ele>529.9</ele>
        <time>2016-01-23T14:34:38Z</time>
      </trkpt>
      <trkpt lat="43.86738" lon="7.11662">
        <ele>528.6</ele>
        <time>2016-01-23T14:34:42Z</time>
      </trkpt>
      <trkpt lat="43.86728" lon="7.11667">
        <ele>529.3</ele>
        <time>2016-01-23T14:34:47Z</time>
      </trkpt>
      <trkpt lat="43.8672" lon="7.11673">
        <ele>530.6</ele>
        <time>2016-01-23T14:34:54Z</time>
      </trkpt>
      <trkpt lat="43.8671" lon="7.11673">
        <ele>529.3</ele>
        <time>2016-01-23T14:39:27Z</time>
      </trkpt>
      <trkpt lat="43.86703" lon="7.11663">
        <ele>527.9</ele>
        <time>2016-01-23T14:39:31Z</time>
      </trkpt>
      <trkpt lat="43.86696" lon="7.11649">
        <ele>526.7</ele>
        <time>2016-01-23T14:39:34Z</time>
      </trkpt>
      <trkpt lat="43.8669" lon="7.11634">
        <ele>525.1</ele>
        <time>2016-01-23T14:39:37Z</time>
      </trkpt>
      <trkpt lat="43.86682" lon="7.1162">
        <ele>523</ele>
        <time>2016-01-23T14:39:40Z</time>
      </trkpt>
      <trkpt lat="43.86678" lon="7.11606">
        <ele>521.6</ele>
        <time>2016-01-23T14:39:42Z</time>
      </trkpt>
      <trkpt lat="43.86674" lon="7.11594">
        <ele>519.8</ele>
        <time>2016-01-23T14:39:44Z</time>
      </trkpt>
      <trkpt lat="43.86669" lon="7.1158">
        <ele>516.6</ele>
        <time>2016-01-23T14:39:47Z</time>
      </trkpt>
      <trkpt lat="43.86663" lon="7.11565">
        <ele>512.9</ele>
        <time>2016-01-23T14:39:50Z</time>
      </trkpt>
      <trkpt lat="43.8666" lon="7.11549">
        <ele>508.4</ele>
        <time>2016-01-23T14:39:53Z</time>
      </trkpt>
      <trkpt lat="43.86659" lon="7.11536">
        <ele>505.5</ele>
        <time>2016-01-23T14:39:56Z</time>
      </trkpt>
      <trkpt lat="43.86655" lon="7.11521">
        <ele>502.1</ele>
        <time>2016-01-23T14:39:59Z</time>
      </trkpt>
      <trkpt lat="43.86653" lon="7.11506">
        <ele>500.1</ele>
        <time>2016-01-23T14:40:02Z</time>
      </trkpt>
      <trkpt lat="43.86653" lon="7.1149">
        <ele>498</ele>
        <time>2016-01-23T14:40:05Z</time>
      </trkpt>
      <trkpt lat="43.86654" lon="7.11477">
        <ele>496.9</ele>
        <time>2016-01-23T14:40:07Z</time>
      </trkpt>
      <trkpt lat="43.86656" lon="7.11461">
        <ele>495.9</ele>
        <time>2016-01-23T14:40:10Z</time>
      </trkpt>
      <trkpt lat="43.86656" lon="7.11448">
        <ele>494.6</ele>
        <time>2016-01-23T14:40:12Z</time>
      </trkpt>
      <trkpt lat="43.86659" lon="7.11431">
        <ele>492.7</ele>
        <time>2016-01-23T14:40:15Z</time>
      </trkpt>
      <trkpt lat="43.86657" lon="7.11415">
        <ele>490.5</ele>
        <time>2016-01-23T14:40:18Z</time>
      </trkpt>
      <trkpt lat="43.86655" lon="7.11403">
        <ele>488.9</ele>
        <time>2016-01-23T14:40:20Z</time>
      </trkpt>
      <trkpt lat="43.86654" lon="7.11391">
        <ele>485.3</ele>
        <time>2016-01-23T14:40:31Z</time>
      </trkpt>
      <trkpt lat="43.86656" lon="7.11377">
        <ele>484.5</ele>
        <time>2016-01-23T14:40:36Z</time>
      </trkpt>
      <trkpt lat="43.86664" lon="7.11366">
        <ele>483.1</ele>
        <time>2016-01-23T14:40:41Z</time>
      </trkpt>
      <trkpt lat="43.86671" lon="7.11358">
        <ele>483.4</ele>
        <time>2016-01-23T14:40:46Z</time>
      </trkpt>
      <trkpt lat="43.86667" lon="7.11345">
        <ele>479.4</ele>
        <time>2016-01-23T14:40:59Z</time>
      </trkpt>
      <trkpt lat="43.86659" lon="7.11334">
        <ele>476.2</ele>
        <time>2016-01-23T14:41:05Z</time>
      </trkpt>
      <trkpt lat="43.86651" lon="7.11323">
        <ele>473.8</ele>
        <time>2016-01-23T14:41:09Z</time>
      </trkpt>
      <trkpt lat="43.8665" lon="7.11308">
        <ele>471.7</ele>
        <time>2016-01-23T14:41:13Z</time>
      </trkpt>
      <trkpt lat="43.8665" lon="7.11294">
        <ele>469.6</ele>
        <time>2016-01-23T14:41:17Z</time>
      </trkpt>
      <trkpt lat="43.86645" lon="7.11282">
        <ele>464.8</ele>
        <time>2016-01-23T14:41:24Z</time>
      </trkpt>
      <trkpt lat="43.86635" lon="7.11278">
        <ele>461.3</ele>
        <time>2016-01-23T14:41:31Z</time>
      </trkpt>
      <trkpt lat="43.86628" lon="7.11271">
        <ele>458.4</ele>
        <time>2016-01-23T14:41:36Z</time>
      </trkpt>
      <trkpt lat="43.86628" lon="7.11255">
        <ele>455.5</ele>
        <time>2016-01-23T14:41:39Z</time>
      </trkpt>
      <trkpt lat="43.86625" lon="7.11239">
        <ele>451.7</ele>
        <time>2016-01-23T14:41:42Z</time>
      </trkpt>
      <trkpt lat="43.86623" lon="7.11227">
        <ele>447.4</ele>
        <time>2016-01-23T14:42:26Z</time>
      </trkpt>
      <trkpt lat="43.8662" lon="7.11213">
        <ele>445.5</ele>
        <time>2016-01-23T14:42:32Z</time>
      </trkpt>
      <trkpt lat="43.86611" lon="7.11207">
        <ele>442.9</ele>
        <time>2016-01-23T14:42:39Z</time>
      </trkpt>
      <trkpt lat="43.86609" lon="7.11192">
        <ele>441.1</ele>
        <time>2016-01-23T14:42:48Z</time>
      </trkpt>
      <trkpt lat="43.86612" lon="7.11176">
        <ele>438.5</ele>
        <time>2016-01-23T14:42:52Z</time>
      </trkpt>
      <trkpt lat="43.86614" lon="7.11162">
        <ele>436.1</ele>
        <time>2016-01-23T14:42:56Z</time>
      </trkpt>
      <trkpt lat="43.86617" lon="7.1115">
        <ele>431.7</ele>
        <time>2016-01-23T14:43:01Z</time>
      </trkpt>
      <trkpt lat="43.86615" lon="7.11136">
        <ele>425.2</ele>
        <time>2016-01-23T14:43:20Z</time>
      </trkpt>
      <trkpt lat="43.8662" lon="7.11123">
        <ele>422.7</ele>
        <time>2016-01-23T14:43:26Z</time>
      </trkpt>
      <trkpt lat="43.86611" lon="7.11119">
        <ele>418.2</ele>
        <time>2016-01-23T14:43:33Z</time>
      </trkpt>
      <trkpt lat="43.86605" lon="7.11109">
        <ele>409.7</ele>
        <time>2016-01-23T14:43:48Z</time>
      </trkpt>
      <trkpt lat="43.86607" lon="7.11095">
        <ele>408</ele>
        <time>2016-01-23T14:43:54Z</time>
      </trkpt>
      <trkpt lat="43.86612" lon="7.11083">
        <ele>406.3</ele>
        <time>2016-01-23T14:43:57Z</time>
      </trkpt>
      <trkpt lat="43.86616" lon="7.11068">
        <ele>402.9</ele>
        <time>2016-01-23T14:44:01Z</time>
      </trkpt>
      <trkpt lat="43.86613" lon="7.11056">
        <ele>397</ele>
        <time>2016-01-23T14:44:10Z</time>
      </trkpt>
      <trkpt lat="43.86616" lon="7.11044">
        <ele>394</ele>
        <time>2016-01-23T14:44:16Z</time>
      </trkpt>
      <trkpt lat="43.86622" lon="7.11034">
        <ele>391.4</ele>
        <time>2016-01-23T14:44:20Z</time>
      </trkpt>
      <trkpt lat="43.8663" lon="7.11027">
        <ele>388.4</ele>
        <time>2016-01-23T14:44:24Z</time>
      </trkpt>
      <trkpt lat="43.86626" lon="7.11016">
        <ele>383.6</ele>
        <time>2016-01-23T14:44:31Z</time>
      </trkpt>
      <trkpt lat="43.86621" lon="7.11004">
        <ele>378.4</ele>
        <time>2016-01-23T14:44:47Z</time>
      </trkpt>
      <trkpt lat="43.8661" lon="7.11">
        <ele>375.9</ele>
        <time>2016-01-23T14:44:52Z</time>
      </trkpt>
      <trkpt lat="43.86601" lon="7.11">
        <ele>374.1</ele>
        <time>2016-01-23T14:44:55Z</time>
      </trkpt>
      <trkpt lat="43.8659" lon="7.11004">
        <ele>369.8</ele>
        <time>2016-01-23T14:44:59Z</time>
      </trkpt>
      <trkpt lat="43.86579" lon="7.11008">
        <ele>366</ele>
        <time>2016-01-23T14:45:03Z</time>
      </trkpt>
      <trkpt lat="43.8657" lon="7.11014">
        <ele>363.4</ele>
        <time>2016-01-23T14:45:06Z</time>
      </trkpt>
      <trkpt lat="43.86561" lon="7.11019">
        <ele>359.1</ele>
        <time>2016-01-23T14:45:10Z</time>
      </trkpt>
      <trkpt lat="43.86551" lon="7.11021">
        <ele>355.6</ele>
        <time>2016-01-23T14:45:15Z</time>
      </trkpt>
      <trkpt lat="43.86541" lon="7.11023">
        <ele>352.7</ele>
        <time>2016-01-23T14:45:18Z</time>
      </trkpt>
      <trkpt lat="43.86531" lon="7.11026">
        <ele>348.8</ele>
        <time>2016-01-23T14:45:22Z</time>
      </trkpt>
      <trkpt lat="43.86521" lon="7.1103">
        <ele>344.8</ele>
        <time>2016-01-23T14:45:26Z</time>
      </trkpt>
      <trkpt lat="43.86511" lon="7.11033">
        <ele>341.3</ele>
        <time>2016-01-23T14:45:30Z</time>
      </trkpt>
      <trkpt lat="43.86505" lon="7.11022">
        <ele>336.3</ele>
        <time>2016-01-23T14:45:38Z</time>
      </trkpt>
      <trkpt lat="43.86495" lon="7.1102">
        <ele>332.6</ele>
        <time>2016-01-23T14:45:45Z</time>
      </trkpt>
      <trkpt lat="43.86486" lon="7.11019">
        <ele>330.3</ele>
        <time>2016-01-23T14:45:55Z</time>
      </trkpt>
      <trkpt lat="43.86486" lon="7.11006">
        <ele>328.2</ele>
        <time>2016-01-23T14:46:05Z</time>
      </trkpt>
      <trkpt lat="43.86489" lon="7.1099">
        <ele>327.7</ele>
        <time>2016-01-23T14:46:08Z</time>
      </trkpt>
      <trkpt lat="43.86492" lon="7.10976">
        <ele>326.6</ele>
        <time>2016-01-23T14:46:10Z</time>
      </trkpt>
      <trkpt lat="43.86497" lon="7.10963">
        <ele>326.4</ele>
        <time>2016-01-23T14:46:12Z</time>
      </trkpt>
      <trkpt lat="43.86502" lon="7.10951">
        <ele>324.4</ele>
        <time>2016-01-23T14:46:14Z</time>
      </trkpt>
      <trkpt lat="43.86506" lon="7.1094">
        <ele>323</ele>
        <time>2016-01-23T14:46:16Z</time>
      </trkpt>
      <trkpt lat="43.86508" lon="7.10928">
        <ele>320.5</ele>
        <time>2016-01-23T14:46:19Z</time>
      </trkpt>
      <trkpt lat="43.86515" lon="7.10917">
        <ele>318.2</ele>
        <time>2016-01-23T14:46:26Z</time>
      </trkpt>
      <trkpt lat="43.86524" lon="7.10908">
        <ele>318.9</ele>
        <time>2016-01-23T14:46:31Z</time>
      </trkpt>
      <trkpt lat="43.86534" lon="7.10901">
        <ele>319.3</ele>
        <time>2016-01-23T14:46:36Z</time>
      </trkpt>
      <trkpt lat="43.86544" lon="7.10898">
        <ele>319.7</ele>
        <time>2016-01-23T14:46:41Z</time>
      </trkpt>
      <trkpt lat="43.86555" lon="7.10899">
        <ele>321.6</ele>
        <time>2016-01-23T14:46:46Z</time>
      </trkpt>
      <trkpt lat="43.86566" lon="7.10903">
        <ele>321</ele>
        <time>2016-01-23T14:46:51Z</time>
      </trkpt>
      <trkpt lat="43.86576" lon="7.10908">
        <ele>322.2</ele>
        <time>2016-01-23T14:46:56Z</time>
      </trkpt>
      <trkpt lat="43.86586" lon="7.1091">
        <ele>323.3</ele>
        <time>2016-01-23T14:47:01Z</time>
      </trkpt>
      <trkpt lat="43.86596" lon="7.1091">
        <ele>324.3</ele>
        <time>2016-01-23T14:47:05Z</time>
      </trkpt>
      <trkpt lat="43.86605" lon="7.10907">
        <ele>324.2</ele>
        <time>2016-01-23T14:47:09Z</time>
      </trkpt>
      <trkpt lat="43.86615" lon="7.10902">
        <ele>325.3</ele>
        <time>2016-01-23T14:47:14Z</time>
      </trkpt>
      <trkpt lat="43.86622" lon="7.10896">
        <ele>325.4</ele>
        <time>2016-01-23T14:47:18Z</time>
      </trkpt>
      <trkpt lat="43.86629" lon="7.10886">
        <ele>325.9</ele>
        <time>2016-01-23T14:47:22Z</time>
      </trkpt>
      <trkpt lat="43.86633" lon="7.10874">
        <ele>326.8</ele>
        <time>2016-01-23T14:47:26Z</time>
      </trkpt>
      <trkpt lat="43.86634" lon="7.1086">
        <ele>326.6</ele>
        <time>2016-01-23T14:47:30Z</time>
      </trkpt>
      <trkpt lat="43.86634" lon="7.10846">
        <ele>326.2</ele>
        <time>2016-01-23T14:47:34Z</time>
      </trkpt>
      <trkpt lat="43.8663" lon="7.10834">
        <ele>327.5</ele>
        <time>2016-01-23T14:47:38Z</time>
      </trkpt>
      <trkpt lat="43.86621" lon="7.10824">
        <ele>327.8</ele>
        <time>2016-01-23T14:47:43Z</time>
      </trkpt>
      <trkpt lat="43.86612" lon="7.1082">
        <ele>328.5</ele>
        <time>2016-01-23T14:47:47Z</time>
      </trkpt>
      <trkpt lat="43.86603" lon="7.10816">
        <ele>328.7</ele>
        <time>2016-01-23T14:47:51Z</time>
      </trkpt>
      <trkpt lat="43.86594" lon="7.10813">
        <ele>329.7</ele>
        <time>2016-01-23T14:47:55Z</time>
      </trkpt>
      <trkpt lat="43.86585" lon="7.1081">
        <ele>330.5</ele>
        <time>2016-01-23T14:47:59Z</time>
      </trkpt>
      <trkpt lat="43.86575" lon="7.10808">
        <ele>331.3</ele>
        <time>2016-01-23T14:48:04Z</time>
      </trkpt>
      <trkpt lat="43.86564" lon="7.10804">
        <ele>331.6</ele>
        <time>2016-01-23T14:48:09Z</time>
      </trkpt>
      <trkpt lat="43.86554" lon="7.10801">
        <ele>332.6</ele>
        <time>2016-01-23T14:48:14Z</time>
      </trkpt>
      <trkpt lat="43.86545" lon="7.10798">
        <ele>333.3</ele>
        <time>2016-01-23T14:48:18Z</time>
      </trkpt>
      <trkpt lat="43.86536" lon="7.10795">
        <ele>333.8</ele>
        <time>2016-01-23T14:48:22Z</time>
      </trkpt>
      <trkpt lat="43.86527" lon="7.10793">
        <ele>333.9</ele>
        <time>2016-01-23T14:48:26Z</time>
      </trkpt>
      <trkpt lat="43.86517" lon="7.1079">
        <ele>334.3</ele>
        <time>2016-01-23T14:48:30Z</time>
      </trkpt>
      <trkpt lat="43.86508" lon="7.10787">
        <ele>334.8</ele>
        <time>2016-01-23T14:48:34Z</time>
      </trkpt>
      <trkpt lat="43.86499" lon="7.10784">
        <ele>335.3</ele>
        <time>2016-01-23T14:48:38Z</time>
      </trkpt>
      <trkpt lat="43.8649" lon="7.1078">
        <ele>336.5</ele>
        <time>2016-01-23T14:48:42Z</time>
      </trkpt>
      <trkpt lat="43.8648" lon="7.10776">
        <ele>337.2</ele>
        <time>2016-01-23T14:48:46Z</time>
      </trkpt>
      <trkpt lat="43.86471" lon="7.10769">
        <ele>337.9</ele>
        <time>2016-01-23T14:48:50Z</time>
      </trkpt>
      <trkpt lat="43.86464" lon="7.10759">
        <ele>338.2</ele>
        <time>2016-01-23T14:48:54Z</time>
      </trkpt>
      <trkpt lat="43.86435" lon="7.10664">
        <ele>340</ele>
        <time>2016-01-23T14:49:16Z</time>
      </trkpt>
      <trkpt lat="43.86441" lon="7.10645">
        <ele>340.8</ele>
        <time>2016-01-23T14:49:21Z</time>
      </trkpt>
      <trkpt lat="43.86449" lon="7.10634">
        <ele>341.1</ele>
        <time>2016-01-23T14:49:25Z</time>
      </trkpt>
      <trkpt lat="43.86457" lon="7.10627">
        <ele>341.3</ele>
        <time>2016-01-23T14:49:28Z</time>
      </trkpt>
      <trkpt lat="43.86466" lon="7.10623">
        <ele>341.5</ele>
        <time>2016-01-23T14:49:31Z</time>
      </trkpt>
      <trkpt lat="43.86476" lon="7.10619">
        <ele>341.5</ele>
        <time>2016-01-23T14:49:34Z</time>
      </trkpt>
      <trkpt lat="43.86485" lon="7.10614">
        <ele>340.8</ele>
        <time>2016-01-23T14:49:37Z</time>
      </trkpt>
      <trkpt lat="43.86493" lon="7.10608">
        <ele>342</ele>
        <time>2016-01-23T14:49:40Z</time>
      </trkpt>
      <trkpt lat="43.86502" lon="7.10599">
        <ele>341.8</ele>
        <time>2016-01-23T14:49:44Z</time>
      </trkpt>
      <trkpt lat="43.8651" lon="7.10593">
        <ele>341.3</ele>
        <time>2016-01-23T14:49:59Z</time>
      </trkpt>
      <trkpt lat="43.86514" lon="7.10604">
        <ele>341.5</ele>
        <time>2016-01-23T14:50:23Z</time>
      </trkpt>
      <trkpt lat="43.86512" lon="7.10602">
        <ele>341.5</ele>
        <time>2016-01-23T14:51:43Z</time>
      </trkpt>
    </trkseg>
  </trk>
</gpx>